<?xml version="1.0" encoding="UTF-8" standalone="no" ?>
<gpx xmlns="http://www.topografix.com/GPX/1/1" xmlns:xsi="http://www.w3.org/2001/XMLSchema-instance" xsi:schemaLocation="http://www.topografix.com/GPX/1/1 http://www.topografix.com/GPX/1/1/gpx.xsd" version="1.1" creator="VisuGPX - https://www.visugpx.com">
  <metadata>
    <name>lundi 2016 04</name>
    <desc><![CDATA[cumul avril 2016]]></desc>
  </metadata>
  <trk>
    <name><![CDATA[lundi 2016 04 04]]></name>
    <extensions>
      <line xmlns="http://www.topografix.com/GPX/gpx_style/0/2">
        <color>000000</color>
      </line>
    </extensions>
    <trkseg>
      <trkpt lat="48.85743" lon="2.34729">
        <ele>40.400001525879</ele>
        <time>2016-04-04T18:26:30Z</time>
      </trkpt>
      <trkpt lat="48.85742" lon="2.34721">
        <ele>40.400001525879</ele>
        <time>2016-04-04T18:26:34Z</time>
      </trkpt>
      <trkpt lat="48.8574" lon="2.34714">
        <ele>40.400001525879</ele>
        <time>2016-04-04T18:26:38Z</time>
      </trkpt>
      <trkpt lat="48.85737" lon="2.347">
        <ele>40</ele>
        <time>2016-04-04T18:26:49Z</time>
      </trkpt>
      <trkpt lat="48.85719" lon="2.34693">
        <ele>40.599998474121</ele>
        <time>2016-04-04T18:27:00Z</time>
      </trkpt>
      <trkpt lat="48.857" lon="2.34685">
        <ele>40.79999923706</ele>
        <time>2016-04-04T18:27:09Z</time>
      </trkpt>
      <trkpt lat="48.85684" lon="2.34671">
        <ele>41.400001525879</ele>
        <time>2016-04-04T18:27:15Z</time>
      </trkpt>
      <trkpt lat="48.85668" lon="2.34659">
        <ele>42.79999923706</ele>
        <time>2016-04-04T18:27:21Z</time>
      </trkpt>
      <trkpt lat="48.85649" lon="2.34647">
        <ele>44.400001525879</ele>
        <time>2016-04-04T18:27:27Z</time>
      </trkpt>
      <trkpt lat="48.85633" lon="2.34634">
        <ele>45.79999923706</ele>
        <time>2016-04-04T18:27:33Z</time>
      </trkpt>
      <trkpt lat="48.85629" lon="2.34625">
        <ele>46.20000076294</ele>
        <time>2016-04-04T18:27:36Z</time>
      </trkpt>
      <trkpt lat="48.85635" lon="2.34602">
        <ele>46.400001525879</ele>
        <time>2016-04-04T18:27:40Z</time>
      </trkpt>
      <trkpt lat="48.85644" lon="2.34578">
        <ele>48.79999923706</ele>
        <time>2016-04-04T18:27:44Z</time>
      </trkpt>
      <trkpt lat="48.85658" lon="2.34556">
        <ele>49</ele>
        <time>2016-04-04T18:27:48Z</time>
      </trkpt>
      <trkpt lat="48.85667" lon="2.34532">
        <ele>48.599998474121</ele>
        <time>2016-04-04T18:27:52Z</time>
      </trkpt>
      <trkpt lat="48.85671" lon="2.34506">
        <ele>48</ele>
        <time>2016-04-04T18:27:56Z</time>
      </trkpt>
      <trkpt lat="48.85679" lon="2.34475">
        <ele>48</ele>
        <time>2016-04-04T18:28:01Z</time>
      </trkpt>
      <trkpt lat="48.85685" lon="2.34449">
        <ele>48.79999923706</ele>
        <time>2016-04-04T18:28:05Z</time>
      </trkpt>
      <trkpt lat="48.85691" lon="2.34423">
        <ele>49.599998474121</ele>
        <time>2016-04-04T18:28:09Z</time>
      </trkpt>
      <trkpt lat="48.85691" lon="2.34416">
        <ele>49.79999923706</ele>
        <time>2016-04-04T18:28:10Z</time>
      </trkpt>
      <trkpt lat="48.85695" lon="2.34387">
        <ele>46.20000076294</ele>
        <time>2016-04-04T18:28:14Z</time>
      </trkpt>
      <trkpt lat="48.85694" lon="2.34357">
        <ele>42.599998474121</ele>
        <time>2016-04-04T18:28:18Z</time>
      </trkpt>
      <trkpt lat="48.85694" lon="2.3435">
        <ele>41.79999923706</ele>
        <time>2016-04-04T18:28:19Z</time>
      </trkpt>
      <trkpt lat="48.85681" lon="2.34328">
        <ele>40.20000076294</ele>
        <time>2016-04-04T18:28:23Z</time>
      </trkpt>
      <trkpt lat="48.85677" lon="2.34324">
        <ele>40.20000076294</ele>
        <time>2016-04-04T18:28:24Z</time>
      </trkpt>
      <trkpt lat="48.85661" lon="2.3431">
        <ele>40.599998474121</ele>
        <time>2016-04-04T18:28:28Z</time>
      </trkpt>
      <trkpt lat="48.85653" lon="2.34303">
        <ele>40.79999923706</ele>
        <time>2016-04-04T18:28:30Z</time>
      </trkpt>
      <trkpt lat="48.85637" lon="2.34289">
        <ele>41.20000076294</ele>
        <time>2016-04-04T18:28:34Z</time>
      </trkpt>
      <trkpt lat="48.85623" lon="2.3428">
        <ele>41.400001525879</ele>
        <time>2016-04-04T18:28:37Z</time>
      </trkpt>
      <trkpt lat="48.85615" lon="2.34274">
        <ele>41.599998474121</ele>
        <time>2016-04-04T18:28:39Z</time>
      </trkpt>
      <trkpt lat="48.85598" lon="2.3426">
        <ele>41.599998474121</ele>
        <time>2016-04-04T18:28:43Z</time>
      </trkpt>
      <trkpt lat="48.85588" lon="2.34251">
        <ele>41.400001525879</ele>
        <time>2016-04-04T18:28:46Z</time>
      </trkpt>
      <trkpt lat="48.85595" lon="2.34226">
        <ele>42.599998474121</ele>
        <time>2016-04-04T18:28:52Z</time>
      </trkpt>
      <trkpt lat="48.85598" lon="2.34222">
        <ele>43.20000076294</ele>
        <time>2016-04-04T18:28:53Z</time>
      </trkpt>
      <trkpt lat="48.8561" lon="2.3421">
        <ele>45.400001525879</ele>
        <time>2016-04-04T18:28:57Z</time>
      </trkpt>
      <trkpt lat="48.85628" lon="2.34198">
        <ele>46.20000076294</ele>
        <time>2016-04-04T18:29:02Z</time>
      </trkpt>
      <trkpt lat="48.85647" lon="2.34182">
        <ele>47.599998474121</ele>
        <time>2016-04-04T18:29:07Z</time>
      </trkpt>
      <trkpt lat="48.85665" lon="2.34166">
        <ele>49.20000076294</ele>
        <time>2016-04-04T18:29:12Z</time>
      </trkpt>
      <trkpt lat="48.85678" lon="2.34151">
        <ele>48</ele>
        <time>2016-04-04T18:29:17Z</time>
      </trkpt>
      <trkpt lat="48.8568" lon="2.34137">
        <ele>46.20000076294</ele>
        <time>2016-04-04T18:29:20Z</time>
      </trkpt>
      <trkpt lat="48.85672" lon="2.34112">
        <ele>43.599998474121</ele>
        <time>2016-04-04T18:29:27Z</time>
      </trkpt>
      <trkpt lat="48.85663" lon="2.34104">
        <ele>43</ele>
        <time>2016-04-04T18:29:31Z</time>
      </trkpt>
      <trkpt lat="48.85647" lon="2.34089">
        <ele>42</ele>
        <time>2016-04-04T18:29:39Z</time>
      </trkpt>
      <trkpt lat="48.85633" lon="2.34075">
        <ele>42</ele>
        <time>2016-04-04T18:29:51Z</time>
      </trkpt>
      <trkpt lat="48.85627" lon="2.3407">
        <ele>42.599998474121</ele>
        <time>2016-04-04T18:30:00Z</time>
      </trkpt>
      <trkpt lat="48.85624" lon="2.34062">
        <ele>43.20000076294</ele>
        <time>2016-04-04T18:30:07Z</time>
      </trkpt>
      <trkpt lat="48.85626" lon="2.34034">
        <ele>44.79999923706</ele>
        <time>2016-04-04T18:30:21Z</time>
      </trkpt>
      <trkpt lat="48.85636" lon="2.34005">
        <ele>43.20000076294</ele>
        <time>2016-04-04T18:30:27Z</time>
      </trkpt>
      <trkpt lat="48.85644" lon="2.33978">
        <ele>41</ele>
        <time>2016-04-04T18:30:32Z</time>
      </trkpt>
      <trkpt lat="48.85634" lon="2.33951">
        <ele>42.400001525879</ele>
        <time>2016-04-04T18:30:37Z</time>
      </trkpt>
      <trkpt lat="48.85618" lon="2.33929">
        <ele>45</ele>
        <time>2016-04-04T18:30:42Z</time>
      </trkpt>
      <trkpt lat="48.85603" lon="2.33904">
        <ele>46.599998474121</ele>
        <time>2016-04-04T18:30:47Z</time>
      </trkpt>
      <trkpt lat="48.85588" lon="2.33881">
        <ele>46.20000076294</ele>
        <time>2016-04-04T18:30:51Z</time>
      </trkpt>
      <trkpt lat="48.85573" lon="2.33858">
        <ele>45.599998474121</ele>
        <time>2016-04-04T18:30:55Z</time>
      </trkpt>
      <trkpt lat="48.8556" lon="2.33834">
        <ele>45</ele>
        <time>2016-04-04T18:30:59Z</time>
      </trkpt>
      <trkpt lat="48.85552" lon="2.33813">
        <ele>45</ele>
        <time>2016-04-04T18:31:02Z</time>
      </trkpt>
      <trkpt lat="48.85541" lon="2.33788">
        <ele>45.400001525879</ele>
        <time>2016-04-04T18:31:06Z</time>
      </trkpt>
      <trkpt lat="48.85531" lon="2.3378">
        <ele>45.79999923706</ele>
        <time>2016-04-04T18:31:08Z</time>
      </trkpt>
      <trkpt lat="48.85528" lon="2.33747">
        <ele>46</ele>
        <time>2016-04-04T18:31:14Z</time>
      </trkpt>
      <trkpt lat="48.85527" lon="2.33716">
        <ele>46.400001525879</ele>
        <time>2016-04-04T18:31:19Z</time>
      </trkpt>
      <trkpt lat="48.85528" lon="2.337">
        <ele>46.599998474121</ele>
        <time>2016-04-04T18:31:24Z</time>
      </trkpt>
      <trkpt lat="48.85512" lon="2.33686">
        <ele>47</ele>
        <time>2016-04-04T18:31:29Z</time>
      </trkpt>
      <trkpt lat="48.8551" lon="2.33684">
        <ele>47</ele>
        <time>2016-04-04T18:31:30Z</time>
      </trkpt>
      <trkpt lat="48.8549" lon="2.33678">
        <ele>47.599998474121</ele>
        <time>2016-04-04T18:31:36Z</time>
      </trkpt>
      <trkpt lat="48.85473" lon="2.33669">
        <ele>48.20000076294</ele>
        <time>2016-04-04T18:31:41Z</time>
      </trkpt>
      <trkpt lat="48.85466" lon="2.33655">
        <ele>48</ele>
        <time>2016-04-04T18:31:44Z</time>
      </trkpt>
      <trkpt lat="48.85468" lon="2.33624">
        <ele>46.79999923706</ele>
        <time>2016-04-04T18:31:52Z</time>
      </trkpt>
      <trkpt lat="48.8548" lon="2.33601">
        <ele>46.20000076294</ele>
        <time>2016-04-04T18:31:57Z</time>
      </trkpt>
      <trkpt lat="48.85484" lon="2.33573">
        <ele>46</ele>
        <time>2016-04-04T18:32:02Z</time>
      </trkpt>
      <trkpt lat="48.85493" lon="2.33549">
        <ele>46</ele>
        <time>2016-04-04T18:32:06Z</time>
      </trkpt>
      <trkpt lat="48.85504" lon="2.3352">
        <ele>45.599998474121</ele>
        <time>2016-04-04T18:32:11Z</time>
      </trkpt>
      <trkpt lat="48.85515" lon="2.33494">
        <ele>45</ele>
        <time>2016-04-04T18:32:16Z</time>
      </trkpt>
      <trkpt lat="48.85526" lon="2.33465">
        <ele>45</ele>
        <time>2016-04-04T18:32:21Z</time>
      </trkpt>
      <trkpt lat="48.85526" lon="2.33435">
        <ele>45</ele>
        <time>2016-04-04T18:32:26Z</time>
      </trkpt>
      <trkpt lat="48.85527" lon="2.33427">
        <ele>45.20000076294</ele>
        <time>2016-04-04T18:32:28Z</time>
      </trkpt>
      <trkpt lat="48.85526" lon="2.33418">
        <ele>45</ele>
        <time>2016-04-04T18:32:32Z</time>
      </trkpt>
      <trkpt lat="48.85534" lon="2.33393">
        <ele>45.20000076294</ele>
        <time>2016-04-04T18:32:42Z</time>
      </trkpt>
      <trkpt lat="48.85545" lon="2.33369">
        <ele>45.20000076294</ele>
        <time>2016-04-04T18:32:48Z</time>
      </trkpt>
      <trkpt lat="48.85552" lon="2.33344">
        <ele>45.20000076294</ele>
        <time>2016-04-04T18:32:54Z</time>
      </trkpt>
      <trkpt lat="48.85538" lon="2.33321">
        <ele>45.599998474121</ele>
        <time>2016-04-04T18:33:02Z</time>
      </trkpt>
      <trkpt lat="48.85519" lon="2.3331">
        <ele>46.20000076294</ele>
        <time>2016-04-04T18:33:07Z</time>
      </trkpt>
      <trkpt lat="48.855" lon="2.333">
        <ele>46.79999923706</ele>
        <time>2016-04-04T18:33:13Z</time>
      </trkpt>
      <trkpt lat="48.85481" lon="2.33293">
        <ele>47.20000076294</ele>
        <time>2016-04-04T18:33:19Z</time>
      </trkpt>
      <trkpt lat="48.85461" lon="2.33285">
        <ele>48</ele>
        <time>2016-04-04T18:33:24Z</time>
      </trkpt>
      <trkpt lat="48.8544" lon="2.33273">
        <ele>48.79999923706</ele>
        <time>2016-04-04T18:33:29Z</time>
      </trkpt>
      <trkpt lat="48.85422" lon="2.33265">
        <ele>48.79999923706</ele>
        <time>2016-04-04T18:33:34Z</time>
      </trkpt>
      <trkpt lat="48.85402" lon="2.33267">
        <ele>48.20000076294</ele>
        <time>2016-04-04T18:33:45Z</time>
      </trkpt>
      <trkpt lat="48.85404" lon="2.33241">
        <ele>49.20000076294</ele>
        <time>2016-04-04T18:33:57Z</time>
      </trkpt>
      <trkpt lat="48.85408" lon="2.33211">
        <ele>49.400001525879</ele>
        <time>2016-04-04T18:34:03Z</time>
      </trkpt>
      <trkpt lat="48.85414" lon="2.33183">
        <ele>50.400001525879</ele>
        <time>2016-04-04T18:34:09Z</time>
      </trkpt>
      <trkpt lat="48.85421" lon="2.33157">
        <ele>51.400001525879</ele>
        <time>2016-04-04T18:34:18Z</time>
      </trkpt>
      <trkpt lat="48.85428" lon="2.3313">
        <ele>52</ele>
        <time>2016-04-04T18:34:26Z</time>
      </trkpt>
      <trkpt lat="48.85435" lon="2.331">
        <ele>52.599998474121</ele>
        <time>2016-04-04T18:34:32Z</time>
      </trkpt>
      <trkpt lat="48.85442" lon="2.33071">
        <ele>52.400001525879</ele>
        <time>2016-04-04T18:34:38Z</time>
      </trkpt>
      <trkpt lat="48.85442" lon="2.33045">
        <ele>51</ele>
        <time>2016-04-04T18:34:47Z</time>
      </trkpt>
      <trkpt lat="48.85427" lon="2.33021">
        <ele>49.400001525879</ele>
        <time>2016-04-04T18:34:55Z</time>
      </trkpt>
      <trkpt lat="48.85409" lon="2.33006">
        <ele>48.599998474121</ele>
        <time>2016-04-04T18:35:01Z</time>
      </trkpt>
      <trkpt lat="48.85386" lon="2.32996">
        <ele>48</ele>
        <time>2016-04-04T18:35:05Z</time>
      </trkpt>
      <trkpt lat="48.85364" lon="2.32984">
        <ele>48.20000076294</ele>
        <time>2016-04-04T18:35:09Z</time>
      </trkpt>
      <trkpt lat="48.85339" lon="2.32973">
        <ele>48.20000076294</ele>
        <time>2016-04-04T18:35:13Z</time>
      </trkpt>
      <trkpt lat="48.8532" lon="2.32966">
        <ele>48.400001525879</ele>
        <time>2016-04-04T18:35:16Z</time>
      </trkpt>
      <trkpt lat="48.85301" lon="2.32958">
        <ele>48.20000076294</ele>
        <time>2016-04-04T18:35:20Z</time>
      </trkpt>
      <trkpt lat="48.85292" lon="2.32952">
        <ele>48.400001525879</ele>
        <time>2016-04-04T18:35:22Z</time>
      </trkpt>
      <trkpt lat="48.85276" lon="2.32935">
        <ele>48.599998474121</ele>
        <time>2016-04-04T18:35:26Z</time>
      </trkpt>
      <trkpt lat="48.85261" lon="2.32918">
        <ele>48.599998474121</ele>
        <time>2016-04-04T18:35:30Z</time>
      </trkpt>
      <trkpt lat="48.85244" lon="2.3291">
        <ele>48.400001525879</ele>
        <time>2016-04-04T18:35:33Z</time>
      </trkpt>
      <trkpt lat="48.85226" lon="2.32898">
        <ele>48.20000076294</ele>
        <time>2016-04-04T18:35:37Z</time>
      </trkpt>
      <trkpt lat="48.8521" lon="2.32881">
        <ele>48.20000076294</ele>
        <time>2016-04-04T18:35:42Z</time>
      </trkpt>
      <trkpt lat="48.852" lon="2.3287">
        <ele>48.400001525879</ele>
        <time>2016-04-04T18:35:47Z</time>
      </trkpt>
      <trkpt lat="48.85189" lon="2.32851">
        <ele>48.599998474121</ele>
        <time>2016-04-04T18:35:56Z</time>
      </trkpt>
      <trkpt lat="48.85187" lon="2.32821">
        <ele>48.79999923706</ele>
        <time>2016-04-04T18:36:02Z</time>
      </trkpt>
      <trkpt lat="48.85183" lon="2.32793">
        <ele>48.20000076294</ele>
        <time>2016-04-04T18:36:06Z</time>
      </trkpt>
      <trkpt lat="48.85175" lon="2.32768">
        <ele>47.79999923706</ele>
        <time>2016-04-04T18:36:10Z</time>
      </trkpt>
      <trkpt lat="48.8517" lon="2.32735">
        <ele>47</ele>
        <time>2016-04-04T18:36:15Z</time>
      </trkpt>
      <trkpt lat="48.85161" lon="2.32708">
        <ele>46.400001525879</ele>
        <time>2016-04-04T18:36:20Z</time>
      </trkpt>
      <trkpt lat="48.85157" lon="2.32704">
        <ele>46.400001525879</ele>
        <time>2016-04-04T18:36:23Z</time>
      </trkpt>
      <trkpt lat="48.85156" lon="2.32699">
        <ele>46.20000076294</ele>
        <time>2016-04-04T18:36:42Z</time>
      </trkpt>
      <trkpt lat="48.8514" lon="2.32682">
        <ele>46</ele>
        <time>2016-04-04T18:36:53Z</time>
      </trkpt>
      <trkpt lat="48.85133" lon="2.32678">
        <ele>46</ele>
        <time>2016-04-04T18:36:55Z</time>
      </trkpt>
      <trkpt lat="48.85123" lon="2.32666">
        <ele>45.79999923706</ele>
        <time>2016-04-04T18:36:58Z</time>
      </trkpt>
      <trkpt lat="48.85111" lon="2.32642">
        <ele>45.599998474121</ele>
        <time>2016-04-04T18:37:02Z</time>
      </trkpt>
      <trkpt lat="48.85099" lon="2.32615">
        <ele>45.599998474121</ele>
        <time>2016-04-04T18:37:06Z</time>
      </trkpt>
      <trkpt lat="48.85088" lon="2.32591">
        <ele>45.599998474121</ele>
        <time>2016-04-04T18:37:09Z</time>
      </trkpt>
      <trkpt lat="48.85078" lon="2.32567">
        <ele>45.599998474121</ele>
        <time>2016-04-04T18:37:13Z</time>
      </trkpt>
      <trkpt lat="48.85067" lon="2.32542">
        <ele>46</ele>
        <time>2016-04-04T18:37:18Z</time>
      </trkpt>
      <trkpt lat="48.85054" lon="2.32515">
        <ele>46.400001525879</ele>
        <time>2016-04-04T18:37:22Z</time>
      </trkpt>
      <trkpt lat="48.85042" lon="2.3249">
        <ele>46.599998474121</ele>
        <time>2016-04-04T18:37:26Z</time>
      </trkpt>
      <trkpt lat="48.85029" lon="2.32466">
        <ele>46.20000076294</ele>
        <time>2016-04-04T18:37:31Z</time>
      </trkpt>
      <trkpt lat="48.85019" lon="2.3244">
        <ele>45.599998474121</ele>
        <time>2016-04-04T18:37:36Z</time>
      </trkpt>
      <trkpt lat="48.85009" lon="2.32416">
        <ele>44.79999923706</ele>
        <time>2016-04-04T18:37:40Z</time>
      </trkpt>
      <trkpt lat="48.85001" lon="2.3239">
        <ele>44</ele>
        <time>2016-04-04T18:37:44Z</time>
      </trkpt>
      <trkpt lat="48.84988" lon="2.32361">
        <ele>43.400001525879</ele>
        <time>2016-04-04T18:37:49Z</time>
      </trkpt>
      <trkpt lat="48.84975" lon="2.32334">
        <ele>42.79999923706</ele>
        <time>2016-04-04T18:37:54Z</time>
      </trkpt>
      <trkpt lat="48.84964" lon="2.32312">
        <ele>42.400001525879</ele>
        <time>2016-04-04T18:37:58Z</time>
      </trkpt>
      <trkpt lat="48.84957" lon="2.32302">
        <ele>42.20000076294</ele>
        <time>2016-04-04T18:38:00Z</time>
      </trkpt>
      <trkpt lat="48.84945" lon="2.32278">
        <ele>42</ele>
        <time>2016-04-04T18:38:05Z</time>
      </trkpt>
      <trkpt lat="48.84934" lon="2.3225">
        <ele>42.20000076294</ele>
        <time>2016-04-04T18:38:10Z</time>
      </trkpt>
      <trkpt lat="48.84922" lon="2.32224">
        <ele>42.79999923706</ele>
        <time>2016-04-04T18:38:15Z</time>
      </trkpt>
      <trkpt lat="48.8491" lon="2.32201">
        <ele>43.400001525879</ele>
        <time>2016-04-04T18:38:19Z</time>
      </trkpt>
      <trkpt lat="48.84896" lon="2.32176">
        <ele>44</ele>
        <time>2016-04-04T18:38:23Z</time>
      </trkpt>
      <trkpt lat="48.84887" lon="2.32149">
        <ele>45.400001525879</ele>
        <time>2016-04-04T18:38:28Z</time>
      </trkpt>
      <trkpt lat="48.84876" lon="2.32121">
        <ele>47.599998474121</ele>
        <time>2016-04-04T18:38:33Z</time>
      </trkpt>
      <trkpt lat="48.84864" lon="2.32097">
        <ele>49.599998474121</ele>
        <time>2016-04-04T18:38:40Z</time>
      </trkpt>
      <trkpt lat="48.84854" lon="2.32069">
        <ele>50.599998474121</ele>
        <time>2016-04-04T18:38:47Z</time>
      </trkpt>
      <trkpt lat="48.84842" lon="2.32048">
        <ele>49.79999923706</ele>
        <time>2016-04-04T18:38:53Z</time>
      </trkpt>
      <trkpt lat="48.84826" lon="2.32029">
        <ele>49.20000076294</ele>
        <time>2016-04-04T18:38:57Z</time>
      </trkpt>
      <trkpt lat="48.84811" lon="2.32012">
        <ele>48.79999923706</ele>
        <time>2016-04-04T18:39:03Z</time>
      </trkpt>
      <trkpt lat="48.84798" lon="2.31989">
        <ele>48.20000076294</ele>
        <time>2016-04-04T18:39:08Z</time>
      </trkpt>
      <trkpt lat="48.84787" lon="2.31959">
        <ele>48.20000076294</ele>
        <time>2016-04-04T18:39:13Z</time>
      </trkpt>
      <trkpt lat="48.84775" lon="2.31938">
        <ele>48.20000076294</ele>
        <time>2016-04-04T18:39:17Z</time>
      </trkpt>
      <trkpt lat="48.84765" lon="2.31915">
        <ele>48.20000076294</ele>
        <time>2016-04-04T18:39:21Z</time>
      </trkpt>
      <trkpt lat="48.84754" lon="2.31889">
        <ele>48</ele>
        <time>2016-04-04T18:39:25Z</time>
      </trkpt>
      <trkpt lat="48.84744" lon="2.31865">
        <ele>48</ele>
        <time>2016-04-04T18:39:29Z</time>
      </trkpt>
      <trkpt lat="48.84741" lon="2.31849">
        <ele>48</ele>
        <time>2016-04-04T18:39:31Z</time>
      </trkpt>
      <trkpt lat="48.8473" lon="2.3182">
        <ele>47.599998474121</ele>
        <time>2016-04-04T18:39:35Z</time>
      </trkpt>
      <trkpt lat="48.84717" lon="2.31794">
        <ele>46.599998474121</ele>
        <time>2016-04-04T18:39:39Z</time>
      </trkpt>
      <trkpt lat="48.84705" lon="2.31768">
        <ele>45.79999923706</ele>
        <time>2016-04-04T18:39:44Z</time>
      </trkpt>
      <trkpt lat="48.84698" lon="2.31743">
        <ele>45.400001525879</ele>
        <time>2016-04-04T18:39:50Z</time>
      </trkpt>
      <trkpt lat="48.84695" lon="2.31733">
        <ele>45</ele>
        <time>2016-04-04T18:39:53Z</time>
      </trkpt>
      <trkpt lat="48.84694" lon="2.31719">
        <ele>44.599998474121</ele>
        <time>2016-04-04T18:39:56Z</time>
      </trkpt>
      <trkpt lat="48.84693" lon="2.31696">
        <ele>44</ele>
        <time>2016-04-04T18:40:00Z</time>
      </trkpt>
      <trkpt lat="48.8469" lon="2.31674">
        <ele>43.400001525879</ele>
        <time>2016-04-04T18:40:05Z</time>
      </trkpt>
      <trkpt lat="48.84692" lon="2.31664">
        <ele>43.20000076294</ele>
        <time>2016-04-04T18:40:14Z</time>
      </trkpt>
      <trkpt lat="48.84681" lon="2.31648">
        <ele>42.79999923706</ele>
        <time>2016-04-04T18:40:54Z</time>
      </trkpt>
      <trkpt lat="48.8468" lon="2.31646">
        <ele>42.599998474121</ele>
        <time>2016-04-04T18:40:55Z</time>
      </trkpt>
      <trkpt lat="48.84671" lon="2.3162">
        <ele>42</ele>
        <time>2016-04-04T18:41:02Z</time>
      </trkpt>
      <trkpt lat="48.84661" lon="2.31593">
        <ele>41.400001525879</ele>
        <time>2016-04-04T18:41:08Z</time>
      </trkpt>
      <trkpt lat="48.84649" lon="2.31568">
        <ele>41.20000076294</ele>
        <time>2016-04-04T18:41:13Z</time>
      </trkpt>
      <trkpt lat="48.84638" lon="2.3154">
        <ele>41.400001525879</ele>
        <time>2016-04-04T18:41:18Z</time>
      </trkpt>
      <trkpt lat="48.84629" lon="2.31507">
        <ele>42</ele>
        <time>2016-04-04T18:41:22Z</time>
      </trkpt>
      <trkpt lat="48.8462" lon="2.31478">
        <ele>42</ele>
        <time>2016-04-04T18:41:26Z</time>
      </trkpt>
      <trkpt lat="48.8461" lon="2.31442">
        <ele>41.400001525879</ele>
        <time>2016-04-04T18:41:30Z</time>
      </trkpt>
      <trkpt lat="48.84601" lon="2.31411">
        <ele>41</ele>
        <time>2016-04-04T18:41:34Z</time>
      </trkpt>
      <trkpt lat="48.84594" lon="2.3138">
        <ele>41.400001525879</ele>
        <time>2016-04-04T18:41:38Z</time>
      </trkpt>
      <trkpt lat="48.84589" lon="2.31351">
        <ele>41.79999923706</ele>
        <time>2016-04-04T18:41:42Z</time>
      </trkpt>
      <trkpt lat="48.84579" lon="2.31319">
        <ele>42.400001525879</ele>
        <time>2016-04-04T18:41:46Z</time>
      </trkpt>
      <trkpt lat="48.8457" lon="2.31289">
        <ele>42.599998474121</ele>
        <time>2016-04-04T18:41:50Z</time>
      </trkpt>
      <trkpt lat="48.84561" lon="2.31265">
        <ele>42.79999923706</ele>
        <time>2016-04-04T18:41:54Z</time>
      </trkpt>
      <trkpt lat="48.84552" lon="2.3124">
        <ele>42.599998474121</ele>
        <time>2016-04-04T18:41:58Z</time>
      </trkpt>
      <trkpt lat="48.8454" lon="2.31212">
        <ele>42.400001525879</ele>
        <time>2016-04-04T18:42:03Z</time>
      </trkpt>
      <trkpt lat="48.84536" lon="2.31194">
        <ele>42.400001525879</ele>
        <time>2016-04-04T18:42:06Z</time>
      </trkpt>
      <trkpt lat="48.84533" lon="2.31174">
        <ele>42.20000076294</ele>
        <time>2016-04-04T18:42:09Z</time>
      </trkpt>
      <trkpt lat="48.84532" lon="2.31155">
        <ele>42.400001525879</ele>
        <time>2016-04-04T18:42:12Z</time>
      </trkpt>
      <trkpt lat="48.84535" lon="2.31132">
        <ele>42.79999923706</ele>
        <time>2016-04-04T18:42:16Z</time>
      </trkpt>
      <trkpt lat="48.84527" lon="2.31109">
        <ele>43.400001525879</ele>
        <time>2016-04-04T18:42:21Z</time>
      </trkpt>
      <trkpt lat="48.84526" lon="2.31106">
        <ele>43.400001525879</ele>
        <time>2016-04-04T18:42:22Z</time>
      </trkpt>
      <trkpt lat="48.84517" lon="2.31093">
        <ele>43.599998474121</ele>
        <time>2016-04-04T18:42:26Z</time>
      </trkpt>
      <trkpt lat="48.84512" lon="2.31086">
        <ele>43.79999923706</ele>
        <time>2016-04-04T18:42:29Z</time>
      </trkpt>
      <trkpt lat="48.84499" lon="2.3107">
        <ele>44.20000076294</ele>
        <time>2016-04-04T18:42:35Z</time>
      </trkpt>
      <trkpt lat="48.84489" lon="2.31046">
        <ele>44.400001525879</ele>
        <time>2016-04-04T18:42:42Z</time>
      </trkpt>
      <trkpt lat="48.8448" lon="2.31019">
        <ele>44.599998474121</ele>
        <time>2016-04-04T18:42:48Z</time>
      </trkpt>
      <trkpt lat="48.84471" lon="2.30991">
        <ele>44.599998474121</ele>
        <time>2016-04-04T18:42:53Z</time>
      </trkpt>
      <trkpt lat="48.84468" lon="2.3096">
        <ele>44.599998474121</ele>
        <time>2016-04-04T18:42:57Z</time>
      </trkpt>
      <trkpt lat="48.8446" lon="2.30935">
        <ele>44.79999923706</ele>
        <time>2016-04-04T18:43:01Z</time>
      </trkpt>
      <trkpt lat="48.84451" lon="2.30904">
        <ele>45.20000076294</ele>
        <time>2016-04-04T18:43:06Z</time>
      </trkpt>
      <trkpt lat="48.84442" lon="2.30876">
        <ele>46.400001525879</ele>
        <time>2016-04-04T18:43:10Z</time>
      </trkpt>
      <trkpt lat="48.84433" lon="2.30849">
        <ele>47.400001525879</ele>
        <time>2016-04-04T18:43:14Z</time>
      </trkpt>
      <trkpt lat="48.84426" lon="2.30822">
        <ele>48</ele>
        <time>2016-04-04T18:43:18Z</time>
      </trkpt>
      <trkpt lat="48.8442" lon="2.30801">
        <ele>47.599998474121</ele>
        <time>2016-04-04T18:43:21Z</time>
      </trkpt>
      <trkpt lat="48.84411" lon="2.30771">
        <ele>47.20000076294</ele>
        <time>2016-04-04T18:43:25Z</time>
      </trkpt>
      <trkpt lat="48.844" lon="2.30741">
        <ele>46.79999923706</ele>
        <time>2016-04-04T18:43:29Z</time>
      </trkpt>
      <trkpt lat="48.84387" lon="2.30714">
        <ele>46.20000076294</ele>
        <time>2016-04-04T18:43:33Z</time>
      </trkpt>
      <trkpt lat="48.84376" lon="2.30689">
        <ele>45.599998474121</ele>
        <time>2016-04-04T18:43:36Z</time>
      </trkpt>
      <trkpt lat="48.84367" lon="2.30665">
        <ele>45</ele>
        <time>2016-04-04T18:43:39Z</time>
      </trkpt>
      <trkpt lat="48.84357" lon="2.30633">
        <ele>44.599998474121</ele>
        <time>2016-04-04T18:43:43Z</time>
      </trkpt>
      <trkpt lat="48.8435" lon="2.30608">
        <ele>44.400001525879</ele>
        <time>2016-04-04T18:43:46Z</time>
      </trkpt>
      <trkpt lat="48.84341" lon="2.3058">
        <ele>44.400001525879</ele>
        <time>2016-04-04T18:43:50Z</time>
      </trkpt>
      <trkpt lat="48.8433" lon="2.30551">
        <ele>44</ele>
        <time>2016-04-04T18:43:54Z</time>
      </trkpt>
      <trkpt lat="48.84322" lon="2.30526">
        <ele>44.20000076294</ele>
        <time>2016-04-04T18:43:57Z</time>
      </trkpt>
      <trkpt lat="48.84315" lon="2.30492">
        <ele>44.599998474121</ele>
        <time>2016-04-04T18:44:01Z</time>
      </trkpt>
      <trkpt lat="48.84304" lon="2.30465">
        <ele>44.79999923706</ele>
        <time>2016-04-04T18:44:05Z</time>
      </trkpt>
      <trkpt lat="48.84295" lon="2.30434">
        <ele>45</ele>
        <time>2016-04-04T18:44:10Z</time>
      </trkpt>
      <trkpt lat="48.84286" lon="2.30406">
        <ele>44.79999923706</ele>
        <time>2016-04-04T18:44:14Z</time>
      </trkpt>
      <trkpt lat="48.84277" lon="2.30379">
        <ele>44.599998474121</ele>
        <time>2016-04-04T18:44:18Z</time>
      </trkpt>
      <trkpt lat="48.8427" lon="2.30349">
        <ele>44.20000076294</ele>
        <time>2016-04-04T18:44:22Z</time>
      </trkpt>
      <trkpt lat="48.84263" lon="2.30317">
        <ele>44.599998474121</ele>
        <time>2016-04-04T18:44:27Z</time>
      </trkpt>
      <trkpt lat="48.84257" lon="2.30287">
        <ele>45.400001525879</ele>
        <time>2016-04-04T18:44:32Z</time>
      </trkpt>
      <trkpt lat="48.8425" lon="2.30264">
        <ele>46.20000076294</ele>
        <time>2016-04-04T18:44:37Z</time>
      </trkpt>
      <trkpt lat="48.84249" lon="2.30255">
        <ele>46.400001525879</ele>
        <time>2016-04-04T18:44:39Z</time>
      </trkpt>
      <trkpt lat="48.84244" lon="2.30234">
        <ele>47</ele>
        <time>2016-04-04T18:44:44Z</time>
      </trkpt>
      <trkpt lat="48.84233" lon="2.30211">
        <ele>47.79999923706</ele>
        <time>2016-04-04T18:44:50Z</time>
      </trkpt>
      <trkpt lat="48.84228" lon="2.30205">
        <ele>48</ele>
        <time>2016-04-04T18:44:52Z</time>
      </trkpt>
      <trkpt lat="48.84221" lon="2.30188">
        <ele>48.79999923706</ele>
        <time>2016-04-04T18:44:58Z</time>
      </trkpt>
      <trkpt lat="48.84217" lon="2.30179">
        <ele>49</ele>
        <time>2016-04-04T18:45:02Z</time>
      </trkpt>
      <trkpt lat="48.84213" lon="2.30148">
        <ele>49.20000076294</ele>
        <time>2016-04-04T18:45:13Z</time>
      </trkpt>
      <trkpt lat="48.84204" lon="2.3012">
        <ele>48.20000076294</ele>
        <time>2016-04-04T18:45:19Z</time>
      </trkpt>
      <trkpt lat="48.84195" lon="2.30095">
        <ele>47.400001525879</ele>
        <time>2016-04-04T18:45:24Z</time>
      </trkpt>
      <trkpt lat="48.84185" lon="2.30066">
        <ele>46.79999923706</ele>
        <time>2016-04-04T18:45:29Z</time>
      </trkpt>
      <trkpt lat="48.84177" lon="2.30035">
        <ele>46.20000076294</ele>
        <time>2016-04-04T18:45:34Z</time>
      </trkpt>
      <trkpt lat="48.8417" lon="2.30006">
        <ele>45.599998474121</ele>
        <time>2016-04-04T18:45:39Z</time>
      </trkpt>
      <trkpt lat="48.84167" lon="2.29976">
        <ele>45</ele>
        <time>2016-04-04T18:45:46Z</time>
      </trkpt>
      <trkpt lat="48.84161" lon="2.29952">
        <ele>44.599998474121</ele>
        <time>2016-04-04T18:45:54Z</time>
      </trkpt>
      <trkpt lat="48.84161" lon="2.29922">
        <ele>43.79999923706</ele>
        <time>2016-04-04T18:46:02Z</time>
      </trkpt>
      <trkpt lat="48.84161" lon="2.29919">
        <ele>43.79999923706</ele>
        <time>2016-04-04T18:46:04Z</time>
      </trkpt>
      <trkpt lat="48.84153" lon="2.29895">
        <ele>43.400001525879</ele>
        <time>2016-04-04T18:46:23Z</time>
      </trkpt>
      <trkpt lat="48.84145" lon="2.29867">
        <ele>43</ele>
        <time>2016-04-04T18:46:29Z</time>
      </trkpt>
      <trkpt lat="48.84134" lon="2.29838">
        <ele>43.20000076294</ele>
        <time>2016-04-04T18:46:34Z</time>
      </trkpt>
      <trkpt lat="48.84124" lon="2.29813">
        <ele>43.20000076294</ele>
        <time>2016-04-04T18:46:38Z</time>
      </trkpt>
      <trkpt lat="48.84111" lon="2.29788">
        <ele>43</ele>
        <time>2016-04-04T18:46:42Z</time>
      </trkpt>
      <trkpt lat="48.84097" lon="2.29758">
        <ele>42.79999923706</ele>
        <time>2016-04-04T18:46:46Z</time>
      </trkpt>
      <trkpt lat="48.84089" lon="2.29727">
        <ele>42.79999923706</ele>
        <time>2016-04-04T18:46:50Z</time>
      </trkpt>
      <trkpt lat="48.84082" lon="2.29699">
        <ele>43.20000076294</ele>
        <time>2016-04-04T18:46:53Z</time>
      </trkpt>
      <trkpt lat="48.84071" lon="2.29665">
        <ele>43.79999923706</ele>
        <time>2016-04-04T18:46:56Z</time>
      </trkpt>
      <trkpt lat="48.8406" lon="2.29641">
        <ele>42</ele>
        <time>2016-04-04T18:46:59Z</time>
      </trkpt>
      <trkpt lat="48.84048" lon="2.29618">
        <ele>40.20000076294</ele>
        <time>2016-04-04T18:47:02Z</time>
      </trkpt>
      <trkpt lat="48.84039" lon="2.29588">
        <ele>38.400001525879</ele>
        <time>2016-04-04T18:47:06Z</time>
      </trkpt>
      <trkpt lat="48.84031" lon="2.29554">
        <ele>38</ele>
        <time>2016-04-04T18:47:11Z</time>
      </trkpt>
      <trkpt lat="48.8403" lon="2.29531">
        <ele>38.20000076294</ele>
        <time>2016-04-04T18:47:14Z</time>
      </trkpt>
      <trkpt lat="48.84025" lon="2.29502">
        <ele>38.20000076294</ele>
        <time>2016-04-04T18:47:18Z</time>
      </trkpt>
      <trkpt lat="48.84014" lon="2.29476">
        <ele>37.79999923706</ele>
        <time>2016-04-04T18:47:22Z</time>
      </trkpt>
      <trkpt lat="48.8401" lon="2.2947">
        <ele>37.79999923706</ele>
        <time>2016-04-04T18:47:23Z</time>
      </trkpt>
      <trkpt lat="48.84001" lon="2.29442">
        <ele>37.400001525879</ele>
        <time>2016-04-04T18:47:27Z</time>
      </trkpt>
      <trkpt lat="48.83989" lon="2.29415">
        <ele>37.20000076294</ele>
        <time>2016-04-04T18:47:31Z</time>
      </trkpt>
      <trkpt lat="48.83979" lon="2.29389">
        <ele>38.400001525879</ele>
        <time>2016-04-04T18:47:35Z</time>
      </trkpt>
      <trkpt lat="48.83971" lon="2.29361">
        <ele>39.79999923706</ele>
        <time>2016-04-04T18:47:39Z</time>
      </trkpt>
      <trkpt lat="48.8396" lon="2.29334">
        <ele>40.79999923706</ele>
        <time>2016-04-04T18:47:44Z</time>
      </trkpt>
      <trkpt lat="48.83958" lon="2.29317">
        <ele>41.400001525879</ele>
        <time>2016-04-04T18:47:47Z</time>
      </trkpt>
      <trkpt lat="48.83954" lon="2.29306">
        <ele>41.599998474121</ele>
        <time>2016-04-04T18:47:49Z</time>
      </trkpt>
      <trkpt lat="48.83947" lon="2.29289">
        <ele>42</ele>
        <time>2016-04-04T18:47:52Z</time>
      </trkpt>
      <trkpt lat="48.83944" lon="2.29269">
        <ele>42.400001525879</ele>
        <time>2016-04-04T18:47:55Z</time>
      </trkpt>
      <trkpt lat="48.83938" lon="2.29241">
        <ele>42.79999923706</ele>
        <time>2016-04-04T18:47:59Z</time>
      </trkpt>
      <trkpt lat="48.83932" lon="2.29212">
        <ele>41.79999923706</ele>
        <time>2016-04-04T18:48:03Z</time>
      </trkpt>
      <trkpt lat="48.83929" lon="2.29192">
        <ele>41.20000076294</ele>
        <time>2016-04-04T18:48:06Z</time>
      </trkpt>
      <trkpt lat="48.83922" lon="2.29164">
        <ele>40.20000076294</ele>
        <time>2016-04-04T18:48:11Z</time>
      </trkpt>
      <trkpt lat="48.83912" lon="2.29133">
        <ele>40.20000076294</ele>
        <time>2016-04-04T18:48:16Z</time>
      </trkpt>
      <trkpt lat="48.83903" lon="2.29102">
        <ele>40.20000076294</ele>
        <time>2016-04-04T18:48:19Z</time>
      </trkpt>
      <trkpt lat="48.83892" lon="2.29069">
        <ele>40</ele>
        <time>2016-04-04T18:48:22Z</time>
      </trkpt>
      <trkpt lat="48.83883" lon="2.29033">
        <ele>39.79999923706</ele>
        <time>2016-04-04T18:48:25Z</time>
      </trkpt>
      <trkpt lat="48.83876" lon="2.29">
        <ele>40.400001525879</ele>
        <time>2016-04-04T18:48:28Z</time>
      </trkpt>
      <trkpt lat="48.83867" lon="2.28969">
        <ele>40.599998474121</ele>
        <time>2016-04-04T18:48:32Z</time>
      </trkpt>
      <trkpt lat="48.83857" lon="2.28951">
        <ele>40.599998474121</ele>
        <time>2016-04-04T18:48:45Z</time>
      </trkpt>
      <trkpt lat="48.83842" lon="2.28952">
        <ele>40.599998474121</ele>
        <time>2016-04-04T18:48:54Z</time>
      </trkpt>
      <trkpt lat="48.83836" lon="2.28922">
        <ele>40.79999923706</ele>
        <time>2016-04-04T18:48:59Z</time>
      </trkpt>
      <trkpt lat="48.83835" lon="2.28889">
        <ele>40.599998474121</ele>
        <time>2016-04-04T18:49:04Z</time>
      </trkpt>
      <trkpt lat="48.83827" lon="2.28861">
        <ele>40.599998474121</ele>
        <time>2016-04-04T18:49:09Z</time>
      </trkpt>
      <trkpt lat="48.8382" lon="2.28828">
        <ele>40.599998474121</ele>
        <time>2016-04-04T18:49:14Z</time>
      </trkpt>
      <trkpt lat="48.83811" lon="2.28804">
        <ele>39.20000076294</ele>
        <time>2016-04-04T18:49:18Z</time>
      </trkpt>
      <trkpt lat="48.83802" lon="2.28778">
        <ele>37.599998474121</ele>
        <time>2016-04-04T18:49:22Z</time>
      </trkpt>
      <trkpt lat="48.83797" lon="2.28745">
        <ele>36.20000076294</ele>
        <time>2016-04-04T18:49:26Z</time>
      </trkpt>
      <trkpt lat="48.83788" lon="2.28718">
        <ele>36.79999923706</ele>
        <time>2016-04-04T18:49:30Z</time>
      </trkpt>
      <trkpt lat="48.8378" lon="2.28689">
        <ele>37.400001525879</ele>
        <time>2016-04-04T18:49:34Z</time>
      </trkpt>
      <trkpt lat="48.83771" lon="2.28666">
        <ele>37.79999923706</ele>
        <time>2016-04-04T18:49:37Z</time>
      </trkpt>
      <trkpt lat="48.83757" lon="2.28636">
        <ele>37.400001525879</ele>
        <time>2016-04-04T18:49:40Z</time>
      </trkpt>
      <trkpt lat="48.83753" lon="2.28624">
        <ele>37</ele>
        <time>2016-04-04T18:49:41Z</time>
      </trkpt>
      <trkpt lat="48.83744" lon="2.28599">
        <ele>36.400001525879</ele>
        <time>2016-04-04T18:49:44Z</time>
      </trkpt>
      <trkpt lat="48.83741" lon="2.28583">
        <ele>36</ele>
        <time>2016-04-04T18:49:46Z</time>
      </trkpt>
      <trkpt lat="48.83736" lon="2.28549">
        <ele>36.400001525879</ele>
        <time>2016-04-04T18:49:50Z</time>
      </trkpt>
      <trkpt lat="48.83731" lon="2.28534">
        <ele>36.400001525879</ele>
        <time>2016-04-04T18:49:52Z</time>
      </trkpt>
      <trkpt lat="48.83718" lon="2.28504">
        <ele>36.400001525879</ele>
        <time>2016-04-04T18:49:56Z</time>
      </trkpt>
      <trkpt lat="48.83707" lon="2.28473">
        <ele>38</ele>
        <time>2016-04-04T18:50:00Z</time>
      </trkpt>
      <trkpt lat="48.83696" lon="2.2844">
        <ele>40.20000076294</ele>
        <time>2016-04-04T18:50:04Z</time>
      </trkpt>
      <trkpt lat="48.83685" lon="2.28416">
        <ele>41.79999923706</ele>
        <time>2016-04-04T18:50:07Z</time>
      </trkpt>
      <trkpt lat="48.83677" lon="2.28392">
        <ele>41.599998474121</ele>
        <time>2016-04-04T18:50:10Z</time>
      </trkpt>
      <trkpt lat="48.83671" lon="2.28361">
        <ele>41.400001525879</ele>
        <time>2016-04-04T18:50:14Z</time>
      </trkpt>
      <trkpt lat="48.83664" lon="2.28331">
        <ele>41</ele>
        <time>2016-04-04T18:50:18Z</time>
      </trkpt>
      <trkpt lat="48.83656" lon="2.28305">
        <ele>41.400001525879</ele>
        <time>2016-04-04T18:50:22Z</time>
      </trkpt>
      <trkpt lat="48.83646" lon="2.28277">
        <ele>42</ele>
        <time>2016-04-04T18:50:26Z</time>
      </trkpt>
      <trkpt lat="48.83634" lon="2.28251">
        <ele>42.400001525879</ele>
        <time>2016-04-04T18:50:30Z</time>
      </trkpt>
      <trkpt lat="48.83622" lon="2.28223">
        <ele>41.400001525879</ele>
        <time>2016-04-04T18:50:34Z</time>
      </trkpt>
      <trkpt lat="48.83611" lon="2.28196">
        <ele>40.20000076294</ele>
        <time>2016-04-04T18:50:38Z</time>
      </trkpt>
      <trkpt lat="48.83603" lon="2.28167">
        <ele>39</ele>
        <time>2016-04-04T18:50:43Z</time>
      </trkpt>
      <trkpt lat="48.83597" lon="2.28143">
        <ele>38.400001525879</ele>
        <time>2016-04-04T18:50:47Z</time>
      </trkpt>
      <trkpt lat="48.83585" lon="2.28117">
        <ele>37.400001525879</ele>
        <time>2016-04-04T18:50:53Z</time>
      </trkpt>
      <trkpt lat="48.83567" lon="2.28105">
        <ele>36.599998474121</ele>
        <time>2016-04-04T18:51:01Z</time>
      </trkpt>
      <trkpt lat="48.8356" lon="2.28097">
        <ele>36.400001525879</ele>
        <time>2016-04-04T18:51:05Z</time>
      </trkpt>
      <trkpt lat="48.8356" lon="2.28095">
        <ele>36.20000076294</ele>
        <time>2016-04-04T18:51:06Z</time>
      </trkpt>
      <trkpt lat="48.83549" lon="2.28092">
        <ele>36</ele>
        <time>2016-04-04T18:51:55Z</time>
      </trkpt>
      <trkpt lat="48.83541" lon="2.28092">
        <ele>35.79999923706</ele>
        <time>2016-04-04T18:52:47Z</time>
      </trkpt>
      <trkpt lat="48.83531" lon="2.28099">
        <ele>35.20000076294</ele>
        <time>2016-04-04T18:53:15Z</time>
      </trkpt>
      <trkpt lat="48.83521" lon="2.28123">
        <ele>34.599998474121</ele>
        <time>2016-04-04T18:53:20Z</time>
      </trkpt>
      <trkpt lat="48.8351" lon="2.2815">
        <ele>34.400001525879</ele>
        <time>2016-04-04T18:53:25Z</time>
      </trkpt>
      <trkpt lat="48.83508" lon="2.28156">
        <ele>34.20000076294</ele>
        <time>2016-04-04T18:53:26Z</time>
      </trkpt>
      <trkpt lat="48.83503" lon="2.28178">
        <ele>34.400001525879</ele>
        <time>2016-04-04T18:53:30Z</time>
      </trkpt>
      <trkpt lat="48.83496" lon="2.28206">
        <ele>35</ele>
        <time>2016-04-04T18:53:35Z</time>
      </trkpt>
      <trkpt lat="48.83489" lon="2.28236">
        <ele>35.79999923706</ele>
        <time>2016-04-04T18:53:40Z</time>
      </trkpt>
      <trkpt lat="48.83481" lon="2.28261">
        <ele>37.20000076294</ele>
        <time>2016-04-04T18:53:44Z</time>
      </trkpt>
      <trkpt lat="48.83473" lon="2.28289">
        <ele>39</ele>
        <time>2016-04-04T18:53:48Z</time>
      </trkpt>
      <trkpt lat="48.83465" lon="2.28315">
        <ele>38.599998474121</ele>
        <time>2016-04-04T18:53:52Z</time>
      </trkpt>
      <trkpt lat="48.83458" lon="2.2834">
        <ele>38</ele>
        <time>2016-04-04T18:53:56Z</time>
      </trkpt>
      <trkpt lat="48.83447" lon="2.28369">
        <ele>37.20000076294</ele>
        <time>2016-04-04T18:54:01Z</time>
      </trkpt>
      <trkpt lat="48.83442" lon="2.28382">
        <ele>37.20000076294</ele>
        <time>2016-04-04T18:54:04Z</time>
      </trkpt>
      <trkpt lat="48.83431" lon="2.28406">
        <ele>37.599998474121</ele>
        <time>2016-04-04T18:54:09Z</time>
      </trkpt>
      <trkpt lat="48.83419" lon="2.28432">
        <ele>38.20000076294</ele>
        <time>2016-04-04T18:54:14Z</time>
      </trkpt>
      <trkpt lat="48.83409" lon="2.28455">
        <ele>38.599998474121</ele>
        <time>2016-04-04T18:54:18Z</time>
      </trkpt>
      <trkpt lat="48.83399" lon="2.28481">
        <ele>37.599998474121</ele>
        <time>2016-04-04T18:54:22Z</time>
      </trkpt>
      <trkpt lat="48.83389" lon="2.28511">
        <ele>37.400001525879</ele>
        <time>2016-04-04T18:54:27Z</time>
      </trkpt>
      <trkpt lat="48.8338" lon="2.28535">
        <ele>38.20000076294</ele>
        <time>2016-04-04T18:54:31Z</time>
      </trkpt>
      <trkpt lat="48.83368" lon="2.28564">
        <ele>38.599998474121</ele>
        <time>2016-04-04T18:54:36Z</time>
      </trkpt>
      <trkpt lat="48.83358" lon="2.2859">
        <ele>39.599998474121</ele>
        <time>2016-04-04T18:54:40Z</time>
      </trkpt>
      <trkpt lat="48.83347" lon="2.28614">
        <ele>41.79999923706</ele>
        <time>2016-04-04T18:54:44Z</time>
      </trkpt>
      <trkpt lat="48.83335" lon="2.2864">
        <ele>44.20000076294</ele>
        <time>2016-04-04T18:54:49Z</time>
      </trkpt>
      <trkpt lat="48.83325" lon="2.28662">
        <ele>43.20000076294</ele>
        <time>2016-04-04T18:54:53Z</time>
      </trkpt>
      <trkpt lat="48.83313" lon="2.28688">
        <ele>42.20000076294</ele>
        <time>2016-04-04T18:54:58Z</time>
      </trkpt>
      <trkpt lat="48.83313" lon="2.28694">
        <ele>42</ele>
        <time>2016-04-04T18:54:59Z</time>
      </trkpt>
      <trkpt lat="48.83307" lon="2.28705">
        <ele>41.79999923706</ele>
        <time>2016-04-04T18:55:02Z</time>
      </trkpt>
      <trkpt lat="48.83299" lon="2.28714">
        <ele>41.599998474121</ele>
        <time>2016-04-04T18:55:06Z</time>
      </trkpt>
      <trkpt lat="48.83293" lon="2.2872">
        <ele>41.400001525879</ele>
        <time>2016-04-04T18:55:09Z</time>
      </trkpt>
      <trkpt lat="48.83275" lon="2.28731">
        <ele>41</ele>
        <time>2016-04-04T18:55:18Z</time>
      </trkpt>
      <trkpt lat="48.83256" lon="2.2874">
        <ele>40.79999923706</ele>
        <time>2016-04-04T18:55:28Z</time>
      </trkpt>
      <trkpt lat="48.83237" lon="2.28737">
        <ele>40.79999923706</ele>
        <time>2016-04-04T18:55:39Z</time>
      </trkpt>
      <trkpt lat="48.83222" lon="2.28721">
        <ele>40.400001525879</ele>
        <time>2016-04-04T18:55:46Z</time>
      </trkpt>
      <trkpt lat="48.83212" lon="2.28711">
        <ele>40.20000076294</ele>
        <time>2016-04-04T18:55:53Z</time>
      </trkpt>
      <trkpt lat="48.83205" lon="2.28704">
        <ele>40</ele>
        <time>2016-04-04T18:56:39Z</time>
      </trkpt>
      <trkpt lat="48.83189" lon="2.28685">
        <ele>39.599998474121</ele>
        <time>2016-04-04T18:56:48Z</time>
      </trkpt>
      <trkpt lat="48.83171" lon="2.28666">
        <ele>40.400001525879</ele>
        <time>2016-04-04T18:56:55Z</time>
      </trkpt>
      <trkpt lat="48.83156" lon="2.28648">
        <ele>40.79999923706</ele>
        <time>2016-04-04T18:57:00Z</time>
      </trkpt>
      <trkpt lat="48.83139" lon="2.28627">
        <ele>41.20000076294</ele>
        <time>2016-04-04T18:57:05Z</time>
      </trkpt>
      <trkpt lat="48.83126" lon="2.28608">
        <ele>41.599998474121</ele>
        <time>2016-04-04T18:57:09Z</time>
      </trkpt>
      <trkpt lat="48.83113" lon="2.28587">
        <ele>41.79999923706</ele>
        <time>2016-04-04T18:57:13Z</time>
      </trkpt>
      <trkpt lat="48.831" lon="2.28565">
        <ele>41.400001525879</ele>
        <time>2016-04-04T18:57:17Z</time>
      </trkpt>
      <trkpt lat="48.83085" lon="2.28542">
        <ele>40.599998474121</ele>
        <time>2016-04-04T18:57:22Z</time>
      </trkpt>
      <trkpt lat="48.8307" lon="2.28523">
        <ele>40.20000076294</ele>
        <time>2016-04-04T18:57:28Z</time>
      </trkpt>
      <trkpt lat="48.83053" lon="2.28499">
        <ele>39.400001525879</ele>
        <time>2016-04-04T18:57:34Z</time>
      </trkpt>
      <trkpt lat="48.83036" lon="2.28479">
        <ele>39.79999923706</ele>
        <time>2016-04-04T18:57:39Z</time>
      </trkpt>
      <trkpt lat="48.8302" lon="2.28459">
        <ele>40.599998474121</ele>
        <time>2016-04-04T18:57:43Z</time>
      </trkpt>
      <trkpt lat="48.83003" lon="2.28435">
        <ele>41.400001525879</ele>
        <time>2016-04-04T18:57:47Z</time>
      </trkpt>
      <trkpt lat="48.82991" lon="2.28416">
        <ele>42.20000076294</ele>
        <time>2016-04-04T18:57:50Z</time>
      </trkpt>
      <trkpt lat="48.82978" lon="2.28393">
        <ele>41.79999923706</ele>
        <time>2016-04-04T18:57:54Z</time>
      </trkpt>
      <trkpt lat="48.82965" lon="2.2837">
        <ele>41.599998474121</ele>
        <time>2016-04-04T18:57:58Z</time>
      </trkpt>
      <trkpt lat="48.82953" lon="2.28347">
        <ele>41.20000076294</ele>
        <time>2016-04-04T18:58:02Z</time>
      </trkpt>
      <trkpt lat="48.82938" lon="2.28329">
        <ele>41</ele>
        <time>2016-04-04T18:58:07Z</time>
      </trkpt>
      <trkpt lat="48.82923" lon="2.28308">
        <ele>40</ele>
        <time>2016-04-04T18:58:12Z</time>
      </trkpt>
      <trkpt lat="48.82922" lon="2.28297">
        <ele>39.400001525879</ele>
        <time>2016-04-04T18:58:13Z</time>
      </trkpt>
      <trkpt lat="48.82916" lon="2.28286">
        <ele>39</ele>
        <time>2016-04-04T18:58:15Z</time>
      </trkpt>
      <trkpt lat="48.82901" lon="2.28265">
        <ele>37.79999923706</ele>
        <time>2016-04-04T18:58:18Z</time>
      </trkpt>
      <trkpt lat="48.82892" lon="2.28245">
        <ele>37</ele>
        <time>2016-04-04T18:58:20Z</time>
      </trkpt>
      <trkpt lat="48.82872" lon="2.28222">
        <ele>37</ele>
        <time>2016-04-04T18:58:23Z</time>
      </trkpt>
      <trkpt lat="48.82857" lon="2.28203">
        <ele>37</ele>
        <time>2016-04-04T18:58:26Z</time>
      </trkpt>
      <trkpt lat="48.82843" lon="2.28183">
        <ele>37.20000076294</ele>
        <time>2016-04-04T18:58:30Z</time>
      </trkpt>
      <trkpt lat="48.82839" lon="2.2817">
        <ele>37.20000076294</ele>
        <time>2016-04-04T18:58:32Z</time>
      </trkpt>
      <trkpt lat="48.82832" lon="2.28144">
        <ele>37</ele>
        <time>2016-04-04T18:58:36Z</time>
      </trkpt>
      <trkpt lat="48.82814" lon="2.2812">
        <ele>37</ele>
        <time>2016-04-04T18:58:40Z</time>
      </trkpt>
      <trkpt lat="48.82804" lon="2.28107">
        <ele>36.79999923706</ele>
        <time>2016-04-04T18:58:42Z</time>
      </trkpt>
      <trkpt lat="48.8279" lon="2.28089">
        <ele>36.599998474121</ele>
        <time>2016-04-04T18:58:45Z</time>
      </trkpt>
      <trkpt lat="48.82774" lon="2.2807">
        <ele>36.79999923706</ele>
        <time>2016-04-04T18:58:48Z</time>
      </trkpt>
      <trkpt lat="48.8276" lon="2.28045">
        <ele>36.79999923706</ele>
        <time>2016-04-04T18:58:51Z</time>
      </trkpt>
      <trkpt lat="48.82745" lon="2.2802">
        <ele>37</ele>
        <time>2016-04-04T18:58:54Z</time>
      </trkpt>
      <trkpt lat="48.82728" lon="2.27992">
        <ele>37</ele>
        <time>2016-04-04T18:58:57Z</time>
      </trkpt>
      <trkpt lat="48.82715" lon="2.27965">
        <ele>37.400001525879</ele>
        <time>2016-04-04T18:59:00Z</time>
      </trkpt>
      <trkpt lat="48.82704" lon="2.27944">
        <ele>37.599998474121</ele>
        <time>2016-04-04T18:59:03Z</time>
      </trkpt>
      <trkpt lat="48.82693" lon="2.27922">
        <ele>37.79999923706</ele>
        <time>2016-04-04T18:59:09Z</time>
      </trkpt>
      <trkpt lat="48.82677" lon="2.27903">
        <ele>38.20000076294</ele>
        <time>2016-04-04T18:59:15Z</time>
      </trkpt>
      <trkpt lat="48.82666" lon="2.27891">
        <ele>38.20000076294</ele>
        <time>2016-04-04T18:59:18Z</time>
      </trkpt>
      <trkpt lat="48.82649" lon="2.27867">
        <ele>38.400001525879</ele>
        <time>2016-04-04T18:59:23Z</time>
      </trkpt>
      <trkpt lat="48.82642" lon="2.27857">
        <ele>38.599998474121</ele>
        <time>2016-04-04T18:59:25Z</time>
      </trkpt>
      <trkpt lat="48.82628" lon="2.27838">
        <ele>38.79999923706</ele>
        <time>2016-04-04T18:59:29Z</time>
      </trkpt>
      <trkpt lat="48.82621" lon="2.27831">
        <ele>38.79999923706</ele>
        <time>2016-04-04T18:59:31Z</time>
      </trkpt>
      <trkpt lat="48.82614" lon="2.27819">
        <ele>38.79999923706</ele>
        <time>2016-04-04T18:59:34Z</time>
      </trkpt>
      <trkpt lat="48.82602" lon="2.27797">
        <ele>39</ele>
        <time>2016-04-04T18:59:39Z</time>
      </trkpt>
      <trkpt lat="48.826" lon="2.27791">
        <ele>39</ele>
        <time>2016-04-04T18:59:40Z</time>
      </trkpt>
      <trkpt lat="48.82591" lon="2.27765">
        <ele>39.20000076294</ele>
        <time>2016-04-04T18:59:45Z</time>
      </trkpt>
      <trkpt lat="48.82575" lon="2.2774">
        <ele>39.20000076294</ele>
        <time>2016-04-04T18:59:50Z</time>
      </trkpt>
      <trkpt lat="48.82572" lon="2.27733">
        <ele>39.20000076294</ele>
        <time>2016-04-04T18:59:51Z</time>
      </trkpt>
      <trkpt lat="48.82559" lon="2.27709">
        <ele>39.20000076294</ele>
        <time>2016-04-04T18:59:55Z</time>
      </trkpt>
      <trkpt lat="48.82548" lon="2.27681">
        <ele>39</ele>
        <time>2016-04-04T18:59:59Z</time>
      </trkpt>
      <trkpt lat="48.82537" lon="2.27655">
        <ele>38.599998474121</ele>
        <time>2016-04-04T19:00:03Z</time>
      </trkpt>
      <trkpt lat="48.82525" lon="2.2763">
        <ele>38.20000076294</ele>
        <time>2016-04-04T19:00:07Z</time>
      </trkpt>
      <trkpt lat="48.82511" lon="2.27599">
        <ele>38.599998474121</ele>
        <time>2016-04-04T19:00:11Z</time>
      </trkpt>
      <trkpt lat="48.825" lon="2.27573">
        <ele>39.400001525879</ele>
        <time>2016-04-04T19:00:14Z</time>
      </trkpt>
      <trkpt lat="48.82488" lon="2.27543">
        <ele>40.599998474121</ele>
        <time>2016-04-04T19:00:18Z</time>
      </trkpt>
      <trkpt lat="48.82477" lon="2.27512">
        <ele>41.79999923706</ele>
        <time>2016-04-04T19:00:22Z</time>
      </trkpt>
      <trkpt lat="48.82467" lon="2.27482">
        <ele>42.400001525879</ele>
        <time>2016-04-04T19:00:26Z</time>
      </trkpt>
      <trkpt lat="48.82455" lon="2.27453">
        <ele>42.20000076294</ele>
        <time>2016-04-04T19:00:30Z</time>
      </trkpt>
      <trkpt lat="48.82442" lon="2.27424">
        <ele>42.20000076294</ele>
        <time>2016-04-04T19:00:34Z</time>
      </trkpt>
      <trkpt lat="48.82436" lon="2.2741">
        <ele>42.20000076294</ele>
        <time>2016-04-04T19:00:36Z</time>
      </trkpt>
      <trkpt lat="48.82425" lon="2.27383">
        <ele>42.599998474121</ele>
        <time>2016-04-04T19:00:40Z</time>
      </trkpt>
      <trkpt lat="48.82418" lon="2.27364">
        <ele>42.79999923706</ele>
        <time>2016-04-04T19:00:43Z</time>
      </trkpt>
      <trkpt lat="48.82408" lon="2.2734">
        <ele>43.400001525879</ele>
        <time>2016-04-04T19:00:47Z</time>
      </trkpt>
      <trkpt lat="48.82398" lon="2.27316">
        <ele>43.400001525879</ele>
        <time>2016-04-04T19:00:51Z</time>
      </trkpt>
      <trkpt lat="48.8239" lon="2.27291">
        <ele>43.20000076294</ele>
        <time>2016-04-04T19:00:56Z</time>
      </trkpt>
      <trkpt lat="48.82383" lon="2.27268">
        <ele>42.79999923706</ele>
        <time>2016-04-04T19:01:01Z</time>
      </trkpt>
      <trkpt lat="48.82374" lon="2.27245">
        <ele>42.79999923706</ele>
        <time>2016-04-04T19:01:06Z</time>
      </trkpt>
      <trkpt lat="48.82362" lon="2.27222">
        <ele>43</ele>
        <time>2016-04-04T19:01:10Z</time>
      </trkpt>
      <trkpt lat="48.8236" lon="2.27216">
        <ele>43</ele>
        <time>2016-04-04T19:01:11Z</time>
      </trkpt>
      <trkpt lat="48.82352" lon="2.27189">
        <ele>42.79999923706</ele>
        <time>2016-04-04T19:01:15Z</time>
      </trkpt>
      <trkpt lat="48.82343" lon="2.2716">
        <ele>42.79999923706</ele>
        <time>2016-04-04T19:01:19Z</time>
      </trkpt>
      <trkpt lat="48.82334" lon="2.27129">
        <ele>44.400001525879</ele>
        <time>2016-04-04T19:01:23Z</time>
      </trkpt>
      <trkpt lat="48.82325" lon="2.27104">
        <ele>45.599998474121</ele>
        <time>2016-04-04T19:01:26Z</time>
      </trkpt>
      <trkpt lat="48.82318" lon="2.27078">
        <ele>46.599998474121</ele>
        <time>2016-04-04T19:01:29Z</time>
      </trkpt>
      <trkpt lat="48.82311" lon="2.27051">
        <ele>45.20000076294</ele>
        <time>2016-04-04T19:01:32Z</time>
      </trkpt>
      <trkpt lat="48.82304" lon="2.27018">
        <ele>43.599998474121</ele>
        <time>2016-04-04T19:01:36Z</time>
      </trkpt>
      <trkpt lat="48.82294" lon="2.26988">
        <ele>43.20000076294</ele>
        <time>2016-04-04T19:01:40Z</time>
      </trkpt>
      <trkpt lat="48.82283" lon="2.26965">
        <ele>43.599998474121</ele>
        <time>2016-04-04T19:01:43Z</time>
      </trkpt>
      <trkpt lat="48.82282" lon="2.26944">
        <ele>43.599998474121</ele>
        <time>2016-04-04T19:01:45Z</time>
      </trkpt>
      <trkpt lat="48.82279" lon="2.26908">
        <ele>43.20000076294</ele>
        <time>2016-04-04T19:01:48Z</time>
      </trkpt>
      <trkpt lat="48.82275" lon="2.26881">
        <ele>42.20000076294</ele>
        <time>2016-04-04T19:01:51Z</time>
      </trkpt>
      <trkpt lat="48.82268" lon="2.26848">
        <ele>41.400001525879</ele>
        <time>2016-04-04T19:01:55Z</time>
      </trkpt>
      <trkpt lat="48.8226" lon="2.26817">
        <ele>40.599998474121</ele>
        <time>2016-04-04T19:02:00Z</time>
      </trkpt>
      <trkpt lat="48.82259" lon="2.26812">
        <ele>40.400001525879</ele>
        <time>2016-04-04T19:02:01Z</time>
      </trkpt>
      <trkpt lat="48.82259" lon="2.26794">
        <ele>39.599998474121</ele>
        <time>2016-04-04T19:02:06Z</time>
      </trkpt>
      <trkpt lat="48.82262" lon="2.26793">
        <ele>39.20000076294</ele>
        <time>2016-04-04T19:02:10Z</time>
      </trkpt>
      <trkpt lat="48.82263" lon="2.26792">
        <ele>39.20000076294</ele>
        <time>2016-04-04T19:02:11Z</time>
      </trkpt>
      <trkpt lat="48.82254" lon="2.26767">
        <ele>38.79999923706</ele>
        <time>2016-04-04T19:02:20Z</time>
      </trkpt>
      <trkpt lat="48.82246" lon="2.26739">
        <ele>38.599998474121</ele>
        <time>2016-04-04T19:02:24Z</time>
      </trkpt>
      <trkpt lat="48.82237" lon="2.26709">
        <ele>39.400001525879</ele>
        <time>2016-04-04T19:02:28Z</time>
      </trkpt>
      <trkpt lat="48.82229" lon="2.26678">
        <ele>40.400001525879</ele>
        <time>2016-04-04T19:02:32Z</time>
      </trkpt>
      <trkpt lat="48.82224" lon="2.26649">
        <ele>41</ele>
        <time>2016-04-04T19:02:35Z</time>
      </trkpt>
      <trkpt lat="48.82219" lon="2.26618">
        <ele>41.400001525879</ele>
        <time>2016-04-04T19:02:38Z</time>
      </trkpt>
      <trkpt lat="48.82213" lon="2.26588">
        <ele>41.79999923706</ele>
        <time>2016-04-04T19:02:41Z</time>
      </trkpt>
      <trkpt lat="48.82209" lon="2.26555">
        <ele>41.79999923706</ele>
        <time>2016-04-04T19:02:44Z</time>
      </trkpt>
      <trkpt lat="48.82204" lon="2.26523">
        <ele>41.79999923706</ele>
        <time>2016-04-04T19:02:47Z</time>
      </trkpt>
      <trkpt lat="48.82196" lon="2.26483">
        <ele>42.20000076294</ele>
        <time>2016-04-04T19:02:50Z</time>
      </trkpt>
      <trkpt lat="48.82188" lon="2.26447">
        <ele>42.400001525879</ele>
        <time>2016-04-04T19:02:53Z</time>
      </trkpt>
      <trkpt lat="48.82178" lon="2.26409">
        <ele>43.400001525879</ele>
        <time>2016-04-04T19:02:56Z</time>
      </trkpt>
      <trkpt lat="48.82171" lon="2.26383">
        <ele>43</ele>
        <time>2016-04-04T19:02:58Z</time>
      </trkpt>
      <trkpt lat="48.82164" lon="2.26347">
        <ele>42.599998474121</ele>
        <time>2016-04-04T19:03:01Z</time>
      </trkpt>
      <trkpt lat="48.82156" lon="2.2631">
        <ele>42.599998474121</ele>
        <time>2016-04-04T19:03:04Z</time>
      </trkpt>
      <trkpt lat="48.82148" lon="2.26278">
        <ele>43.20000076294</ele>
        <time>2016-04-04T19:03:07Z</time>
      </trkpt>
      <trkpt lat="48.82142" lon="2.26248">
        <ele>44.400001525879</ele>
        <time>2016-04-04T19:03:10Z</time>
      </trkpt>
      <trkpt lat="48.82134" lon="2.26216">
        <ele>43.79999923706</ele>
        <time>2016-04-04T19:03:14Z</time>
      </trkpt>
      <trkpt lat="48.82128" lon="2.26189">
        <ele>43.20000076294</ele>
        <time>2016-04-04T19:03:18Z</time>
      </trkpt>
      <trkpt lat="48.82125" lon="2.26161">
        <ele>43.20000076294</ele>
        <time>2016-04-04T19:03:23Z</time>
      </trkpt>
      <trkpt lat="48.82122" lon="2.26148">
        <ele>43.20000076294</ele>
        <time>2016-04-04T19:03:26Z</time>
      </trkpt>
      <trkpt lat="48.82115" lon="2.26126">
        <ele>43.20000076294</ele>
        <time>2016-04-04T19:03:32Z</time>
      </trkpt>
      <trkpt lat="48.82114" lon="2.26123">
        <ele>43.20000076294</ele>
        <time>2016-04-04T19:03:33Z</time>
      </trkpt>
      <trkpt lat="48.82106" lon="2.261">
        <ele>43.20000076294</ele>
        <time>2016-04-04T19:03:39Z</time>
      </trkpt>
      <trkpt lat="48.82097" lon="2.26075">
        <ele>43.79999923706</ele>
        <time>2016-04-04T19:03:46Z</time>
      </trkpt>
      <trkpt lat="48.82086" lon="2.26049">
        <ele>44.400001525879</ele>
        <time>2016-04-04T19:03:54Z</time>
      </trkpt>
      <trkpt lat="48.82085" lon="2.2603">
        <ele>43.79999923706</ele>
        <time>2016-04-04T19:04:03Z</time>
      </trkpt>
      <trkpt lat="48.82083" lon="2.25998">
        <ele>43</ele>
        <time>2016-04-04T19:04:23Z</time>
      </trkpt>
      <trkpt lat="48.82073" lon="2.25972">
        <ele>43.79999923706</ele>
        <time>2016-04-04T19:04:28Z</time>
      </trkpt>
      <trkpt lat="48.8206" lon="2.25946">
        <ele>44.79999923706</ele>
        <time>2016-04-04T19:04:33Z</time>
      </trkpt>
      <trkpt lat="48.8205" lon="2.2592">
        <ele>45.20000076294</ele>
        <time>2016-04-04T19:04:37Z</time>
      </trkpt>
      <trkpt lat="48.8204" lon="2.25896">
        <ele>45.400001525879</ele>
        <time>2016-04-04T19:04:41Z</time>
      </trkpt>
      <trkpt lat="48.82026" lon="2.25863">
        <ele>45.400001525879</ele>
        <time>2016-04-04T19:04:46Z</time>
      </trkpt>
      <trkpt lat="48.82018" lon="2.25839">
        <ele>45.400001525879</ele>
        <time>2016-04-04T19:04:49Z</time>
      </trkpt>
      <trkpt lat="48.82006" lon="2.25805">
        <ele>45.400001525879</ele>
        <time>2016-04-04T19:04:53Z</time>
      </trkpt>
      <trkpt lat="48.81999" lon="2.25778">
        <ele>44.20000076294</ele>
        <time>2016-04-04T19:04:56Z</time>
      </trkpt>
      <trkpt lat="48.81992" lon="2.25746">
        <ele>42.79999923706</ele>
        <time>2016-04-04T19:04:59Z</time>
      </trkpt>
      <trkpt lat="48.81984" lon="2.25719">
        <ele>43</ele>
        <time>2016-04-04T19:05:01Z</time>
      </trkpt>
      <trkpt lat="48.81975" lon="2.25685">
        <ele>44.400001525879</ele>
        <time>2016-04-04T19:05:04Z</time>
      </trkpt>
      <trkpt lat="48.81967" lon="2.25654">
        <ele>45.79999923706</ele>
        <time>2016-04-04T19:05:07Z</time>
      </trkpt>
      <trkpt lat="48.81961" lon="2.25624">
        <ele>44.79999923706</ele>
        <time>2016-04-04T19:05:10Z</time>
      </trkpt>
      <trkpt lat="48.81952" lon="2.25595">
        <ele>44.20000076294</ele>
        <time>2016-04-04T19:05:13Z</time>
      </trkpt>
      <trkpt lat="48.81943" lon="2.25568">
        <ele>43.400001525879</ele>
        <time>2016-04-04T19:05:16Z</time>
      </trkpt>
      <trkpt lat="48.81932" lon="2.25545">
        <ele>42.400001525879</ele>
        <time>2016-04-04T19:05:19Z</time>
      </trkpt>
      <trkpt lat="48.81922" lon="2.25517">
        <ele>41</ele>
        <time>2016-04-04T19:05:22Z</time>
      </trkpt>
      <trkpt lat="48.81913" lon="2.25489">
        <ele>39.79999923706</ele>
        <time>2016-04-04T19:05:25Z</time>
      </trkpt>
      <trkpt lat="48.81907" lon="2.25459">
        <ele>39.20000076294</ele>
        <time>2016-04-04T19:05:28Z</time>
      </trkpt>
      <trkpt lat="48.81899" lon="2.25431">
        <ele>39.599998474121</ele>
        <time>2016-04-04T19:05:31Z</time>
      </trkpt>
      <trkpt lat="48.8189" lon="2.25398">
        <ele>40</ele>
        <time>2016-04-04T19:05:34Z</time>
      </trkpt>
      <trkpt lat="48.81882" lon="2.25371">
        <ele>40.400001525879</ele>
        <time>2016-04-04T19:05:37Z</time>
      </trkpt>
      <trkpt lat="48.81875" lon="2.25342">
        <ele>41</ele>
        <time>2016-04-04T19:05:40Z</time>
      </trkpt>
      <trkpt lat="48.81867" lon="2.25313">
        <ele>41.79999923706</ele>
        <time>2016-04-04T19:05:43Z</time>
      </trkpt>
      <trkpt lat="48.8186" lon="2.25286">
        <ele>42</ele>
        <time>2016-04-04T19:05:46Z</time>
      </trkpt>
      <trkpt lat="48.81851" lon="2.25259">
        <ele>42.79999923706</ele>
        <time>2016-04-04T19:05:49Z</time>
      </trkpt>
      <trkpt lat="48.81844" lon="2.25234">
        <ele>43.20000076294</ele>
        <time>2016-04-04T19:05:52Z</time>
      </trkpt>
      <trkpt lat="48.81837" lon="2.25203">
        <ele>42.400001525879</ele>
        <time>2016-04-04T19:05:56Z</time>
      </trkpt>
      <trkpt lat="48.81828" lon="2.25178">
        <ele>42.599998474121</ele>
        <time>2016-04-04T19:06:00Z</time>
      </trkpt>
      <trkpt lat="48.8182" lon="2.25157">
        <ele>42.400001525879</ele>
        <time>2016-04-04T19:06:04Z</time>
      </trkpt>
      <trkpt lat="48.81809" lon="2.25129">
        <ele>42</ele>
        <time>2016-04-04T19:06:09Z</time>
      </trkpt>
      <trkpt lat="48.81807" lon="2.25122">
        <ele>41.79999923706</ele>
        <time>2016-04-04T19:06:10Z</time>
      </trkpt>
      <trkpt lat="48.81798" lon="2.25094">
        <ele>41.599998474121</ele>
        <time>2016-04-04T19:06:14Z</time>
      </trkpt>
      <trkpt lat="48.81791" lon="2.25063">
        <ele>41.400001525879</ele>
        <time>2016-04-04T19:06:18Z</time>
      </trkpt>
      <trkpt lat="48.81786" lon="2.25041">
        <ele>41.20000076294</ele>
        <time>2016-04-04T19:06:21Z</time>
      </trkpt>
      <trkpt lat="48.8178" lon="2.25025">
        <ele>41.20000076294</ele>
        <time>2016-04-04T19:06:24Z</time>
      </trkpt>
      <trkpt lat="48.81777" lon="2.25002">
        <ele>40.599998474121</ele>
        <time>2016-04-04T19:06:29Z</time>
      </trkpt>
      <trkpt lat="48.81777" lon="2.24998">
        <ele>40.599998474121</ele>
        <time>2016-04-04T19:06:30Z</time>
      </trkpt>
      <trkpt lat="48.81777" lon="2.2499">
        <ele>40.400001525879</ele>
        <time>2016-04-04T19:06:32Z</time>
      </trkpt>
      <trkpt lat="48.81778" lon="2.24978">
        <ele>40</ele>
        <time>2016-04-04T19:06:36Z</time>
      </trkpt>
      <trkpt lat="48.81777" lon="2.24972">
        <ele>39.79999923706</ele>
        <time>2016-04-04T19:06:38Z</time>
      </trkpt>
      <trkpt lat="48.81777" lon="2.24968">
        <ele>39.599998474121</ele>
        <time>2016-04-04T19:06:40Z</time>
      </trkpt>
      <trkpt lat="48.81784" lon="2.24944">
        <ele>38.20000076294</ele>
        <time>2016-04-04T19:07:11Z</time>
      </trkpt>
      <trkpt lat="48.81783" lon="2.24926">
        <ele>37.599998474121</ele>
        <time>2016-04-04T19:07:43Z</time>
      </trkpt>
      <trkpt lat="48.81788" lon="2.2491">
        <ele>37.79999923706</ele>
        <time>2016-04-04T19:08:25Z</time>
      </trkpt>
      <trkpt lat="48.81783" lon="2.24892">
        <ele>37.400001525879</ele>
        <time>2016-04-04T19:08:30Z</time>
      </trkpt>
      <trkpt lat="48.81765" lon="2.24882">
        <ele>37.79999923706</ele>
        <time>2016-04-04T19:08:36Z</time>
      </trkpt>
      <trkpt lat="48.81748" lon="2.24871">
        <ele>39</ele>
        <time>2016-04-04T19:08:41Z</time>
      </trkpt>
      <trkpt lat="48.81732" lon="2.24857">
        <ele>40</ele>
        <time>2016-04-04T19:08:45Z</time>
      </trkpt>
      <trkpt lat="48.81716" lon="2.24837">
        <ele>40.79999923706</ele>
        <time>2016-04-04T19:08:49Z</time>
      </trkpt>
      <trkpt lat="48.81701" lon="2.24817">
        <ele>42</ele>
        <time>2016-04-04T19:08:53Z</time>
      </trkpt>
      <trkpt lat="48.81686" lon="2.24796">
        <ele>43</ele>
        <time>2016-04-04T19:08:58Z</time>
      </trkpt>
      <trkpt lat="48.81673" lon="2.24775">
        <ele>43.20000076294</ele>
        <time>2016-04-04T19:09:04Z</time>
      </trkpt>
      <trkpt lat="48.81659" lon="2.24752">
        <ele>43.400001525879</ele>
        <time>2016-04-04T19:09:08Z</time>
      </trkpt>
      <trkpt lat="48.81645" lon="2.24733">
        <ele>44.20000076294</ele>
        <time>2016-04-04T19:09:13Z</time>
      </trkpt>
      <trkpt lat="48.81639" lon="2.24726">
        <ele>44.599998474121</ele>
        <time>2016-04-04T19:09:15Z</time>
      </trkpt>
      <trkpt lat="48.81626" lon="2.24718">
        <ele>45</ele>
        <time>2016-04-04T19:09:19Z</time>
      </trkpt>
      <trkpt lat="48.81607" lon="2.24709">
        <ele>45.79999923706</ele>
        <time>2016-04-04T19:09:25Z</time>
      </trkpt>
      <trkpt lat="48.81588" lon="2.24707">
        <ele>47</ele>
        <time>2016-04-04T19:09:32Z</time>
      </trkpt>
      <trkpt lat="48.81578" lon="2.2471">
        <ele>47.599998474121</ele>
        <time>2016-04-04T19:09:42Z</time>
      </trkpt>
      <trkpt lat="48.81559" lon="2.24708">
        <ele>49</ele>
        <time>2016-04-04T19:09:48Z</time>
      </trkpt>
      <trkpt lat="48.81539" lon="2.24701">
        <ele>50.599998474121</ele>
        <time>2016-04-04T19:09:52Z</time>
      </trkpt>
      <trkpt lat="48.81533" lon="2.247">
        <ele>51</ele>
        <time>2016-04-04T19:09:53Z</time>
      </trkpt>
      <trkpt lat="48.81517" lon="2.24695">
        <ele>52.400001525879</ele>
        <time>2016-04-04T19:09:56Z</time>
      </trkpt>
      <trkpt lat="48.81506" lon="2.2469">
        <ele>53.400001525879</ele>
        <time>2016-04-04T19:09:58Z</time>
      </trkpt>
      <trkpt lat="48.81488" lon="2.24685">
        <ele>54.599998474121</ele>
        <time>2016-04-04T19:10:02Z</time>
      </trkpt>
      <trkpt lat="48.8147" lon="2.24681">
        <ele>56</ele>
        <time>2016-04-04T19:10:04Z</time>
      </trkpt>
      <trkpt lat="48.81453" lon="2.24679">
        <ele>57.20000076294</ele>
        <time>2016-04-04T19:10:08Z</time>
      </trkpt>
      <trkpt lat="48.81448" lon="2.24677">
        <ele>58.20000076294</ele>
        <time>2016-04-04T19:10:09Z</time>
      </trkpt>
      <trkpt lat="48.81425" lon="2.24675">
        <ele>60</ele>
        <time>2016-04-04T19:10:12Z</time>
      </trkpt>
      <trkpt lat="48.81413" lon="2.24672">
        <ele>60.599998474121</ele>
        <time>2016-04-04T19:10:15Z</time>
      </trkpt>
      <trkpt lat="48.81394" lon="2.24662">
        <ele>61.20000076294</ele>
        <time>2016-04-04T19:10:18Z</time>
      </trkpt>
      <trkpt lat="48.81377" lon="2.24652">
        <ele>62.20000076294</ele>
        <time>2016-04-04T19:10:22Z</time>
      </trkpt>
      <trkpt lat="48.81357" lon="2.24644">
        <ele>63.400001525879</ele>
        <time>2016-04-04T19:10:26Z</time>
      </trkpt>
      <trkpt lat="48.81348" lon="2.2464">
        <ele>63.20000076294</ele>
        <time>2016-04-04T19:10:28Z</time>
      </trkpt>
      <trkpt lat="48.81329" lon="2.24634">
        <ele>62.20000076294</ele>
        <time>2016-04-04T19:10:33Z</time>
      </trkpt>
      <trkpt lat="48.81321" lon="2.2463">
        <ele>61.79999923706</ele>
        <time>2016-04-04T19:10:36Z</time>
      </trkpt>
      <trkpt lat="48.81311" lon="2.24618">
        <ele>61.400001525879</ele>
        <time>2016-04-04T19:11:49Z</time>
      </trkpt>
      <trkpt lat="48.81316" lon="2.24624">
        <ele>61.599998474121</ele>
        <time>2016-04-04T19:13:34Z</time>
      </trkpt>
      <trkpt lat="48.81307" lon="2.24625">
        <ele>61.20000076294</ele>
        <time>2016-04-04T19:14:29Z</time>
      </trkpt>
      <trkpt lat="48.81288" lon="2.24615">
        <ele>60.400001525879</ele>
        <time>2016-04-04T19:14:35Z</time>
      </trkpt>
      <trkpt lat="48.8127" lon="2.24601">
        <ele>59.79999923706</ele>
        <time>2016-04-04T19:14:40Z</time>
      </trkpt>
      <trkpt lat="48.81254" lon="2.24587">
        <ele>60.79999923706</ele>
        <time>2016-04-04T19:14:44Z</time>
      </trkpt>
      <trkpt lat="48.81236" lon="2.2457">
        <ele>61.79999923706</ele>
        <time>2016-04-04T19:14:48Z</time>
      </trkpt>
      <trkpt lat="48.81212" lon="2.2455">
        <ele>62.79999923706</ele>
        <time>2016-04-04T19:14:53Z</time>
      </trkpt>
      <trkpt lat="48.81194" lon="2.24531">
        <ele>63.79999923706</ele>
        <time>2016-04-04T19:14:57Z</time>
      </trkpt>
      <trkpt lat="48.81174" lon="2.24512">
        <ele>65</ele>
        <time>2016-04-04T19:15:01Z</time>
      </trkpt>
      <trkpt lat="48.81157" lon="2.24495">
        <ele>66.199996948242</ele>
        <time>2016-04-04T19:15:05Z</time>
      </trkpt>
      <trkpt lat="48.81141" lon="2.24477">
        <ele>67</ele>
        <time>2016-04-04T19:15:09Z</time>
      </trkpt>
      <trkpt lat="48.81125" lon="2.24459">
        <ele>67.800003051758</ele>
        <time>2016-04-04T19:15:13Z</time>
      </trkpt>
      <trkpt lat="48.81115" lon="2.24449">
        <ele>68.199996948242</ele>
        <time>2016-04-04T19:15:15Z</time>
      </trkpt>
      <trkpt lat="48.81095" lon="2.24433">
        <ele>69.599998474121</ele>
        <time>2016-04-04T19:15:19Z</time>
      </trkpt>
      <trkpt lat="48.8108" lon="2.24416">
        <ele>70.800003051758</ele>
        <time>2016-04-04T19:15:23Z</time>
      </trkpt>
      <trkpt lat="48.81064" lon="2.24396">
        <ele>71.599998474121</ele>
        <time>2016-04-04T19:15:27Z</time>
      </trkpt>
      <trkpt lat="48.81051" lon="2.24376">
        <ele>72.199996948242</ele>
        <time>2016-04-04T19:15:31Z</time>
      </trkpt>
      <trkpt lat="48.81037" lon="2.24355">
        <ele>72.599998474121</ele>
        <time>2016-04-04T19:15:35Z</time>
      </trkpt>
      <trkpt lat="48.81021" lon="2.24335">
        <ele>73.400001525879</ele>
        <time>2016-04-04T19:15:39Z</time>
      </trkpt>
      <trkpt lat="48.81007" lon="2.24316">
        <ele>73.599998474121</ele>
        <time>2016-04-04T19:15:43Z</time>
      </trkpt>
      <trkpt lat="48.80993" lon="2.24295">
        <ele>73.800003051758</ele>
        <time>2016-04-04T19:15:47Z</time>
      </trkpt>
      <trkpt lat="48.80982" lon="2.24279">
        <ele>74</ele>
        <time>2016-04-04T19:15:50Z</time>
      </trkpt>
      <trkpt lat="48.80974" lon="2.2427">
        <ele>74.400001525879</ele>
        <time>2016-04-04T19:15:52Z</time>
      </trkpt>
      <trkpt lat="48.80959" lon="2.24254">
        <ele>74.800003051758</ele>
        <time>2016-04-04T19:15:56Z</time>
      </trkpt>
      <trkpt lat="48.80946" lon="2.24239">
        <ele>75.400001525879</ele>
        <time>2016-04-04T19:16:00Z</time>
      </trkpt>
      <trkpt lat="48.80932" lon="2.24222">
        <ele>76.199996948242</ele>
        <time>2016-04-04T19:16:04Z</time>
      </trkpt>
      <trkpt lat="48.80924" lon="2.24214">
        <ele>76.400001525879</ele>
        <time>2016-04-04T19:16:06Z</time>
      </trkpt>
      <trkpt lat="48.80908" lon="2.24196">
        <ele>76.800003051758</ele>
        <time>2016-04-04T19:16:10Z</time>
      </trkpt>
      <trkpt lat="48.80893" lon="2.24179">
        <ele>77</ele>
        <time>2016-04-04T19:16:14Z</time>
      </trkpt>
      <trkpt lat="48.80878" lon="2.24163">
        <ele>77.400001525879</ele>
        <time>2016-04-04T19:16:18Z</time>
      </trkpt>
      <trkpt lat="48.80856" lon="2.2414">
        <ele>78</ele>
        <time>2016-04-04T19:16:24Z</time>
      </trkpt>
      <trkpt lat="48.80839" lon="2.24126">
        <ele>78.400001525879</ele>
        <time>2016-04-04T19:16:28Z</time>
      </trkpt>
      <trkpt lat="48.80822" lon="2.24114">
        <ele>78.800003051758</ele>
        <time>2016-04-04T19:16:33Z</time>
      </trkpt>
      <trkpt lat="48.80816" lon="2.24111">
        <ele>79</ele>
        <time>2016-04-04T19:16:37Z</time>
      </trkpt>
      <trkpt lat="48.8081" lon="2.2412">
        <ele>79.199996948242</ele>
        <time>2016-04-04T19:16:44Z</time>
      </trkpt>
      <trkpt lat="48.80811" lon="2.2413">
        <ele>79.599998474121</ele>
        <time>2016-04-04T19:18:06Z</time>
      </trkpt>
      <trkpt lat="48.8081" lon="2.24121">
        <ele>79.199996948242</ele>
        <time>2016-04-04T19:18:08Z</time>
      </trkpt>
      <trkpt lat="48.80803" lon="2.24092">
        <ele>79.199996948242</ele>
        <time>2016-04-04T19:18:14Z</time>
      </trkpt>
      <trkpt lat="48.80792" lon="2.24068">
        <ele>80.400001525879</ele>
        <time>2016-04-04T19:18:19Z</time>
      </trkpt>
      <trkpt lat="48.80778" lon="2.24046">
        <ele>82.599998474121</ele>
        <time>2016-04-04T19:18:26Z</time>
      </trkpt>
      <trkpt lat="48.80763" lon="2.24025">
        <ele>84.199996948242</ele>
        <time>2016-04-04T19:18:32Z</time>
      </trkpt>
      <trkpt lat="48.80751" lon="2.24">
        <ele>85.800003051758</ele>
        <time>2016-04-04T19:18:40Z</time>
      </trkpt>
      <trkpt lat="48.80737" lon="2.23984">
        <ele>87.400001525879</ele>
        <time>2016-04-04T19:18:44Z</time>
      </trkpt>
      <trkpt lat="48.8072" lon="2.23963">
        <ele>89.800003051758</ele>
        <time>2016-04-04T19:18:49Z</time>
      </trkpt>
      <trkpt lat="48.80708" lon="2.23947">
        <ele>91.800003051758</ele>
        <time>2016-04-04T19:18:53Z</time>
      </trkpt>
      <trkpt lat="48.80701" lon="2.23938">
        <ele>92.800003051758</ele>
        <time>2016-04-04T19:18:55Z</time>
      </trkpt>
      <trkpt lat="48.8069" lon="2.2392">
        <ele>95</ele>
        <time>2016-04-04T19:18:59Z</time>
      </trkpt>
      <trkpt lat="48.80687" lon="2.23916">
        <ele>95.599998474121</ele>
        <time>2016-04-04T19:19:00Z</time>
      </trkpt>
      <trkpt lat="48.80676" lon="2.239">
        <ele>97.199996948242</ele>
        <time>2016-04-04T19:19:04Z</time>
      </trkpt>
      <trkpt lat="48.80662" lon="2.23881">
        <ele>99</ele>
        <time>2016-04-04T19:19:09Z</time>
      </trkpt>
      <trkpt lat="48.80659" lon="2.23878">
        <ele>99.199996948242</ele>
        <time>2016-04-04T19:19:10Z</time>
      </trkpt>
      <trkpt lat="48.80652" lon="2.23868">
        <ele>100.19999694824</ele>
        <time>2016-04-04T19:19:13Z</time>
      </trkpt>
      <trkpt lat="48.80635" lon="2.2385">
        <ele>101.80000305176</ele>
        <time>2016-04-04T19:19:20Z</time>
      </trkpt>
      <trkpt lat="48.80622" lon="2.23832">
        <ele>103.59999847412</ele>
        <time>2016-04-04T19:19:31Z</time>
      </trkpt>
      <trkpt lat="48.80617" lon="2.23824">
        <ele>104</ele>
        <time>2016-04-04T19:19:38Z</time>
      </trkpt>
      <trkpt lat="48.80634" lon="2.23828">
        <ele>103.59999847412</ele>
        <time>2016-04-04T19:19:59Z</time>
      </trkpt>
      <trkpt lat="48.80631" lon="2.23825">
        <ele>103.80000305176</ele>
        <time>2016-04-04T19:20:05Z</time>
      </trkpt>
      <trkpt lat="48.80627" lon="2.23826">
        <ele>103.80000305176</ele>
        <time>2016-04-04T19:20:29Z</time>
      </trkpt>
      <trkpt lat="48.80617" lon="2.23826">
        <ele>104</ele>
        <time>2016-04-04T19:21:05Z</time>
      </trkpt>
      <trkpt lat="48.8062" lon="2.23826">
        <ele>104</ele>
        <time>2016-04-04T19:21:10Z</time>
      </trkpt>
      <trkpt lat="48.80619" lon="2.23828">
        <ele>103.80000305176</ele>
        <time>2016-04-04T19:21:43Z</time>
      </trkpt>
      <trkpt lat="48.806" lon="2.23827">
        <ele>104</ele>
        <time>2016-04-04T19:22:00Z</time>
      </trkpt>
      <trkpt lat="48.80577" lon="2.23821">
        <ele>103.40000152588</ele>
        <time>2016-04-04T19:22:07Z</time>
      </trkpt>
      <trkpt lat="48.80558" lon="2.23817">
        <ele>103</ele>
        <time>2016-04-04T19:22:15Z</time>
      </trkpt>
      <trkpt lat="48.80547" lon="2.23834">
        <ele>101.59999847412</ele>
        <time>2016-04-04T19:22:55Z</time>
      </trkpt>
      <trkpt lat="48.80531" lon="2.23846">
        <ele>99.800003051758</ele>
        <time>2016-04-04T19:23:01Z</time>
      </trkpt>
      <trkpt lat="48.80521" lon="2.23844">
        <ele>99.599998474121</ele>
        <time>2016-04-04T19:23:03Z</time>
      </trkpt>
      <trkpt lat="48.80502" lon="2.23835">
        <ele>98.599998474121</ele>
        <time>2016-04-04T19:23:08Z</time>
      </trkpt>
      <trkpt lat="48.80482" lon="2.23829">
        <ele>97.199996948242</ele>
        <time>2016-04-04T19:23:14Z</time>
      </trkpt>
      <trkpt lat="48.80464" lon="2.23826">
        <ele>95.599998474121</ele>
        <time>2016-04-04T19:23:20Z</time>
      </trkpt>
      <trkpt lat="48.80445" lon="2.23822">
        <ele>94.199996948242</ele>
        <time>2016-04-04T19:23:26Z</time>
      </trkpt>
      <trkpt lat="48.80426" lon="2.23817">
        <ele>93.400001525879</ele>
        <time>2016-04-04T19:23:31Z</time>
      </trkpt>
      <trkpt lat="48.80401" lon="2.23807">
        <ele>93.199996948242</ele>
        <time>2016-04-04T19:23:35Z</time>
      </trkpt>
      <trkpt lat="48.80376" lon="2.23795">
        <ele>93.199996948242</ele>
        <time>2016-04-04T19:23:39Z</time>
      </trkpt>
      <trkpt lat="48.80358" lon="2.23785">
        <ele>93.400001525879</ele>
        <time>2016-04-04T19:23:43Z</time>
      </trkpt>
      <trkpt lat="48.80343" lon="2.23776">
        <ele>93.599998474121</ele>
        <time>2016-04-04T19:23:45Z</time>
      </trkpt>
      <trkpt lat="48.80334" lon="2.23771">
        <ele>94</ele>
        <time>2016-04-04T19:23:48Z</time>
      </trkpt>
      <trkpt lat="48.80314" lon="2.23761">
        <ele>94.400001525879</ele>
        <time>2016-04-04T19:23:52Z</time>
      </trkpt>
      <trkpt lat="48.80295" lon="2.23752">
        <ele>94.800003051758</ele>
        <time>2016-04-04T19:23:57Z</time>
      </trkpt>
      <trkpt lat="48.80276" lon="2.23744">
        <ele>95.199996948242</ele>
        <time>2016-04-04T19:24:04Z</time>
      </trkpt>
      <trkpt lat="48.80268" lon="2.2374">
        <ele>95.599998474121</ele>
        <time>2016-04-04T19:24:07Z</time>
      </trkpt>
      <trkpt lat="48.80262" lon="2.23739">
        <ele>95.800003051758</ele>
        <time>2016-04-04T19:24:10Z</time>
      </trkpt>
      <trkpt lat="48.80256" lon="2.23739">
        <ele>96</ele>
        <time>2016-04-04T19:24:15Z</time>
      </trkpt>
      <trkpt lat="48.80247" lon="2.23761">
        <ele>95.199996948242</ele>
        <time>2016-04-04T19:24:39Z</time>
      </trkpt>
      <trkpt lat="48.8024" lon="2.23788">
        <ele>94.800003051758</ele>
        <time>2016-04-04T19:24:44Z</time>
      </trkpt>
      <trkpt lat="48.80233" lon="2.23814">
        <ele>94.800003051758</ele>
        <time>2016-04-04T19:24:48Z</time>
      </trkpt>
      <trkpt lat="48.80228" lon="2.23843">
        <ele>95.199996948242</ele>
        <time>2016-04-04T19:24:53Z</time>
      </trkpt>
      <trkpt lat="48.80227" lon="2.23861">
        <ele>95.599998474121</ele>
        <time>2016-04-04T19:24:59Z</time>
      </trkpt>
      <trkpt lat="48.80246" lon="2.23876">
        <ele>94.800003051758</ele>
        <time>2016-04-04T19:25:05Z</time>
      </trkpt>
      <trkpt lat="48.80264" lon="2.23885">
        <ele>94</ele>
        <time>2016-04-04T19:25:10Z</time>
      </trkpt>
      <trkpt lat="48.80284" lon="2.23894">
        <ele>93.199996948242</ele>
        <time>2016-04-04T19:25:14Z</time>
      </trkpt>
      <trkpt lat="48.80305" lon="2.23907">
        <ele>92.400001525879</ele>
        <time>2016-04-04T19:25:18Z</time>
      </trkpt>
      <trkpt lat="48.80331" lon="2.23925">
        <ele>92</ele>
        <time>2016-04-04T19:25:22Z</time>
      </trkpt>
      <trkpt lat="48.80357" lon="2.23941">
        <ele>92</ele>
        <time>2016-04-04T19:25:27Z</time>
      </trkpt>
      <trkpt lat="48.80379" lon="2.23959">
        <ele>91.400001525879</ele>
        <time>2016-04-04T19:25:32Z</time>
      </trkpt>
      <trkpt lat="48.80384" lon="2.23964">
        <ele>91.199996948242</ele>
        <time>2016-04-04T19:25:35Z</time>
      </trkpt>
      <trkpt lat="48.80399" lon="2.23968">
        <ele>90.400001525879</ele>
        <time>2016-04-04T19:25:41Z</time>
      </trkpt>
      <trkpt lat="48.8042" lon="2.23977">
        <ele>89.199996948242</ele>
        <time>2016-04-04T19:25:48Z</time>
      </trkpt>
      <trkpt lat="48.80438" lon="2.23988">
        <ele>89</ele>
        <time>2016-04-04T19:25:56Z</time>
      </trkpt>
      <trkpt lat="48.80456" lon="2.23999">
        <ele>88.599998474121</ele>
        <time>2016-04-04T19:26:01Z</time>
      </trkpt>
      <trkpt lat="48.80475" lon="2.24012">
        <ele>88</ele>
        <time>2016-04-04T19:26:06Z</time>
      </trkpt>
      <trkpt lat="48.80492" lon="2.24023">
        <ele>87.400001525879</ele>
        <time>2016-04-04T19:26:10Z</time>
      </trkpt>
      <trkpt lat="48.80512" lon="2.24034">
        <ele>86.800003051758</ele>
        <time>2016-04-04T19:26:15Z</time>
      </trkpt>
      <trkpt lat="48.80533" lon="2.24046">
        <ele>86</ele>
        <time>2016-04-04T19:26:21Z</time>
      </trkpt>
      <trkpt lat="48.80555" lon="2.24057">
        <ele>85</ele>
        <time>2016-04-04T19:26:26Z</time>
      </trkpt>
      <trkpt lat="48.80577" lon="2.24065">
        <ele>84.199996948242</ele>
        <time>2016-04-04T19:26:31Z</time>
      </trkpt>
      <trkpt lat="48.80582" lon="2.24068">
        <ele>84</ele>
        <time>2016-04-04T19:26:32Z</time>
      </trkpt>
      <trkpt lat="48.80602" lon="2.24078">
        <ele>83.199996948242</ele>
        <time>2016-04-04T19:26:36Z</time>
      </trkpt>
      <trkpt lat="48.80632" lon="2.2409">
        <ele>82.599998474121</ele>
        <time>2016-04-04T19:26:41Z</time>
      </trkpt>
      <trkpt lat="48.80646" lon="2.24096">
        <ele>82.599998474121</ele>
        <time>2016-04-04T19:26:45Z</time>
      </trkpt>
      <trkpt lat="48.80662" lon="2.24109">
        <ele>82.800003051758</ele>
        <time>2016-04-04T19:26:48Z</time>
      </trkpt>
      <trkpt lat="48.8068" lon="2.2412">
        <ele>82.800003051758</ele>
        <time>2016-04-04T19:26:54Z</time>
      </trkpt>
      <trkpt lat="48.80697" lon="2.2413">
        <ele>83</ele>
        <time>2016-04-04T19:26:59Z</time>
      </trkpt>
      <trkpt lat="48.80718" lon="2.24141">
        <ele>83.400001525879</ele>
        <time>2016-04-04T19:27:04Z</time>
      </trkpt>
      <trkpt lat="48.80738" lon="2.2415">
        <ele>83.599998474121</ele>
        <time>2016-04-04T19:27:08Z</time>
      </trkpt>
      <trkpt lat="48.80757" lon="2.24162">
        <ele>84.199996948242</ele>
        <time>2016-04-04T19:27:13Z</time>
      </trkpt>
      <trkpt lat="48.80761" lon="2.24163">
        <ele>84.199996948242</ele>
        <time>2016-04-04T19:27:14Z</time>
      </trkpt>
      <trkpt lat="48.80768" lon="2.24166">
        <ele>84.400001525879</ele>
        <time>2016-04-04T19:27:17Z</time>
      </trkpt>
      <trkpt lat="48.80774" lon="2.24173">
        <ele>84.599998474121</ele>
        <time>2016-04-04T19:27:20Z</time>
      </trkpt>
      <trkpt lat="48.80775" lon="2.24177">
        <ele>84.800003051758</ele>
        <time>2016-04-04T19:27:22Z</time>
      </trkpt>
      <trkpt lat="48.80786" lon="2.24191">
        <ele>84.800003051758</ele>
        <time>2016-04-04T19:27:40Z</time>
      </trkpt>
      <trkpt lat="48.80796" lon="2.24213">
        <ele>85.599998474121</ele>
        <time>2016-04-04T19:27:50Z</time>
      </trkpt>
      <trkpt lat="48.80809" lon="2.24237">
        <ele>86.199996948242</ele>
        <time>2016-04-04T19:27:59Z</time>
      </trkpt>
      <trkpt lat="48.80821" lon="2.24257">
        <ele>87</ele>
        <time>2016-04-04T19:28:06Z</time>
      </trkpt>
      <trkpt lat="48.80834" lon="2.2428">
        <ele>88</ele>
        <time>2016-04-04T19:28:16Z</time>
      </trkpt>
      <trkpt lat="48.80846" lon="2.24303">
        <ele>89.199996948242</ele>
        <time>2016-04-04T19:28:22Z</time>
      </trkpt>
      <trkpt lat="48.8086" lon="2.24321">
        <ele>89.599998474121</ele>
        <time>2016-04-04T19:28:27Z</time>
      </trkpt>
      <trkpt lat="48.80875" lon="2.2434">
        <ele>89.199996948242</ele>
        <time>2016-04-04T19:28:32Z</time>
      </trkpt>
      <trkpt lat="48.8089" lon="2.24359">
        <ele>88.199996948242</ele>
        <time>2016-04-04T19:28:36Z</time>
      </trkpt>
      <trkpt lat="48.80905" lon="2.24379">
        <ele>87.400001525879</ele>
        <time>2016-04-04T19:28:40Z</time>
      </trkpt>
      <trkpt lat="48.80918" lon="2.24406">
        <ele>87.599998474121</ele>
        <time>2016-04-04T19:28:45Z</time>
      </trkpt>
      <trkpt lat="48.80928" lon="2.24431">
        <ele>88.800003051758</ele>
        <time>2016-04-04T19:28:51Z</time>
      </trkpt>
      <trkpt lat="48.80928" lon="2.24436">
        <ele>89.199996948242</ele>
        <time>2016-04-04T19:28:53Z</time>
      </trkpt>
      <trkpt lat="48.80935" lon="2.2446">
        <ele>90.800003051758</ele>
        <time>2016-04-04T19:29:08Z</time>
      </trkpt>
      <trkpt lat="48.80945" lon="2.24484">
        <ele>91.599998474121</ele>
        <time>2016-04-04T19:29:15Z</time>
      </trkpt>
      <trkpt lat="48.80958" lon="2.24505">
        <ele>91.199996948242</ele>
        <time>2016-04-04T19:29:21Z</time>
      </trkpt>
      <trkpt lat="48.80969" lon="2.24532">
        <ele>90.800003051758</ele>
        <time>2016-04-04T19:29:28Z</time>
      </trkpt>
      <trkpt lat="48.80975" lon="2.24561">
        <ele>91.199996948242</ele>
        <time>2016-04-04T19:29:34Z</time>
      </trkpt>
      <trkpt lat="48.80985" lon="2.24585">
        <ele>91.199996948242</ele>
        <time>2016-04-04T19:29:39Z</time>
      </trkpt>
      <trkpt lat="48.80993" lon="2.24613">
        <ele>92.400001525879</ele>
        <time>2016-04-04T19:29:45Z</time>
      </trkpt>
      <trkpt lat="48.81006" lon="2.24639">
        <ele>92.599998474121</ele>
        <time>2016-04-04T19:29:50Z</time>
      </trkpt>
      <trkpt lat="48.81016" lon="2.24665">
        <ele>92.800003051758</ele>
        <time>2016-04-04T19:29:55Z</time>
      </trkpt>
      <trkpt lat="48.81023" lon="2.24697">
        <ele>93</ele>
        <time>2016-04-04T19:30:00Z</time>
      </trkpt>
      <trkpt lat="48.81028" lon="2.24727">
        <ele>93.599998474121</ele>
        <time>2016-04-04T19:30:05Z</time>
      </trkpt>
      <trkpt lat="48.81031" lon="2.24756">
        <ele>94.199996948242</ele>
        <time>2016-04-04T19:30:10Z</time>
      </trkpt>
      <trkpt lat="48.81042" lon="2.2478">
        <ele>93.599998474121</ele>
        <time>2016-04-04T19:30:15Z</time>
      </trkpt>
      <trkpt lat="48.81056" lon="2.24802">
        <ele>92.800003051758</ele>
        <time>2016-04-04T19:30:20Z</time>
      </trkpt>
      <trkpt lat="48.8107" lon="2.24822">
        <ele>91.599998474121</ele>
        <time>2016-04-04T19:30:25Z</time>
      </trkpt>
      <trkpt lat="48.81086" lon="2.24843">
        <ele>90.800003051758</ele>
        <time>2016-04-04T19:30:30Z</time>
      </trkpt>
      <trkpt lat="48.81101" lon="2.2486">
        <ele>90</ele>
        <time>2016-04-04T19:30:35Z</time>
      </trkpt>
      <trkpt lat="48.81116" lon="2.24881">
        <ele>89.800003051758</ele>
        <time>2016-04-04T19:30:40Z</time>
      </trkpt>
      <trkpt lat="48.81132" lon="2.24896">
        <ele>89.599998474121</ele>
        <time>2016-04-04T19:30:44Z</time>
      </trkpt>
      <trkpt lat="48.81146" lon="2.24916">
        <ele>89.800003051758</ele>
        <time>2016-04-04T19:30:48Z</time>
      </trkpt>
      <trkpt lat="48.81163" lon="2.24939">
        <ele>90</ele>
        <time>2016-04-04T19:30:52Z</time>
      </trkpt>
      <trkpt lat="48.81178" lon="2.24964">
        <ele>90.599998474121</ele>
        <time>2016-04-04T19:30:56Z</time>
      </trkpt>
      <trkpt lat="48.81196" lon="2.24986">
        <ele>91.199996948242</ele>
        <time>2016-04-04T19:31:00Z</time>
      </trkpt>
      <trkpt lat="48.81212" lon="2.2501">
        <ele>91.800003051758</ele>
        <time>2016-04-04T19:31:04Z</time>
      </trkpt>
      <trkpt lat="48.81226" lon="2.25029">
        <ele>92.199996948242</ele>
        <time>2016-04-04T19:31:08Z</time>
      </trkpt>
      <trkpt lat="48.8124" lon="2.25049">
        <ele>92.800003051758</ele>
        <time>2016-04-04T19:31:12Z</time>
      </trkpt>
      <trkpt lat="48.81254" lon="2.25074">
        <ele>93.400001525879</ele>
        <time>2016-04-04T19:31:16Z</time>
      </trkpt>
      <trkpt lat="48.8127" lon="2.25096">
        <ele>93.400001525879</ele>
        <time>2016-04-04T19:31:20Z</time>
      </trkpt>
      <trkpt lat="48.81287" lon="2.2512">
        <ele>93.400001525879</ele>
        <time>2016-04-04T19:31:24Z</time>
      </trkpt>
      <trkpt lat="48.813" lon="2.25139">
        <ele>93.400001525879</ele>
        <time>2016-04-04T19:31:27Z</time>
      </trkpt>
      <trkpt lat="48.81309" lon="2.25151">
        <ele>93.400001525879</ele>
        <time>2016-04-04T19:31:29Z</time>
      </trkpt>
      <trkpt lat="48.81324" lon="2.25172">
        <ele>93.400001525879</ele>
        <time>2016-04-04T19:31:33Z</time>
      </trkpt>
      <trkpt lat="48.81337" lon="2.25193">
        <ele>93.800003051758</ele>
        <time>2016-04-04T19:31:37Z</time>
      </trkpt>
      <trkpt lat="48.81351" lon="2.25212">
        <ele>94</ele>
        <time>2016-04-04T19:31:41Z</time>
      </trkpt>
      <trkpt lat="48.81369" lon="2.2523">
        <ele>94.199996948242</ele>
        <time>2016-04-04T19:31:46Z</time>
      </trkpt>
      <trkpt lat="48.81383" lon="2.25247">
        <ele>94.800003051758</ele>
        <time>2016-04-04T19:31:50Z</time>
      </trkpt>
      <trkpt lat="48.81384" lon="2.25251">
        <ele>94.800003051758</ele>
        <time>2016-04-04T19:31:51Z</time>
      </trkpt>
      <trkpt lat="48.81387" lon="2.25255">
        <ele>95</ele>
        <time>2016-04-04T19:31:52Z</time>
      </trkpt>
      <trkpt lat="48.81393" lon="2.25269">
        <ele>95.400001525879</ele>
        <time>2016-04-04T19:31:56Z</time>
      </trkpt>
      <trkpt lat="48.81401" lon="2.25295">
        <ele>96.199996948242</ele>
        <time>2016-04-04T19:32:03Z</time>
      </trkpt>
      <trkpt lat="48.81407" lon="2.25324">
        <ele>97.199996948242</ele>
        <time>2016-04-04T19:32:09Z</time>
      </trkpt>
      <trkpt lat="48.81416" lon="2.25348">
        <ele>97.199996948242</ele>
        <time>2016-04-04T19:32:17Z</time>
      </trkpt>
      <trkpt lat="48.81414" lon="2.25359">
        <ele>97.199996948242</ele>
        <time>2016-04-04T19:32:22Z</time>
      </trkpt>
      <trkpt lat="48.81404" lon="2.25363">
        <ele>97.400001525879</ele>
        <time>2016-04-04T19:33:32Z</time>
      </trkpt>
      <trkpt lat="48.81384" lon="2.25367">
        <ele>97.400001525879</ele>
        <time>2016-04-04T19:33:39Z</time>
      </trkpt>
      <trkpt lat="48.81365" lon="2.25369">
        <ele>97.199996948242</ele>
        <time>2016-04-04T19:33:45Z</time>
      </trkpt>
      <trkpt lat="48.81347" lon="2.25373">
        <ele>96.599998474121</ele>
        <time>2016-04-04T19:33:51Z</time>
      </trkpt>
      <trkpt lat="48.81328" lon="2.25377">
        <ele>95.800003051758</ele>
        <time>2016-04-04T19:33:57Z</time>
      </trkpt>
      <trkpt lat="48.81308" lon="2.25382">
        <ele>95.599998474121</ele>
        <time>2016-04-04T19:34:02Z</time>
      </trkpt>
      <trkpt lat="48.81305" lon="2.25383">
        <ele>95.599998474121</ele>
        <time>2016-04-04T19:34:03Z</time>
      </trkpt>
      <trkpt lat="48.81296" lon="2.25412">
        <ele>96</ele>
        <time>2016-04-04T19:34:08Z</time>
      </trkpt>
      <trkpt lat="48.81294" lon="2.25445">
        <ele>96</ele>
        <time>2016-04-04T19:34:13Z</time>
      </trkpt>
      <trkpt lat="48.81294" lon="2.25473">
        <ele>96.599998474121</ele>
        <time>2016-04-04T19:34:17Z</time>
      </trkpt>
      <trkpt lat="48.81293" lon="2.25501">
        <ele>97.199996948242</ele>
        <time>2016-04-04T19:34:21Z</time>
      </trkpt>
      <trkpt lat="48.81293" lon="2.25529">
        <ele>96.599998474121</ele>
        <time>2016-04-04T19:34:25Z</time>
      </trkpt>
      <trkpt lat="48.81293" lon="2.25549">
        <ele>95.800003051758</ele>
        <time>2016-04-04T19:34:28Z</time>
      </trkpt>
      <trkpt lat="48.81293" lon="2.25578">
        <ele>94.800003051758</ele>
        <time>2016-04-04T19:34:32Z</time>
      </trkpt>
      <trkpt lat="48.81293" lon="2.25591">
        <ele>94.599998474121</ele>
        <time>2016-04-04T19:34:34Z</time>
      </trkpt>
      <trkpt lat="48.81293" lon="2.25617">
        <ele>94</ele>
        <time>2016-04-04T19:34:38Z</time>
      </trkpt>
      <trkpt lat="48.81296" lon="2.2565">
        <ele>93.199996948242</ele>
        <time>2016-04-04T19:34:43Z</time>
      </trkpt>
      <trkpt lat="48.81297" lon="2.25678">
        <ele>93.199996948242</ele>
        <time>2016-04-04T19:34:47Z</time>
      </trkpt>
      <trkpt lat="48.81299" lon="2.25707">
        <ele>93.599998474121</ele>
        <time>2016-04-04T19:34:51Z</time>
      </trkpt>
      <trkpt lat="48.813" lon="2.25733">
        <ele>93.800003051758</ele>
        <time>2016-04-04T19:34:55Z</time>
      </trkpt>
      <trkpt lat="48.813" lon="2.2576">
        <ele>93.400001525879</ele>
        <time>2016-04-04T19:34:59Z</time>
      </trkpt>
      <trkpt lat="48.81299" lon="2.25776">
        <ele>93</ele>
        <time>2016-04-04T19:35:02Z</time>
      </trkpt>
      <trkpt lat="48.81297" lon="2.25789">
        <ele>92.599998474121</ele>
        <time>2016-04-04T19:35:07Z</time>
      </trkpt>
      <trkpt lat="48.81297" lon="2.25791">
        <ele>92.599998474121</ele>
        <time>2016-04-04T19:35:08Z</time>
      </trkpt>
      <trkpt lat="48.81297" lon="2.25794">
        <ele>92.599998474121</ele>
        <time>2016-04-04T19:35:10Z</time>
      </trkpt>
      <trkpt lat="48.81303" lon="2.25823">
        <ele>91.800003051758</ele>
        <time>2016-04-04T19:35:27Z</time>
      </trkpt>
      <trkpt lat="48.81309" lon="2.25849">
        <ele>91</ele>
        <time>2016-04-04T19:35:34Z</time>
      </trkpt>
      <trkpt lat="48.81312" lon="2.25879">
        <ele>90.400001525879</ele>
        <time>2016-04-04T19:35:42Z</time>
      </trkpt>
      <trkpt lat="48.81314" lon="2.25909">
        <ele>89.599998474121</ele>
        <time>2016-04-04T19:35:49Z</time>
      </trkpt>
      <trkpt lat="48.8132" lon="2.25941">
        <ele>89.800003051758</ele>
        <time>2016-04-04T19:35:55Z</time>
      </trkpt>
      <trkpt lat="48.81321" lon="2.25974">
        <ele>90</ele>
        <time>2016-04-04T19:36:00Z</time>
      </trkpt>
      <trkpt lat="48.8132" lon="2.26008">
        <ele>90.400001525879</ele>
        <time>2016-04-04T19:36:05Z</time>
      </trkpt>
      <trkpt lat="48.81323" lon="2.26037">
        <ele>91.400001525879</ele>
        <time>2016-04-04T19:36:09Z</time>
      </trkpt>
      <trkpt lat="48.81324" lon="2.26065">
        <ele>92.400001525879</ele>
        <time>2016-04-04T19:36:13Z</time>
      </trkpt>
      <trkpt lat="48.81327" lon="2.26094">
        <ele>92.599998474121</ele>
        <time>2016-04-04T19:36:17Z</time>
      </trkpt>
      <trkpt lat="48.81329" lon="2.26123">
        <ele>92</ele>
        <time>2016-04-04T19:36:21Z</time>
      </trkpt>
      <trkpt lat="48.81331" lon="2.26137">
        <ele>91.599998474121</ele>
        <time>2016-04-04T19:36:23Z</time>
      </trkpt>
      <trkpt lat="48.81334" lon="2.26156">
        <ele>91.599998474121</ele>
        <time>2016-04-04T19:36:26Z</time>
      </trkpt>
      <trkpt lat="48.81338" lon="2.26168">
        <ele>91.199996948242</ele>
        <time>2016-04-04T19:36:28Z</time>
      </trkpt>
      <trkpt lat="48.81347" lon="2.26192">
        <ele>90.400001525879</ele>
        <time>2016-04-04T19:36:32Z</time>
      </trkpt>
      <trkpt lat="48.81358" lon="2.26218">
        <ele>89.800003051758</ele>
        <time>2016-04-04T19:36:37Z</time>
      </trkpt>
      <trkpt lat="48.81368" lon="2.26238">
        <ele>89.599998474121</ele>
        <time>2016-04-04T19:36:41Z</time>
      </trkpt>
      <trkpt lat="48.81379" lon="2.26263">
        <ele>90</ele>
        <time>2016-04-04T19:36:46Z</time>
      </trkpt>
      <trkpt lat="48.81384" lon="2.26273">
        <ele>90.400001525879</ele>
        <time>2016-04-04T19:36:48Z</time>
      </trkpt>
      <trkpt lat="48.81396" lon="2.26295">
        <ele>91</ele>
        <time>2016-04-04T19:36:53Z</time>
      </trkpt>
      <trkpt lat="48.81404" lon="2.2631">
        <ele>91.400001525879</ele>
        <time>2016-04-04T19:36:56Z</time>
      </trkpt>
      <trkpt lat="48.81417" lon="2.26337">
        <ele>92</ele>
        <time>2016-04-04T19:37:01Z</time>
      </trkpt>
      <trkpt lat="48.81425" lon="2.26353">
        <ele>92.400001525879</ele>
        <time>2016-04-04T19:37:04Z</time>
      </trkpt>
      <trkpt lat="48.81436" lon="2.26374">
        <ele>92.800003051758</ele>
        <time>2016-04-04T19:37:08Z</time>
      </trkpt>
      <trkpt lat="48.81445" lon="2.2639">
        <ele>93</ele>
        <time>2016-04-04T19:37:11Z</time>
      </trkpt>
      <trkpt lat="48.81457" lon="2.26416">
        <ele>93</ele>
        <time>2016-04-04T19:37:16Z</time>
      </trkpt>
      <trkpt lat="48.81471" lon="2.2644">
        <ele>93</ele>
        <time>2016-04-04T19:37:21Z</time>
      </trkpt>
      <trkpt lat="48.81477" lon="2.26454">
        <ele>93</ele>
        <time>2016-04-04T19:37:24Z</time>
      </trkpt>
      <trkpt lat="48.81483" lon="2.26467">
        <ele>92.800003051758</ele>
        <time>2016-04-04T19:37:27Z</time>
      </trkpt>
      <trkpt lat="48.81494" lon="2.26491">
        <ele>92.800003051758</ele>
        <time>2016-04-04T19:37:33Z</time>
      </trkpt>
      <trkpt lat="48.81496" lon="2.26495">
        <ele>92.800003051758</ele>
        <time>2016-04-04T19:37:34Z</time>
      </trkpt>
      <trkpt lat="48.81508" lon="2.26516">
        <ele>92.599998474121</ele>
        <time>2016-04-04T19:37:40Z</time>
      </trkpt>
      <trkpt lat="48.8152" lon="2.2654">
        <ele>92.400001525879</ele>
        <time>2016-04-04T19:37:47Z</time>
      </trkpt>
      <trkpt lat="48.81523" lon="2.26556">
        <ele>92.199996948242</ele>
        <time>2016-04-04T19:37:54Z</time>
      </trkpt>
      <trkpt lat="48.81524" lon="2.26565">
        <ele>92.199996948242</ele>
        <time>2016-04-04T19:37:58Z</time>
      </trkpt>
      <trkpt lat="48.81524" lon="2.26594">
        <ele>91.800003051758</ele>
        <time>2016-04-04T19:38:05Z</time>
      </trkpt>
      <trkpt lat="48.81523" lon="2.26622">
        <ele>91.599998474121</ele>
        <time>2016-04-04T19:38:11Z</time>
      </trkpt>
      <trkpt lat="48.81524" lon="2.26652">
        <ele>91.199996948242</ele>
        <time>2016-04-04T19:38:17Z</time>
      </trkpt>
      <trkpt lat="48.81523" lon="2.26682">
        <ele>91.400001525879</ele>
        <time>2016-04-04T19:38:22Z</time>
      </trkpt>
      <trkpt lat="48.81523" lon="2.26709">
        <ele>92.199996948242</ele>
        <time>2016-04-04T19:38:27Z</time>
      </trkpt>
      <trkpt lat="48.81521" lon="2.2674">
        <ele>92.800003051758</ele>
        <time>2016-04-04T19:38:32Z</time>
      </trkpt>
      <trkpt lat="48.81514" lon="2.26768">
        <ele>92.199996948242</ele>
        <time>2016-04-04T19:38:37Z</time>
      </trkpt>
      <trkpt lat="48.81501" lon="2.26789">
        <ele>91.199996948242</ele>
        <time>2016-04-04T19:38:42Z</time>
      </trkpt>
      <trkpt lat="48.81486" lon="2.26812">
        <ele>90.400001525879</ele>
        <time>2016-04-04T19:38:47Z</time>
      </trkpt>
      <trkpt lat="48.81469" lon="2.26832">
        <ele>89.599998474121</ele>
        <time>2016-04-04T19:38:52Z</time>
      </trkpt>
      <trkpt lat="48.81454" lon="2.26848">
        <ele>88.599998474121</ele>
        <time>2016-04-04T19:38:56Z</time>
      </trkpt>
      <trkpt lat="48.81439" lon="2.26864">
        <ele>88.599998474121</ele>
        <time>2016-04-04T19:39:00Z</time>
      </trkpt>
      <trkpt lat="48.81424" lon="2.2688">
        <ele>87.800003051758</ele>
        <time>2016-04-04T19:39:05Z</time>
      </trkpt>
      <trkpt lat="48.8141" lon="2.26895">
        <ele>87.199996948242</ele>
        <time>2016-04-04T19:39:12Z</time>
      </trkpt>
      <trkpt lat="48.81411" lon="2.26925">
        <ele>86.800003051758</ele>
        <time>2016-04-04T19:39:18Z</time>
      </trkpt>
      <trkpt lat="48.81413" lon="2.26956">
        <ele>86.599998474121</ele>
        <time>2016-04-04T19:39:24Z</time>
      </trkpt>
      <trkpt lat="48.81414" lon="2.26987">
        <ele>86.199996948242</ele>
        <time>2016-04-04T19:39:30Z</time>
      </trkpt>
      <trkpt lat="48.81415" lon="2.27014">
        <ele>85.199996948242</ele>
        <time>2016-04-04T19:39:37Z</time>
      </trkpt>
      <trkpt lat="48.81418" lon="2.2703">
        <ele>84.199996948242</ele>
        <time>2016-04-04T19:39:42Z</time>
      </trkpt>
      <trkpt lat="48.81419" lon="2.27058">
        <ele>82.599998474121</ele>
        <time>2016-04-04T19:39:47Z</time>
      </trkpt>
      <trkpt lat="48.8142" lon="2.27085">
        <ele>81.599998474121</ele>
        <time>2016-04-04T19:39:51Z</time>
      </trkpt>
      <trkpt lat="48.8142" lon="2.27114">
        <ele>80.199996948242</ele>
        <time>2016-04-04T19:39:55Z</time>
      </trkpt>
      <trkpt lat="48.81425" lon="2.27142">
        <ele>78.800003051758</ele>
        <time>2016-04-04T19:39:59Z</time>
      </trkpt>
      <trkpt lat="48.8143" lon="2.27171">
        <ele>77.800003051758</ele>
        <time>2016-04-04T19:40:03Z</time>
      </trkpt>
      <trkpt lat="48.81431" lon="2.27201">
        <ele>78</ele>
        <time>2016-04-04T19:40:07Z</time>
      </trkpt>
      <trkpt lat="48.81433" lon="2.27232">
        <ele>78</ele>
        <time>2016-04-04T19:40:11Z</time>
      </trkpt>
      <trkpt lat="48.81437" lon="2.2726">
        <ele>78</ele>
        <time>2016-04-04T19:40:15Z</time>
      </trkpt>
      <trkpt lat="48.81439" lon="2.27293">
        <ele>78</ele>
        <time>2016-04-04T19:40:20Z</time>
      </trkpt>
      <trkpt lat="48.81442" lon="2.27318">
        <ele>78</ele>
        <time>2016-04-04T19:40:24Z</time>
      </trkpt>
      <trkpt lat="48.81444" lon="2.27351">
        <ele>77.800003051758</ele>
        <time>2016-04-04T19:40:29Z</time>
      </trkpt>
      <trkpt lat="48.81448" lon="2.27385">
        <ele>77.599998474121</ele>
        <time>2016-04-04T19:40:34Z</time>
      </trkpt>
      <trkpt lat="48.8145" lon="2.27417">
        <ele>77.400001525879</ele>
        <time>2016-04-04T19:40:39Z</time>
      </trkpt>
      <trkpt lat="48.8145" lon="2.27423">
        <ele>77</ele>
        <time>2016-04-04T19:40:40Z</time>
      </trkpt>
      <trkpt lat="48.81454" lon="2.27442">
        <ele>76.199996948242</ele>
        <time>2016-04-04T19:40:43Z</time>
      </trkpt>
      <trkpt lat="48.81461" lon="2.27474">
        <ele>74.800003051758</ele>
        <time>2016-04-04T19:40:48Z</time>
      </trkpt>
      <trkpt lat="48.81468" lon="2.27502">
        <ele>73.400001525879</ele>
        <time>2016-04-04T19:40:52Z</time>
      </trkpt>
      <trkpt lat="48.81474" lon="2.2753">
        <ele>72.400001525879</ele>
        <time>2016-04-04T19:40:56Z</time>
      </trkpt>
      <trkpt lat="48.81479" lon="2.27559">
        <ele>71.599998474121</ele>
        <time>2016-04-04T19:41:00Z</time>
      </trkpt>
      <trkpt lat="48.81486" lon="2.27587">
        <ele>70.599998474121</ele>
        <time>2016-04-04T19:41:04Z</time>
      </trkpt>
      <trkpt lat="48.81494" lon="2.27617">
        <ele>69.400001525879</ele>
        <time>2016-04-04T19:41:08Z</time>
      </trkpt>
      <trkpt lat="48.81505" lon="2.27642">
        <ele>68.199996948242</ele>
        <time>2016-04-04T19:41:12Z</time>
      </trkpt>
      <trkpt lat="48.81518" lon="2.27668">
        <ele>67.199996948242</ele>
        <time>2016-04-04T19:41:17Z</time>
      </trkpt>
      <trkpt lat="48.8152" lon="2.27674">
        <ele>67</ele>
        <time>2016-04-04T19:41:18Z</time>
      </trkpt>
      <trkpt lat="48.81529" lon="2.27698">
        <ele>66.599998474121</ele>
        <time>2016-04-04T19:41:23Z</time>
      </trkpt>
      <trkpt lat="48.81531" lon="2.27709">
        <ele>66.599998474121</ele>
        <time>2016-04-04T19:41:27Z</time>
      </trkpt>
      <trkpt lat="48.81533" lon="2.27728">
        <ele>66.400001525879</ele>
        <time>2016-04-04T19:42:32Z</time>
      </trkpt>
      <trkpt lat="48.81521" lon="2.27752">
        <ele>66</ele>
        <time>2016-04-04T19:42:42Z</time>
      </trkpt>
      <trkpt lat="48.81508" lon="2.2777">
        <ele>66.800003051758</ele>
        <time>2016-04-04T19:42:49Z</time>
      </trkpt>
      <trkpt lat="48.81498" lon="2.27793">
        <ele>67.400001525879</ele>
        <time>2016-04-04T19:42:58Z</time>
      </trkpt>
      <trkpt lat="48.81486" lon="2.27803">
        <ele>67.800003051758</ele>
        <time>2016-04-04T19:43:08Z</time>
      </trkpt>
      <trkpt lat="48.81494" lon="2.27827">
        <ele>67.599998474121</ele>
        <time>2016-04-04T19:43:27Z</time>
      </trkpt>
      <trkpt lat="48.81508" lon="2.27846">
        <ele>68</ele>
        <time>2016-04-04T19:43:34Z</time>
      </trkpt>
      <trkpt lat="48.81523" lon="2.27861">
        <ele>68</ele>
        <time>2016-04-04T19:43:41Z</time>
      </trkpt>
      <trkpt lat="48.8154" lon="2.27876">
        <ele>67.599998474121</ele>
        <time>2016-04-04T19:43:46Z</time>
      </trkpt>
      <trkpt lat="48.81556" lon="2.27893">
        <ele>67.199996948242</ele>
        <time>2016-04-04T19:43:52Z</time>
      </trkpt>
      <trkpt lat="48.81573" lon="2.27912">
        <ele>66.800003051758</ele>
        <time>2016-04-04T19:43:57Z</time>
      </trkpt>
      <trkpt lat="48.81589" lon="2.27933">
        <ele>66.400001525879</ele>
        <time>2016-04-04T19:44:02Z</time>
      </trkpt>
      <trkpt lat="48.81601" lon="2.27957">
        <ele>66.199996948242</ele>
        <time>2016-04-04T19:44:07Z</time>
      </trkpt>
      <trkpt lat="48.81613" lon="2.27977">
        <ele>66.199996948242</ele>
        <time>2016-04-04T19:44:11Z</time>
      </trkpt>
      <trkpt lat="48.81624" lon="2.27999">
        <ele>66.199996948242</ele>
        <time>2016-04-04T19:44:16Z</time>
      </trkpt>
      <trkpt lat="48.8164" lon="2.28016">
        <ele>66.199996948242</ele>
        <time>2016-04-04T19:44:24Z</time>
      </trkpt>
      <trkpt lat="48.81654" lon="2.28035">
        <ele>66.599998474121</ele>
        <time>2016-04-04T19:44:30Z</time>
      </trkpt>
      <trkpt lat="48.81666" lon="2.28058">
        <ele>67</ele>
        <time>2016-04-04T19:44:35Z</time>
      </trkpt>
      <trkpt lat="48.81675" lon="2.28082">
        <ele>67.400001525879</ele>
        <time>2016-04-04T19:44:39Z</time>
      </trkpt>
      <trkpt lat="48.81689" lon="2.28112">
        <ele>67</ele>
        <time>2016-04-04T19:44:43Z</time>
      </trkpt>
      <trkpt lat="48.81698" lon="2.28143">
        <ele>66.400001525879</ele>
        <time>2016-04-04T19:44:47Z</time>
      </trkpt>
      <trkpt lat="48.81703" lon="2.28171">
        <ele>66.199996948242</ele>
        <time>2016-04-04T19:44:51Z</time>
      </trkpt>
      <trkpt lat="48.8171" lon="2.28202">
        <ele>66.599998474121</ele>
        <time>2016-04-04T19:44:55Z</time>
      </trkpt>
      <trkpt lat="48.81713" lon="2.28215">
        <ele>66.800003051758</ele>
        <time>2016-04-04T19:44:57Z</time>
      </trkpt>
      <trkpt lat="48.81723" lon="2.28242">
        <ele>66.800003051758</ele>
        <time>2016-04-04T19:45:01Z</time>
      </trkpt>
      <trkpt lat="48.81733" lon="2.2827">
        <ele>66.599998474121</ele>
        <time>2016-04-04T19:45:05Z</time>
      </trkpt>
      <trkpt lat="48.81743" lon="2.28294">
        <ele>66.400001525879</ele>
        <time>2016-04-04T19:45:08Z</time>
      </trkpt>
      <trkpt lat="48.81754" lon="2.28319">
        <ele>66</ele>
        <time>2016-04-04T19:45:11Z</time>
      </trkpt>
      <trkpt lat="48.81766" lon="2.28349">
        <ele>65.800003051758</ele>
        <time>2016-04-04T19:45:15Z</time>
      </trkpt>
      <trkpt lat="48.81776" lon="2.28374">
        <ele>65.800003051758</ele>
        <time>2016-04-04T19:45:18Z</time>
      </trkpt>
      <trkpt lat="48.81786" lon="2.284">
        <ele>65.800003051758</ele>
        <time>2016-04-04T19:45:21Z</time>
      </trkpt>
      <trkpt lat="48.81798" lon="2.28429">
        <ele>65.800003051758</ele>
        <time>2016-04-04T19:45:25Z</time>
      </trkpt>
      <trkpt lat="48.81808" lon="2.28454">
        <ele>65.800003051758</ele>
        <time>2016-04-04T19:45:29Z</time>
      </trkpt>
      <trkpt lat="48.81816" lon="2.28479">
        <ele>65.599998474121</ele>
        <time>2016-04-04T19:45:33Z</time>
      </trkpt>
      <trkpt lat="48.81824" lon="2.28507">
        <ele>66.199996948242</ele>
        <time>2016-04-04T19:45:38Z</time>
      </trkpt>
      <trkpt lat="48.81828" lon="2.28525">
        <ele>67</ele>
        <time>2016-04-04T19:45:42Z</time>
      </trkpt>
      <trkpt lat="48.8183" lon="2.28531">
        <ele>67.199996948242</ele>
        <time>2016-04-04T19:45:44Z</time>
      </trkpt>
      <trkpt lat="48.81833" lon="2.28538">
        <ele>67.599998474121</ele>
        <time>2016-04-04T19:45:46Z</time>
      </trkpt>
      <trkpt lat="48.81837" lon="2.28562">
        <ele>68.800003051758</ele>
        <time>2016-04-04T19:45:53Z</time>
      </trkpt>
      <trkpt lat="48.81846" lon="2.28591">
        <ele>68.800003051758</ele>
        <time>2016-04-04T19:45:59Z</time>
      </trkpt>
      <trkpt lat="48.8185" lon="2.28598">
        <ele>68.800003051758</ele>
        <time>2016-04-04T19:46:00Z</time>
      </trkpt>
      <trkpt lat="48.8186" lon="2.28622">
        <ele>68.400001525879</ele>
        <time>2016-04-04T19:46:04Z</time>
      </trkpt>
      <trkpt lat="48.81862" lon="2.28627">
        <ele>68.400001525879</ele>
        <time>2016-04-04T19:46:05Z</time>
      </trkpt>
      <trkpt lat="48.81873" lon="2.28652">
        <ele>68</ele>
        <time>2016-04-04T19:46:10Z</time>
      </trkpt>
      <trkpt lat="48.81881" lon="2.28678">
        <ele>67.599998474121</ele>
        <time>2016-04-04T19:46:16Z</time>
      </trkpt>
      <trkpt lat="48.81882" lon="2.28682">
        <ele>67.599998474121</ele>
        <time>2016-04-04T19:46:17Z</time>
      </trkpt>
      <trkpt lat="48.81893" lon="2.28706">
        <ele>67.599998474121</ele>
        <time>2016-04-04T19:46:23Z</time>
      </trkpt>
      <trkpt lat="48.81903" lon="2.2873">
        <ele>67.800003051758</ele>
        <time>2016-04-04T19:46:27Z</time>
      </trkpt>
      <trkpt lat="48.81914" lon="2.28763">
        <ele>68</ele>
        <time>2016-04-04T19:46:31Z</time>
      </trkpt>
      <trkpt lat="48.81925" lon="2.28788">
        <ele>67.400001525879</ele>
        <time>2016-04-04T19:46:36Z</time>
      </trkpt>
      <trkpt lat="48.81938" lon="2.28817">
        <ele>67</ele>
        <time>2016-04-04T19:46:40Z</time>
      </trkpt>
      <trkpt lat="48.81947" lon="2.28847">
        <ele>67.199996948242</ele>
        <time>2016-04-04T19:46:43Z</time>
      </trkpt>
      <trkpt lat="48.81954" lon="2.28874">
        <ele>67.400001525879</ele>
        <time>2016-04-04T19:46:48Z</time>
      </trkpt>
      <trkpt lat="48.81958" lon="2.28893">
        <ele>67.599998474121</ele>
        <time>2016-04-04T19:46:52Z</time>
      </trkpt>
      <trkpt lat="48.8196" lon="2.28907">
        <ele>67.599998474121</ele>
        <time>2016-04-04T19:46:55Z</time>
      </trkpt>
      <trkpt lat="48.81971" lon="2.28936">
        <ele>67</ele>
        <time>2016-04-04T19:46:59Z</time>
      </trkpt>
      <trkpt lat="48.81982" lon="2.28966">
        <ele>66.400001525879</ele>
        <time>2016-04-04T19:47:04Z</time>
      </trkpt>
      <trkpt lat="48.81995" lon="2.28993">
        <ele>65.599998474121</ele>
        <time>2016-04-04T19:47:08Z</time>
      </trkpt>
      <trkpt lat="48.82009" lon="2.2902">
        <ele>65</ele>
        <time>2016-04-04T19:47:12Z</time>
      </trkpt>
      <trkpt lat="48.82021" lon="2.29046">
        <ele>64.400001525879</ele>
        <time>2016-04-04T19:47:17Z</time>
      </trkpt>
      <trkpt lat="48.82023" lon="2.29057">
        <ele>64.199996948242</ele>
        <time>2016-04-04T19:47:19Z</time>
      </trkpt>
      <trkpt lat="48.82025" lon="2.29067">
        <ele>64.199996948242</ele>
        <time>2016-04-04T19:47:21Z</time>
      </trkpt>
      <trkpt lat="48.82033" lon="2.29085">
        <ele>64.199996948242</ele>
        <time>2016-04-04T19:47:25Z</time>
      </trkpt>
      <trkpt lat="48.82046" lon="2.29108">
        <ele>65</ele>
        <time>2016-04-04T19:47:30Z</time>
      </trkpt>
      <trkpt lat="48.82057" lon="2.29138">
        <ele>66.800003051758</ele>
        <time>2016-04-04T19:47:35Z</time>
      </trkpt>
      <trkpt lat="48.8206" lon="2.29144">
        <ele>67</ele>
        <time>2016-04-04T19:47:36Z</time>
      </trkpt>
      <trkpt lat="48.82075" lon="2.29166">
        <ele>67.800003051758</ele>
        <time>2016-04-04T19:47:40Z</time>
      </trkpt>
      <trkpt lat="48.82089" lon="2.2919">
        <ele>67.400001525879</ele>
        <time>2016-04-04T19:47:44Z</time>
      </trkpt>
      <trkpt lat="48.82091" lon="2.29197">
        <ele>67.199996948242</ele>
        <time>2016-04-04T19:47:45Z</time>
      </trkpt>
      <trkpt lat="48.82102" lon="2.29223">
        <ele>66.800003051758</ele>
        <time>2016-04-04T19:47:49Z</time>
      </trkpt>
      <trkpt lat="48.82114" lon="2.29246">
        <ele>67</ele>
        <time>2016-04-04T19:47:53Z</time>
      </trkpt>
      <trkpt lat="48.82127" lon="2.29269">
        <ele>67.599998474121</ele>
        <time>2016-04-04T19:47:57Z</time>
      </trkpt>
      <trkpt lat="48.82137" lon="2.29286">
        <ele>68.400001525879</ele>
        <time>2016-04-04T19:48:00Z</time>
      </trkpt>
      <trkpt lat="48.8215" lon="2.29312">
        <ele>69.599998474121</ele>
        <time>2016-04-04T19:48:05Z</time>
      </trkpt>
      <trkpt lat="48.82163" lon="2.29333">
        <ele>70.199996948242</ele>
        <time>2016-04-04T19:48:09Z</time>
      </trkpt>
      <trkpt lat="48.82171" lon="2.29346">
        <ele>69.599998474121</ele>
        <time>2016-04-04T19:48:12Z</time>
      </trkpt>
      <trkpt lat="48.82183" lon="2.29367">
        <ele>68.800003051758</ele>
        <time>2016-04-04T19:48:16Z</time>
      </trkpt>
      <trkpt lat="48.82195" lon="2.29391">
        <ele>68.599998474121</ele>
        <time>2016-04-04T19:48:21Z</time>
      </trkpt>
      <trkpt lat="48.82209" lon="2.29414">
        <ele>69.199996948242</ele>
        <time>2016-04-04T19:48:26Z</time>
      </trkpt>
      <trkpt lat="48.82223" lon="2.29437">
        <ele>70</ele>
        <time>2016-04-04T19:48:30Z</time>
      </trkpt>
      <trkpt lat="48.82237" lon="2.29459">
        <ele>71</ele>
        <time>2016-04-04T19:48:34Z</time>
      </trkpt>
      <trkpt lat="48.82248" lon="2.29476">
        <ele>71.599998474121</ele>
        <time>2016-04-04T19:48:37Z</time>
      </trkpt>
      <trkpt lat="48.82263" lon="2.29501">
        <ele>72.599998474121</ele>
        <time>2016-04-04T19:48:42Z</time>
      </trkpt>
      <trkpt lat="48.82276" lon="2.29527">
        <ele>72</ele>
        <time>2016-04-04T19:48:47Z</time>
      </trkpt>
      <trkpt lat="48.82278" lon="2.29532">
        <ele>71.800003051758</ele>
        <time>2016-04-04T19:48:48Z</time>
      </trkpt>
      <trkpt lat="48.82289" lon="2.29555">
        <ele>70.800003051758</ele>
        <time>2016-04-04T19:48:52Z</time>
      </trkpt>
      <trkpt lat="48.82295" lon="2.29573">
        <ele>70.199996948242</ele>
        <time>2016-04-04T19:48:55Z</time>
      </trkpt>
      <trkpt lat="48.82305" lon="2.29603">
        <ele>70</ele>
        <time>2016-04-04T19:49:00Z</time>
      </trkpt>
      <trkpt lat="48.82314" lon="2.29629">
        <ele>70</ele>
        <time>2016-04-04T19:49:04Z</time>
      </trkpt>
      <trkpt lat="48.82317" lon="2.29635">
        <ele>70</ele>
        <time>2016-04-04T19:49:05Z</time>
      </trkpt>
      <trkpt lat="48.82328" lon="2.29662">
        <ele>70</ele>
        <time>2016-04-04T19:49:10Z</time>
      </trkpt>
      <trkpt lat="48.82334" lon="2.29675">
        <ele>69.800003051758</ele>
        <time>2016-04-04T19:49:12Z</time>
      </trkpt>
      <trkpt lat="48.82347" lon="2.29701">
        <ele>69.599998474121</ele>
        <time>2016-04-04T19:49:16Z</time>
      </trkpt>
      <trkpt lat="48.82362" lon="2.29724">
        <ele>69.400001525879</ele>
        <time>2016-04-04T19:49:20Z</time>
      </trkpt>
      <trkpt lat="48.82365" lon="2.29729">
        <ele>69.400001525879</ele>
        <time>2016-04-04T19:49:21Z</time>
      </trkpt>
      <trkpt lat="48.82377" lon="2.29753">
        <ele>69.599998474121</ele>
        <time>2016-04-04T19:49:26Z</time>
      </trkpt>
      <trkpt lat="48.82389" lon="2.29776">
        <ele>70.199996948242</ele>
        <time>2016-04-04T19:49:30Z</time>
      </trkpt>
      <trkpt lat="48.82402" lon="2.29805">
        <ele>70.599998474121</ele>
        <time>2016-04-04T19:49:34Z</time>
      </trkpt>
      <trkpt lat="48.82415" lon="2.29835">
        <ele>70.599998474121</ele>
        <time>2016-04-04T19:49:38Z</time>
      </trkpt>
      <trkpt lat="48.82425" lon="2.29858">
        <ele>69.599998474121</ele>
        <time>2016-04-04T19:49:41Z</time>
      </trkpt>
      <trkpt lat="48.82436" lon="2.29884">
        <ele>68.599998474121</ele>
        <time>2016-04-04T19:49:44Z</time>
      </trkpt>
      <trkpt lat="48.82447" lon="2.29909">
        <ele>67.400001525879</ele>
        <time>2016-04-04T19:49:47Z</time>
      </trkpt>
      <trkpt lat="48.82461" lon="2.29936">
        <ele>66.800003051758</ele>
        <time>2016-04-04T19:49:51Z</time>
      </trkpt>
      <trkpt lat="48.82472" lon="2.29958">
        <ele>66.400001525879</ele>
        <time>2016-04-04T19:49:54Z</time>
      </trkpt>
      <trkpt lat="48.82484" lon="2.29985">
        <ele>65.800003051758</ele>
        <time>2016-04-04T19:49:58Z</time>
      </trkpt>
      <trkpt lat="48.82496" lon="2.30012">
        <ele>65.400001525879</ele>
        <time>2016-04-04T19:50:02Z</time>
      </trkpt>
      <trkpt lat="48.82509" lon="2.30031">
        <ele>65</ele>
        <time>2016-04-04T19:50:06Z</time>
      </trkpt>
      <trkpt lat="48.82524" lon="2.30048">
        <ele>64.800003051758</ele>
        <time>2016-04-04T19:50:11Z</time>
      </trkpt>
      <trkpt lat="48.82531" lon="2.30056">
        <ele>64.599998474121</ele>
        <time>2016-04-04T19:50:14Z</time>
      </trkpt>
      <trkpt lat="48.82544" lon="2.30066">
        <ele>64.400001525879</ele>
        <time>2016-04-04T19:50:20Z</time>
      </trkpt>
      <trkpt lat="48.82545" lon="2.30066">
        <ele>64.400001525879</ele>
        <time>2016-04-04T19:50:21Z</time>
      </trkpt>
      <trkpt lat="48.8255" lon="2.3006">
        <ele>64.400001525879</ele>
        <time>2016-04-04T19:50:26Z</time>
      </trkpt>
      <trkpt lat="48.82553" lon="2.30057">
        <ele>64.599998474121</ele>
        <time>2016-04-04T19:50:28Z</time>
      </trkpt>
      <trkpt lat="48.82563" lon="2.30053">
        <ele>64.599998474121</ele>
        <time>2016-04-04T19:50:33Z</time>
      </trkpt>
      <trkpt lat="48.82582" lon="2.30044">
        <ele>64.599998474121</ele>
        <time>2016-04-04T19:50:40Z</time>
      </trkpt>
      <trkpt lat="48.82601" lon="2.30042">
        <ele>64.199996948242</ele>
        <time>2016-04-04T19:50:46Z</time>
      </trkpt>
      <trkpt lat="48.8262" lon="2.30049">
        <ele>63.599998474121</ele>
        <time>2016-04-04T19:50:52Z</time>
      </trkpt>
      <trkpt lat="48.8264" lon="2.30054">
        <ele>63.20000076294</ele>
        <time>2016-04-04T19:51:00Z</time>
      </trkpt>
      <trkpt lat="48.82659" lon="2.30063">
        <ele>62.79999923706</ele>
        <time>2016-04-04T19:51:07Z</time>
      </trkpt>
      <trkpt lat="48.82675" lon="2.30079">
        <ele>62.400001525879</ele>
        <time>2016-04-04T19:51:11Z</time>
      </trkpt>
      <trkpt lat="48.82691" lon="2.30092">
        <ele>62.20000076294</ele>
        <time>2016-04-04T19:51:15Z</time>
      </trkpt>
      <trkpt lat="48.82709" lon="2.30101">
        <ele>64</ele>
        <time>2016-04-04T19:51:19Z</time>
      </trkpt>
      <trkpt lat="48.82727" lon="2.30109">
        <ele>66</ele>
        <time>2016-04-04T19:51:23Z</time>
      </trkpt>
      <trkpt lat="48.82746" lon="2.30114">
        <ele>68</ele>
        <time>2016-04-04T19:51:27Z</time>
      </trkpt>
      <trkpt lat="48.82767" lon="2.30122">
        <ele>70.400001525879</ele>
        <time>2016-04-04T19:51:32Z</time>
      </trkpt>
      <trkpt lat="48.82787" lon="2.30128">
        <ele>70.599998474121</ele>
        <time>2016-04-04T19:51:37Z</time>
      </trkpt>
      <trkpt lat="48.82806" lon="2.30129">
        <ele>70.400001525879</ele>
        <time>2016-04-04T19:51:43Z</time>
      </trkpt>
      <trkpt lat="48.82823" lon="2.30141">
        <ele>70</ele>
        <time>2016-04-04T19:51:51Z</time>
      </trkpt>
      <trkpt lat="48.82837" lon="2.3014">
        <ele>70</ele>
        <time>2016-04-04T19:52:03Z</time>
      </trkpt>
      <trkpt lat="48.82838" lon="2.30164">
        <ele>69.199996948242</ele>
        <time>2016-04-04T19:52:43Z</time>
      </trkpt>
      <trkpt lat="48.82834" lon="2.30193">
        <ele>69</ele>
        <time>2016-04-04T19:52:50Z</time>
      </trkpt>
      <trkpt lat="48.82831" lon="2.30223">
        <ele>68.599998474121</ele>
        <time>2016-04-04T19:52:56Z</time>
      </trkpt>
      <trkpt lat="48.8283" lon="2.30257">
        <ele>67.800003051758</ele>
        <time>2016-04-04T19:53:02Z</time>
      </trkpt>
      <trkpt lat="48.82826" lon="2.3029">
        <ele>68.199996948242</ele>
        <time>2016-04-04T19:53:07Z</time>
      </trkpt>
      <trkpt lat="48.8282" lon="2.3032">
        <ele>68.800003051758</ele>
        <time>2016-04-04T19:53:11Z</time>
      </trkpt>
      <trkpt lat="48.82815" lon="2.30347">
        <ele>68.599998474121</ele>
        <time>2016-04-04T19:53:14Z</time>
      </trkpt>
      <trkpt lat="48.82808" lon="2.30376">
        <ele>68</ele>
        <time>2016-04-04T19:53:17Z</time>
      </trkpt>
      <trkpt lat="48.82803" lon="2.30404">
        <ele>67.800003051758</ele>
        <time>2016-04-04T19:53:20Z</time>
      </trkpt>
      <trkpt lat="48.82798" lon="2.30431">
        <ele>67.199996948242</ele>
        <time>2016-04-04T19:53:22Z</time>
      </trkpt>
      <trkpt lat="48.82795" lon="2.30457">
        <ele>67.199996948242</ele>
        <time>2016-04-04T19:53:26Z</time>
      </trkpt>
      <trkpt lat="48.82785" lon="2.30487">
        <ele>67.599998474121</ele>
        <time>2016-04-04T19:53:32Z</time>
      </trkpt>
      <trkpt lat="48.82782" lon="2.30491">
        <ele>67.599998474121</ele>
        <time>2016-04-04T19:53:33Z</time>
      </trkpt>
      <trkpt lat="48.82761" lon="2.30501">
        <ele>68.400001525879</ele>
        <time>2016-04-04T19:53:38Z</time>
      </trkpt>
      <trkpt lat="48.82755" lon="2.30516">
        <ele>68.800003051758</ele>
        <time>2016-04-04T19:53:43Z</time>
      </trkpt>
      <trkpt lat="48.82756" lon="2.30529">
        <ele>69</ele>
        <time>2016-04-04T19:53:47Z</time>
      </trkpt>
      <trkpt lat="48.82757" lon="2.30531">
        <ele>69</ele>
        <time>2016-04-04T19:53:48Z</time>
      </trkpt>
      <trkpt lat="48.82773" lon="2.30549">
        <ele>68.599998474121</ele>
        <time>2016-04-04T19:53:56Z</time>
      </trkpt>
      <trkpt lat="48.82787" lon="2.30566">
        <ele>68.199996948242</ele>
        <time>2016-04-04T19:54:04Z</time>
      </trkpt>
      <trkpt lat="48.82799" lon="2.3059">
        <ele>68</ele>
        <time>2016-04-04T19:54:10Z</time>
      </trkpt>
      <trkpt lat="48.82827" lon="2.30603">
        <ele>67.199996948242</ele>
        <time>2016-04-04T19:54:15Z</time>
      </trkpt>
      <trkpt lat="48.82844" lon="2.30619">
        <ele>67</ele>
        <time>2016-04-04T19:54:19Z</time>
      </trkpt>
      <trkpt lat="48.82856" lon="2.30652">
        <ele>67.599998474121</ele>
        <time>2016-04-04T19:54:25Z</time>
      </trkpt>
      <trkpt lat="48.8287" lon="2.30686">
        <ele>68.199996948242</ele>
        <time>2016-04-04T19:54:28Z</time>
      </trkpt>
      <trkpt lat="48.82878" lon="2.30719">
        <ele>68.199996948242</ele>
        <time>2016-04-04T19:54:31Z</time>
      </trkpt>
      <trkpt lat="48.82887" lon="2.30746">
        <ele>68.199996948242</ele>
        <time>2016-04-04T19:54:37Z</time>
      </trkpt>
      <trkpt lat="48.8289" lon="2.30762">
        <ele>68</ele>
        <time>2016-04-04T19:54:43Z</time>
      </trkpt>
      <trkpt lat="48.82876" lon="2.3078">
        <ele>67.800003051758</ele>
        <time>2016-04-04T19:54:49Z</time>
      </trkpt>
      <trkpt lat="48.82867" lon="2.30805">
        <ele>68.400001525879</ele>
        <time>2016-04-04T19:54:55Z</time>
      </trkpt>
      <trkpt lat="48.82857" lon="2.30832">
        <ele>68.800003051758</ele>
        <time>2016-04-04T19:55:02Z</time>
      </trkpt>
      <trkpt lat="48.82845" lon="2.30858">
        <ele>67.800003051758</ele>
        <time>2016-04-04T19:55:08Z</time>
      </trkpt>
      <trkpt lat="48.82834" lon="2.30881">
        <ele>67</ele>
        <time>2016-04-04T19:55:13Z</time>
      </trkpt>
      <trkpt lat="48.82836" lon="2.30912">
        <ele>67.199996948242</ele>
        <time>2016-04-04T19:55:17Z</time>
      </trkpt>
      <trkpt lat="48.82833" lon="2.30939">
        <ele>67.400001525879</ele>
        <time>2016-04-04T19:55:21Z</time>
      </trkpt>
      <trkpt lat="48.82828" lon="2.30967">
        <ele>67.599998474121</ele>
        <time>2016-04-04T19:55:26Z</time>
      </trkpt>
      <trkpt lat="48.82826" lon="2.30998">
        <ele>67.400001525879</ele>
        <time>2016-04-04T19:55:31Z</time>
      </trkpt>
      <trkpt lat="48.82821" lon="2.31025">
        <ele>68</ele>
        <time>2016-04-04T19:55:36Z</time>
      </trkpt>
      <trkpt lat="48.82813" lon="2.31048">
        <ele>68.599998474121</ele>
        <time>2016-04-04T19:55:46Z</time>
      </trkpt>
      <trkpt lat="48.8281" lon="2.31053">
        <ele>68.599998474121</ele>
        <time>2016-04-04T19:55:49Z</time>
      </trkpt>
      <trkpt lat="48.82797" lon="2.31075">
        <ele>69</ele>
        <time>2016-04-04T19:55:59Z</time>
      </trkpt>
      <trkpt lat="48.82788" lon="2.31099">
        <ele>69</ele>
        <time>2016-04-04T19:56:07Z</time>
      </trkpt>
      <trkpt lat="48.82782" lon="2.31127">
        <ele>68.599998474121</ele>
        <time>2016-04-04T19:56:14Z</time>
      </trkpt>
      <trkpt lat="48.82772" lon="2.31153">
        <ele>68.199996948242</ele>
        <time>2016-04-04T19:56:21Z</time>
      </trkpt>
      <trkpt lat="48.82773" lon="2.31185">
        <ele>67.800003051758</ele>
        <time>2016-04-04T19:56:26Z</time>
      </trkpt>
      <trkpt lat="48.82771" lon="2.31195">
        <ele>67.599998474121</ele>
        <time>2016-04-04T19:56:32Z</time>
      </trkpt>
      <trkpt lat="48.82767" lon="2.31203">
        <ele>67.599998474121</ele>
        <time>2016-04-04T19:56:59Z</time>
      </trkpt>
      <trkpt lat="48.82762" lon="2.3123">
        <ele>67.400001525879</ele>
        <time>2016-04-04T19:57:07Z</time>
      </trkpt>
      <trkpt lat="48.82753" lon="2.31258">
        <ele>67.400001525879</ele>
        <time>2016-04-04T19:57:13Z</time>
      </trkpt>
      <trkpt lat="48.82742" lon="2.31284">
        <ele>67.199996948242</ele>
        <time>2016-04-04T19:57:19Z</time>
      </trkpt>
      <trkpt lat="48.82732" lon="2.3131">
        <ele>67.599998474121</ele>
        <time>2016-04-04T19:57:26Z</time>
      </trkpt>
      <trkpt lat="48.82726" lon="2.31336">
        <ele>68.599998474121</ele>
        <time>2016-04-04T19:57:33Z</time>
      </trkpt>
      <trkpt lat="48.82719" lon="2.31363">
        <ele>70</ele>
        <time>2016-04-04T19:57:39Z</time>
      </trkpt>
      <trkpt lat="48.82718" lon="2.31392">
        <ele>70</ele>
        <time>2016-04-04T19:57:47Z</time>
      </trkpt>
      <trkpt lat="48.82718" lon="2.31411">
        <ele>70</ele>
        <time>2016-04-04T19:58:00Z</time>
      </trkpt>
      <trkpt lat="48.82724" lon="2.31421">
        <ele>69.800003051758</ele>
        <time>2016-04-04T19:58:10Z</time>
      </trkpt>
      <trkpt lat="48.82735" lon="2.31435">
        <ele>69.800003051758</ele>
        <time>2016-04-04T19:58:16Z</time>
      </trkpt>
      <trkpt lat="48.82749" lon="2.31454">
        <ele>69.800003051758</ele>
        <time>2016-04-04T19:58:23Z</time>
      </trkpt>
      <trkpt lat="48.82756" lon="2.31482">
        <ele>70.199996948242</ele>
        <time>2016-04-04T19:58:28Z</time>
      </trkpt>
      <trkpt lat="48.82769" lon="2.31506">
        <ele>69.800003051758</ele>
        <time>2016-04-04T19:58:33Z</time>
      </trkpt>
      <trkpt lat="48.82781" lon="2.31527">
        <ele>69.800003051758</ele>
        <time>2016-04-04T19:58:39Z</time>
      </trkpt>
      <trkpt lat="48.82789" lon="2.31536">
        <ele>69.800003051758</ele>
        <time>2016-04-04T19:58:44Z</time>
      </trkpt>
      <trkpt lat="48.82795" lon="2.31542">
        <ele>69.800003051758</ele>
        <time>2016-04-04T19:58:47Z</time>
      </trkpt>
      <trkpt lat="48.8281" lon="2.31566">
        <ele>69.599998474121</ele>
        <time>2016-04-04T19:58:54Z</time>
      </trkpt>
      <trkpt lat="48.8282" lon="2.3159">
        <ele>69.400001525879</ele>
        <time>2016-04-04T19:58:59Z</time>
      </trkpt>
      <trkpt lat="48.82838" lon="2.31611">
        <ele>69.400001525879</ele>
        <time>2016-04-04T19:59:04Z</time>
      </trkpt>
      <trkpt lat="48.82853" lon="2.31628">
        <ele>69.400001525879</ele>
        <time>2016-04-04T19:59:08Z</time>
      </trkpt>
      <trkpt lat="48.82868" lon="2.3165">
        <ele>69.199996948242</ele>
        <time>2016-04-04T19:59:13Z</time>
      </trkpt>
      <trkpt lat="48.82883" lon="2.31672">
        <ele>68.800003051758</ele>
        <time>2016-04-04T19:59:17Z</time>
      </trkpt>
      <trkpt lat="48.82898" lon="2.31694">
        <ele>68.599998474121</ele>
        <time>2016-04-04T19:59:21Z</time>
      </trkpt>
      <trkpt lat="48.82909" lon="2.31713">
        <ele>68.400001525879</ele>
        <time>2016-04-04T19:59:25Z</time>
      </trkpt>
      <trkpt lat="48.82922" lon="2.31735">
        <ele>68</ele>
        <time>2016-04-04T19:59:29Z</time>
      </trkpt>
      <trkpt lat="48.82932" lon="2.31762">
        <ele>68</ele>
        <time>2016-04-04T19:59:34Z</time>
      </trkpt>
      <trkpt lat="48.82936" lon="2.31777">
        <ele>68.400001525879</ele>
        <time>2016-04-04T19:59:37Z</time>
      </trkpt>
      <trkpt lat="48.82948" lon="2.31788">
        <ele>68.400001525879</ele>
        <time>2016-04-04T19:59:41Z</time>
      </trkpt>
      <trkpt lat="48.82954" lon="2.3179">
        <ele>68.400001525879</ele>
        <time>2016-04-04T19:59:42Z</time>
      </trkpt>
      <trkpt lat="48.82963" lon="2.31797">
        <ele>68.400001525879</ele>
        <time>2016-04-04T19:59:44Z</time>
      </trkpt>
      <trkpt lat="48.82979" lon="2.31808">
        <ele>68.199996948242</ele>
        <time>2016-04-04T19:59:47Z</time>
      </trkpt>
      <trkpt lat="48.82992" lon="2.31817">
        <ele>68.199996948242</ele>
        <time>2016-04-04T19:59:50Z</time>
      </trkpt>
      <trkpt lat="48.83007" lon="2.31838">
        <ele>68.199996948242</ele>
        <time>2016-04-04T19:59:56Z</time>
      </trkpt>
      <trkpt lat="48.83021" lon="2.31862">
        <ele>68.400001525879</ele>
        <time>2016-04-04T20:00:01Z</time>
      </trkpt>
      <trkpt lat="48.8304" lon="2.31879">
        <ele>68.800003051758</ele>
        <time>2016-04-04T20:00:04Z</time>
      </trkpt>
      <trkpt lat="48.83055" lon="2.31897">
        <ele>69.199996948242</ele>
        <time>2016-04-04T20:00:07Z</time>
      </trkpt>
      <trkpt lat="48.83061" lon="2.31905">
        <ele>69.400001525879</ele>
        <time>2016-04-04T20:00:09Z</time>
      </trkpt>
      <trkpt lat="48.83074" lon="2.31915">
        <ele>69.599998474121</ele>
        <time>2016-04-04T20:00:11Z</time>
      </trkpt>
      <trkpt lat="48.83091" lon="2.31931">
        <ele>69.400001525879</ele>
        <time>2016-04-04T20:00:15Z</time>
      </trkpt>
      <trkpt lat="48.8311" lon="2.31946">
        <ele>69.199996948242</ele>
        <time>2016-04-04T20:00:20Z</time>
      </trkpt>
      <trkpt lat="48.83126" lon="2.31961">
        <ele>68.599998474121</ele>
        <time>2016-04-04T20:00:24Z</time>
      </trkpt>
      <trkpt lat="48.83129" lon="2.31965">
        <ele>68.400001525879</ele>
        <time>2016-04-04T20:00:25Z</time>
      </trkpt>
      <trkpt lat="48.83148" lon="2.31983">
        <ele>67.800003051758</ele>
        <time>2016-04-04T20:00:30Z</time>
      </trkpt>
      <trkpt lat="48.83168" lon="2.31995">
        <ele>67.199996948242</ele>
        <time>2016-04-04T20:00:35Z</time>
      </trkpt>
      <trkpt lat="48.83178" lon="2.32002">
        <ele>67.199996948242</ele>
        <time>2016-04-04T20:00:37Z</time>
      </trkpt>
      <trkpt lat="48.83191" lon="2.3201">
        <ele>67</ele>
        <time>2016-04-04T20:00:40Z</time>
      </trkpt>
      <trkpt lat="48.83208" lon="2.32021">
        <ele>68</ele>
        <time>2016-04-04T20:00:44Z</time>
      </trkpt>
      <trkpt lat="48.83226" lon="2.32029">
        <ele>68.599998474121</ele>
        <time>2016-04-04T20:00:48Z</time>
      </trkpt>
      <trkpt lat="48.83238" lon="2.32037">
        <ele>69</ele>
        <time>2016-04-04T20:00:51Z</time>
      </trkpt>
      <trkpt lat="48.83249" lon="2.32047">
        <ele>69.599998474121</ele>
        <time>2016-04-04T20:00:54Z</time>
      </trkpt>
      <trkpt lat="48.83266" lon="2.32058">
        <ele>70.199996948242</ele>
        <time>2016-04-04T20:00:58Z</time>
      </trkpt>
      <trkpt lat="48.83283" lon="2.32068">
        <ele>70.599998474121</ele>
        <time>2016-04-04T20:01:02Z</time>
      </trkpt>
      <trkpt lat="48.83294" lon="2.32077">
        <ele>71.199996948242</ele>
        <time>2016-04-04T20:01:05Z</time>
      </trkpt>
      <trkpt lat="48.83309" lon="2.32091">
        <ele>71.400001525879</ele>
        <time>2016-04-04T20:01:09Z</time>
      </trkpt>
      <trkpt lat="48.83326" lon="2.32105">
        <ele>71.400001525879</ele>
        <time>2016-04-04T20:01:13Z</time>
      </trkpt>
      <trkpt lat="48.83344" lon="2.32118">
        <ele>71.400001525879</ele>
        <time>2016-04-04T20:01:17Z</time>
      </trkpt>
      <trkpt lat="48.83353" lon="2.32125">
        <ele>71.400001525879</ele>
        <time>2016-04-04T20:01:19Z</time>
      </trkpt>
      <trkpt lat="48.83372" lon="2.32141">
        <ele>71.199996948242</ele>
        <time>2016-04-04T20:01:24Z</time>
      </trkpt>
      <trkpt lat="48.83386" lon="2.32155">
        <ele>71.199996948242</ele>
        <time>2016-04-04T20:01:28Z</time>
      </trkpt>
      <trkpt lat="48.83397" lon="2.32164">
        <ele>71</ele>
        <time>2016-04-04T20:01:32Z</time>
      </trkpt>
      <trkpt lat="48.83401" lon="2.32166">
        <ele>71</ele>
        <time>2016-04-04T20:01:33Z</time>
      </trkpt>
      <trkpt lat="48.83421" lon="2.32168">
        <ele>71</ele>
        <time>2016-04-04T20:01:38Z</time>
      </trkpt>
      <trkpt lat="48.83425" lon="2.32169">
        <ele>71</ele>
        <time>2016-04-04T20:01:39Z</time>
      </trkpt>
      <trkpt lat="48.83435" lon="2.32174">
        <ele>71</ele>
        <time>2016-04-04T20:01:42Z</time>
      </trkpt>
      <trkpt lat="48.8344" lon="2.32178">
        <ele>71</ele>
        <time>2016-04-04T20:01:44Z</time>
      </trkpt>
      <trkpt lat="48.83458" lon="2.32193">
        <ele>71.199996948242</ele>
        <time>2016-04-04T20:01:49Z</time>
      </trkpt>
      <trkpt lat="48.83475" lon="2.32209">
        <ele>71.400001525879</ele>
        <time>2016-04-04T20:01:53Z</time>
      </trkpt>
      <trkpt lat="48.83492" lon="2.32223">
        <ele>71.599998474121</ele>
        <time>2016-04-04T20:01:57Z</time>
      </trkpt>
      <trkpt lat="48.83507" lon="2.32244">
        <ele>71.800003051758</ele>
        <time>2016-04-04T20:02:02Z</time>
      </trkpt>
      <trkpt lat="48.8351" lon="2.32256">
        <ele>71.800003051758</ele>
        <time>2016-04-04T20:02:04Z</time>
      </trkpt>
      <trkpt lat="48.83514" lon="2.32266">
        <ele>71.800003051758</ele>
        <time>2016-04-04T20:02:08Z</time>
      </trkpt>
      <trkpt lat="48.83515" lon="2.32268">
        <ele>72</ele>
        <time>2016-04-04T20:02:10Z</time>
      </trkpt>
      <trkpt lat="48.83521" lon="2.32277">
        <ele>72</ele>
        <time>2016-04-04T20:02:13Z</time>
      </trkpt>
      <trkpt lat="48.83528" lon="2.32307">
        <ele>71.800003051758</ele>
        <time>2016-04-04T20:02:19Z</time>
      </trkpt>
      <trkpt lat="48.83528" lon="2.32312">
        <ele>71.800003051758</ele>
        <time>2016-04-04T20:02:20Z</time>
      </trkpt>
      <trkpt lat="48.83536" lon="2.32341">
        <ele>72</ele>
        <time>2016-04-04T20:02:27Z</time>
      </trkpt>
      <trkpt lat="48.83543" lon="2.32358">
        <ele>72.199996948242</ele>
        <time>2016-04-04T20:02:34Z</time>
      </trkpt>
      <trkpt lat="48.83555" lon="2.32363">
        <ele>72.400001525879</ele>
        <time>2016-04-04T20:02:41Z</time>
      </trkpt>
      <trkpt lat="48.83558" lon="2.32365">
        <ele>72.400001525879</ele>
        <time>2016-04-04T20:02:53Z</time>
      </trkpt>
      <trkpt lat="48.83564" lon="2.32356">
        <ele>72</ele>
        <time>2016-04-04T20:03:01Z</time>
      </trkpt>
      <trkpt lat="48.83583" lon="2.32344">
        <ele>71</ele>
        <time>2016-04-04T20:03:07Z</time>
      </trkpt>
      <trkpt lat="48.83602" lon="2.3234">
        <ele>70.400001525879</ele>
        <time>2016-04-04T20:03:13Z</time>
      </trkpt>
      <trkpt lat="48.83621" lon="2.32329">
        <ele>70.199996948242</ele>
        <time>2016-04-04T20:03:21Z</time>
      </trkpt>
      <trkpt lat="48.83638" lon="2.32317">
        <ele>70.800003051758</ele>
        <time>2016-04-04T20:03:27Z</time>
      </trkpt>
      <trkpt lat="48.83659" lon="2.32308">
        <ele>71.199996948242</ele>
        <time>2016-04-04T20:03:33Z</time>
      </trkpt>
      <trkpt lat="48.83685" lon="2.32308">
        <ele>71.400001525879</ele>
        <time>2016-04-04T20:03:37Z</time>
      </trkpt>
      <trkpt lat="48.83696" lon="2.32315">
        <ele>71.199996948242</ele>
        <time>2016-04-04T20:03:41Z</time>
      </trkpt>
      <trkpt lat="48.83705" lon="2.32335">
        <ele>70.400001525879</ele>
        <time>2016-04-04T20:03:47Z</time>
      </trkpt>
      <trkpt lat="48.83709" lon="2.32363">
        <ele>69.400001525879</ele>
        <time>2016-04-04T20:03:53Z</time>
      </trkpt>
      <trkpt lat="48.83714" lon="2.32378">
        <ele>69</ele>
        <time>2016-04-04T20:03:56Z</time>
      </trkpt>
      <trkpt lat="48.83709" lon="2.32408">
        <ele>69.400001525879</ele>
        <time>2016-04-04T20:04:01Z</time>
      </trkpt>
      <trkpt lat="48.83707" lon="2.32416">
        <ele>69.400001525879</ele>
        <time>2016-04-04T20:04:02Z</time>
      </trkpt>
      <trkpt lat="48.837" lon="2.32444">
        <ele>69.599998474121</ele>
        <time>2016-04-04T20:04:06Z</time>
      </trkpt>
      <trkpt lat="48.83691" lon="2.32476">
        <ele>70</ele>
        <time>2016-04-04T20:04:10Z</time>
      </trkpt>
      <trkpt lat="48.83681" lon="2.32505">
        <ele>70.199996948242</ele>
        <time>2016-04-04T20:04:14Z</time>
      </trkpt>
      <trkpt lat="48.8367" lon="2.32534">
        <ele>69.800003051758</ele>
        <time>2016-04-04T20:04:18Z</time>
      </trkpt>
      <trkpt lat="48.83667" lon="2.32542">
        <ele>69.800003051758</ele>
        <time>2016-04-04T20:04:19Z</time>
      </trkpt>
      <trkpt lat="48.83659" lon="2.32572">
        <ele>69.199996948242</ele>
        <time>2016-04-04T20:04:23Z</time>
      </trkpt>
      <trkpt lat="48.83653" lon="2.32606">
        <ele>69.400001525879</ele>
        <time>2016-04-04T20:04:27Z</time>
      </trkpt>
      <trkpt lat="48.83646" lon="2.32638">
        <ele>69</ele>
        <time>2016-04-04T20:04:31Z</time>
      </trkpt>
      <trkpt lat="48.83644" lon="2.32645">
        <ele>68.599998474121</ele>
        <time>2016-04-04T20:04:32Z</time>
      </trkpt>
      <trkpt lat="48.83635" lon="2.32674">
        <ele>67.599998474121</ele>
        <time>2016-04-04T20:04:36Z</time>
      </trkpt>
      <trkpt lat="48.83628" lon="2.327">
        <ele>66.599998474121</ele>
        <time>2016-04-04T20:04:40Z</time>
      </trkpt>
      <trkpt lat="48.83618" lon="2.32725">
        <ele>66.199996948242</ele>
        <time>2016-04-04T20:04:44Z</time>
      </trkpt>
      <trkpt lat="48.83614" lon="2.32738">
        <ele>66</ele>
        <time>2016-04-04T20:04:46Z</time>
      </trkpt>
      <trkpt lat="48.83605" lon="2.32766">
        <ele>64.199996948242</ele>
        <time>2016-04-04T20:04:50Z</time>
      </trkpt>
      <trkpt lat="48.83596" lon="2.32796">
        <ele>61.599998474121</ele>
        <time>2016-04-04T20:04:54Z</time>
      </trkpt>
      <trkpt lat="48.83593" lon="2.32803">
        <ele>61</ele>
        <time>2016-04-04T20:04:55Z</time>
      </trkpt>
      <trkpt lat="48.83584" lon="2.32831">
        <ele>59.20000076294</ele>
        <time>2016-04-04T20:04:59Z</time>
      </trkpt>
      <trkpt lat="48.83576" lon="2.32858">
        <ele>59.79999923706</ele>
        <time>2016-04-04T20:05:03Z</time>
      </trkpt>
      <trkpt lat="48.83568" lon="2.32887">
        <ele>60.599998474121</ele>
        <time>2016-04-04T20:05:08Z</time>
      </trkpt>
      <trkpt lat="48.83564" lon="2.32897">
        <ele>61.400001525879</ele>
        <time>2016-04-04T20:05:10Z</time>
      </trkpt>
      <trkpt lat="48.83561" lon="2.32907">
        <ele>62</ele>
        <time>2016-04-04T20:05:12Z</time>
      </trkpt>
      <trkpt lat="48.83552" lon="2.32933">
        <ele>63.599998474121</ele>
        <time>2016-04-04T20:05:17Z</time>
      </trkpt>
      <trkpt lat="48.83551" lon="2.32938">
        <ele>63.79999923706</ele>
        <time>2016-04-04T20:05:18Z</time>
      </trkpt>
      <trkpt lat="48.83545" lon="2.32965">
        <ele>65.400001525879</ele>
        <time>2016-04-04T20:05:24Z</time>
      </trkpt>
      <trkpt lat="48.83545" lon="2.3297">
        <ele>65.599998474121</ele>
        <time>2016-04-04T20:05:25Z</time>
      </trkpt>
      <trkpt lat="48.83534" lon="2.32992">
        <ele>67.599998474121</ele>
        <time>2016-04-04T20:05:31Z</time>
      </trkpt>
      <trkpt lat="48.83533" lon="2.32996">
        <ele>67.800003051758</ele>
        <time>2016-04-04T20:05:32Z</time>
      </trkpt>
      <trkpt lat="48.83531" lon="2.33001">
        <ele>68.400001525879</ele>
        <time>2016-04-04T20:05:37Z</time>
      </trkpt>
      <trkpt lat="48.8354" lon="2.33005">
        <ele>68</ele>
        <time>2016-04-04T20:05:40Z</time>
      </trkpt>
      <trkpt lat="48.83559" lon="2.33016">
        <ele>67</ele>
        <time>2016-04-04T20:05:45Z</time>
      </trkpt>
      <trkpt lat="48.83577" lon="2.33024">
        <ele>66</ele>
        <time>2016-04-04T20:05:50Z</time>
      </trkpt>
      <trkpt lat="48.83595" lon="2.33035">
        <ele>65.199996948242</ele>
        <time>2016-04-04T20:05:55Z</time>
      </trkpt>
      <trkpt lat="48.83612" lon="2.3305">
        <ele>65.400001525879</ele>
        <time>2016-04-04T20:06:00Z</time>
      </trkpt>
      <trkpt lat="48.83626" lon="2.33067">
        <ele>66.800003051758</ele>
        <time>2016-04-04T20:06:05Z</time>
      </trkpt>
      <trkpt lat="48.83639" lon="2.33088">
        <ele>67.800003051758</ele>
        <time>2016-04-04T20:06:10Z</time>
      </trkpt>
      <trkpt lat="48.83654" lon="2.33106">
        <ele>67</ele>
        <time>2016-04-04T20:06:13Z</time>
      </trkpt>
      <trkpt lat="48.8367" lon="2.3312">
        <ele>66.199996948242</ele>
        <time>2016-04-04T20:06:17Z</time>
      </trkpt>
      <trkpt lat="48.83683" lon="2.33135">
        <ele>65.599998474121</ele>
        <time>2016-04-04T20:06:22Z</time>
      </trkpt>
      <trkpt lat="48.83696" lon="2.33132">
        <ele>65.400001525879</ele>
        <time>2016-04-04T20:06:28Z</time>
      </trkpt>
      <trkpt lat="48.83714" lon="2.33123">
        <ele>65.400001525879</ele>
        <time>2016-04-04T20:06:33Z</time>
      </trkpt>
      <trkpt lat="48.83737" lon="2.33118">
        <ele>65.199996948242</ele>
        <time>2016-04-04T20:06:38Z</time>
      </trkpt>
      <trkpt lat="48.83755" lon="2.33114">
        <ele>64.400001525879</ele>
        <time>2016-04-04T20:06:42Z</time>
      </trkpt>
      <trkpt lat="48.83774" lon="2.33117">
        <ele>63.79999923706</ele>
        <time>2016-04-04T20:06:47Z</time>
      </trkpt>
      <trkpt lat="48.83787" lon="2.33137">
        <ele>64.400001525879</ele>
        <time>2016-04-04T20:06:51Z</time>
      </trkpt>
      <trkpt lat="48.83801" lon="2.33162">
        <ele>65</ele>
        <time>2016-04-04T20:06:56Z</time>
      </trkpt>
      <trkpt lat="48.83815" lon="2.33192">
        <ele>64</ele>
        <time>2016-04-04T20:07:01Z</time>
      </trkpt>
      <trkpt lat="48.83831" lon="2.33206">
        <ele>63.400001525879</ele>
        <time>2016-04-04T20:07:04Z</time>
      </trkpt>
      <trkpt lat="48.83847" lon="2.3322">
        <ele>63</ele>
        <time>2016-04-04T20:07:07Z</time>
      </trkpt>
      <trkpt lat="48.83861" lon="2.33238">
        <ele>62.400001525879</ele>
        <time>2016-04-04T20:07:11Z</time>
      </trkpt>
      <trkpt lat="48.83873" lon="2.33258">
        <ele>62.400001525879</ele>
        <time>2016-04-04T20:07:15Z</time>
      </trkpt>
      <trkpt lat="48.83881" lon="2.33276">
        <ele>62.79999923706</ele>
        <time>2016-04-04T20:07:18Z</time>
      </trkpt>
      <trkpt lat="48.83898" lon="2.3329">
        <ele>63.599998474121</ele>
        <time>2016-04-04T20:07:22Z</time>
      </trkpt>
      <trkpt lat="48.8391" lon="2.33316">
        <ele>63.599998474121</ele>
        <time>2016-04-04T20:07:27Z</time>
      </trkpt>
      <trkpt lat="48.8392" lon="2.3334">
        <ele>63.599998474121</ele>
        <time>2016-04-04T20:07:32Z</time>
      </trkpt>
      <trkpt lat="48.83925" lon="2.33348">
        <ele>63.599998474121</ele>
        <time>2016-04-04T20:07:34Z</time>
      </trkpt>
      <trkpt lat="48.83945" lon="2.33372">
        <ele>63.79999923706</ele>
        <time>2016-04-04T20:07:39Z</time>
      </trkpt>
      <trkpt lat="48.8396" lon="2.33388">
        <ele>63.599998474121</ele>
        <time>2016-04-04T20:07:42Z</time>
      </trkpt>
      <trkpt lat="48.83965" lon="2.33393">
        <ele>63.79999923706</ele>
        <time>2016-04-04T20:07:43Z</time>
      </trkpt>
      <trkpt lat="48.83981" lon="2.3341">
        <ele>63.599998474121</ele>
        <time>2016-04-04T20:07:47Z</time>
      </trkpt>
      <trkpt lat="48.83983" lon="2.33416">
        <ele>63.599998474121</ele>
        <time>2016-04-04T20:07:48Z</time>
      </trkpt>
      <trkpt lat="48.83997" lon="2.33437">
        <ele>64.400001525879</ele>
        <time>2016-04-04T20:07:54Z</time>
      </trkpt>
      <trkpt lat="48.83998" lon="2.33447">
        <ele>64.599998474121</ele>
        <time>2016-04-04T20:07:56Z</time>
      </trkpt>
      <trkpt lat="48.84004" lon="2.3347">
        <ele>65</ele>
        <time>2016-04-04T20:08:00Z</time>
      </trkpt>
      <trkpt lat="48.84007" lon="2.33478">
        <ele>65.199996948242</ele>
        <time>2016-04-04T20:08:02Z</time>
      </trkpt>
      <trkpt lat="48.84005" lon="2.33486">
        <ele>65.199996948242</ele>
        <time>2016-04-04T20:08:06Z</time>
      </trkpt>
      <trkpt lat="48.84003" lon="2.33492">
        <ele>65</ele>
        <time>2016-04-04T20:08:08Z</time>
      </trkpt>
      <trkpt lat="48.84011" lon="2.33503">
        <ele>65.199996948242</ele>
        <time>2016-04-04T20:08:12Z</time>
      </trkpt>
      <trkpt lat="48.84017" lon="2.33539">
        <ele>64.599998474121</ele>
        <time>2016-04-04T20:08:22Z</time>
      </trkpt>
      <trkpt lat="48.84012" lon="2.33568">
        <ele>63.599998474121</ele>
        <time>2016-04-04T20:08:29Z</time>
      </trkpt>
      <trkpt lat="48.84006" lon="2.33596">
        <ele>62.599998474121</ele>
        <time>2016-04-04T20:08:35Z</time>
      </trkpt>
      <trkpt lat="48.83999" lon="2.33622">
        <ele>61.599998474121</ele>
        <time>2016-04-04T20:08:41Z</time>
      </trkpt>
      <trkpt lat="48.83994" lon="2.33645">
        <ele>61.20000076294</ele>
        <time>2016-04-04T20:08:48Z</time>
      </trkpt>
      <trkpt lat="48.83992" lon="2.33657">
        <ele>61.400001525879</ele>
        <time>2016-04-04T20:08:55Z</time>
      </trkpt>
      <trkpt lat="48.83991" lon="2.33658">
        <ele>61.400001525879</ele>
        <time>2016-04-04T20:09:56Z</time>
      </trkpt>
      <trkpt lat="48.83986" lon="2.33665">
        <ele>61.599998474121</ele>
        <time>2016-04-04T20:10:09Z</time>
      </trkpt>
      <trkpt lat="48.83986" lon="2.33679">
        <ele>62</ele>
        <time>2016-04-04T20:10:14Z</time>
      </trkpt>
      <trkpt lat="48.83972" lon="2.33704">
        <ele>62.400001525879</ele>
        <time>2016-04-04T20:10:21Z</time>
      </trkpt>
      <trkpt lat="48.8396" lon="2.33727">
        <ele>62.79999923706</ele>
        <time>2016-04-04T20:10:27Z</time>
      </trkpt>
      <trkpt lat="48.83948" lon="2.3375">
        <ele>63.20000076294</ele>
        <time>2016-04-04T20:10:32Z</time>
      </trkpt>
      <trkpt lat="48.8394" lon="2.33781">
        <ele>63</ele>
        <time>2016-04-04T20:10:38Z</time>
      </trkpt>
      <trkpt lat="48.83929" lon="2.33807">
        <ele>62.599998474121</ele>
        <time>2016-04-04T20:10:43Z</time>
      </trkpt>
      <trkpt lat="48.83922" lon="2.33834">
        <ele>62.400001525879</ele>
        <time>2016-04-04T20:10:47Z</time>
      </trkpt>
      <trkpt lat="48.83914" lon="2.33866">
        <ele>61.599998474121</ele>
        <time>2016-04-04T20:10:52Z</time>
      </trkpt>
      <trkpt lat="48.83906" lon="2.33895">
        <ele>61</ele>
        <time>2016-04-04T20:10:56Z</time>
      </trkpt>
      <trkpt lat="48.83899" lon="2.33922">
        <ele>60.400001525879</ele>
        <time>2016-04-04T20:10:59Z</time>
      </trkpt>
      <trkpt lat="48.83892" lon="2.33948">
        <ele>60</ele>
        <time>2016-04-04T20:11:02Z</time>
      </trkpt>
      <trkpt lat="48.83885" lon="2.33982">
        <ele>58.79999923706</ele>
        <time>2016-04-04T20:11:06Z</time>
      </trkpt>
      <trkpt lat="48.83878" lon="2.34016">
        <ele>57</ele>
        <time>2016-04-04T20:11:10Z</time>
      </trkpt>
      <trkpt lat="48.83873" lon="2.34044">
        <ele>55.400001525879</ele>
        <time>2016-04-04T20:11:13Z</time>
      </trkpt>
      <trkpt lat="48.83869" lon="2.34073">
        <ele>53.79999923706</ele>
        <time>2016-04-04T20:11:16Z</time>
      </trkpt>
      <trkpt lat="48.83864" lon="2.34098">
        <ele>52.400001525879</ele>
        <time>2016-04-04T20:11:18Z</time>
      </trkpt>
      <trkpt lat="48.83856" lon="2.34132">
        <ele>50.599998474121</ele>
        <time>2016-04-04T20:11:21Z</time>
      </trkpt>
      <trkpt lat="48.83848" lon="2.34162">
        <ele>49.599998474121</ele>
        <time>2016-04-04T20:11:24Z</time>
      </trkpt>
      <trkpt lat="48.83842" lon="2.34189">
        <ele>50.79999923706</ele>
        <time>2016-04-04T20:11:27Z</time>
      </trkpt>
      <trkpt lat="48.83837" lon="2.34216">
        <ele>51.79999923706</ele>
        <time>2016-04-04T20:11:30Z</time>
      </trkpt>
      <trkpt lat="48.83832" lon="2.34251">
        <ele>53.20000076294</ele>
        <time>2016-04-04T20:11:34Z</time>
      </trkpt>
      <trkpt lat="48.83828" lon="2.34279">
        <ele>53.599998474121</ele>
        <time>2016-04-04T20:11:37Z</time>
      </trkpt>
      <trkpt lat="48.83822" lon="2.3431">
        <ele>54.20000076294</ele>
        <time>2016-04-04T20:11:40Z</time>
      </trkpt>
      <trkpt lat="48.83813" lon="2.3434">
        <ele>54.599998474121</ele>
        <time>2016-04-04T20:11:43Z</time>
      </trkpt>
      <trkpt lat="48.83808" lon="2.3437">
        <ele>54.79999923706</ele>
        <time>2016-04-04T20:11:46Z</time>
      </trkpt>
      <trkpt lat="48.83801" lon="2.34402">
        <ele>54</ele>
        <time>2016-04-04T20:11:50Z</time>
      </trkpt>
      <trkpt lat="48.83795" lon="2.34431">
        <ele>54</ele>
        <time>2016-04-04T20:11:54Z</time>
      </trkpt>
      <trkpt lat="48.8379" lon="2.3446">
        <ele>53.400001525879</ele>
        <time>2016-04-04T20:11:57Z</time>
      </trkpt>
      <trkpt lat="48.83789" lon="2.34485">
        <ele>53</ele>
        <time>2016-04-04T20:11:59Z</time>
      </trkpt>
      <trkpt lat="48.83783" lon="2.34514">
        <ele>52.79999923706</ele>
        <time>2016-04-04T20:12:02Z</time>
      </trkpt>
      <trkpt lat="48.83776" lon="2.3454">
        <ele>51.20000076294</ele>
        <time>2016-04-04T20:12:07Z</time>
      </trkpt>
      <trkpt lat="48.83771" lon="2.34553">
        <ele>50.400001525879</ele>
        <time>2016-04-04T20:12:10Z</time>
      </trkpt>
      <trkpt lat="48.83764" lon="2.34572">
        <ele>49.20000076294</ele>
        <time>2016-04-04T20:12:14Z</time>
      </trkpt>
      <trkpt lat="48.83757" lon="2.34591">
        <ele>48.20000076294</ele>
        <time>2016-04-04T20:12:17Z</time>
      </trkpt>
      <trkpt lat="48.83748" lon="2.3462">
        <ele>47.400001525879</ele>
        <time>2016-04-04T20:12:21Z</time>
      </trkpt>
      <trkpt lat="48.83745" lon="2.34627">
        <ele>47.20000076294</ele>
        <time>2016-04-04T20:12:22Z</time>
      </trkpt>
      <trkpt lat="48.83739" lon="2.34661">
        <ele>47.599998474121</ele>
        <time>2016-04-04T20:12:26Z</time>
      </trkpt>
      <trkpt lat="48.83739" lon="2.34672">
        <ele>47.599998474121</ele>
        <time>2016-04-04T20:12:27Z</time>
      </trkpt>
      <trkpt lat="48.83728" lon="2.34698">
        <ele>47.79999923706</ele>
        <time>2016-04-04T20:12:30Z</time>
      </trkpt>
      <trkpt lat="48.83723" lon="2.34728">
        <ele>48.599998474121</ele>
        <time>2016-04-04T20:12:33Z</time>
      </trkpt>
      <trkpt lat="48.83719" lon="2.34759">
        <ele>49.20000076294</ele>
        <time>2016-04-04T20:12:36Z</time>
      </trkpt>
      <trkpt lat="48.83717" lon="2.34791">
        <ele>49.20000076294</ele>
        <time>2016-04-04T20:12:39Z</time>
      </trkpt>
      <trkpt lat="48.83715" lon="2.34825">
        <ele>48.599998474121</ele>
        <time>2016-04-04T20:12:42Z</time>
      </trkpt>
      <trkpt lat="48.83715" lon="2.34861">
        <ele>48</ele>
        <time>2016-04-04T20:12:45Z</time>
      </trkpt>
      <trkpt lat="48.8371" lon="2.34893">
        <ele>47.599998474121</ele>
        <time>2016-04-04T20:12:48Z</time>
      </trkpt>
      <trkpt lat="48.83706" lon="2.3492">
        <ele>47.20000076294</ele>
        <time>2016-04-04T20:12:51Z</time>
      </trkpt>
      <trkpt lat="48.83703" lon="2.34948">
        <ele>47.79999923706</ele>
        <time>2016-04-04T20:12:55Z</time>
      </trkpt>
      <trkpt lat="48.83698" lon="2.34977">
        <ele>48.400001525879</ele>
        <time>2016-04-04T20:13:00Z</time>
      </trkpt>
      <trkpt lat="48.83693" lon="2.35009">
        <ele>48.79999923706</ele>
        <time>2016-04-04T20:13:05Z</time>
      </trkpt>
      <trkpt lat="48.83695" lon="2.35038">
        <ele>48.20000076294</ele>
        <time>2016-04-04T20:13:09Z</time>
      </trkpt>
      <trkpt lat="48.83698" lon="2.35051">
        <ele>48</ele>
        <time>2016-04-04T20:13:11Z</time>
      </trkpt>
      <trkpt lat="48.83697" lon="2.35081">
        <ele>47.20000076294</ele>
        <time>2016-04-04T20:13:16Z</time>
      </trkpt>
      <trkpt lat="48.83686" lon="2.35105">
        <ele>47.20000076294</ele>
        <time>2016-04-04T20:13:22Z</time>
      </trkpt>
      <trkpt lat="48.83683" lon="2.35121">
        <ele>47.400001525879</ele>
        <time>2016-04-04T20:13:25Z</time>
      </trkpt>
      <trkpt lat="48.83682" lon="2.35152">
        <ele>47.599998474121</ele>
        <time>2016-04-04T20:13:32Z</time>
      </trkpt>
      <trkpt lat="48.83682" lon="2.35161">
        <ele>47.79999923706</ele>
        <time>2016-04-04T20:13:35Z</time>
      </trkpt>
      <trkpt lat="48.83687" lon="2.35171">
        <ele>48.20000076294</ele>
        <time>2016-04-04T20:13:44Z</time>
      </trkpt>
      <trkpt lat="48.83687" lon="2.35172">
        <ele>48.20000076294</ele>
        <time>2016-04-04T20:13:45Z</time>
      </trkpt>
      <trkpt lat="48.83685" lon="2.35177">
        <ele>48.400001525879</ele>
        <time>2016-04-04T20:13:49Z</time>
      </trkpt>
      <trkpt lat="48.83688" lon="2.352">
        <ele>49.20000076294</ele>
        <time>2016-04-04T20:14:10Z</time>
      </trkpt>
      <trkpt lat="48.83688" lon="2.35202">
        <ele>49.400001525879</ele>
        <time>2016-04-04T20:14:11Z</time>
      </trkpt>
      <trkpt lat="48.83697" lon="2.35194">
        <ele>48.79999923706</ele>
        <time>2016-04-04T20:14:30Z</time>
      </trkpt>
      <trkpt lat="48.83712" lon="2.35178">
        <ele>48</ele>
        <time>2016-04-04T20:14:37Z</time>
      </trkpt>
      <trkpt lat="48.83729" lon="2.35164">
        <ele>48</ele>
        <time>2016-04-04T20:14:44Z</time>
      </trkpt>
      <trkpt lat="48.83744" lon="2.35145">
        <ele>47.79999923706</ele>
        <time>2016-04-04T20:14:49Z</time>
      </trkpt>
      <trkpt lat="48.83763" lon="2.35131">
        <ele>48.20000076294</ele>
        <time>2016-04-04T20:14:54Z</time>
      </trkpt>
      <trkpt lat="48.8378" lon="2.35117">
        <ele>48.20000076294</ele>
        <time>2016-04-04T20:14:59Z</time>
      </trkpt>
      <trkpt lat="48.838" lon="2.35104">
        <ele>47.400001525879</ele>
        <time>2016-04-04T20:15:05Z</time>
      </trkpt>
      <trkpt lat="48.83819" lon="2.35092">
        <ele>47</ele>
        <time>2016-04-04T20:15:09Z</time>
      </trkpt>
      <trkpt lat="48.83839" lon="2.35081">
        <ele>46.599998474121</ele>
        <time>2016-04-04T20:15:12Z</time>
      </trkpt>
      <trkpt lat="48.8386" lon="2.35072">
        <ele>45.599998474121</ele>
        <time>2016-04-04T20:15:15Z</time>
      </trkpt>
      <trkpt lat="48.83864" lon="2.35073">
        <ele>45.599998474121</ele>
        <time>2016-04-04T20:15:16Z</time>
      </trkpt>
      <trkpt lat="48.83879" lon="2.35079">
        <ele>45.400001525879</ele>
        <time>2016-04-04T20:15:20Z</time>
      </trkpt>
      <trkpt lat="48.83899" lon="2.35094">
        <ele>44.400001525879</ele>
        <time>2016-04-04T20:15:25Z</time>
      </trkpt>
      <trkpt lat="48.8392" lon="2.35105">
        <ele>43.599998474121</ele>
        <time>2016-04-04T20:15:29Z</time>
      </trkpt>
      <trkpt lat="48.8394" lon="2.35116">
        <ele>42.79999923706</ele>
        <time>2016-04-04T20:15:33Z</time>
      </trkpt>
      <trkpt lat="48.83958" lon="2.35126">
        <ele>42.79999923706</ele>
        <time>2016-04-04T20:15:37Z</time>
      </trkpt>
      <trkpt lat="48.83977" lon="2.35135">
        <ele>43</ele>
        <time>2016-04-04T20:15:41Z</time>
      </trkpt>
      <trkpt lat="48.83994" lon="2.35148">
        <ele>43</ele>
        <time>2016-04-04T20:15:45Z</time>
      </trkpt>
      <trkpt lat="48.84012" lon="2.35158">
        <ele>43</ele>
        <time>2016-04-04T20:15:49Z</time>
      </trkpt>
      <trkpt lat="48.84029" lon="2.3517">
        <ele>43.20000076294</ele>
        <time>2016-04-04T20:15:55Z</time>
      </trkpt>
      <trkpt lat="48.84034" lon="2.35172">
        <ele>43.400001525879</ele>
        <time>2016-04-04T20:15:57Z</time>
      </trkpt>
      <trkpt lat="48.84045" lon="2.35174">
        <ele>43.79999923706</ele>
        <time>2016-04-04T20:16:01Z</time>
      </trkpt>
      <trkpt lat="48.84063" lon="2.3518">
        <ele>44.400001525879</ele>
        <time>2016-04-04T20:16:08Z</time>
      </trkpt>
      <trkpt lat="48.84074" lon="2.35205">
        <ele>44.79999923706</ele>
        <time>2016-04-04T20:16:19Z</time>
      </trkpt>
      <trkpt lat="48.84088" lon="2.35231">
        <ele>45.400001525879</ele>
        <time>2016-04-04T20:16:25Z</time>
      </trkpt>
      <trkpt lat="48.84102" lon="2.35252">
        <ele>45.79999923706</ele>
        <time>2016-04-04T20:16:31Z</time>
      </trkpt>
      <trkpt lat="48.84114" lon="2.35274">
        <ele>45.599998474121</ele>
        <time>2016-04-04T20:16:35Z</time>
      </trkpt>
      <trkpt lat="48.8413" lon="2.35295">
        <ele>45.79999923706</ele>
        <time>2016-04-04T20:16:39Z</time>
      </trkpt>
      <trkpt lat="48.84144" lon="2.35313">
        <ele>45.79999923706</ele>
        <time>2016-04-04T20:16:43Z</time>
      </trkpt>
      <trkpt lat="48.84158" lon="2.3534">
        <ele>45.599998474121</ele>
        <time>2016-04-04T20:16:48Z</time>
      </trkpt>
      <trkpt lat="48.84155" lon="2.35384">
        <ele>43.79999923706</ele>
        <time>2016-04-04T20:16:54Z</time>
      </trkpt>
      <trkpt lat="48.8415" lon="2.35418">
        <ele>42</ele>
        <time>2016-04-04T20:16:58Z</time>
      </trkpt>
      <trkpt lat="48.84154" lon="2.35453">
        <ele>41.79999923706</ele>
        <time>2016-04-04T20:17:02Z</time>
      </trkpt>
      <trkpt lat="48.84154" lon="2.35469">
        <ele>42</ele>
        <time>2016-04-04T20:17:05Z</time>
      </trkpt>
      <trkpt lat="48.84157" lon="2.35472">
        <ele>42.20000076294</ele>
        <time>2016-04-04T20:17:07Z</time>
      </trkpt>
      <trkpt lat="48.84175" lon="2.35469">
        <ele>42.599998474121</ele>
        <time>2016-04-04T20:17:11Z</time>
      </trkpt>
      <trkpt lat="48.84178" lon="2.35469">
        <ele>42.79999923706</ele>
        <time>2016-04-04T20:17:12Z</time>
      </trkpt>
      <trkpt lat="48.84192" lon="2.35464">
        <ele>43.599998474121</ele>
        <time>2016-04-04T20:17:15Z</time>
      </trkpt>
      <trkpt lat="48.84214" lon="2.35459">
        <ele>45</ele>
        <time>2016-04-04T20:17:20Z</time>
      </trkpt>
      <trkpt lat="48.84236" lon="2.35453">
        <ele>46.20000076294</ele>
        <time>2016-04-04T20:17:25Z</time>
      </trkpt>
      <trkpt lat="48.84254" lon="2.35449">
        <ele>46.79999923706</ele>
        <time>2016-04-04T20:17:29Z</time>
      </trkpt>
      <trkpt lat="48.84275" lon="2.35441">
        <ele>47.400001525879</ele>
        <time>2016-04-04T20:17:34Z</time>
      </trkpt>
      <trkpt lat="48.84294" lon="2.35433">
        <ele>48.400001525879</ele>
        <time>2016-04-04T20:17:39Z</time>
      </trkpt>
      <trkpt lat="48.84315" lon="2.35428">
        <ele>50.20000076294</ele>
        <time>2016-04-04T20:17:43Z</time>
      </trkpt>
      <trkpt lat="48.84334" lon="2.35426">
        <ele>51.79999923706</ele>
        <time>2016-04-04T20:17:47Z</time>
      </trkpt>
      <trkpt lat="48.84353" lon="2.35425">
        <ele>53.400001525879</ele>
        <time>2016-04-04T20:17:55Z</time>
      </trkpt>
      <trkpt lat="48.84357" lon="2.35427">
        <ele>53.599998474121</ele>
        <time>2016-04-04T20:17:56Z</time>
      </trkpt>
      <trkpt lat="48.84363" lon="2.35432">
        <ele>53.20000076294</ele>
        <time>2016-04-04T20:18:03Z</time>
      </trkpt>
      <trkpt lat="48.84354" lon="2.35447">
        <ele>53</ele>
        <time>2016-04-04T20:18:20Z</time>
      </trkpt>
      <trkpt lat="48.84357" lon="2.35477">
        <ele>52.400001525879</ele>
        <time>2016-04-04T20:18:28Z</time>
      </trkpt>
      <trkpt lat="48.84362" lon="2.35487">
        <ele>52</ele>
        <time>2016-04-04T20:18:32Z</time>
      </trkpt>
      <trkpt lat="48.84376" lon="2.35505">
        <ele>50.599998474121</ele>
        <time>2016-04-04T20:18:44Z</time>
      </trkpt>
      <trkpt lat="48.84371" lon="2.35534">
        <ele>49.79999923706</ele>
        <time>2016-04-04T20:18:49Z</time>
      </trkpt>
      <trkpt lat="48.84379" lon="2.35567">
        <ele>48.20000076294</ele>
        <time>2016-04-04T20:18:55Z</time>
      </trkpt>
      <trkpt lat="48.8439" lon="2.3559">
        <ele>46.79999923706</ele>
        <time>2016-04-04T20:18:58Z</time>
      </trkpt>
      <trkpt lat="48.84403" lon="2.35618">
        <ele>45.20000076294</ele>
        <time>2016-04-04T20:19:02Z</time>
      </trkpt>
      <trkpt lat="48.8444" lon="2.35634">
        <ele>42.599998474121</ele>
        <time>2016-04-04T20:19:05Z</time>
      </trkpt>
      <trkpt lat="48.84456" lon="2.35653">
        <ele>41.599998474121</ele>
        <time>2016-04-04T20:19:08Z</time>
      </trkpt>
      <trkpt lat="48.84466" lon="2.35677">
        <ele>40.599998474121</ele>
        <time>2016-04-04T20:19:11Z</time>
      </trkpt>
      <trkpt lat="48.84474" lon="2.35707">
        <ele>39.20000076294</ele>
        <time>2016-04-04T20:19:14Z</time>
      </trkpt>
      <trkpt lat="48.84486" lon="2.3573">
        <ele>38.20000076294</ele>
        <time>2016-04-04T20:19:17Z</time>
      </trkpt>
      <trkpt lat="48.84499" lon="2.35751">
        <ele>37</ele>
        <time>2016-04-04T20:19:20Z</time>
      </trkpt>
      <trkpt lat="48.8451" lon="2.35774">
        <ele>36.400001525879</ele>
        <time>2016-04-04T20:19:23Z</time>
      </trkpt>
      <trkpt lat="48.84525" lon="2.35802">
        <ele>35.400001525879</ele>
        <time>2016-04-04T20:19:27Z</time>
      </trkpt>
      <trkpt lat="48.84538" lon="2.35828">
        <ele>35</ele>
        <time>2016-04-04T20:19:31Z</time>
      </trkpt>
      <trkpt lat="48.84551" lon="2.35853">
        <ele>35.599998474121</ele>
        <time>2016-04-04T20:19:35Z</time>
      </trkpt>
      <trkpt lat="48.84562" lon="2.35879">
        <ele>36</ele>
        <time>2016-04-04T20:19:39Z</time>
      </trkpt>
      <trkpt lat="48.84574" lon="2.359">
        <ele>36.20000076294</ele>
        <time>2016-04-04T20:19:42Z</time>
      </trkpt>
      <trkpt lat="48.84587" lon="2.35926">
        <ele>36.400001525879</ele>
        <time>2016-04-04T20:19:46Z</time>
      </trkpt>
      <trkpt lat="48.84602" lon="2.35951">
        <ele>36.400001525879</ele>
        <time>2016-04-04T20:19:50Z</time>
      </trkpt>
      <trkpt lat="48.84616" lon="2.35975">
        <ele>36.400001525879</ele>
        <time>2016-04-04T20:19:54Z</time>
      </trkpt>
      <trkpt lat="48.84628" lon="2.36">
        <ele>36.20000076294</ele>
        <time>2016-04-04T20:19:58Z</time>
      </trkpt>
      <trkpt lat="48.84639" lon="2.36026">
        <ele>34.79999923706</ele>
        <time>2016-04-04T20:20:02Z</time>
      </trkpt>
      <trkpt lat="48.84649" lon="2.36051">
        <ele>33.400001525879</ele>
        <time>2016-04-04T20:20:07Z</time>
      </trkpt>
      <trkpt lat="48.8465" lon="2.36056">
        <ele>33.20000076294</ele>
        <time>2016-04-04T20:20:08Z</time>
      </trkpt>
      <trkpt lat="48.84655" lon="2.3607">
        <ele>32.599998474121</ele>
        <time>2016-04-04T20:20:11Z</time>
      </trkpt>
      <trkpt lat="48.84661" lon="2.36081">
        <ele>32</ele>
        <time>2016-04-04T20:20:15Z</time>
      </trkpt>
      <trkpt lat="48.84664" lon="2.36083">
        <ele>31.799999237061</ele>
        <time>2016-04-04T20:20:17Z</time>
      </trkpt>
      <trkpt lat="48.84669" lon="2.36087">
        <ele>31.799999237061</ele>
        <time>2016-04-04T20:20:23Z</time>
      </trkpt>
      <trkpt lat="48.8467" lon="2.36087">
        <ele>31.799999237061</ele>
        <time>2016-04-04T20:20:24Z</time>
      </trkpt>
      <trkpt lat="48.8468" lon="2.36089">
        <ele>31.60000038147</ele>
        <time>2016-04-04T20:20:37Z</time>
      </trkpt>
      <trkpt lat="48.84699" lon="2.36082">
        <ele>31.60000038147</ele>
        <time>2016-04-04T20:20:45Z</time>
      </trkpt>
      <trkpt lat="48.84716" lon="2.36066">
        <ele>32</ele>
        <time>2016-04-04T20:20:49Z</time>
      </trkpt>
      <trkpt lat="48.84731" lon="2.36048">
        <ele>32.400001525879</ele>
        <time>2016-04-04T20:20:53Z</time>
      </trkpt>
      <trkpt lat="48.84734" lon="2.36043">
        <ele>32.599998474121</ele>
        <time>2016-04-04T20:20:54Z</time>
      </trkpt>
      <trkpt lat="48.84749" lon="2.36023">
        <ele>32.400001525879</ele>
        <time>2016-04-04T20:20:58Z</time>
      </trkpt>
      <trkpt lat="48.84765" lon="2.35998">
        <ele>32.400001525879</ele>
        <time>2016-04-04T20:21:02Z</time>
      </trkpt>
      <trkpt lat="48.8478" lon="2.35981">
        <ele>32.20000076294</ele>
        <time>2016-04-04T20:21:05Z</time>
      </trkpt>
      <trkpt lat="48.84797" lon="2.35953">
        <ele>32.20000076294</ele>
        <time>2016-04-04T20:21:09Z</time>
      </trkpt>
      <trkpt lat="48.84811" lon="2.35932">
        <ele>32</ele>
        <time>2016-04-04T20:21:12Z</time>
      </trkpt>
      <trkpt lat="48.84825" lon="2.35914">
        <ele>31.799999237061</ele>
        <time>2016-04-04T20:21:15Z</time>
      </trkpt>
      <trkpt lat="48.8484" lon="2.35896">
        <ele>31.799999237061</ele>
        <time>2016-04-04T20:21:18Z</time>
      </trkpt>
      <trkpt lat="48.84859" lon="2.35877">
        <ele>32.400001525879</ele>
        <time>2016-04-04T20:21:21Z</time>
      </trkpt>
      <trkpt lat="48.84876" lon="2.35857">
        <ele>33</ele>
        <time>2016-04-04T20:21:24Z</time>
      </trkpt>
      <trkpt lat="48.84894" lon="2.35833">
        <ele>32.599998474121</ele>
        <time>2016-04-04T20:21:28Z</time>
      </trkpt>
      <trkpt lat="48.8491" lon="2.35814">
        <ele>33</ele>
        <time>2016-04-04T20:21:31Z</time>
      </trkpt>
      <trkpt lat="48.84923" lon="2.3579">
        <ele>32.20000076294</ele>
        <time>2016-04-04T20:21:34Z</time>
      </trkpt>
      <trkpt lat="48.84915" lon="2.35777">
        <ele>33</ele>
        <time>2016-04-04T20:21:36Z</time>
      </trkpt>
      <trkpt lat="48.84927" lon="2.35752">
        <ele>31.39999961853</ele>
        <time>2016-04-04T20:21:39Z</time>
      </trkpt>
      <trkpt lat="48.84933" lon="2.35737">
        <ele>30.60000038147</ele>
        <time>2016-04-04T20:21:41Z</time>
      </trkpt>
      <trkpt lat="48.84941" lon="2.35724">
        <ele>30.799999237061</ele>
        <time>2016-04-04T20:21:44Z</time>
      </trkpt>
      <trkpt lat="48.84949" lon="2.3571">
        <ele>31.799999237061</ele>
        <time>2016-04-04T20:21:48Z</time>
      </trkpt>
      <trkpt lat="48.84951" lon="2.35704">
        <ele>32</ele>
        <time>2016-04-04T20:21:50Z</time>
      </trkpt>
      <trkpt lat="48.84955" lon="2.35695">
        <ele>32.599998474121</ele>
        <time>2016-04-04T20:21:54Z</time>
      </trkpt>
      <trkpt lat="48.84956" lon="2.35693">
        <ele>32.599998474121</ele>
        <time>2016-04-04T20:21:55Z</time>
      </trkpt>
      <trkpt lat="48.84949" lon="2.35675">
        <ele>32.599998474121</ele>
        <time>2016-04-04T20:22:00Z</time>
      </trkpt>
      <trkpt lat="48.84956" lon="2.35644">
        <ele>32.599998474121</ele>
        <time>2016-04-04T20:22:07Z</time>
      </trkpt>
      <trkpt lat="48.84968" lon="2.35622">
        <ele>33.20000076294</ele>
        <time>2016-04-04T20:22:13Z</time>
      </trkpt>
      <trkpt lat="48.84982" lon="2.35598">
        <ele>33</ele>
        <time>2016-04-04T20:22:19Z</time>
      </trkpt>
      <trkpt lat="48.84993" lon="2.3557">
        <ele>33.599998474121</ele>
        <time>2016-04-04T20:22:24Z</time>
      </trkpt>
      <trkpt lat="48.85005" lon="2.35543">
        <ele>34.400001525879</ele>
        <time>2016-04-04T20:22:29Z</time>
      </trkpt>
      <trkpt lat="48.85017" lon="2.35518">
        <ele>34</ele>
        <time>2016-04-04T20:22:36Z</time>
      </trkpt>
      <trkpt lat="48.8502" lon="2.35507">
        <ele>34</ele>
        <time>2016-04-04T20:22:41Z</time>
      </trkpt>
      <trkpt lat="48.85019" lon="2.35471">
        <ele>36</ele>
        <time>2016-04-04T20:22:57Z</time>
      </trkpt>
      <trkpt lat="48.85027" lon="2.35443">
        <ele>37.400001525879</ele>
        <time>2016-04-04T20:23:02Z</time>
      </trkpt>
      <trkpt lat="48.85039" lon="2.35415">
        <ele>38.400001525879</ele>
        <time>2016-04-04T20:23:07Z</time>
      </trkpt>
      <trkpt lat="48.85051" lon="2.35387">
        <ele>38</ele>
        <time>2016-04-04T20:23:12Z</time>
      </trkpt>
      <trkpt lat="48.85056" lon="2.35358">
        <ele>37.20000076294</ele>
        <time>2016-04-04T20:23:16Z</time>
      </trkpt>
      <trkpt lat="48.85069" lon="2.35331">
        <ele>34</ele>
        <time>2016-04-04T20:23:20Z</time>
      </trkpt>
      <trkpt lat="48.8508" lon="2.35309">
        <ele>33.599998474121</ele>
        <time>2016-04-04T20:23:23Z</time>
      </trkpt>
      <trkpt lat="48.85087" lon="2.35273">
        <ele>31.799999237061</ele>
        <time>2016-04-04T20:23:28Z</time>
      </trkpt>
      <trkpt lat="48.85098" lon="2.35242">
        <ele>29.39999961853</ele>
        <time>2016-04-04T20:23:32Z</time>
      </trkpt>
      <trkpt lat="48.85099" lon="2.35234">
        <ele>29.799999237061</ele>
        <time>2016-04-04T20:23:33Z</time>
      </trkpt>
      <trkpt lat="48.85111" lon="2.35204">
        <ele>31.39999961853</ele>
        <time>2016-04-04T20:23:38Z</time>
      </trkpt>
      <trkpt lat="48.85122" lon="2.35175">
        <ele>33.599998474121</ele>
        <time>2016-04-04T20:23:43Z</time>
      </trkpt>
      <trkpt lat="48.85124" lon="2.35161">
        <ele>33</ele>
        <time>2016-04-04T20:23:46Z</time>
      </trkpt>
      <trkpt lat="48.85142" lon="2.35154">
        <ele>32.400001525879</ele>
        <time>2016-04-04T20:23:55Z</time>
      </trkpt>
      <trkpt lat="48.85145" lon="2.35157">
        <ele>32</ele>
        <time>2016-04-04T20:23:57Z</time>
      </trkpt>
      <trkpt lat="48.85162" lon="2.35167">
        <ele>30.799999237061</ele>
        <time>2016-04-04T20:24:06Z</time>
      </trkpt>
      <trkpt lat="48.85179" lon="2.35178">
        <ele>30.200000762939</ele>
        <time>2016-04-04T20:24:14Z</time>
      </trkpt>
      <trkpt lat="48.85197" lon="2.35187">
        <ele>30.39999961853</ele>
        <time>2016-04-04T20:24:20Z</time>
      </trkpt>
      <trkpt lat="48.85214" lon="2.35198">
        <ele>31.799999237061</ele>
        <time>2016-04-04T20:24:26Z</time>
      </trkpt>
      <trkpt lat="48.85232" lon="2.3521">
        <ele>33.20000076294</ele>
        <time>2016-04-04T20:24:31Z</time>
      </trkpt>
      <trkpt lat="48.85248" lon="2.35222">
        <ele>34.79999923706</ele>
        <time>2016-04-04T20:24:36Z</time>
      </trkpt>
      <trkpt lat="48.85268" lon="2.35221">
        <ele>37.599998474121</ele>
        <time>2016-04-04T20:24:43Z</time>
      </trkpt>
      <trkpt lat="48.85289" lon="2.35221">
        <ele>37.599998474121</ele>
        <time>2016-04-04T20:24:49Z</time>
      </trkpt>
      <trkpt lat="48.8531" lon="2.35219">
        <ele>37</ele>
        <time>2016-04-04T20:24:54Z</time>
      </trkpt>
      <trkpt lat="48.85332" lon="2.35215">
        <ele>37.20000076294</ele>
        <time>2016-04-04T20:24:58Z</time>
      </trkpt>
      <trkpt lat="48.85355" lon="2.35205">
        <ele>39.599998474121</ele>
        <time>2016-04-04T20:25:02Z</time>
      </trkpt>
      <trkpt lat="48.85373" lon="2.35196">
        <ele>38.599998474121</ele>
        <time>2016-04-04T20:25:05Z</time>
      </trkpt>
      <trkpt lat="48.85395" lon="2.35184">
        <ele>37</ele>
        <time>2016-04-04T20:25:09Z</time>
      </trkpt>
      <trkpt lat="48.85412" lon="2.35173">
        <ele>35.400001525879</ele>
        <time>2016-04-04T20:25:12Z</time>
      </trkpt>
      <trkpt lat="48.85433" lon="2.35157">
        <ele>33.20000076294</ele>
        <time>2016-04-04T20:25:16Z</time>
      </trkpt>
      <trkpt lat="48.85455" lon="2.35142">
        <ele>33.400001525879</ele>
        <time>2016-04-04T20:25:20Z</time>
      </trkpt>
      <trkpt lat="48.85466" lon="2.35134">
        <ele>34</ele>
        <time>2016-04-04T20:25:22Z</time>
      </trkpt>
      <trkpt lat="48.85485" lon="2.35112">
        <ele>34.79999923706</ele>
        <time>2016-04-04T20:25:26Z</time>
      </trkpt>
      <trkpt lat="48.85503" lon="2.35092">
        <ele>34.599998474121</ele>
        <time>2016-04-04T20:25:30Z</time>
      </trkpt>
      <trkpt lat="48.85507" lon="2.35088">
        <ele>34.599998474121</ele>
        <time>2016-04-04T20:25:31Z</time>
      </trkpt>
      <trkpt lat="48.85526" lon="2.35073">
        <ele>34.599998474121</ele>
        <time>2016-04-04T20:25:36Z</time>
      </trkpt>
      <trkpt lat="48.85537" lon="2.35054">
        <ele>35.599998474121</ele>
        <time>2016-04-04T20:25:42Z</time>
      </trkpt>
      <trkpt lat="48.85538" lon="2.35046">
        <ele>36.20000076294</ele>
        <time>2016-04-04T20:25:52Z</time>
      </trkpt>
      <trkpt lat="48.85532" lon="2.35032">
        <ele>37.599998474121</ele>
        <time>2016-04-04T20:25:58Z</time>
      </trkpt>
      <trkpt lat="48.85543" lon="2.35006">
        <ele>39</ele>
        <time>2016-04-04T20:26:05Z</time>
      </trkpt>
      <trkpt lat="48.85554" lon="2.34978">
        <ele>39</ele>
        <time>2016-04-04T20:26:10Z</time>
      </trkpt>
      <trkpt lat="48.85563" lon="2.34949">
        <ele>39.400001525879</ele>
        <time>2016-04-04T20:26:15Z</time>
      </trkpt>
      <trkpt lat="48.8557" lon="2.3492">
        <ele>43</ele>
        <time>2016-04-04T20:26:20Z</time>
      </trkpt>
      <trkpt lat="48.85577" lon="2.34892">
        <ele>43.20000076294</ele>
        <time>2016-04-04T20:26:25Z</time>
      </trkpt>
      <trkpt lat="48.85579" lon="2.3486">
        <ele>39.79999923706</ele>
        <time>2016-04-04T20:26:32Z</time>
      </trkpt>
      <trkpt lat="48.85566" lon="2.34844">
        <ele>38.400001525879</ele>
        <time>2016-04-04T20:26:41Z</time>
      </trkpt>
      <trkpt lat="48.8557" lon="2.34822">
        <ele>36.20000076294</ele>
        <time>2016-04-04T20:26:57Z</time>
      </trkpt>
      <trkpt lat="48.85578" lon="2.34796">
        <ele>34.599998474121</ele>
        <time>2016-04-04T20:27:02Z</time>
      </trkpt>
      <trkpt lat="48.85584" lon="2.3477">
        <ele>34.79999923706</ele>
        <time>2016-04-04T20:27:06Z</time>
      </trkpt>
      <trkpt lat="48.85592" lon="2.34741">
        <ele>35.79999923706</ele>
        <time>2016-04-04T20:27:10Z</time>
      </trkpt>
      <trkpt lat="48.85602" lon="2.34713">
        <ele>40.20000076294</ele>
        <time>2016-04-04T20:27:14Z</time>
      </trkpt>
      <trkpt lat="48.85611" lon="2.34686">
        <ele>45</ele>
        <time>2016-04-04T20:27:18Z</time>
      </trkpt>
      <trkpt lat="48.85623" lon="2.34672">
        <ele>46.599998474121</ele>
        <time>2016-04-04T20:27:23Z</time>
      </trkpt>
      <trkpt lat="48.85639" lon="2.3468">
        <ele>45.20000076294</ele>
        <time>2016-04-04T20:27:28Z</time>
      </trkpt>
      <trkpt lat="48.85658" lon="2.34691">
        <ele>43.599998474121</ele>
        <time>2016-04-04T20:27:34Z</time>
      </trkpt>
      <trkpt lat="48.85675" lon="2.34703">
        <ele>42.20000076294</ele>
        <time>2016-04-04T20:27:40Z</time>
      </trkpt>
      <trkpt lat="48.85691" lon="2.34716">
        <ele>41</ele>
        <time>2016-04-04T20:27:46Z</time>
      </trkpt>
      <trkpt lat="48.85702" lon="2.34723">
        <ele>40.79999923706</ele>
        <time>2016-04-04T20:27:50Z</time>
      </trkpt>
      <trkpt lat="48.85704" lon="2.34728">
        <ele>40.79999923706</ele>
        <time>2016-04-04T20:27:52Z</time>
      </trkpt>
      <trkpt lat="48.85706" lon="2.34739">
        <ele>40.79999923706</ele>
        <time>2016-04-04T20:27:58Z</time>
      </trkpt>
      <trkpt lat="48.85723" lon="2.34735">
        <ele>40.599998474121</ele>
        <time>2016-04-04T20:28:34Z</time>
      </trkpt>
      <trkpt lat="48.85742" lon="2.34746">
        <ele>40.400001525879</ele>
        <time>2016-04-04T20:28:38Z</time>
      </trkpt>
      <trkpt lat="48.85763" lon="2.34756">
        <ele>40</ele>
        <time>2016-04-04T20:28:42Z</time>
      </trkpt>
      <trkpt lat="48.8578" lon="2.34739">
        <ele>40.20000076294</ele>
        <time>2016-04-04T20:28:47Z</time>
      </trkpt>
      <trkpt lat="48.858" lon="2.34728">
        <ele>41.599998474121</ele>
        <time>2016-04-04T20:28:52Z</time>
      </trkpt>
      <trkpt lat="48.85804" lon="2.34728">
        <ele>42</ele>
        <time>2016-04-04T20:28:53Z</time>
      </trkpt>
      <trkpt lat="48.85827" lon="2.3473">
        <ele>43.79999923706</ele>
        <time>2016-04-04T20:28:57Z</time>
      </trkpt>
      <trkpt lat="48.85845" lon="2.3473">
        <ele>45.79999923706</ele>
        <time>2016-04-04T20:29:00Z</time>
      </trkpt>
      <trkpt lat="48.85869" lon="2.34733">
        <ele>46.79999923706</ele>
        <time>2016-04-04T20:29:04Z</time>
      </trkpt>
      <trkpt lat="48.85881" lon="2.34734">
        <ele>46.400001525879</ele>
        <time>2016-04-04T20:29:06Z</time>
      </trkpt>
      <trkpt lat="48.85904" lon="2.34733">
        <ele>45.599998474121</ele>
        <time>2016-04-04T20:29:10Z</time>
      </trkpt>
      <trkpt lat="48.85925" lon="2.34726">
        <ele>45.20000076294</ele>
        <time>2016-04-04T20:29:15Z</time>
      </trkpt>
      <trkpt lat="48.85937" lon="2.34721">
        <ele>45</ele>
        <time>2016-04-04T20:29:18Z</time>
      </trkpt>
      <trkpt lat="48.85947" lon="2.34715">
        <ele>45.20000076294</ele>
        <time>2016-04-04T20:29:22Z</time>
      </trkpt>
      <trkpt lat="48.85949" lon="2.34715">
        <ele>45.20000076294</ele>
        <time>2016-04-04T20:29:23Z</time>
      </trkpt>
      <trkpt lat="48.85959" lon="2.34736">
        <ele>44.599998474121</ele>
        <time>2016-04-04T20:29:40Z</time>
      </trkpt>
    </trkseg>
  </trk>
  <trk>
    <name><![CDATA[lundi 2016 04 18]]></name>
    <extensions>
      <line xmlns="http://www.topografix.com/GPX/gpx_style/0/2">
        <color>000000</color>
      </line>
    </extensions>
    <trkseg>
      <trkpt lat="48.8574" lon="2.34733">
        <ele>40.400001525879</ele>
        <time>2016-04-18T18:19:46Z</time>
      </trkpt>
      <trkpt lat="48.85743" lon="2.34742">
        <ele>40.400001525879</ele>
        <time>2016-04-18T18:20:08Z</time>
      </trkpt>
      <trkpt lat="48.85757" lon="2.34762">
        <ele>39.79999923706</ele>
        <time>2016-04-18T18:20:19Z</time>
      </trkpt>
      <trkpt lat="48.8576" lon="2.34767">
        <ele>39.599998474121</ele>
        <time>2016-04-18T18:20:21Z</time>
      </trkpt>
      <trkpt lat="48.85773" lon="2.34781">
        <ele>39.20000076294</ele>
        <time>2016-04-18T18:20:30Z</time>
      </trkpt>
      <trkpt lat="48.85791" lon="2.34793">
        <ele>41.20000076294</ele>
        <time>2016-04-18T18:20:51Z</time>
      </trkpt>
      <trkpt lat="48.85809" lon="2.34806">
        <ele>43</ele>
        <time>2016-04-18T18:20:56Z</time>
      </trkpt>
      <trkpt lat="48.85826" lon="2.34819">
        <ele>44.599998474121</ele>
        <time>2016-04-18T18:21:02Z</time>
      </trkpt>
      <trkpt lat="48.85828" lon="2.34823">
        <ele>44.79999923706</ele>
        <time>2016-04-18T18:21:04Z</time>
      </trkpt>
      <trkpt lat="48.85832" lon="2.34829">
        <ele>45.20000076294</ele>
        <time>2016-04-18T18:21:08Z</time>
      </trkpt>
      <trkpt lat="48.85836" lon="2.34829">
        <ele>45.599998474121</ele>
        <time>2016-04-18T18:21:12Z</time>
      </trkpt>
      <trkpt lat="48.85855" lon="2.34836">
        <ele>47.79999923706</ele>
        <time>2016-04-18T18:21:19Z</time>
      </trkpt>
      <trkpt lat="48.85875" lon="2.34849">
        <ele>48</ele>
        <time>2016-04-18T18:21:24Z</time>
      </trkpt>
      <trkpt lat="48.85893" lon="2.34859">
        <ele>48</ele>
        <time>2016-04-18T18:21:28Z</time>
      </trkpt>
      <trkpt lat="48.85914" lon="2.34869">
        <ele>48</ele>
        <time>2016-04-18T18:21:32Z</time>
      </trkpt>
      <trkpt lat="48.85933" lon="2.34878">
        <ele>48</ele>
        <time>2016-04-18T18:21:36Z</time>
      </trkpt>
      <trkpt lat="48.85951" lon="2.3489">
        <ele>48.20000076294</ele>
        <time>2016-04-18T18:21:40Z</time>
      </trkpt>
      <trkpt lat="48.85969" lon="2.34898">
        <ele>48.400001525879</ele>
        <time>2016-04-18T18:21:44Z</time>
      </trkpt>
      <trkpt lat="48.85988" lon="2.34904">
        <ele>48.599998474121</ele>
        <time>2016-04-18T18:21:48Z</time>
      </trkpt>
      <trkpt lat="48.86008" lon="2.34908">
        <ele>48.79999923706</ele>
        <time>2016-04-18T18:21:53Z</time>
      </trkpt>
      <trkpt lat="48.86029" lon="2.34916">
        <ele>48.79999923706</ele>
        <time>2016-04-18T18:21:58Z</time>
      </trkpt>
      <trkpt lat="48.86048" lon="2.34921">
        <ele>48.400001525879</ele>
        <time>2016-04-18T18:22:03Z</time>
      </trkpt>
      <trkpt lat="48.86068" lon="2.34929">
        <ele>47.79999923706</ele>
        <time>2016-04-18T18:22:08Z</time>
      </trkpt>
      <trkpt lat="48.86074" lon="2.34935">
        <ele>47.599998474121</ele>
        <time>2016-04-18T18:22:09Z</time>
      </trkpt>
      <trkpt lat="48.86094" lon="2.34945">
        <ele>47</ele>
        <time>2016-04-18T18:22:13Z</time>
      </trkpt>
      <trkpt lat="48.86113" lon="2.34954">
        <ele>46.599998474121</ele>
        <time>2016-04-18T18:22:17Z</time>
      </trkpt>
      <trkpt lat="48.86134" lon="2.34967">
        <ele>46.79999923706</ele>
        <time>2016-04-18T18:22:21Z</time>
      </trkpt>
      <trkpt lat="48.86154" lon="2.34978">
        <ele>46.79999923706</ele>
        <time>2016-04-18T18:22:25Z</time>
      </trkpt>
      <trkpt lat="48.86173" lon="2.34987">
        <ele>47</ele>
        <time>2016-04-18T18:22:29Z</time>
      </trkpt>
      <trkpt lat="48.86195" lon="2.34998">
        <ele>47</ele>
        <time>2016-04-18T18:22:34Z</time>
      </trkpt>
      <trkpt lat="48.86213" lon="2.35004">
        <ele>47.400001525879</ele>
        <time>2016-04-18T18:22:38Z</time>
      </trkpt>
      <trkpt lat="48.86234" lon="2.3501">
        <ele>47.599998474121</ele>
        <time>2016-04-18T18:22:43Z</time>
      </trkpt>
      <trkpt lat="48.86244" lon="2.35014">
        <ele>47.79999923706</ele>
        <time>2016-04-18T18:22:45Z</time>
      </trkpt>
      <trkpt lat="48.86261" lon="2.35024">
        <ele>48.20000076294</ele>
        <time>2016-04-18T18:22:49Z</time>
      </trkpt>
      <trkpt lat="48.86266" lon="2.35025">
        <ele>48.20000076294</ele>
        <time>2016-04-18T18:22:50Z</time>
      </trkpt>
      <trkpt lat="48.86284" lon="2.35035">
        <ele>48.400001525879</ele>
        <time>2016-04-18T18:22:54Z</time>
      </trkpt>
      <trkpt lat="48.8629" lon="2.35043">
        <ele>48.400001525879</ele>
        <time>2016-04-18T18:22:55Z</time>
      </trkpt>
      <trkpt lat="48.86308" lon="2.35073">
        <ele>48.400001525879</ele>
        <time>2016-04-18T18:22:58Z</time>
      </trkpt>
      <trkpt lat="48.86314" lon="2.35084">
        <ele>48.400001525879</ele>
        <time>2016-04-18T18:22:59Z</time>
      </trkpt>
      <trkpt lat="48.86326" lon="2.35115">
        <ele>48</ele>
        <time>2016-04-18T18:23:15Z</time>
      </trkpt>
      <trkpt lat="48.86345" lon="2.35107">
        <ele>47.79999923706</ele>
        <time>2016-04-18T18:23:24Z</time>
      </trkpt>
      <trkpt lat="48.86366" lon="2.35108">
        <ele>47.599998474121</ele>
        <time>2016-04-18T18:23:29Z</time>
      </trkpt>
      <trkpt lat="48.86385" lon="2.35113">
        <ele>47.599998474121</ele>
        <time>2016-04-18T18:23:33Z</time>
      </trkpt>
      <trkpt lat="48.86404" lon="2.3512">
        <ele>47.400001525879</ele>
        <time>2016-04-18T18:23:37Z</time>
      </trkpt>
      <trkpt lat="48.86423" lon="2.3513">
        <ele>47</ele>
        <time>2016-04-18T18:23:41Z</time>
      </trkpt>
      <trkpt lat="48.86429" lon="2.35134">
        <ele>46.79999923706</ele>
        <time>2016-04-18T18:23:42Z</time>
      </trkpt>
      <trkpt lat="48.8645" lon="2.35147">
        <ele>46.599998474121</ele>
        <time>2016-04-18T18:23:46Z</time>
      </trkpt>
      <trkpt lat="48.86455" lon="2.35149">
        <ele>46.400001525879</ele>
        <time>2016-04-18T18:23:47Z</time>
      </trkpt>
      <trkpt lat="48.8647" lon="2.35154">
        <ele>46.20000076294</ele>
        <time>2016-04-18T18:23:50Z</time>
      </trkpt>
      <trkpt lat="48.86489" lon="2.35164">
        <ele>45.79999923706</ele>
        <time>2016-04-18T18:23:54Z</time>
      </trkpt>
      <trkpt lat="48.86501" lon="2.35172">
        <ele>45.79999923706</ele>
        <time>2016-04-18T18:23:56Z</time>
      </trkpt>
      <trkpt lat="48.86513" lon="2.35183">
        <ele>46</ele>
        <time>2016-04-18T18:23:58Z</time>
      </trkpt>
      <trkpt lat="48.86532" lon="2.35196">
        <ele>46.20000076294</ele>
        <time>2016-04-18T18:24:01Z</time>
      </trkpt>
      <trkpt lat="48.86549" lon="2.35207">
        <ele>46.79999923706</ele>
        <time>2016-04-18T18:24:04Z</time>
      </trkpt>
      <trkpt lat="48.86569" lon="2.35215">
        <ele>47.400001525879</ele>
        <time>2016-04-18T18:24:08Z</time>
      </trkpt>
      <trkpt lat="48.8659" lon="2.35229">
        <ele>48.20000076294</ele>
        <time>2016-04-18T18:24:12Z</time>
      </trkpt>
      <trkpt lat="48.86596" lon="2.35235">
        <ele>48.599998474121</ele>
        <time>2016-04-18T18:24:13Z</time>
      </trkpt>
      <trkpt lat="48.86605" lon="2.35241">
        <ele>49</ele>
        <time>2016-04-18T18:24:15Z</time>
      </trkpt>
      <trkpt lat="48.86624" lon="2.35251">
        <ele>49.20000076294</ele>
        <time>2016-04-18T18:24:19Z</time>
      </trkpt>
      <trkpt lat="48.86628" lon="2.35254">
        <ele>49.20000076294</ele>
        <time>2016-04-18T18:24:21Z</time>
      </trkpt>
      <trkpt lat="48.86629" lon="2.35255">
        <ele>49.20000076294</ele>
        <time>2016-04-18T18:24:22Z</time>
      </trkpt>
      <trkpt lat="48.86626" lon="2.35256">
        <ele>49.20000076294</ele>
        <time>2016-04-18T18:24:26Z</time>
      </trkpt>
      <trkpt lat="48.86619" lon="2.35258">
        <ele>49.20000076294</ele>
        <time>2016-04-18T18:24:31Z</time>
      </trkpt>
      <trkpt lat="48.86611" lon="2.35286">
        <ele>48.599998474121</ele>
        <time>2016-04-18T18:24:37Z</time>
      </trkpt>
      <trkpt lat="48.86609" lon="2.35301">
        <ele>48.400001525879</ele>
        <time>2016-04-18T18:24:39Z</time>
      </trkpt>
      <trkpt lat="48.86608" lon="2.35333">
        <ele>48</ele>
        <time>2016-04-18T18:24:42Z</time>
      </trkpt>
      <trkpt lat="48.86607" lon="2.35362">
        <ele>48</ele>
        <time>2016-04-18T18:24:45Z</time>
      </trkpt>
      <trkpt lat="48.86597" lon="2.3539">
        <ele>47.599998474121</ele>
        <time>2016-04-18T18:24:49Z</time>
      </trkpt>
      <trkpt lat="48.86586" lon="2.35417">
        <ele>48.20000076294</ele>
        <time>2016-04-18T18:24:52Z</time>
      </trkpt>
      <trkpt lat="48.86585" lon="2.35424">
        <ele>48</ele>
        <time>2016-04-18T18:24:53Z</time>
      </trkpt>
      <trkpt lat="48.8658" lon="2.35455">
        <ele>47.400001525879</ele>
        <time>2016-04-18T18:24:57Z</time>
      </trkpt>
      <trkpt lat="48.86577" lon="2.35486">
        <ele>47</ele>
        <time>2016-04-18T18:25:01Z</time>
      </trkpt>
      <trkpt lat="48.86576" lon="2.35517">
        <ele>46</ele>
        <time>2016-04-18T18:25:05Z</time>
      </trkpt>
      <trkpt lat="48.86573" lon="2.35537">
        <ele>44.79999923706</ele>
        <time>2016-04-18T18:25:07Z</time>
      </trkpt>
      <trkpt lat="48.86558" lon="2.35563">
        <ele>44.599998474121</ele>
        <time>2016-04-18T18:25:10Z</time>
      </trkpt>
      <trkpt lat="48.86552" lon="2.35591">
        <ele>44.599998474121</ele>
        <time>2016-04-18T18:25:15Z</time>
      </trkpt>
      <trkpt lat="48.86547" lon="2.35624">
        <ele>45.20000076294</ele>
        <time>2016-04-18T18:25:20Z</time>
      </trkpt>
      <trkpt lat="48.86539" lon="2.35657">
        <ele>45.400001525879</ele>
        <time>2016-04-18T18:25:25Z</time>
      </trkpt>
      <trkpt lat="48.86537" lon="2.35684">
        <ele>45.79999923706</ele>
        <time>2016-04-18T18:25:29Z</time>
      </trkpt>
      <trkpt lat="48.86531" lon="2.35711">
        <ele>45.400001525879</ele>
        <time>2016-04-18T18:25:33Z</time>
      </trkpt>
      <trkpt lat="48.86522" lon="2.35743">
        <ele>45</ele>
        <time>2016-04-18T18:25:38Z</time>
      </trkpt>
      <trkpt lat="48.86514" lon="2.35769">
        <ele>45.20000076294</ele>
        <time>2016-04-18T18:25:42Z</time>
      </trkpt>
      <trkpt lat="48.86507" lon="2.35797">
        <ele>45.599998474121</ele>
        <time>2016-04-18T18:25:46Z</time>
      </trkpt>
      <trkpt lat="48.86501" lon="2.35826">
        <ele>46</ele>
        <time>2016-04-18T18:25:50Z</time>
      </trkpt>
      <trkpt lat="48.86492" lon="2.35855">
        <ele>45.400001525879</ele>
        <time>2016-04-18T18:25:54Z</time>
      </trkpt>
      <trkpt lat="48.86485" lon="2.35884">
        <ele>45</ele>
        <time>2016-04-18T18:25:58Z</time>
      </trkpt>
      <trkpt lat="48.86481" lon="2.35896">
        <ele>45</ele>
        <time>2016-04-18T18:26:00Z</time>
      </trkpt>
      <trkpt lat="48.86476" lon="2.35908">
        <ele>45.20000076294</ele>
        <time>2016-04-18T18:26:02Z</time>
      </trkpt>
      <trkpt lat="48.86466" lon="2.35935">
        <ele>45.599998474121</ele>
        <time>2016-04-18T18:26:07Z</time>
      </trkpt>
      <trkpt lat="48.86464" lon="2.35944">
        <ele>45.599998474121</ele>
        <time>2016-04-18T18:26:09Z</time>
      </trkpt>
      <trkpt lat="48.86473" lon="2.35975">
        <ele>45</ele>
        <time>2016-04-18T18:26:17Z</time>
      </trkpt>
      <trkpt lat="48.86476" lon="2.35979">
        <ele>44.79999923706</ele>
        <time>2016-04-18T18:26:18Z</time>
      </trkpt>
      <trkpt lat="48.86492" lon="2.35999">
        <ele>44.599998474121</ele>
        <time>2016-04-18T18:26:22Z</time>
      </trkpt>
      <trkpt lat="48.86512" lon="2.36018">
        <ele>44.599998474121</ele>
        <time>2016-04-18T18:26:26Z</time>
      </trkpt>
      <trkpt lat="48.86529" lon="2.36034">
        <ele>44.599998474121</ele>
        <time>2016-04-18T18:26:29Z</time>
      </trkpt>
      <trkpt lat="48.86545" lon="2.36048">
        <ele>44.20000076294</ele>
        <time>2016-04-18T18:26:32Z</time>
      </trkpt>
      <trkpt lat="48.86562" lon="2.36061">
        <ele>43.79999923706</ele>
        <time>2016-04-18T18:26:35Z</time>
      </trkpt>
      <trkpt lat="48.86567" lon="2.36067">
        <ele>43.599998474121</ele>
        <time>2016-04-18T18:26:36Z</time>
      </trkpt>
      <trkpt lat="48.86584" lon="2.36081">
        <ele>43.20000076294</ele>
        <time>2016-04-18T18:26:39Z</time>
      </trkpt>
      <trkpt lat="48.86601" lon="2.36093">
        <ele>43.20000076294</ele>
        <time>2016-04-18T18:26:42Z</time>
      </trkpt>
      <trkpt lat="48.86618" lon="2.36107">
        <ele>43.599998474121</ele>
        <time>2016-04-18T18:26:45Z</time>
      </trkpt>
      <trkpt lat="48.86635" lon="2.36123">
        <ele>44.20000076294</ele>
        <time>2016-04-18T18:26:48Z</time>
      </trkpt>
      <trkpt lat="48.8664" lon="2.36131">
        <ele>44.400001525879</ele>
        <time>2016-04-18T18:26:49Z</time>
      </trkpt>
      <trkpt lat="48.8665" lon="2.36148">
        <ele>44.79999923706</ele>
        <time>2016-04-18T18:26:51Z</time>
      </trkpt>
      <trkpt lat="48.86658" lon="2.36168">
        <ele>45.20000076294</ele>
        <time>2016-04-18T18:26:53Z</time>
      </trkpt>
      <trkpt lat="48.86668" lon="2.36196">
        <ele>45.79999923706</ele>
        <time>2016-04-18T18:26:56Z</time>
      </trkpt>
      <trkpt lat="48.86678" lon="2.36219">
        <ele>46.400001525879</ele>
        <time>2016-04-18T18:26:59Z</time>
      </trkpt>
      <trkpt lat="48.8669" lon="2.3625">
        <ele>47</ele>
        <time>2016-04-18T18:27:03Z</time>
      </trkpt>
      <trkpt lat="48.86701" lon="2.3628">
        <ele>46.599998474121</ele>
        <time>2016-04-18T18:27:07Z</time>
      </trkpt>
      <trkpt lat="48.86708" lon="2.36305">
        <ele>46.599998474121</ele>
        <time>2016-04-18T18:27:11Z</time>
      </trkpt>
      <trkpt lat="48.86714" lon="2.36324">
        <ele>46.400001525879</ele>
        <time>2016-04-18T18:27:15Z</time>
      </trkpt>
      <trkpt lat="48.86722" lon="2.36344">
        <ele>45.599998474121</ele>
        <time>2016-04-18T18:27:39Z</time>
      </trkpt>
      <trkpt lat="48.86711" lon="2.36369">
        <ele>45.20000076294</ele>
        <time>2016-04-18T18:27:45Z</time>
      </trkpt>
      <trkpt lat="48.86697" lon="2.36394">
        <ele>44</ele>
        <time>2016-04-18T18:27:50Z</time>
      </trkpt>
      <trkpt lat="48.86681" lon="2.36419">
        <ele>43.400001525879</ele>
        <time>2016-04-18T18:27:54Z</time>
      </trkpt>
      <trkpt lat="48.86667" lon="2.36444">
        <ele>43.79999923706</ele>
        <time>2016-04-18T18:27:58Z</time>
      </trkpt>
      <trkpt lat="48.86654" lon="2.36465">
        <ele>44.20000076294</ele>
        <time>2016-04-18T18:28:02Z</time>
      </trkpt>
      <trkpt lat="48.86649" lon="2.36482">
        <ele>44.20000076294</ele>
        <time>2016-04-18T18:28:05Z</time>
      </trkpt>
      <trkpt lat="48.86654" lon="2.36509">
        <ele>44</ele>
        <time>2016-04-18T18:28:11Z</time>
      </trkpt>
      <trkpt lat="48.86647" lon="2.36529">
        <ele>45.599998474121</ele>
        <time>2016-04-18T18:28:17Z</time>
      </trkpt>
      <trkpt lat="48.86633" lon="2.36548">
        <ele>46.400001525879</ele>
        <time>2016-04-18T18:28:22Z</time>
      </trkpt>
      <trkpt lat="48.86617" lon="2.36571">
        <ele>46.79999923706</ele>
        <time>2016-04-18T18:28:27Z</time>
      </trkpt>
      <trkpt lat="48.86601" lon="2.36588">
        <ele>47</ele>
        <time>2016-04-18T18:28:31Z</time>
      </trkpt>
      <trkpt lat="48.86583" lon="2.36611">
        <ele>46.599998474121</ele>
        <time>2016-04-18T18:28:35Z</time>
      </trkpt>
      <trkpt lat="48.8657" lon="2.3663">
        <ele>46.400001525879</ele>
        <time>2016-04-18T18:28:38Z</time>
      </trkpt>
      <trkpt lat="48.86556" lon="2.36651">
        <ele>45.79999923706</ele>
        <time>2016-04-18T18:28:41Z</time>
      </trkpt>
      <trkpt lat="48.86542" lon="2.36674">
        <ele>45.400001525879</ele>
        <time>2016-04-18T18:28:44Z</time>
      </trkpt>
      <trkpt lat="48.86526" lon="2.36699">
        <ele>45.400001525879</ele>
        <time>2016-04-18T18:28:48Z</time>
      </trkpt>
      <trkpt lat="48.86514" lon="2.36737">
        <ele>46</ele>
        <time>2016-04-18T18:28:52Z</time>
      </trkpt>
      <trkpt lat="48.86508" lon="2.36755">
        <ele>46.20000076294</ele>
        <time>2016-04-18T18:28:54Z</time>
      </trkpt>
      <trkpt lat="48.86499" lon="2.36782">
        <ele>46.79999923706</ele>
        <time>2016-04-18T18:28:57Z</time>
      </trkpt>
      <trkpt lat="48.86488" lon="2.36812">
        <ele>47.20000076294</ele>
        <time>2016-04-18T18:29:01Z</time>
      </trkpt>
      <trkpt lat="48.8648" lon="2.36831">
        <ele>47</ele>
        <time>2016-04-18T18:29:04Z</time>
      </trkpt>
      <trkpt lat="48.86461" lon="2.36847">
        <ele>46.400001525879</ele>
        <time>2016-04-18T18:29:08Z</time>
      </trkpt>
      <trkpt lat="48.86442" lon="2.36858">
        <ele>46</ele>
        <time>2016-04-18T18:29:12Z</time>
      </trkpt>
      <trkpt lat="48.86439" lon="2.36864">
        <ele>46</ele>
        <time>2016-04-18T18:29:13Z</time>
      </trkpt>
      <trkpt lat="48.86425" lon="2.36893">
        <ele>45.400001525879</ele>
        <time>2016-04-18T18:29:17Z</time>
      </trkpt>
      <trkpt lat="48.86411" lon="2.36918">
        <ele>45.599998474121</ele>
        <time>2016-04-18T18:29:20Z</time>
      </trkpt>
      <trkpt lat="48.86394" lon="2.36947">
        <ele>44.599998474121</ele>
        <time>2016-04-18T18:29:23Z</time>
      </trkpt>
      <trkpt lat="48.86383" lon="2.36975">
        <ele>45</ele>
        <time>2016-04-18T18:29:26Z</time>
      </trkpt>
      <trkpt lat="48.86379" lon="2.3699">
        <ele>45.400001525879</ele>
        <time>2016-04-18T18:29:28Z</time>
      </trkpt>
      <trkpt lat="48.86377" lon="2.36998">
        <ele>45.400001525879</ele>
        <time>2016-04-18T18:29:31Z</time>
      </trkpt>
      <trkpt lat="48.86375" lon="2.36999">
        <ele>45.400001525879</ele>
        <time>2016-04-18T18:29:35Z</time>
      </trkpt>
      <trkpt lat="48.86374" lon="2.36999">
        <ele>45.599998474121</ele>
        <time>2016-04-18T18:29:36Z</time>
      </trkpt>
      <trkpt lat="48.86364" lon="2.37019">
        <ele>45.20000076294</ele>
        <time>2016-04-18T18:29:58Z</time>
      </trkpt>
      <trkpt lat="48.86351" lon="2.37046">
        <ele>44.599998474121</ele>
        <time>2016-04-18T18:30:03Z</time>
      </trkpt>
      <trkpt lat="48.86338" lon="2.37068">
        <ele>43.599998474121</ele>
        <time>2016-04-18T18:30:07Z</time>
      </trkpt>
      <trkpt lat="48.86329" lon="2.37092">
        <ele>43.599998474121</ele>
        <time>2016-04-18T18:30:12Z</time>
      </trkpt>
      <trkpt lat="48.86319" lon="2.37116">
        <ele>43.599998474121</ele>
        <time>2016-04-18T18:30:17Z</time>
      </trkpt>
      <trkpt lat="48.86309" lon="2.3714">
        <ele>43.79999923706</ele>
        <time>2016-04-18T18:30:21Z</time>
      </trkpt>
      <trkpt lat="48.86294" lon="2.37164">
        <ele>44</ele>
        <time>2016-04-18T18:30:25Z</time>
      </trkpt>
      <trkpt lat="48.86277" lon="2.37182">
        <ele>44.20000076294</ele>
        <time>2016-04-18T18:30:28Z</time>
      </trkpt>
      <trkpt lat="48.86255" lon="2.37201">
        <ele>44.400001525879</ele>
        <time>2016-04-18T18:30:31Z</time>
      </trkpt>
      <trkpt lat="48.86243" lon="2.37226">
        <ele>44.79999923706</ele>
        <time>2016-04-18T18:30:34Z</time>
      </trkpt>
      <trkpt lat="48.8623" lon="2.37248">
        <ele>45</ele>
        <time>2016-04-18T18:30:38Z</time>
      </trkpt>
      <trkpt lat="48.86225" lon="2.37254">
        <ele>45</ele>
        <time>2016-04-18T18:30:41Z</time>
      </trkpt>
      <trkpt lat="48.8622" lon="2.37269">
        <ele>45.20000076294</ele>
        <time>2016-04-18T18:31:08Z</time>
      </trkpt>
      <trkpt lat="48.86212" lon="2.37275">
        <ele>45.400001525879</ele>
        <time>2016-04-18T18:31:10Z</time>
      </trkpt>
      <trkpt lat="48.86204" lon="2.37281">
        <ele>45.599998474121</ele>
        <time>2016-04-18T18:31:12Z</time>
      </trkpt>
      <trkpt lat="48.86193" lon="2.37297">
        <ele>46.20000076294</ele>
        <time>2016-04-18T18:31:16Z</time>
      </trkpt>
      <trkpt lat="48.86179" lon="2.37309">
        <ele>46.400001525879</ele>
        <time>2016-04-18T18:31:20Z</time>
      </trkpt>
      <trkpt lat="48.86164" lon="2.37327">
        <ele>46.400001525879</ele>
        <time>2016-04-18T18:31:25Z</time>
      </trkpt>
      <trkpt lat="48.86151" lon="2.3735">
        <ele>45.599998474121</ele>
        <time>2016-04-18T18:31:29Z</time>
      </trkpt>
      <trkpt lat="48.86141" lon="2.37375">
        <ele>45</ele>
        <time>2016-04-18T18:31:33Z</time>
      </trkpt>
      <trkpt lat="48.86136" lon="2.37388">
        <ele>44.599998474121</ele>
        <time>2016-04-18T18:31:35Z</time>
      </trkpt>
      <trkpt lat="48.86129" lon="2.37401">
        <ele>44.400001525879</ele>
        <time>2016-04-18T18:31:37Z</time>
      </trkpt>
      <trkpt lat="48.8612" lon="2.37434">
        <ele>44</ele>
        <time>2016-04-18T18:31:40Z</time>
      </trkpt>
      <trkpt lat="48.86112" lon="2.37442">
        <ele>43.599998474121</ele>
        <time>2016-04-18T18:31:41Z</time>
      </trkpt>
      <trkpt lat="48.86095" lon="2.37465">
        <ele>42.599998474121</ele>
        <time>2016-04-18T18:31:44Z</time>
      </trkpt>
      <trkpt lat="48.86086" lon="2.37499">
        <ele>42.400001525879</ele>
        <time>2016-04-18T18:31:48Z</time>
      </trkpt>
      <trkpt lat="48.86069" lon="2.37521">
        <ele>43.20000076294</ele>
        <time>2016-04-18T18:31:53Z</time>
      </trkpt>
      <trkpt lat="48.86067" lon="2.37523">
        <ele>43.20000076294</ele>
        <time>2016-04-18T18:31:54Z</time>
      </trkpt>
      <trkpt lat="48.86077" lon="2.3754">
        <ele>43.20000076294</ele>
        <time>2016-04-18T18:32:17Z</time>
      </trkpt>
      <trkpt lat="48.86085" lon="2.37568">
        <ele>43.599998474121</ele>
        <time>2016-04-18T18:32:22Z</time>
      </trkpt>
      <trkpt lat="48.86092" lon="2.37594">
        <ele>44.20000076294</ele>
        <time>2016-04-18T18:32:26Z</time>
      </trkpt>
      <trkpt lat="48.86105" lon="2.37623">
        <ele>45</ele>
        <time>2016-04-18T18:32:30Z</time>
      </trkpt>
      <trkpt lat="48.86116" lon="2.37644">
        <ele>46.20000076294</ele>
        <time>2016-04-18T18:32:33Z</time>
      </trkpt>
      <trkpt lat="48.8613" lon="2.37666">
        <ele>47.400001525879</ele>
        <time>2016-04-18T18:32:36Z</time>
      </trkpt>
      <trkpt lat="48.86138" lon="2.37678">
        <ele>47.599998474121</ele>
        <time>2016-04-18T18:32:38Z</time>
      </trkpt>
      <trkpt lat="48.86152" lon="2.377">
        <ele>48</ele>
        <time>2016-04-18T18:32:43Z</time>
      </trkpt>
      <trkpt lat="48.86157" lon="2.37712">
        <ele>48.20000076294</ele>
        <time>2016-04-18T18:32:45Z</time>
      </trkpt>
      <trkpt lat="48.86161" lon="2.37735">
        <ele>49</ele>
        <time>2016-04-18T18:32:49Z</time>
      </trkpt>
      <trkpt lat="48.86172" lon="2.37757">
        <ele>49.79999923706</ele>
        <time>2016-04-18T18:32:54Z</time>
      </trkpt>
      <trkpt lat="48.86182" lon="2.37782">
        <ele>50.400001525879</ele>
        <time>2016-04-18T18:32:59Z</time>
      </trkpt>
      <trkpt lat="48.86199" lon="2.37813">
        <ele>51.599998474121</ele>
        <time>2016-04-18T18:33:04Z</time>
      </trkpt>
      <trkpt lat="48.86212" lon="2.37836">
        <ele>52.599998474121</ele>
        <time>2016-04-18T18:33:08Z</time>
      </trkpt>
      <trkpt lat="48.86224" lon="2.3786">
        <ele>53.20000076294</ele>
        <time>2016-04-18T18:33:13Z</time>
      </trkpt>
      <trkpt lat="48.86235" lon="2.37888">
        <ele>53.599998474121</ele>
        <time>2016-04-18T18:33:18Z</time>
      </trkpt>
      <trkpt lat="48.86238" lon="2.37892">
        <ele>53.599998474121</ele>
        <time>2016-04-18T18:33:19Z</time>
      </trkpt>
      <trkpt lat="48.86251" lon="2.3792">
        <ele>54</ele>
        <time>2016-04-18T18:33:24Z</time>
      </trkpt>
      <trkpt lat="48.86259" lon="2.37942">
        <ele>54.599998474121</ele>
        <time>2016-04-18T18:33:29Z</time>
      </trkpt>
      <trkpt lat="48.86261" lon="2.37951">
        <ele>54.79999923706</ele>
        <time>2016-04-18T18:33:35Z</time>
      </trkpt>
      <trkpt lat="48.86263" lon="2.3795">
        <ele>55</ele>
        <time>2016-04-18T18:33:40Z</time>
      </trkpt>
      <trkpt lat="48.86269" lon="2.37946">
        <ele>55.20000076294</ele>
        <time>2016-04-18T18:33:44Z</time>
      </trkpt>
      <trkpt lat="48.86286" lon="2.37933">
        <ele>55.599998474121</ele>
        <time>2016-04-18T18:33:51Z</time>
      </trkpt>
      <trkpt lat="48.86293" lon="2.37931">
        <ele>55.79999923706</ele>
        <time>2016-04-18T18:33:54Z</time>
      </trkpt>
      <trkpt lat="48.86305" lon="2.37951">
        <ele>56.599998474121</ele>
        <time>2016-04-18T18:34:00Z</time>
      </trkpt>
      <trkpt lat="48.86308" lon="2.37954">
        <ele>56.79999923706</ele>
        <time>2016-04-18T18:34:01Z</time>
      </trkpt>
      <trkpt lat="48.86321" lon="2.37974">
        <ele>57.400001525879</ele>
        <time>2016-04-18T18:34:06Z</time>
      </trkpt>
      <trkpt lat="48.86332" lon="2.37999">
        <ele>58</ele>
        <time>2016-04-18T18:34:11Z</time>
      </trkpt>
      <trkpt lat="48.86343" lon="2.38024">
        <ele>58</ele>
        <time>2016-04-18T18:34:16Z</time>
      </trkpt>
      <trkpt lat="48.86356" lon="2.38051">
        <ele>57.599998474121</ele>
        <time>2016-04-18T18:34:21Z</time>
      </trkpt>
      <trkpt lat="48.86369" lon="2.38074">
        <ele>57.400001525879</ele>
        <time>2016-04-18T18:34:25Z</time>
      </trkpt>
      <trkpt lat="48.86376" lon="2.381">
        <ele>57.400001525879</ele>
        <time>2016-04-18T18:34:32Z</time>
      </trkpt>
      <trkpt lat="48.86391" lon="2.38129">
        <ele>57.79999923706</ele>
        <time>2016-04-18T18:34:46Z</time>
      </trkpt>
      <trkpt lat="48.86411" lon="2.38122">
        <ele>58.400001525879</ele>
        <time>2016-04-18T18:35:06Z</time>
      </trkpt>
      <trkpt lat="48.8642" lon="2.38136">
        <ele>58.599998474121</ele>
        <time>2016-04-18T18:35:10Z</time>
      </trkpt>
      <trkpt lat="48.86428" lon="2.38164">
        <ele>58.599998474121</ele>
        <time>2016-04-18T18:35:15Z</time>
      </trkpt>
      <trkpt lat="48.86438" lon="2.38192">
        <ele>59.20000076294</ele>
        <time>2016-04-18T18:35:19Z</time>
      </trkpt>
      <trkpt lat="48.86449" lon="2.3822">
        <ele>59.599998474121</ele>
        <time>2016-04-18T18:35:23Z</time>
      </trkpt>
      <trkpt lat="48.86459" lon="2.38244">
        <ele>60</ele>
        <time>2016-04-18T18:35:27Z</time>
      </trkpt>
      <trkpt lat="48.86467" lon="2.38262">
        <ele>59.79999923706</ele>
        <time>2016-04-18T18:35:30Z</time>
      </trkpt>
      <trkpt lat="48.8647" lon="2.38295">
        <ele>59.20000076294</ele>
        <time>2016-04-18T18:35:34Z</time>
      </trkpt>
      <trkpt lat="48.86478" lon="2.38321">
        <ele>58.79999923706</ele>
        <time>2016-04-18T18:35:38Z</time>
      </trkpt>
      <trkpt lat="48.86486" lon="2.38355">
        <ele>59.400001525879</ele>
        <time>2016-04-18T18:35:42Z</time>
      </trkpt>
      <trkpt lat="48.86499" lon="2.38382">
        <ele>60.599998474121</ele>
        <time>2016-04-18T18:35:45Z</time>
      </trkpt>
      <trkpt lat="48.86507" lon="2.38409">
        <ele>61.400001525879</ele>
        <time>2016-04-18T18:35:48Z</time>
      </trkpt>
      <trkpt lat="48.86512" lon="2.38433">
        <ele>61.79999923706</ele>
        <time>2016-04-18T18:35:52Z</time>
      </trkpt>
      <trkpt lat="48.86519" lon="2.38453">
        <ele>62.400001525879</ele>
        <time>2016-04-18T18:36:10Z</time>
      </trkpt>
      <trkpt lat="48.86527" lon="2.38483">
        <ele>62.79999923706</ele>
        <time>2016-04-18T18:36:30Z</time>
      </trkpt>
      <trkpt lat="48.86533" lon="2.38501">
        <ele>63</ele>
        <time>2016-04-18T18:36:34Z</time>
      </trkpt>
      <trkpt lat="48.86542" lon="2.38529">
        <ele>63</ele>
        <time>2016-04-18T18:36:40Z</time>
      </trkpt>
      <trkpt lat="48.86553" lon="2.38553">
        <ele>63</ele>
        <time>2016-04-18T18:36:45Z</time>
      </trkpt>
      <trkpt lat="48.86565" lon="2.38584">
        <ele>63</ele>
        <time>2016-04-18T18:36:50Z</time>
      </trkpt>
      <trkpt lat="48.86573" lon="2.3861">
        <ele>63.400001525879</ele>
        <time>2016-04-18T18:36:56Z</time>
      </trkpt>
      <trkpt lat="48.86577" lon="2.38612">
        <ele>63.400001525879</ele>
        <time>2016-04-18T18:36:58Z</time>
      </trkpt>
      <trkpt lat="48.86588" lon="2.3861">
        <ele>63.400001525879</ele>
        <time>2016-04-18T18:37:03Z</time>
      </trkpt>
      <trkpt lat="48.86604" lon="2.38592">
        <ele>63.20000076294</ele>
        <time>2016-04-18T18:37:11Z</time>
      </trkpt>
      <trkpt lat="48.86619" lon="2.38574">
        <ele>63</ele>
        <time>2016-04-18T18:37:18Z</time>
      </trkpt>
      <trkpt lat="48.86624" lon="2.38581">
        <ele>63</ele>
        <time>2016-04-18T18:37:22Z</time>
      </trkpt>
      <trkpt lat="48.86635" lon="2.38604">
        <ele>63.20000076294</ele>
        <time>2016-04-18T18:37:27Z</time>
      </trkpt>
      <trkpt lat="48.86648" lon="2.38632">
        <ele>63.599998474121</ele>
        <time>2016-04-18T18:37:31Z</time>
      </trkpt>
      <trkpt lat="48.86659" lon="2.3866">
        <ele>64</ele>
        <time>2016-04-18T18:37:34Z</time>
      </trkpt>
      <trkpt lat="48.86666" lon="2.38685">
        <ele>64.800003051758</ele>
        <time>2016-04-18T18:37:37Z</time>
      </trkpt>
      <trkpt lat="48.8667" lon="2.38715">
        <ele>65.800003051758</ele>
        <time>2016-04-18T18:37:41Z</time>
      </trkpt>
      <trkpt lat="48.86673" lon="2.3872">
        <ele>66</ele>
        <time>2016-04-18T18:37:42Z</time>
      </trkpt>
      <trkpt lat="48.8668" lon="2.38746">
        <ele>67</ele>
        <time>2016-04-18T18:37:46Z</time>
      </trkpt>
      <trkpt lat="48.86688" lon="2.38776">
        <ele>68.599998474121</ele>
        <time>2016-04-18T18:37:51Z</time>
      </trkpt>
      <trkpt lat="48.86695" lon="2.38796">
        <ele>69.800003051758</ele>
        <time>2016-04-18T18:37:54Z</time>
      </trkpt>
      <trkpt lat="48.86709" lon="2.38823">
        <ele>71</ele>
        <time>2016-04-18T18:37:59Z</time>
      </trkpt>
      <trkpt lat="48.86719" lon="2.38852">
        <ele>72</ele>
        <time>2016-04-18T18:38:04Z</time>
      </trkpt>
      <trkpt lat="48.86726" lon="2.38868">
        <ele>72.400001525879</ele>
        <time>2016-04-18T18:38:07Z</time>
      </trkpt>
      <trkpt lat="48.86729" lon="2.38885">
        <ele>72.800003051758</ele>
        <time>2016-04-18T18:38:10Z</time>
      </trkpt>
      <trkpt lat="48.86731" lon="2.38896">
        <ele>73</ele>
        <time>2016-04-18T18:38:14Z</time>
      </trkpt>
      <trkpt lat="48.86733" lon="2.38923">
        <ele>73.599998474121</ele>
        <time>2016-04-18T18:38:48Z</time>
      </trkpt>
      <trkpt lat="48.8674" lon="2.38951">
        <ele>74.199996948242</ele>
        <time>2016-04-18T18:38:54Z</time>
      </trkpt>
      <trkpt lat="48.86747" lon="2.3898">
        <ele>74.599998474121</ele>
        <time>2016-04-18T18:39:00Z</time>
      </trkpt>
      <trkpt lat="48.86751" lon="2.39007">
        <ele>75.199996948242</ele>
        <time>2016-04-18T18:39:08Z</time>
      </trkpt>
      <trkpt lat="48.86748" lon="2.39017">
        <ele>75.800003051758</ele>
        <time>2016-04-18T18:39:14Z</time>
      </trkpt>
      <trkpt lat="48.86743" lon="2.39025">
        <ele>76.199996948242</ele>
        <time>2016-04-18T18:39:21Z</time>
      </trkpt>
      <trkpt lat="48.86742" lon="2.39028">
        <ele>76.400001525879</ele>
        <time>2016-04-18T18:39:23Z</time>
      </trkpt>
      <trkpt lat="48.86741" lon="2.39032">
        <ele>76.599998474121</ele>
        <time>2016-04-18T18:39:27Z</time>
      </trkpt>
      <trkpt lat="48.86744" lon="2.39042">
        <ele>77.400001525879</ele>
        <time>2016-04-18T18:39:45Z</time>
      </trkpt>
      <trkpt lat="48.86742" lon="2.39049">
        <ele>78</ele>
        <time>2016-04-18T18:39:53Z</time>
      </trkpt>
      <trkpt lat="48.86726" lon="2.39056">
        <ele>78.400001525879</ele>
        <time>2016-04-18T18:40:03Z</time>
      </trkpt>
      <trkpt lat="48.86728" lon="2.39062">
        <ele>78.800003051758</ele>
        <time>2016-04-18T18:40:08Z</time>
      </trkpt>
      <trkpt lat="48.86729" lon="2.39063">
        <ele>79</ele>
        <time>2016-04-18T18:40:10Z</time>
      </trkpt>
      <trkpt lat="48.86731" lon="2.39056">
        <ele>78.400001525879</ele>
        <time>2016-04-18T18:41:02Z</time>
      </trkpt>
      <trkpt lat="48.86723" lon="2.39076">
        <ele>80</ele>
        <time>2016-04-18T18:41:46Z</time>
      </trkpt>
      <trkpt lat="48.86706" lon="2.39099">
        <ele>80.800003051758</ele>
        <time>2016-04-18T18:41:51Z</time>
      </trkpt>
      <trkpt lat="48.86689" lon="2.3912">
        <ele>82.400001525879</ele>
        <time>2016-04-18T18:41:55Z</time>
      </trkpt>
      <trkpt lat="48.86676" lon="2.39141">
        <ele>82.800003051758</ele>
        <time>2016-04-18T18:41:59Z</time>
      </trkpt>
      <trkpt lat="48.86663" lon="2.39164">
        <ele>84.199996948242</ele>
        <time>2016-04-18T18:42:03Z</time>
      </trkpt>
      <trkpt lat="48.86649" lon="2.39191">
        <ele>85</ele>
        <time>2016-04-18T18:42:07Z</time>
      </trkpt>
      <trkpt lat="48.86634" lon="2.39218">
        <ele>85.599998474121</ele>
        <time>2016-04-18T18:42:11Z</time>
      </trkpt>
      <trkpt lat="48.86618" lon="2.39243">
        <ele>86</ele>
        <time>2016-04-18T18:42:15Z</time>
      </trkpt>
      <trkpt lat="48.86605" lon="2.39262">
        <ele>86.400001525879</ele>
        <time>2016-04-18T18:42:19Z</time>
      </trkpt>
      <trkpt lat="48.86589" lon="2.39283">
        <ele>86</ele>
        <time>2016-04-18T18:42:23Z</time>
      </trkpt>
      <trkpt lat="48.86571" lon="2.39306">
        <ele>86</ele>
        <time>2016-04-18T18:42:27Z</time>
      </trkpt>
      <trkpt lat="48.86556" lon="2.39328">
        <ele>87</ele>
        <time>2016-04-18T18:42:31Z</time>
      </trkpt>
      <trkpt lat="48.86541" lon="2.39349">
        <ele>87.599998474121</ele>
        <time>2016-04-18T18:42:35Z</time>
      </trkpt>
      <trkpt lat="48.86526" lon="2.39371">
        <ele>86.599998474121</ele>
        <time>2016-04-18T18:42:39Z</time>
      </trkpt>
      <trkpt lat="48.86512" lon="2.39392">
        <ele>87.400001525879</ele>
        <time>2016-04-18T18:42:44Z</time>
      </trkpt>
      <trkpt lat="48.86505" lon="2.39401">
        <ele>87.800003051758</ele>
        <time>2016-04-18T18:42:48Z</time>
      </trkpt>
      <trkpt lat="48.86504" lon="2.39403">
        <ele>88</ele>
        <time>2016-04-18T18:42:49Z</time>
      </trkpt>
      <trkpt lat="48.865" lon="2.39411">
        <ele>88</ele>
        <time>2016-04-18T18:42:53Z</time>
      </trkpt>
      <trkpt lat="48.86499" lon="2.39417">
        <ele>88.199996948242</ele>
        <time>2016-04-18T18:42:59Z</time>
      </trkpt>
      <trkpt lat="48.865" lon="2.39422">
        <ele>88.400001525879</ele>
        <time>2016-04-18T18:43:19Z</time>
      </trkpt>
      <trkpt lat="48.86503" lon="2.39434">
        <ele>88.800003051758</ele>
        <time>2016-04-18T18:43:24Z</time>
      </trkpt>
      <trkpt lat="48.86506" lon="2.39436">
        <ele>88.800003051758</ele>
        <time>2016-04-18T18:43:25Z</time>
      </trkpt>
      <trkpt lat="48.86521" lon="2.39451">
        <ele>88.800003051758</ele>
        <time>2016-04-18T18:43:33Z</time>
      </trkpt>
      <trkpt lat="48.86536" lon="2.39467">
        <ele>90.199996948242</ele>
        <time>2016-04-18T18:43:41Z</time>
      </trkpt>
      <trkpt lat="48.86552" lon="2.39452">
        <ele>90.199996948242</ele>
        <time>2016-04-18T18:43:48Z</time>
      </trkpt>
      <trkpt lat="48.86568" lon="2.39437">
        <ele>90.800003051758</ele>
        <time>2016-04-18T18:43:54Z</time>
      </trkpt>
      <trkpt lat="48.86583" lon="2.39418">
        <ele>91.400001525879</ele>
        <time>2016-04-18T18:44:04Z</time>
      </trkpt>
      <trkpt lat="48.86599" lon="2.39395">
        <ele>91.800003051758</ele>
        <time>2016-04-18T18:44:10Z</time>
      </trkpt>
      <trkpt lat="48.86615" lon="2.3937">
        <ele>91.800003051758</ele>
        <time>2016-04-18T18:44:15Z</time>
      </trkpt>
      <trkpt lat="48.86629" lon="2.39349">
        <ele>91.800003051758</ele>
        <time>2016-04-18T18:44:20Z</time>
      </trkpt>
      <trkpt lat="48.86637" lon="2.3934">
        <ele>91.599998474121</ele>
        <time>2016-04-18T18:44:24Z</time>
      </trkpt>
      <trkpt lat="48.86637" lon="2.39339">
        <ele>91.599998474121</ele>
        <time>2016-04-18T18:44:27Z</time>
      </trkpt>
      <trkpt lat="48.86631" lon="2.39345">
        <ele>91.599998474121</ele>
        <time>2016-04-18T18:44:32Z</time>
      </trkpt>
      <trkpt lat="48.86612" lon="2.39362">
        <ele>91</ele>
        <time>2016-04-18T18:44:38Z</time>
      </trkpt>
      <trkpt lat="48.86597" lon="2.39382">
        <ele>91.199996948242</ele>
        <time>2016-04-18T18:44:42Z</time>
      </trkpt>
      <trkpt lat="48.86585" lon="2.39412">
        <ele>91.400001525879</ele>
        <time>2016-04-18T18:44:47Z</time>
      </trkpt>
      <trkpt lat="48.86582" lon="2.39441">
        <ele>91.800003051758</ele>
        <time>2016-04-18T18:44:53Z</time>
      </trkpt>
      <trkpt lat="48.86597" lon="2.39426">
        <ele>92.599998474121</ele>
        <time>2016-04-18T18:44:59Z</time>
      </trkpt>
      <trkpt lat="48.86615" lon="2.39408">
        <ele>93.400001525879</ele>
        <time>2016-04-18T18:45:04Z</time>
      </trkpt>
      <trkpt lat="48.86628" lon="2.39384">
        <ele>93.599998474121</ele>
        <time>2016-04-18T18:45:09Z</time>
      </trkpt>
      <trkpt lat="48.8664" lon="2.39367">
        <ele>94</ele>
        <time>2016-04-18T18:45:16Z</time>
      </trkpt>
      <trkpt lat="48.86649" lon="2.39375">
        <ele>95.199996948242</ele>
        <time>2016-04-18T18:46:07Z</time>
      </trkpt>
      <trkpt lat="48.86665" lon="2.39396">
        <ele>97.800003051758</ele>
        <time>2016-04-18T18:46:12Z</time>
      </trkpt>
      <trkpt lat="48.86672" lon="2.39404">
        <ele>98.800003051758</ele>
        <time>2016-04-18T18:46:14Z</time>
      </trkpt>
      <trkpt lat="48.8669" lon="2.39422">
        <ele>101.19999694824</ele>
        <time>2016-04-18T18:46:19Z</time>
      </trkpt>
      <trkpt lat="48.867" lon="2.39435">
        <ele>101.40000152588</ele>
        <time>2016-04-18T18:46:22Z</time>
      </trkpt>
      <trkpt lat="48.86705" lon="2.39443">
        <ele>101.59999847412</ele>
        <time>2016-04-18T18:46:24Z</time>
      </trkpt>
      <trkpt lat="48.86722" lon="2.39456">
        <ele>102</ele>
        <time>2016-04-18T18:46:29Z</time>
      </trkpt>
      <trkpt lat="48.86737" lon="2.39473">
        <ele>102.40000152588</ele>
        <time>2016-04-18T18:46:33Z</time>
      </trkpt>
      <trkpt lat="48.8675" lon="2.39499">
        <ele>103</ele>
        <time>2016-04-18T18:46:38Z</time>
      </trkpt>
      <trkpt lat="48.8676" lon="2.39517">
        <ele>103</ele>
        <time>2016-04-18T18:46:42Z</time>
      </trkpt>
      <trkpt lat="48.86774" lon="2.39535">
        <ele>103</ele>
        <time>2016-04-18T18:46:47Z</time>
      </trkpt>
      <trkpt lat="48.86775" lon="2.39537">
        <ele>103.19999694824</ele>
        <time>2016-04-18T18:46:48Z</time>
      </trkpt>
      <trkpt lat="48.86781" lon="2.39554">
        <ele>103.40000152588</ele>
        <time>2016-04-18T18:47:12Z</time>
      </trkpt>
      <trkpt lat="48.86799" lon="2.39552">
        <ele>104.19999694824</ele>
        <time>2016-04-18T18:47:28Z</time>
      </trkpt>
      <trkpt lat="48.86814" lon="2.39531">
        <ele>104.59999847412</ele>
        <time>2016-04-18T18:47:33Z</time>
      </trkpt>
      <trkpt lat="48.86823" lon="2.39504">
        <ele>103.80000305176</ele>
        <time>2016-04-18T18:47:37Z</time>
      </trkpt>
      <trkpt lat="48.86836" lon="2.39481">
        <ele>103.59999847412</ele>
        <time>2016-04-18T18:47:42Z</time>
      </trkpt>
      <trkpt lat="48.8684" lon="2.39461">
        <ele>102.80000305176</ele>
        <time>2016-04-18T18:47:45Z</time>
      </trkpt>
      <trkpt lat="48.86843" lon="2.39432">
        <ele>101.80000305176</ele>
        <time>2016-04-18T18:47:49Z</time>
      </trkpt>
      <trkpt lat="48.8685" lon="2.39421">
        <ele>101.19999694824</ele>
        <time>2016-04-18T18:47:52Z</time>
      </trkpt>
      <trkpt lat="48.86871" lon="2.39409">
        <ele>101.40000152588</ele>
        <time>2016-04-18T18:47:58Z</time>
      </trkpt>
      <trkpt lat="48.86874" lon="2.39405">
        <ele>101.40000152588</ele>
        <time>2016-04-18T18:47:59Z</time>
      </trkpt>
      <trkpt lat="48.8689" lon="2.39392">
        <ele>101.59999847412</ele>
        <time>2016-04-18T18:48:05Z</time>
      </trkpt>
      <trkpt lat="48.86903" lon="2.39373">
        <ele>101.80000305176</ele>
        <time>2016-04-18T18:48:10Z</time>
      </trkpt>
      <trkpt lat="48.86918" lon="2.39355">
        <ele>102.19999694824</ele>
        <time>2016-04-18T18:48:15Z</time>
      </trkpt>
      <trkpt lat="48.86933" lon="2.39336">
        <ele>102.80000305176</ele>
        <time>2016-04-18T18:48:20Z</time>
      </trkpt>
      <trkpt lat="48.86949" lon="2.39319">
        <ele>102.59999847412</ele>
        <time>2016-04-18T18:48:28Z</time>
      </trkpt>
      <trkpt lat="48.86965" lon="2.39342">
        <ele>104</ele>
        <time>2016-04-18T18:48:32Z</time>
      </trkpt>
      <trkpt lat="48.86976" lon="2.39373">
        <ele>105.19999694824</ele>
        <time>2016-04-18T18:48:36Z</time>
      </trkpt>
      <trkpt lat="48.86978" lon="2.39381">
        <ele>105.40000152588</ele>
        <time>2016-04-18T18:48:37Z</time>
      </trkpt>
      <trkpt lat="48.86989" lon="2.39409">
        <ele>106.19999694824</ele>
        <time>2016-04-18T18:48:41Z</time>
      </trkpt>
      <trkpt lat="48.86996" lon="2.3943">
        <ele>107.19999694824</ele>
        <time>2016-04-18T18:48:45Z</time>
      </trkpt>
      <trkpt lat="48.86997" lon="2.39439">
        <ele>107.59999847412</ele>
        <time>2016-04-18T18:48:49Z</time>
      </trkpt>
      <trkpt lat="48.87003" lon="2.39469">
        <ele>109</ele>
        <time>2016-04-18T18:49:07Z</time>
      </trkpt>
      <trkpt lat="48.87005" lon="2.39499">
        <ele>110.19999694824</ele>
        <time>2016-04-18T18:49:12Z</time>
      </trkpt>
      <trkpt lat="48.87006" lon="2.39506">
        <ele>110.59999847412</ele>
        <time>2016-04-18T18:49:13Z</time>
      </trkpt>
      <trkpt lat="48.87008" lon="2.39532">
        <ele>112.40000152588</ele>
        <time>2016-04-18T18:49:17Z</time>
      </trkpt>
      <trkpt lat="48.87013" lon="2.39558">
        <ele>114.19999694824</ele>
        <time>2016-04-18T18:49:21Z</time>
      </trkpt>
      <trkpt lat="48.87016" lon="2.39568">
        <ele>114.80000305176</ele>
        <time>2016-04-18T18:49:26Z</time>
      </trkpt>
      <trkpt lat="48.87032" lon="2.39553">
        <ele>114.80000305176</ele>
        <time>2016-04-18T18:49:32Z</time>
      </trkpt>
      <trkpt lat="48.87048" lon="2.39538">
        <ele>114.59999847412</ele>
        <time>2016-04-18T18:49:40Z</time>
      </trkpt>
      <trkpt lat="48.87049" lon="2.39539">
        <ele>114.59999847412</ele>
        <time>2016-04-18T18:49:43Z</time>
      </trkpt>
      <trkpt lat="48.87063" lon="2.39562">
        <ele>116.80000305176</ele>
        <time>2016-04-18T18:50:06Z</time>
      </trkpt>
      <trkpt lat="48.87077" lon="2.39584">
        <ele>118.80000305176</ele>
        <time>2016-04-18T18:50:11Z</time>
      </trkpt>
      <trkpt lat="48.87091" lon="2.39606">
        <ele>120.40000152588</ele>
        <time>2016-04-18T18:50:15Z</time>
      </trkpt>
      <trkpt lat="48.87105" lon="2.39626">
        <ele>122</ele>
        <time>2016-04-18T18:50:19Z</time>
      </trkpt>
      <trkpt lat="48.87116" lon="2.39649">
        <ele>122.80000305176</ele>
        <time>2016-04-18T18:50:23Z</time>
      </trkpt>
      <trkpt lat="48.87125" lon="2.39676">
        <ele>123.40000152588</ele>
        <time>2016-04-18T18:50:28Z</time>
      </trkpt>
      <trkpt lat="48.87137" lon="2.39699">
        <ele>123.40000152588</ele>
        <time>2016-04-18T18:50:32Z</time>
      </trkpt>
      <trkpt lat="48.87152" lon="2.39722">
        <ele>123</ele>
        <time>2016-04-18T18:50:36Z</time>
      </trkpt>
      <trkpt lat="48.87166" lon="2.39743">
        <ele>122.80000305176</ele>
        <time>2016-04-18T18:50:40Z</time>
      </trkpt>
      <trkpt lat="48.87168" lon="2.3975">
        <ele>122.80000305176</ele>
        <time>2016-04-18T18:50:41Z</time>
      </trkpt>
      <trkpt lat="48.87179" lon="2.39759">
        <ele>122.59999847412</ele>
        <time>2016-04-18T18:50:44Z</time>
      </trkpt>
      <trkpt lat="48.87193" lon="2.39765">
        <ele>122.40000152588</ele>
        <time>2016-04-18T18:50:48Z</time>
      </trkpt>
      <trkpt lat="48.87206" lon="2.39767">
        <ele>122.80000305176</ele>
        <time>2016-04-18T18:50:52Z</time>
      </trkpt>
      <trkpt lat="48.87221" lon="2.39774">
        <ele>123.19999694824</ele>
        <time>2016-04-18T18:50:58Z</time>
      </trkpt>
      <trkpt lat="48.87228" lon="2.39787">
        <ele>123.80000305176</ele>
        <time>2016-04-18T18:51:03Z</time>
      </trkpt>
      <trkpt lat="48.87233" lon="2.39799">
        <ele>124.19999694824</ele>
        <time>2016-04-18T18:51:40Z</time>
      </trkpt>
      <trkpt lat="48.87234" lon="2.39828">
        <ele>124.59999847412</ele>
        <time>2016-04-18T18:51:45Z</time>
      </trkpt>
      <trkpt lat="48.87243" lon="2.39856">
        <ele>124.59999847412</ele>
        <time>2016-04-18T18:51:50Z</time>
      </trkpt>
      <trkpt lat="48.87249" lon="2.39882">
        <ele>124.59999847412</ele>
        <time>2016-04-18T18:51:54Z</time>
      </trkpt>
      <trkpt lat="48.87262" lon="2.3991">
        <ele>124.59999847412</ele>
        <time>2016-04-18T18:51:59Z</time>
      </trkpt>
      <trkpt lat="48.8727" lon="2.3992">
        <ele>124.59999847412</ele>
        <time>2016-04-18T18:52:01Z</time>
      </trkpt>
      <trkpt lat="48.87279" lon="2.39942">
        <ele>124.59999847412</ele>
        <time>2016-04-18T18:52:05Z</time>
      </trkpt>
      <trkpt lat="48.87289" lon="2.39967">
        <ele>124.80000305176</ele>
        <time>2016-04-18T18:52:10Z</time>
      </trkpt>
      <trkpt lat="48.87294" lon="2.39985">
        <ele>124.59999847412</ele>
        <time>2016-04-18T18:52:13Z</time>
      </trkpt>
      <trkpt lat="48.87301" lon="2.40011">
        <ele>124</ele>
        <time>2016-04-18T18:52:17Z</time>
      </trkpt>
      <trkpt lat="48.87302" lon="2.40017">
        <ele>123.59999847412</ele>
        <time>2016-04-18T18:52:18Z</time>
      </trkpt>
      <trkpt lat="48.87309" lon="2.40044">
        <ele>123.40000152588</ele>
        <time>2016-04-18T18:52:22Z</time>
      </trkpt>
      <trkpt lat="48.87314" lon="2.40072">
        <ele>123.80000305176</ele>
        <time>2016-04-18T18:52:26Z</time>
      </trkpt>
      <trkpt lat="48.8732" lon="2.40099">
        <ele>123.80000305176</ele>
        <time>2016-04-18T18:52:30Z</time>
      </trkpt>
      <trkpt lat="48.87329" lon="2.40127">
        <ele>123.80000305176</ele>
        <time>2016-04-18T18:52:34Z</time>
      </trkpt>
      <trkpt lat="48.87333" lon="2.40142">
        <ele>123.59999847412</ele>
        <time>2016-04-18T18:52:36Z</time>
      </trkpt>
      <trkpt lat="48.87342" lon="2.40171">
        <ele>124.19999694824</ele>
        <time>2016-04-18T18:52:40Z</time>
      </trkpt>
      <trkpt lat="48.8735" lon="2.40203">
        <ele>124.59999847412</ele>
        <time>2016-04-18T18:52:44Z</time>
      </trkpt>
      <trkpt lat="48.87359" lon="2.40234">
        <ele>125</ele>
        <time>2016-04-18T18:52:48Z</time>
      </trkpt>
      <trkpt lat="48.87368" lon="2.40255">
        <ele>124.80000305176</ele>
        <time>2016-04-18T18:52:51Z</time>
      </trkpt>
      <trkpt lat="48.87378" lon="2.40282">
        <ele>124.40000152588</ele>
        <time>2016-04-18T18:52:55Z</time>
      </trkpt>
      <trkpt lat="48.87386" lon="2.40297">
        <ele>124.19999694824</ele>
        <time>2016-04-18T18:53:00Z</time>
      </trkpt>
      <trkpt lat="48.87377" lon="2.40272">
        <ele>124.59999847412</ele>
        <time>2016-04-18T18:53:07Z</time>
      </trkpt>
      <trkpt lat="48.87381" lon="2.40279">
        <ele>124.59999847412</ele>
        <time>2016-04-18T18:53:24Z</time>
      </trkpt>
      <trkpt lat="48.87386" lon="2.40305">
        <ele>124</ele>
        <time>2016-04-18T18:53:31Z</time>
      </trkpt>
      <trkpt lat="48.8739" lon="2.40329">
        <ele>123.40000152588</ele>
        <time>2016-04-18T18:53:41Z</time>
      </trkpt>
      <trkpt lat="48.8739" lon="2.4033">
        <ele>123.40000152588</ele>
        <time>2016-04-18T18:53:42Z</time>
      </trkpt>
      <trkpt lat="48.87405" lon="2.4033">
        <ele>123.59999847412</ele>
        <time>2016-04-18T18:54:03Z</time>
      </trkpt>
      <trkpt lat="48.87423" lon="2.40322">
        <ele>124</ele>
        <time>2016-04-18T18:54:11Z</time>
      </trkpt>
      <trkpt lat="48.8744" lon="2.40306">
        <ele>123.59999847412</ele>
        <time>2016-04-18T18:54:21Z</time>
      </trkpt>
      <trkpt lat="48.87457" lon="2.40292">
        <ele>123.40000152588</ele>
        <time>2016-04-18T18:54:28Z</time>
      </trkpt>
      <trkpt lat="48.87478" lon="2.40281">
        <ele>123</ele>
        <time>2016-04-18T18:54:33Z</time>
      </trkpt>
      <trkpt lat="48.87499" lon="2.40274">
        <ele>123.40000152588</ele>
        <time>2016-04-18T18:54:38Z</time>
      </trkpt>
      <trkpt lat="48.87519" lon="2.40272">
        <ele>123.59999847412</ele>
        <time>2016-04-18T18:54:42Z</time>
      </trkpt>
      <trkpt lat="48.87539" lon="2.40271">
        <ele>124.19999694824</ele>
        <time>2016-04-18T18:54:46Z</time>
      </trkpt>
      <trkpt lat="48.87558" lon="2.40266">
        <ele>123.59999847412</ele>
        <time>2016-04-18T18:54:52Z</time>
      </trkpt>
      <trkpt lat="48.87578" lon="2.40259">
        <ele>122.59999847412</ele>
        <time>2016-04-18T18:54:58Z</time>
      </trkpt>
      <trkpt lat="48.87604" lon="2.4026">
        <ele>121.59999847412</ele>
        <time>2016-04-18T18:55:04Z</time>
      </trkpt>
      <trkpt lat="48.8761" lon="2.40253">
        <ele>121</ele>
        <time>2016-04-18T18:55:10Z</time>
      </trkpt>
      <trkpt lat="48.8763" lon="2.4025">
        <ele>120.40000152588</ele>
        <time>2016-04-18T18:55:17Z</time>
      </trkpt>
      <trkpt lat="48.8765" lon="2.40246">
        <ele>120</ele>
        <time>2016-04-18T18:55:23Z</time>
      </trkpt>
      <trkpt lat="48.87667" lon="2.40232">
        <ele>120.19999694824</ele>
        <time>2016-04-18T18:55:29Z</time>
      </trkpt>
      <trkpt lat="48.87686" lon="2.40221">
        <ele>118.40000152588</ele>
        <time>2016-04-18T18:55:34Z</time>
      </trkpt>
      <trkpt lat="48.87707" lon="2.40214">
        <ele>116.59999847412</ele>
        <time>2016-04-18T18:55:39Z</time>
      </trkpt>
      <trkpt lat="48.87724" lon="2.40203">
        <ele>115.19999694824</ele>
        <time>2016-04-18T18:55:44Z</time>
      </trkpt>
      <trkpt lat="48.87743" lon="2.4019">
        <ele>113.59999847412</ele>
        <time>2016-04-18T18:55:51Z</time>
      </trkpt>
      <trkpt lat="48.87752" lon="2.40184">
        <ele>113</ele>
        <time>2016-04-18T18:55:55Z</time>
      </trkpt>
      <trkpt lat="48.87767" lon="2.40195">
        <ele>112.40000152588</ele>
        <time>2016-04-18T18:56:43Z</time>
      </trkpt>
      <trkpt lat="48.87785" lon="2.40184">
        <ele>110.40000152588</ele>
        <time>2016-04-18T18:57:03Z</time>
      </trkpt>
      <trkpt lat="48.87803" lon="2.40177">
        <ele>108.80000305176</ele>
        <time>2016-04-18T18:57:13Z</time>
      </trkpt>
      <trkpt lat="48.87821" lon="2.40169">
        <ele>107.59999847412</ele>
        <time>2016-04-18T18:57:19Z</time>
      </trkpt>
      <trkpt lat="48.87838" lon="2.40157">
        <ele>106.59999847412</ele>
        <time>2016-04-18T18:57:24Z</time>
      </trkpt>
      <trkpt lat="48.87848" lon="2.40155">
        <ele>106</ele>
        <time>2016-04-18T18:57:29Z</time>
      </trkpt>
      <trkpt lat="48.87868" lon="2.40158">
        <ele>104.40000152588</ele>
        <time>2016-04-18T18:58:22Z</time>
      </trkpt>
      <trkpt lat="48.87878" lon="2.40143">
        <ele>104</ele>
        <time>2016-04-18T18:58:27Z</time>
      </trkpt>
      <trkpt lat="48.87896" lon="2.40137">
        <ele>102.80000305176</ele>
        <time>2016-04-18T18:58:32Z</time>
      </trkpt>
      <trkpt lat="48.87915" lon="2.40121">
        <ele>101.80000305176</ele>
        <time>2016-04-18T18:58:36Z</time>
      </trkpt>
      <trkpt lat="48.87935" lon="2.40105">
        <ele>100.80000305176</ele>
        <time>2016-04-18T18:58:40Z</time>
      </trkpt>
      <trkpt lat="48.87957" lon="2.40089">
        <ele>100.19999694824</ele>
        <time>2016-04-18T18:58:44Z</time>
      </trkpt>
      <trkpt lat="48.87974" lon="2.40077">
        <ele>100.19999694824</ele>
        <time>2016-04-18T18:58:47Z</time>
      </trkpt>
      <trkpt lat="48.87992" lon="2.40061">
        <ele>100.80000305176</ele>
        <time>2016-04-18T18:58:50Z</time>
      </trkpt>
      <trkpt lat="48.88012" lon="2.40045">
        <ele>100.80000305176</ele>
        <time>2016-04-18T18:58:54Z</time>
      </trkpt>
      <trkpt lat="48.88031" lon="2.40031">
        <ele>100.40000152588</ele>
        <time>2016-04-18T18:58:57Z</time>
      </trkpt>
      <trkpt lat="48.8805" lon="2.40019">
        <ele>99.400001525879</ele>
        <time>2016-04-18T18:59:01Z</time>
      </trkpt>
      <trkpt lat="48.88067" lon="2.40008">
        <ele>98.400001525879</ele>
        <time>2016-04-18T18:59:06Z</time>
      </trkpt>
      <trkpt lat="48.88075" lon="2.40006">
        <ele>97.599998474121</ele>
        <time>2016-04-18T18:59:09Z</time>
      </trkpt>
      <trkpt lat="48.88079" lon="2.40006">
        <ele>97.199996948242</ele>
        <time>2016-04-18T18:59:11Z</time>
      </trkpt>
      <trkpt lat="48.88088" lon="2.40001">
        <ele>96.599998474121</ele>
        <time>2016-04-18T18:59:27Z</time>
      </trkpt>
      <trkpt lat="48.88103" lon="2.40003">
        <ele>95.199996948242</ele>
        <time>2016-04-18T18:59:31Z</time>
      </trkpt>
      <trkpt lat="48.88122" lon="2.40013">
        <ele>93.800003051758</ele>
        <time>2016-04-18T18:59:35Z</time>
      </trkpt>
      <trkpt lat="48.8814" lon="2.4003">
        <ele>92.199996948242</ele>
        <time>2016-04-18T18:59:39Z</time>
      </trkpt>
      <trkpt lat="48.8816" lon="2.40048">
        <ele>90.599998474121</ele>
        <time>2016-04-18T18:59:43Z</time>
      </trkpt>
      <trkpt lat="48.88177" lon="2.40054">
        <ele>89.599998474121</ele>
        <time>2016-04-18T18:59:46Z</time>
      </trkpt>
      <trkpt lat="48.88195" lon="2.40054">
        <ele>88.599998474121</ele>
        <time>2016-04-18T18:59:49Z</time>
      </trkpt>
      <trkpt lat="48.88206" lon="2.40052">
        <ele>87.800003051758</ele>
        <time>2016-04-18T18:59:51Z</time>
      </trkpt>
      <trkpt lat="48.88223" lon="2.40044">
        <ele>87</ele>
        <time>2016-04-18T18:59:55Z</time>
      </trkpt>
      <trkpt lat="48.88227" lon="2.4004">
        <ele>86.800003051758</ele>
        <time>2016-04-18T18:59:56Z</time>
      </trkpt>
      <trkpt lat="48.88239" lon="2.4002">
        <ele>85.599998474121</ele>
        <time>2016-04-18T19:00:00Z</time>
      </trkpt>
      <trkpt lat="48.88249" lon="2.39996">
        <ele>84.800003051758</ele>
        <time>2016-04-18T19:00:04Z</time>
      </trkpt>
      <trkpt lat="48.88256" lon="2.39971">
        <ele>85.400001525879</ele>
        <time>2016-04-18T19:00:08Z</time>
      </trkpt>
      <trkpt lat="48.88259" lon="2.39958">
        <ele>85.800003051758</ele>
        <time>2016-04-18T19:00:10Z</time>
      </trkpt>
      <trkpt lat="48.88263" lon="2.3993">
        <ele>87</ele>
        <time>2016-04-18T19:00:14Z</time>
      </trkpt>
      <trkpt lat="48.88266" lon="2.39902">
        <ele>88.400001525879</ele>
        <time>2016-04-18T19:00:18Z</time>
      </trkpt>
      <trkpt lat="48.88271" lon="2.3987">
        <ele>90.800003051758</ele>
        <time>2016-04-18T19:00:23Z</time>
      </trkpt>
      <trkpt lat="48.88275" lon="2.39853">
        <ele>92</ele>
        <time>2016-04-18T19:00:26Z</time>
      </trkpt>
      <trkpt lat="48.88278" lon="2.39824">
        <ele>93.400001525879</ele>
        <time>2016-04-18T19:00:31Z</time>
      </trkpt>
      <trkpt lat="48.88282" lon="2.39807">
        <ele>93.199996948242</ele>
        <time>2016-04-18T19:00:34Z</time>
      </trkpt>
      <trkpt lat="48.88289" lon="2.39783">
        <ele>92.599998474121</ele>
        <time>2016-04-18T19:00:38Z</time>
      </trkpt>
      <trkpt lat="48.88294" lon="2.39772">
        <ele>92.199996948242</ele>
        <time>2016-04-18T19:00:40Z</time>
      </trkpt>
      <trkpt lat="48.88298" lon="2.3976">
        <ele>91.599998474121</ele>
        <time>2016-04-18T19:00:42Z</time>
      </trkpt>
      <trkpt lat="48.88315" lon="2.39741">
        <ele>88.400001525879</ele>
        <time>2016-04-18T19:00:46Z</time>
      </trkpt>
      <trkpt lat="48.88331" lon="2.39726">
        <ele>85.400001525879</ele>
        <time>2016-04-18T19:00:49Z</time>
      </trkpt>
      <trkpt lat="48.8835" lon="2.39712">
        <ele>82.800003051758</ele>
        <time>2016-04-18T19:00:53Z</time>
      </trkpt>
      <trkpt lat="48.88353" lon="2.39707">
        <ele>82.400001525879</ele>
        <time>2016-04-18T19:00:54Z</time>
      </trkpt>
      <trkpt lat="48.88366" lon="2.39685">
        <ele>81.599998474121</ele>
        <time>2016-04-18T19:00:59Z</time>
      </trkpt>
      <trkpt lat="48.88375" lon="2.39682">
        <ele>81</ele>
        <time>2016-04-18T19:01:01Z</time>
      </trkpt>
      <trkpt lat="48.88386" lon="2.39678">
        <ele>79.599998474121</ele>
        <time>2016-04-18T19:01:03Z</time>
      </trkpt>
      <trkpt lat="48.88406" lon="2.39668">
        <ele>77</ele>
        <time>2016-04-18T19:01:08Z</time>
      </trkpt>
      <trkpt lat="48.88412" lon="2.39662">
        <ele>76.400001525879</ele>
        <time>2016-04-18T19:01:10Z</time>
      </trkpt>
      <trkpt lat="48.88431" lon="2.39656">
        <ele>74</ele>
        <time>2016-04-18T19:01:15Z</time>
      </trkpt>
      <trkpt lat="48.88452" lon="2.39647">
        <ele>73.199996948242</ele>
        <time>2016-04-18T19:01:19Z</time>
      </trkpt>
      <trkpt lat="48.88477" lon="2.39642">
        <ele>73.400001525879</ele>
        <time>2016-04-18T19:01:23Z</time>
      </trkpt>
      <trkpt lat="48.88498" lon="2.3964">
        <ele>73.800003051758</ele>
        <time>2016-04-18T19:01:26Z</time>
      </trkpt>
      <trkpt lat="48.88522" lon="2.3964">
        <ele>73.400001525879</ele>
        <time>2016-04-18T19:01:29Z</time>
      </trkpt>
      <trkpt lat="48.8854" lon="2.39632">
        <ele>71.199996948242</ele>
        <time>2016-04-18T19:01:33Z</time>
      </trkpt>
      <trkpt lat="48.8856" lon="2.39627">
        <ele>68.599998474121</ele>
        <time>2016-04-18T19:01:38Z</time>
      </trkpt>
      <trkpt lat="48.88579" lon="2.39625">
        <ele>66.599998474121</ele>
        <time>2016-04-18T19:01:43Z</time>
      </trkpt>
      <trkpt lat="48.88598" lon="2.39633">
        <ele>64.800003051758</ele>
        <time>2016-04-18T19:01:53Z</time>
      </trkpt>
      <trkpt lat="48.88603" lon="2.39634">
        <ele>64.400001525879</ele>
        <time>2016-04-18T19:01:55Z</time>
      </trkpt>
      <trkpt lat="48.88624" lon="2.39626">
        <ele>64.199996948242</ele>
        <time>2016-04-18T19:02:01Z</time>
      </trkpt>
      <trkpt lat="48.88644" lon="2.39622">
        <ele>64.400001525879</ele>
        <time>2016-04-18T19:02:07Z</time>
      </trkpt>
      <trkpt lat="48.88663" lon="2.39629">
        <ele>64.599998474121</ele>
        <time>2016-04-18T19:02:17Z</time>
      </trkpt>
      <trkpt lat="48.88683" lon="2.39629">
        <ele>65</ele>
        <time>2016-04-18T19:02:25Z</time>
      </trkpt>
      <trkpt lat="48.88702" lon="2.39625">
        <ele>64.800003051758</ele>
        <time>2016-04-18T19:02:30Z</time>
      </trkpt>
      <trkpt lat="48.88721" lon="2.39622">
        <ele>64.199996948242</ele>
        <time>2016-04-18T19:02:37Z</time>
      </trkpt>
      <trkpt lat="48.88741" lon="2.39619">
        <ele>63.599998474121</ele>
        <time>2016-04-18T19:02:44Z</time>
      </trkpt>
      <trkpt lat="48.88761" lon="2.39616">
        <ele>62.79999923706</ele>
        <time>2016-04-18T19:02:49Z</time>
      </trkpt>
      <trkpt lat="48.88779" lon="2.39607">
        <ele>62</ele>
        <time>2016-04-18T19:02:55Z</time>
      </trkpt>
      <trkpt lat="48.88797" lon="2.39594">
        <ele>61</ele>
        <time>2016-04-18T19:03:01Z</time>
      </trkpt>
      <trkpt lat="48.88817" lon="2.39587">
        <ele>60.400001525879</ele>
        <time>2016-04-18T19:03:09Z</time>
      </trkpt>
      <trkpt lat="48.88839" lon="2.39585">
        <ele>59.599998474121</ele>
        <time>2016-04-18T19:03:15Z</time>
      </trkpt>
      <trkpt lat="48.88858" lon="2.39577">
        <ele>59</ele>
        <time>2016-04-18T19:03:20Z</time>
      </trkpt>
      <trkpt lat="48.88877" lon="2.39559">
        <ele>58.79999923706</ele>
        <time>2016-04-18T19:03:24Z</time>
      </trkpt>
      <trkpt lat="48.88897" lon="2.39549">
        <ele>58.400001525879</ele>
        <time>2016-04-18T19:03:29Z</time>
      </trkpt>
      <trkpt lat="48.88917" lon="2.39543">
        <ele>57.400001525879</ele>
        <time>2016-04-18T19:03:34Z</time>
      </trkpt>
      <trkpt lat="48.88937" lon="2.39535">
        <ele>56.20000076294</ele>
        <time>2016-04-18T19:03:41Z</time>
      </trkpt>
      <trkpt lat="48.88957" lon="2.39529">
        <ele>56.599998474121</ele>
        <time>2016-04-18T19:03:49Z</time>
      </trkpt>
      <trkpt lat="48.88973" lon="2.39518">
        <ele>56.599998474121</ele>
        <time>2016-04-18T19:03:57Z</time>
      </trkpt>
      <trkpt lat="48.88975" lon="2.39518">
        <ele>56.599998474121</ele>
        <time>2016-04-18T19:03:58Z</time>
      </trkpt>
      <trkpt lat="48.88987" lon="2.39514">
        <ele>56.599998474121</ele>
        <time>2016-04-18T19:04:07Z</time>
      </trkpt>
      <trkpt lat="48.89005" lon="2.39498">
        <ele>56</ele>
        <time>2016-04-18T19:04:18Z</time>
      </trkpt>
      <trkpt lat="48.89026" lon="2.39488">
        <ele>55.79999923706</ele>
        <time>2016-04-18T19:04:23Z</time>
      </trkpt>
      <trkpt lat="48.89044" lon="2.39477">
        <ele>56</ele>
        <time>2016-04-18T19:04:27Z</time>
      </trkpt>
      <trkpt lat="48.89061" lon="2.39453">
        <ele>55.79999923706</ele>
        <time>2016-04-18T19:04:31Z</time>
      </trkpt>
      <trkpt lat="48.89078" lon="2.39431">
        <ele>55.20000076294</ele>
        <time>2016-04-18T19:04:35Z</time>
      </trkpt>
      <trkpt lat="48.89091" lon="2.39412">
        <ele>54.79999923706</ele>
        <time>2016-04-18T19:04:38Z</time>
      </trkpt>
      <trkpt lat="48.89107" lon="2.39393">
        <ele>55.20000076294</ele>
        <time>2016-04-18T19:04:42Z</time>
      </trkpt>
      <trkpt lat="48.89116" lon="2.39377">
        <ele>55.79999923706</ele>
        <time>2016-04-18T19:04:45Z</time>
      </trkpt>
      <trkpt lat="48.89122" lon="2.39358">
        <ele>56.20000076294</ele>
        <time>2016-04-18T19:04:49Z</time>
      </trkpt>
      <trkpt lat="48.8913" lon="2.39319">
        <ele>55.79999923706</ele>
        <time>2016-04-18T19:04:56Z</time>
      </trkpt>
      <trkpt lat="48.89136" lon="2.39311">
        <ele>55.599998474121</ele>
        <time>2016-04-18T19:04:58Z</time>
      </trkpt>
      <trkpt lat="48.89159" lon="2.39316">
        <ele>55.400001525879</ele>
        <time>2016-04-18T19:05:03Z</time>
      </trkpt>
      <trkpt lat="48.89179" lon="2.39315">
        <ele>55.20000076294</ele>
        <time>2016-04-18T19:05:09Z</time>
      </trkpt>
      <trkpt lat="48.89183" lon="2.39319">
        <ele>55.20000076294</ele>
        <time>2016-04-18T19:05:11Z</time>
      </trkpt>
      <trkpt lat="48.89188" lon="2.39317">
        <ele>55.400001525879</ele>
        <time>2016-04-18T19:05:16Z</time>
      </trkpt>
      <trkpt lat="48.89191" lon="2.39315">
        <ele>55.400001525879</ele>
        <time>2016-04-18T19:05:20Z</time>
      </trkpt>
      <trkpt lat="48.89208" lon="2.3931">
        <ele>55.599998474121</ele>
        <time>2016-04-18T19:05:35Z</time>
      </trkpt>
      <trkpt lat="48.89218" lon="2.39309">
        <ele>55.599998474121</ele>
        <time>2016-04-18T19:05:52Z</time>
      </trkpt>
      <trkpt lat="48.89234" lon="2.39296">
        <ele>55.79999923706</ele>
        <time>2016-04-18T19:06:07Z</time>
      </trkpt>
      <trkpt lat="48.89251" lon="2.39281">
        <ele>54.79999923706</ele>
        <time>2016-04-18T19:06:18Z</time>
      </trkpt>
      <trkpt lat="48.89253" lon="2.39278">
        <ele>54.599998474121</ele>
        <time>2016-04-18T19:06:20Z</time>
      </trkpt>
      <trkpt lat="48.89259" lon="2.39255">
        <ele>53.79999923706</ele>
        <time>2016-04-18T19:06:32Z</time>
      </trkpt>
      <trkpt lat="48.8927" lon="2.3924">
        <ele>53</ele>
        <time>2016-04-18T19:06:42Z</time>
      </trkpt>
      <trkpt lat="48.89271" lon="2.39234">
        <ele>52.79999923706</ele>
        <time>2016-04-18T19:06:46Z</time>
      </trkpt>
      <trkpt lat="48.89283" lon="2.39211">
        <ele>52.599998474121</ele>
        <time>2016-04-18T19:07:04Z</time>
      </trkpt>
      <trkpt lat="48.89298" lon="2.39195">
        <ele>52.599998474121</ele>
        <time>2016-04-18T19:07:12Z</time>
      </trkpt>
      <trkpt lat="48.89308" lon="2.39172">
        <ele>52.20000076294</ele>
        <time>2016-04-18T19:07:20Z</time>
      </trkpt>
      <trkpt lat="48.8931" lon="2.39157">
        <ele>52</ele>
        <time>2016-04-18T19:07:26Z</time>
      </trkpt>
      <trkpt lat="48.89318" lon="2.39161">
        <ele>52</ele>
        <time>2016-04-18T19:07:30Z</time>
      </trkpt>
      <trkpt lat="48.89337" lon="2.39173">
        <ele>52.20000076294</ele>
        <time>2016-04-18T19:07:37Z</time>
      </trkpt>
      <trkpt lat="48.89357" lon="2.3918">
        <ele>52.400001525879</ele>
        <time>2016-04-18T19:07:43Z</time>
      </trkpt>
      <trkpt lat="48.89375" lon="2.3918">
        <ele>52.20000076294</ele>
        <time>2016-04-18T19:07:50Z</time>
      </trkpt>
      <trkpt lat="48.89395" lon="2.39176">
        <ele>53</ele>
        <time>2016-04-18T19:07:56Z</time>
      </trkpt>
      <trkpt lat="48.89415" lon="2.39169">
        <ele>54</ele>
        <time>2016-04-18T19:08:01Z</time>
      </trkpt>
      <trkpt lat="48.89424" lon="2.3917">
        <ele>54.20000076294</ele>
        <time>2016-04-18T19:08:05Z</time>
      </trkpt>
      <trkpt lat="48.89432" lon="2.3919">
        <ele>53.79999923706</ele>
        <time>2016-04-18T19:08:41Z</time>
      </trkpt>
      <trkpt lat="48.89437" lon="2.39189">
        <ele>54</ele>
        <time>2016-04-18T19:08:46Z</time>
      </trkpt>
      <trkpt lat="48.89452" lon="2.39171">
        <ele>54.599998474121</ele>
        <time>2016-04-18T19:08:55Z</time>
      </trkpt>
      <trkpt lat="48.89467" lon="2.39155">
        <ele>54.20000076294</ele>
        <time>2016-04-18T19:09:06Z</time>
      </trkpt>
      <trkpt lat="48.89476" lon="2.39146">
        <ele>54</ele>
        <time>2016-04-18T19:09:15Z</time>
      </trkpt>
      <trkpt lat="48.89475" lon="2.39165">
        <ele>54.20000076294</ele>
        <time>2016-04-18T19:10:03Z</time>
      </trkpt>
      <trkpt lat="48.89476" lon="2.39165">
        <ele>54.20000076294</ele>
        <time>2016-04-18T19:10:58Z</time>
      </trkpt>
      <trkpt lat="48.89464" lon="2.39157">
        <ele>54.400001525879</ele>
        <time>2016-04-18T19:11:32Z</time>
      </trkpt>
      <trkpt lat="48.89452" lon="2.39136">
        <ele>54.400001525879</ele>
        <time>2016-04-18T19:11:39Z</time>
      </trkpt>
      <trkpt lat="48.89453" lon="2.39134">
        <ele>54.400001525879</ele>
        <time>2016-04-18T19:11:40Z</time>
      </trkpt>
      <trkpt lat="48.89466" lon="2.3911">
        <ele>53.79999923706</ele>
        <time>2016-04-18T19:11:54Z</time>
      </trkpt>
      <trkpt lat="48.89476" lon="2.39087">
        <ele>52.79999923706</ele>
        <time>2016-04-18T19:12:01Z</time>
      </trkpt>
      <trkpt lat="48.89485" lon="2.39062">
        <ele>52.400001525879</ele>
        <time>2016-04-18T19:12:10Z</time>
      </trkpt>
      <trkpt lat="48.89485" lon="2.39041">
        <ele>52.400001525879</ele>
        <time>2016-04-18T19:12:18Z</time>
      </trkpt>
      <trkpt lat="48.8948" lon="2.39022">
        <ele>52.400001525879</ele>
        <time>2016-04-18T19:12:29Z</time>
      </trkpt>
      <trkpt lat="48.89465" lon="2.39003">
        <ele>52.79999923706</ele>
        <time>2016-04-18T19:12:38Z</time>
      </trkpt>
      <trkpt lat="48.89463" lon="2.39003">
        <ele>53</ele>
        <time>2016-04-18T19:12:39Z</time>
      </trkpt>
      <trkpt lat="48.89452" lon="2.39002">
        <ele>53.400001525879</ele>
        <time>2016-04-18T19:12:45Z</time>
      </trkpt>
      <trkpt lat="48.8944" lon="2.38997">
        <ele>54</ele>
        <time>2016-04-18T19:12:52Z</time>
      </trkpt>
      <trkpt lat="48.89436" lon="2.38986">
        <ele>53.79999923706</ele>
        <time>2016-04-18T19:12:57Z</time>
      </trkpt>
      <trkpt lat="48.8944" lon="2.38962">
        <ele>53.20000076294</ele>
        <time>2016-04-18T19:13:06Z</time>
      </trkpt>
      <trkpt lat="48.89453" lon="2.38944">
        <ele>52</ele>
        <time>2016-04-18T19:13:14Z</time>
      </trkpt>
      <trkpt lat="48.89458" lon="2.38935">
        <ele>51.599998474121</ele>
        <time>2016-04-18T19:13:18Z</time>
      </trkpt>
      <trkpt lat="48.89472" lon="2.38913">
        <ele>52</ele>
        <time>2016-04-18T19:13:27Z</time>
      </trkpt>
      <trkpt lat="48.89487" lon="2.38892">
        <ele>51.20000076294</ele>
        <time>2016-04-18T19:13:34Z</time>
      </trkpt>
      <trkpt lat="48.89501" lon="2.38873">
        <ele>50.20000076294</ele>
        <time>2016-04-18T19:13:40Z</time>
      </trkpt>
      <trkpt lat="48.89518" lon="2.38856">
        <ele>49.20000076294</ele>
        <time>2016-04-18T19:13:46Z</time>
      </trkpt>
      <trkpt lat="48.89523" lon="2.38847">
        <ele>48.79999923706</ele>
        <time>2016-04-18T19:13:52Z</time>
      </trkpt>
      <trkpt lat="48.89507" lon="2.38861">
        <ele>49.599998474121</ele>
        <time>2016-04-18T19:13:56Z</time>
      </trkpt>
      <trkpt lat="48.89499" lon="2.38866">
        <ele>50</ele>
        <time>2016-04-18T19:13:58Z</time>
      </trkpt>
      <trkpt lat="48.89473" lon="2.38869">
        <ele>50.400001525879</ele>
        <time>2016-04-18T19:14:06Z</time>
      </trkpt>
      <trkpt lat="48.89473" lon="2.38866">
        <ele>50.20000076294</ele>
        <time>2016-04-18T19:14:07Z</time>
      </trkpt>
      <trkpt lat="48.89483" lon="2.38866">
        <ele>50.20000076294</ele>
        <time>2016-04-18T19:14:14Z</time>
      </trkpt>
      <trkpt lat="48.89484" lon="2.38865">
        <ele>50</ele>
        <time>2016-04-18T19:14:15Z</time>
      </trkpt>
      <trkpt lat="48.8948" lon="2.38863">
        <ele>50</ele>
        <time>2016-04-18T19:14:47Z</time>
      </trkpt>
      <trkpt lat="48.89471" lon="2.38867">
        <ele>50.20000076294</ele>
        <time>2016-04-18T19:14:52Z</time>
      </trkpt>
      <trkpt lat="48.89467" lon="2.38869">
        <ele>50.400001525879</ele>
        <time>2016-04-18T19:14:55Z</time>
      </trkpt>
      <trkpt lat="48.8947" lon="2.38861">
        <ele>50</ele>
        <time>2016-04-18T19:15:00Z</time>
      </trkpt>
      <trkpt lat="48.89454" lon="2.38842">
        <ele>49.400001525879</ele>
        <time>2016-04-18T19:15:09Z</time>
      </trkpt>
      <trkpt lat="48.89442" lon="2.38818">
        <ele>49.20000076294</ele>
        <time>2016-04-18T19:15:16Z</time>
      </trkpt>
      <trkpt lat="48.89431" lon="2.38789">
        <ele>50</ele>
        <time>2016-04-18T19:15:22Z</time>
      </trkpt>
      <trkpt lat="48.89419" lon="2.38767">
        <ele>50.79999923706</ele>
        <time>2016-04-18T19:15:28Z</time>
      </trkpt>
      <trkpt lat="48.89404" lon="2.3875">
        <ele>51.599998474121</ele>
        <time>2016-04-18T19:15:36Z</time>
      </trkpt>
      <trkpt lat="48.89393" lon="2.38728">
        <ele>52</ele>
        <time>2016-04-18T19:15:42Z</time>
      </trkpt>
      <trkpt lat="48.89395" lon="2.38696">
        <ele>51.599998474121</ele>
        <time>2016-04-18T19:15:48Z</time>
      </trkpt>
      <trkpt lat="48.89409" lon="2.38675">
        <ele>50.599998474121</ele>
        <time>2016-04-18T19:15:53Z</time>
      </trkpt>
      <trkpt lat="48.89431" lon="2.38668">
        <ele>49.400001525879</ele>
        <time>2016-04-18T19:15:56Z</time>
      </trkpt>
      <trkpt lat="48.89452" lon="2.3866">
        <ele>48.20000076294</ele>
        <time>2016-04-18T19:16:01Z</time>
      </trkpt>
      <trkpt lat="48.89474" lon="2.38652">
        <ele>47</ele>
        <time>2016-04-18T19:16:05Z</time>
      </trkpt>
      <trkpt lat="48.89488" lon="2.38647">
        <ele>46.20000076294</ele>
        <time>2016-04-18T19:16:09Z</time>
      </trkpt>
      <trkpt lat="48.89494" lon="2.38645">
        <ele>45.79999923706</ele>
        <time>2016-04-18T19:16:11Z</time>
      </trkpt>
      <trkpt lat="48.895" lon="2.3864">
        <ele>45.400001525879</ele>
        <time>2016-04-18T19:16:14Z</time>
      </trkpt>
      <trkpt lat="48.89504" lon="2.38629">
        <ele>46.400001525879</ele>
        <time>2016-04-18T19:16:20Z</time>
      </trkpt>
      <trkpt lat="48.89501" lon="2.38621">
        <ele>46.79999923706</ele>
        <time>2016-04-18T19:16:24Z</time>
      </trkpt>
      <trkpt lat="48.89483" lon="2.38612">
        <ele>47.400001525879</ele>
        <time>2016-04-18T19:16:33Z</time>
      </trkpt>
      <trkpt lat="48.89476" lon="2.38592">
        <ele>48.599998474121</ele>
        <time>2016-04-18T19:16:37Z</time>
      </trkpt>
      <trkpt lat="48.8947" lon="2.38579">
        <ele>49.20000076294</ele>
        <time>2016-04-18T19:16:42Z</time>
      </trkpt>
      <trkpt lat="48.89465" lon="2.38578">
        <ele>49.20000076294</ele>
        <time>2016-04-18T19:16:47Z</time>
      </trkpt>
      <trkpt lat="48.89465" lon="2.38593">
        <ele>48.400001525879</ele>
        <time>2016-04-18T19:17:52Z</time>
      </trkpt>
      <trkpt lat="48.89464" lon="2.38591">
        <ele>48.599998474121</ele>
        <time>2016-04-18T19:17:59Z</time>
      </trkpt>
      <trkpt lat="48.89478" lon="2.3857">
        <ele>49</ele>
        <time>2016-04-18T19:18:09Z</time>
      </trkpt>
      <trkpt lat="48.89491" lon="2.38547">
        <ele>48.400001525879</ele>
        <time>2016-04-18T19:18:17Z</time>
      </trkpt>
      <trkpt lat="48.89504" lon="2.38523">
        <ele>47.599998474121</ele>
        <time>2016-04-18T19:18:23Z</time>
      </trkpt>
      <trkpt lat="48.89522" lon="2.38506">
        <ele>47.20000076294</ele>
        <time>2016-04-18T19:18:28Z</time>
      </trkpt>
      <trkpt lat="48.89541" lon="2.38489">
        <ele>46.599998474121</ele>
        <time>2016-04-18T19:18:33Z</time>
      </trkpt>
      <trkpt lat="48.89558" lon="2.38473">
        <ele>46.20000076294</ele>
        <time>2016-04-18T19:18:38Z</time>
      </trkpt>
      <trkpt lat="48.89573" lon="2.38456">
        <ele>46</ele>
        <time>2016-04-18T19:18:44Z</time>
      </trkpt>
      <trkpt lat="48.8959" lon="2.38445">
        <ele>46.79999923706</ele>
        <time>2016-04-18T19:18:49Z</time>
      </trkpt>
      <trkpt lat="48.89606" lon="2.38429">
        <ele>47.400001525879</ele>
        <time>2016-04-18T19:18:57Z</time>
      </trkpt>
      <trkpt lat="48.89608" lon="2.38428">
        <ele>47.599998474121</ele>
        <time>2016-04-18T19:19:00Z</time>
      </trkpt>
      <trkpt lat="48.89605" lon="2.38399">
        <ele>48.400001525879</ele>
        <time>2016-04-18T19:19:38Z</time>
      </trkpt>
      <trkpt lat="48.89596" lon="2.38371">
        <ele>49</ele>
        <time>2016-04-18T19:19:45Z</time>
      </trkpt>
      <trkpt lat="48.89579" lon="2.38354">
        <ele>49.400001525879</ele>
        <time>2016-04-18T19:19:50Z</time>
      </trkpt>
      <trkpt lat="48.89575" lon="2.3835">
        <ele>49.599998474121</ele>
        <time>2016-04-18T19:19:51Z</time>
      </trkpt>
      <trkpt lat="48.89563" lon="2.38329">
        <ele>50</ele>
        <time>2016-04-18T19:19:55Z</time>
      </trkpt>
      <trkpt lat="48.89547" lon="2.38306">
        <ele>51</ele>
        <time>2016-04-18T19:19:59Z</time>
      </trkpt>
      <trkpt lat="48.89532" lon="2.38286">
        <ele>51.599998474121</ele>
        <time>2016-04-18T19:20:03Z</time>
      </trkpt>
      <trkpt lat="48.89513" lon="2.3827">
        <ele>52.400001525879</ele>
        <time>2016-04-18T19:20:08Z</time>
      </trkpt>
      <trkpt lat="48.89496" lon="2.38254">
        <ele>53.400001525879</ele>
        <time>2016-04-18T19:20:12Z</time>
      </trkpt>
      <trkpt lat="48.89483" lon="2.3823">
        <ele>53.400001525879</ele>
        <time>2016-04-18T19:20:16Z</time>
      </trkpt>
      <trkpt lat="48.89469" lon="2.38212">
        <ele>53</ele>
        <time>2016-04-18T19:20:19Z</time>
      </trkpt>
      <trkpt lat="48.89454" lon="2.38186">
        <ele>52.400001525879</ele>
        <time>2016-04-18T19:20:23Z</time>
      </trkpt>
      <trkpt lat="48.89446" lon="2.38175">
        <ele>52.20000076294</ele>
        <time>2016-04-18T19:20:25Z</time>
      </trkpt>
      <trkpt lat="48.8943" lon="2.38153">
        <ele>51.79999923706</ele>
        <time>2016-04-18T19:20:29Z</time>
      </trkpt>
      <trkpt lat="48.89414" lon="2.38138">
        <ele>51.599998474121</ele>
        <time>2016-04-18T19:20:33Z</time>
      </trkpt>
      <trkpt lat="48.89395" lon="2.38119">
        <ele>51.400001525879</ele>
        <time>2016-04-18T19:20:38Z</time>
      </trkpt>
      <trkpt lat="48.89388" lon="2.38111">
        <ele>51.400001525879</ele>
        <time>2016-04-18T19:20:40Z</time>
      </trkpt>
      <trkpt lat="48.89373" lon="2.38093">
        <ele>51.20000076294</ele>
        <time>2016-04-18T19:20:43Z</time>
      </trkpt>
      <trkpt lat="48.89359" lon="2.38071">
        <ele>51.20000076294</ele>
        <time>2016-04-18T19:20:45Z</time>
      </trkpt>
      <trkpt lat="48.8934" lon="2.38052">
        <ele>52.400001525879</ele>
        <time>2016-04-18T19:20:48Z</time>
      </trkpt>
      <trkpt lat="48.89325" lon="2.38033">
        <ele>53.20000076294</ele>
        <time>2016-04-18T19:20:50Z</time>
      </trkpt>
      <trkpt lat="48.89306" lon="2.38013">
        <ele>54.400001525879</ele>
        <time>2016-04-18T19:20:53Z</time>
      </trkpt>
      <trkpt lat="48.89291" lon="2.3799">
        <ele>55.20000076294</ele>
        <time>2016-04-18T19:20:56Z</time>
      </trkpt>
      <trkpt lat="48.89276" lon="2.37966">
        <ele>55.599998474121</ele>
        <time>2016-04-18T19:20:59Z</time>
      </trkpt>
      <trkpt lat="48.89263" lon="2.37948">
        <ele>55.20000076294</ele>
        <time>2016-04-18T19:21:02Z</time>
      </trkpt>
      <trkpt lat="48.89242" lon="2.37929">
        <ele>54.79999923706</ele>
        <time>2016-04-18T19:21:06Z</time>
      </trkpt>
      <trkpt lat="48.89232" lon="2.37906">
        <ele>54.599998474121</ele>
        <time>2016-04-18T19:21:10Z</time>
      </trkpt>
      <trkpt lat="48.89215" lon="2.37884">
        <ele>54.400001525879</ele>
        <time>2016-04-18T19:21:16Z</time>
      </trkpt>
      <trkpt lat="48.89201" lon="2.37867">
        <ele>54.20000076294</ele>
        <time>2016-04-18T19:21:20Z</time>
      </trkpt>
      <trkpt lat="48.89185" lon="2.37848">
        <ele>54.20000076294</ele>
        <time>2016-04-18T19:21:24Z</time>
      </trkpt>
      <trkpt lat="48.89171" lon="2.37828">
        <ele>54.400001525879</ele>
        <time>2016-04-18T19:21:28Z</time>
      </trkpt>
      <trkpt lat="48.89154" lon="2.37808">
        <ele>54.599998474121</ele>
        <time>2016-04-18T19:21:32Z</time>
      </trkpt>
      <trkpt lat="48.89138" lon="2.37791">
        <ele>54.79999923706</ele>
        <time>2016-04-18T19:21:36Z</time>
      </trkpt>
      <trkpt lat="48.89119" lon="2.37776">
        <ele>55</ele>
        <time>2016-04-18T19:21:41Z</time>
      </trkpt>
      <trkpt lat="48.89103" lon="2.37757">
        <ele>55.20000076294</ele>
        <time>2016-04-18T19:21:45Z</time>
      </trkpt>
      <trkpt lat="48.89085" lon="2.37742">
        <ele>55.400001525879</ele>
        <time>2016-04-18T19:21:49Z</time>
      </trkpt>
      <trkpt lat="48.89069" lon="2.37724">
        <ele>55.599998474121</ele>
        <time>2016-04-18T19:21:53Z</time>
      </trkpt>
      <trkpt lat="48.89054" lon="2.37708">
        <ele>55.79999923706</ele>
        <time>2016-04-18T19:21:58Z</time>
      </trkpt>
      <trkpt lat="48.89052" lon="2.37691">
        <ele>55.79999923706</ele>
        <time>2016-04-18T19:22:03Z</time>
      </trkpt>
      <trkpt lat="48.89044" lon="2.37667">
        <ele>56.20000076294</ele>
        <time>2016-04-18T19:22:22Z</time>
      </trkpt>
      <trkpt lat="48.8903" lon="2.37649">
        <ele>56</ele>
        <time>2016-04-18T19:22:26Z</time>
      </trkpt>
      <trkpt lat="48.89014" lon="2.37628">
        <ele>56.20000076294</ele>
        <time>2016-04-18T19:22:31Z</time>
      </trkpt>
      <trkpt lat="48.88999" lon="2.3761">
        <ele>56.599998474121</ele>
        <time>2016-04-18T19:22:35Z</time>
      </trkpt>
      <trkpt lat="48.88983" lon="2.37593">
        <ele>57</ele>
        <time>2016-04-18T19:22:39Z</time>
      </trkpt>
      <trkpt lat="48.88968" lon="2.37576">
        <ele>57.400001525879</ele>
        <time>2016-04-18T19:22:43Z</time>
      </trkpt>
      <trkpt lat="48.88953" lon="2.37549">
        <ele>58.400001525879</ele>
        <time>2016-04-18T19:22:47Z</time>
      </trkpt>
      <trkpt lat="48.88938" lon="2.37525">
        <ele>59.400001525879</ele>
        <time>2016-04-18T19:22:50Z</time>
      </trkpt>
      <trkpt lat="48.88923" lon="2.37502">
        <ele>59.79999923706</ele>
        <time>2016-04-18T19:22:53Z</time>
      </trkpt>
      <trkpt lat="48.88906" lon="2.37485">
        <ele>59.400001525879</ele>
        <time>2016-04-18T19:22:56Z</time>
      </trkpt>
      <trkpt lat="48.88885" lon="2.37471">
        <ele>59</ele>
        <time>2016-04-18T19:22:59Z</time>
      </trkpt>
      <trkpt lat="48.88868" lon="2.37445">
        <ele>58.400001525879</ele>
        <time>2016-04-18T19:23:02Z</time>
      </trkpt>
      <trkpt lat="48.88854" lon="2.37423">
        <ele>58</ele>
        <time>2016-04-18T19:23:05Z</time>
      </trkpt>
      <trkpt lat="48.88844" lon="2.37409">
        <ele>57.599998474121</ele>
        <time>2016-04-18T19:23:08Z</time>
      </trkpt>
      <trkpt lat="48.88844" lon="2.37383">
        <ele>57</ele>
        <time>2016-04-18T19:23:13Z</time>
      </trkpt>
      <trkpt lat="48.88852" lon="2.37366">
        <ele>56.79999923706</ele>
        <time>2016-04-18T19:23:16Z</time>
      </trkpt>
      <trkpt lat="48.88856" lon="2.3736">
        <ele>56.599998474121</ele>
        <time>2016-04-18T19:23:17Z</time>
      </trkpt>
      <trkpt lat="48.88865" lon="2.37344">
        <ele>56.599998474121</ele>
        <time>2016-04-18T19:23:20Z</time>
      </trkpt>
      <trkpt lat="48.88878" lon="2.37321">
        <ele>56</ele>
        <time>2016-04-18T19:23:24Z</time>
      </trkpt>
      <trkpt lat="48.88888" lon="2.37296">
        <ele>56</ele>
        <time>2016-04-18T19:23:28Z</time>
      </trkpt>
      <trkpt lat="48.88895" lon="2.37268">
        <ele>56.20000076294</ele>
        <time>2016-04-18T19:23:33Z</time>
      </trkpt>
      <trkpt lat="48.88898" lon="2.37254">
        <ele>56.400001525879</ele>
        <time>2016-04-18T19:23:35Z</time>
      </trkpt>
      <trkpt lat="48.88905" lon="2.3723">
        <ele>57</ele>
        <time>2016-04-18T19:23:39Z</time>
      </trkpt>
      <trkpt lat="48.88911" lon="2.37213">
        <ele>57.400001525879</ele>
        <time>2016-04-18T19:23:42Z</time>
      </trkpt>
      <trkpt lat="48.88912" lon="2.37196">
        <ele>57.400001525879</ele>
        <time>2016-04-18T19:23:45Z</time>
      </trkpt>
      <trkpt lat="48.88919" lon="2.37171">
        <ele>57.20000076294</ele>
        <time>2016-04-18T19:23:50Z</time>
      </trkpt>
      <trkpt lat="48.88925" lon="2.37158">
        <ele>57.20000076294</ele>
        <time>2016-04-18T19:23:54Z</time>
      </trkpt>
      <trkpt lat="48.88925" lon="2.37153">
        <ele>57</ele>
        <time>2016-04-18T19:23:56Z</time>
      </trkpt>
      <trkpt lat="48.88921" lon="2.37154">
        <ele>57.20000076294</ele>
        <time>2016-04-18T19:24:54Z</time>
      </trkpt>
      <trkpt lat="48.88913" lon="2.37138">
        <ele>57</ele>
        <time>2016-04-18T19:25:03Z</time>
      </trkpt>
      <trkpt lat="48.88918" lon="2.37126">
        <ele>56.599998474121</ele>
        <time>2016-04-18T19:25:56Z</time>
      </trkpt>
      <trkpt lat="48.88916" lon="2.37126">
        <ele>56.599998474121</ele>
        <time>2016-04-18T19:26:11Z</time>
      </trkpt>
      <trkpt lat="48.8892" lon="2.37097">
        <ele>55.79999923706</ele>
        <time>2016-04-18T19:26:20Z</time>
      </trkpt>
      <trkpt lat="48.88931" lon="2.37072">
        <ele>54.79999923706</ele>
        <time>2016-04-18T19:26:27Z</time>
      </trkpt>
      <trkpt lat="48.88935" lon="2.37043">
        <ele>55.400001525879</ele>
        <time>2016-04-18T19:26:32Z</time>
      </trkpt>
      <trkpt lat="48.88941" lon="2.37019">
        <ele>55.79999923706</ele>
        <time>2016-04-18T19:26:38Z</time>
      </trkpt>
      <trkpt lat="48.88954" lon="2.36992">
        <ele>55.400001525879</ele>
        <time>2016-04-18T19:26:44Z</time>
      </trkpt>
      <trkpt lat="48.88966" lon="2.3697">
        <ele>54.400001525879</ele>
        <time>2016-04-18T19:26:49Z</time>
      </trkpt>
      <trkpt lat="48.88968" lon="2.36938">
        <ele>53.400001525879</ele>
        <time>2016-04-18T19:26:54Z</time>
      </trkpt>
      <trkpt lat="48.88973" lon="2.36907">
        <ele>53.79999923706</ele>
        <time>2016-04-18T19:26:59Z</time>
      </trkpt>
      <trkpt lat="48.88979" lon="2.36875">
        <ele>54.400001525879</ele>
        <time>2016-04-18T19:27:05Z</time>
      </trkpt>
      <trkpt lat="48.88981" lon="2.36842">
        <ele>53</ele>
        <time>2016-04-18T19:27:11Z</time>
      </trkpt>
      <trkpt lat="48.88977" lon="2.36821">
        <ele>52.400001525879</ele>
        <time>2016-04-18T19:27:18Z</time>
      </trkpt>
      <trkpt lat="48.88975" lon="2.36812">
        <ele>52</ele>
        <time>2016-04-18T19:27:26Z</time>
      </trkpt>
      <trkpt lat="48.88977" lon="2.36782">
        <ele>51</ele>
        <time>2016-04-18T19:27:33Z</time>
      </trkpt>
      <trkpt lat="48.88976" lon="2.36753">
        <ele>50.20000076294</ele>
        <time>2016-04-18T19:27:39Z</time>
      </trkpt>
      <trkpt lat="48.88978" lon="2.36723">
        <ele>48.79999923706</ele>
        <time>2016-04-18T19:27:46Z</time>
      </trkpt>
      <trkpt lat="48.88979" lon="2.36693">
        <ele>47.599998474121</ele>
        <time>2016-04-18T19:27:53Z</time>
      </trkpt>
      <trkpt lat="48.88981" lon="2.36665">
        <ele>47</ele>
        <time>2016-04-18T19:27:59Z</time>
      </trkpt>
      <trkpt lat="48.88981" lon="2.36635">
        <ele>47.400001525879</ele>
        <time>2016-04-18T19:28:06Z</time>
      </trkpt>
      <trkpt lat="48.88982" lon="2.36605">
        <ele>48</ele>
        <time>2016-04-18T19:28:12Z</time>
      </trkpt>
      <trkpt lat="48.88983" lon="2.36575">
        <ele>48.599998474121</ele>
        <time>2016-04-18T19:28:18Z</time>
      </trkpt>
      <trkpt lat="48.88984" lon="2.36544">
        <ele>49.400001525879</ele>
        <time>2016-04-18T19:28:24Z</time>
      </trkpt>
      <trkpt lat="48.88986" lon="2.36516">
        <ele>50.400001525879</ele>
        <time>2016-04-18T19:28:29Z</time>
      </trkpt>
      <trkpt lat="48.88989" lon="2.36488">
        <ele>51</ele>
        <time>2016-04-18T19:28:34Z</time>
      </trkpt>
      <trkpt lat="48.88992" lon="2.36457">
        <ele>50.79999923706</ele>
        <time>2016-04-18T19:28:39Z</time>
      </trkpt>
      <trkpt lat="48.88994" lon="2.36428">
        <ele>51.599998474121</ele>
        <time>2016-04-18T19:28:45Z</time>
      </trkpt>
      <trkpt lat="48.88995" lon="2.36397">
        <ele>52.599998474121</ele>
        <time>2016-04-18T19:28:51Z</time>
      </trkpt>
      <trkpt lat="48.88994" lon="2.36369">
        <ele>53.400001525879</ele>
        <time>2016-04-18T19:28:57Z</time>
      </trkpt>
      <trkpt lat="48.88997" lon="2.36341">
        <ele>54.20000076294</ele>
        <time>2016-04-18T19:29:04Z</time>
      </trkpt>
      <trkpt lat="48.89003" lon="2.36321">
        <ele>55.79999923706</ele>
        <time>2016-04-18T19:29:13Z</time>
      </trkpt>
      <trkpt lat="48.89019" lon="2.36309">
        <ele>56.599998474121</ele>
        <time>2016-04-18T19:29:33Z</time>
      </trkpt>
      <trkpt lat="48.89038" lon="2.36307">
        <ele>56.79999923706</ele>
        <time>2016-04-18T19:29:39Z</time>
      </trkpt>
      <trkpt lat="48.89057" lon="2.36313">
        <ele>56.79999923706</ele>
        <time>2016-04-18T19:29:46Z</time>
      </trkpt>
      <trkpt lat="48.89075" lon="2.36317">
        <ele>57</ele>
        <time>2016-04-18T19:29:51Z</time>
      </trkpt>
      <trkpt lat="48.89094" lon="2.36321">
        <ele>57</ele>
        <time>2016-04-18T19:29:57Z</time>
      </trkpt>
      <trkpt lat="48.89114" lon="2.36323">
        <ele>57</ele>
        <time>2016-04-18T19:30:03Z</time>
      </trkpt>
      <trkpt lat="48.89136" lon="2.36327">
        <ele>57.400001525879</ele>
        <time>2016-04-18T19:30:07Z</time>
      </trkpt>
      <trkpt lat="48.89157" lon="2.36328">
        <ele>57.599998474121</ele>
        <time>2016-04-18T19:30:10Z</time>
      </trkpt>
      <trkpt lat="48.89177" lon="2.36326">
        <ele>57.79999923706</ele>
        <time>2016-04-18T19:30:14Z</time>
      </trkpt>
      <trkpt lat="48.89184" lon="2.36324">
        <ele>57.79999923706</ele>
        <time>2016-04-18T19:30:16Z</time>
      </trkpt>
      <trkpt lat="48.89194" lon="2.36323">
        <ele>58.20000076294</ele>
        <time>2016-04-18T19:30:19Z</time>
      </trkpt>
      <trkpt lat="48.89212" lon="2.36328">
        <ele>58.20000076294</ele>
        <time>2016-04-18T19:30:23Z</time>
      </trkpt>
      <trkpt lat="48.8923" lon="2.36333">
        <ele>58.400001525879</ele>
        <time>2016-04-18T19:30:26Z</time>
      </trkpt>
      <trkpt lat="48.89254" lon="2.36341">
        <ele>58.599998474121</ele>
        <time>2016-04-18T19:30:29Z</time>
      </trkpt>
      <trkpt lat="48.89276" lon="2.36347">
        <ele>58.400001525879</ele>
        <time>2016-04-18T19:30:32Z</time>
      </trkpt>
      <trkpt lat="48.89298" lon="2.36358">
        <ele>56.599998474121</ele>
        <time>2016-04-18T19:30:36Z</time>
      </trkpt>
      <trkpt lat="48.89311" lon="2.36364">
        <ele>55.599998474121</ele>
        <time>2016-04-18T19:30:39Z</time>
      </trkpt>
      <trkpt lat="48.89328" lon="2.36358">
        <ele>55</ele>
        <time>2016-04-18T19:30:43Z</time>
      </trkpt>
      <trkpt lat="48.89326" lon="2.3634">
        <ele>56</ele>
        <time>2016-04-18T19:30:51Z</time>
      </trkpt>
      <trkpt lat="48.8932" lon="2.36338">
        <ele>56.400001525879</ele>
        <time>2016-04-18T19:30:55Z</time>
      </trkpt>
      <trkpt lat="48.89321" lon="2.36334">
        <ele>56.599998474121</ele>
        <time>2016-04-18T19:31:13Z</time>
      </trkpt>
      <trkpt lat="48.89319" lon="2.36326">
        <ele>56.599998474121</ele>
        <time>2016-04-18T19:31:17Z</time>
      </trkpt>
      <trkpt lat="48.89324" lon="2.36294">
        <ele>56</ele>
        <time>2016-04-18T19:31:26Z</time>
      </trkpt>
      <trkpt lat="48.89327" lon="2.36263">
        <ele>57</ele>
        <time>2016-04-18T19:31:31Z</time>
      </trkpt>
      <trkpt lat="48.89329" lon="2.36236">
        <ele>57.599998474121</ele>
        <time>2016-04-18T19:31:36Z</time>
      </trkpt>
      <trkpt lat="48.89331" lon="2.36205">
        <ele>57.400001525879</ele>
        <time>2016-04-18T19:31:42Z</time>
      </trkpt>
      <trkpt lat="48.89327" lon="2.36172">
        <ele>57.20000076294</ele>
        <time>2016-04-18T19:31:48Z</time>
      </trkpt>
      <trkpt lat="48.89331" lon="2.36145">
        <ele>57.20000076294</ele>
        <time>2016-04-18T19:31:53Z</time>
      </trkpt>
      <trkpt lat="48.89337" lon="2.36116">
        <ele>56.599998474121</ele>
        <time>2016-04-18T19:31:58Z</time>
      </trkpt>
      <trkpt lat="48.89337" lon="2.36084">
        <ele>55.79999923706</ele>
        <time>2016-04-18T19:32:02Z</time>
      </trkpt>
      <trkpt lat="48.89336" lon="2.36055">
        <ele>56.400001525879</ele>
        <time>2016-04-18T19:32:06Z</time>
      </trkpt>
      <trkpt lat="48.89339" lon="2.36024">
        <ele>56</ele>
        <time>2016-04-18T19:32:12Z</time>
      </trkpt>
      <trkpt lat="48.89347" lon="2.35999">
        <ele>55.400001525879</ele>
        <time>2016-04-18T19:32:17Z</time>
      </trkpt>
      <trkpt lat="48.89337" lon="2.3598">
        <ele>55.79999923706</ele>
        <time>2016-04-18T19:32:24Z</time>
      </trkpt>
      <trkpt lat="48.89319" lon="2.35978">
        <ele>56.400001525879</ele>
        <time>2016-04-18T19:32:29Z</time>
      </trkpt>
      <trkpt lat="48.89298" lon="2.35973">
        <ele>57</ele>
        <time>2016-04-18T19:32:34Z</time>
      </trkpt>
      <trkpt lat="48.89279" lon="2.35977">
        <ele>57.79999923706</ele>
        <time>2016-04-18T19:32:40Z</time>
      </trkpt>
      <trkpt lat="48.89258" lon="2.35978">
        <ele>58.400001525879</ele>
        <time>2016-04-18T19:32:46Z</time>
      </trkpt>
      <trkpt lat="48.89234" lon="2.35976">
        <ele>59</ele>
        <time>2016-04-18T19:32:51Z</time>
      </trkpt>
      <trkpt lat="48.89216" lon="2.35979">
        <ele>59.400001525879</ele>
        <time>2016-04-18T19:32:55Z</time>
      </trkpt>
      <trkpt lat="48.89194" lon="2.35983">
        <ele>60</ele>
        <time>2016-04-18T19:33:00Z</time>
      </trkpt>
      <trkpt lat="48.89175" lon="2.35985">
        <ele>60.20000076294</ele>
        <time>2016-04-18T19:33:04Z</time>
      </trkpt>
      <trkpt lat="48.89156" lon="2.35991">
        <ele>60.20000076294</ele>
        <time>2016-04-18T19:33:09Z</time>
      </trkpt>
      <trkpt lat="48.89143" lon="2.35995">
        <ele>60</ele>
        <time>2016-04-18T19:33:13Z</time>
      </trkpt>
      <trkpt lat="48.89127" lon="2.35995">
        <ele>60</ele>
        <time>2016-04-18T19:33:17Z</time>
      </trkpt>
      <trkpt lat="48.89106" lon="2.35999">
        <ele>60</ele>
        <time>2016-04-18T19:33:21Z</time>
      </trkpt>
      <trkpt lat="48.89086" lon="2.36007">
        <ele>59.400001525879</ele>
        <time>2016-04-18T19:33:25Z</time>
      </trkpt>
      <trkpt lat="48.89069" lon="2.36014">
        <ele>58.79999923706</ele>
        <time>2016-04-18T19:33:29Z</time>
      </trkpt>
      <trkpt lat="48.8905" lon="2.36005">
        <ele>58.599998474121</ele>
        <time>2016-04-18T19:33:34Z</time>
      </trkpt>
      <trkpt lat="48.89048" lon="2.35971">
        <ele>59.20000076294</ele>
        <time>2016-04-18T19:33:38Z</time>
      </trkpt>
      <trkpt lat="48.89047" lon="2.35964">
        <ele>59.400001525879</ele>
        <time>2016-04-18T19:33:39Z</time>
      </trkpt>
      <trkpt lat="48.89044" lon="2.35935">
        <ele>60</ele>
        <time>2016-04-18T19:33:43Z</time>
      </trkpt>
      <trkpt lat="48.89045" lon="2.35928">
        <ele>60.20000076294</ele>
        <time>2016-04-18T19:33:44Z</time>
      </trkpt>
      <trkpt lat="48.89044" lon="2.35893">
        <ele>60</ele>
        <time>2016-04-18T19:33:48Z</time>
      </trkpt>
      <trkpt lat="48.89046" lon="2.35865">
        <ele>59.400001525879</ele>
        <time>2016-04-18T19:33:52Z</time>
      </trkpt>
      <trkpt lat="48.89048" lon="2.35835">
        <ele>58.599998474121</ele>
        <time>2016-04-18T19:33:56Z</time>
      </trkpt>
      <trkpt lat="48.8904" lon="2.35806">
        <ele>56.599998474121</ele>
        <time>2016-04-18T19:34:00Z</time>
      </trkpt>
      <trkpt lat="48.89036" lon="2.35772">
        <ele>54</ele>
        <time>2016-04-18T19:34:05Z</time>
      </trkpt>
      <trkpt lat="48.89036" lon="2.35751">
        <ele>52.400001525879</ele>
        <time>2016-04-18T19:34:08Z</time>
      </trkpt>
      <trkpt lat="48.89035" lon="2.35723">
        <ele>52.400001525879</ele>
        <time>2016-04-18T19:34:12Z</time>
      </trkpt>
      <trkpt lat="48.89037" lon="2.35689">
        <ele>52.79999923706</ele>
        <time>2016-04-18T19:34:17Z</time>
      </trkpt>
      <trkpt lat="48.89038" lon="2.35682">
        <ele>52.79999923706</ele>
        <time>2016-04-18T19:34:18Z</time>
      </trkpt>
      <trkpt lat="48.89038" lon="2.35656">
        <ele>52.400001525879</ele>
        <time>2016-04-18T19:34:22Z</time>
      </trkpt>
      <trkpt lat="48.89038" lon="2.35636">
        <ele>53.79999923706</ele>
        <time>2016-04-18T19:34:25Z</time>
      </trkpt>
      <trkpt lat="48.89041" lon="2.35614">
        <ele>55.20000076294</ele>
        <time>2016-04-18T19:34:29Z</time>
      </trkpt>
      <trkpt lat="48.89047" lon="2.35595">
        <ele>55.79999923706</ele>
        <time>2016-04-18T19:34:33Z</time>
      </trkpt>
      <trkpt lat="48.89052" lon="2.35566">
        <ele>55.400001525879</ele>
        <time>2016-04-18T19:34:39Z</time>
      </trkpt>
      <trkpt lat="48.89054" lon="2.35552">
        <ele>55</ele>
        <time>2016-04-18T19:34:42Z</time>
      </trkpt>
      <trkpt lat="48.89049" lon="2.35523">
        <ele>54.79999923706</ele>
        <time>2016-04-18T19:34:49Z</time>
      </trkpt>
      <trkpt lat="48.89042" lon="2.35494">
        <ele>56</ele>
        <time>2016-04-18T19:34:58Z</time>
      </trkpt>
      <trkpt lat="48.89043" lon="2.35465">
        <ele>56.599998474121</ele>
        <time>2016-04-18T19:35:03Z</time>
      </trkpt>
      <trkpt lat="48.89043" lon="2.35432">
        <ele>57.400001525879</ele>
        <time>2016-04-18T19:35:08Z</time>
      </trkpt>
      <trkpt lat="48.89045" lon="2.35402">
        <ele>57.599998474121</ele>
        <time>2016-04-18T19:35:12Z</time>
      </trkpt>
      <trkpt lat="48.89049" lon="2.35375">
        <ele>57.599998474121</ele>
        <time>2016-04-18T19:35:16Z</time>
      </trkpt>
      <trkpt lat="48.89048" lon="2.3534">
        <ele>58.400001525879</ele>
        <time>2016-04-18T19:35:21Z</time>
      </trkpt>
      <trkpt lat="48.89052" lon="2.35308">
        <ele>58.599998474121</ele>
        <time>2016-04-18T19:35:26Z</time>
      </trkpt>
      <trkpt lat="48.89052" lon="2.35276">
        <ele>58.599998474121</ele>
        <time>2016-04-18T19:35:32Z</time>
      </trkpt>
      <trkpt lat="48.89049" lon="2.35245">
        <ele>59.20000076294</ele>
        <time>2016-04-18T19:35:39Z</time>
      </trkpt>
      <trkpt lat="48.89058" lon="2.3522">
        <ele>60.400001525879</ele>
        <time>2016-04-18T19:35:45Z</time>
      </trkpt>
      <trkpt lat="48.89057" lon="2.35189">
        <ele>62.20000076294</ele>
        <time>2016-04-18T19:35:50Z</time>
      </trkpt>
      <trkpt lat="48.89055" lon="2.35158">
        <ele>63.79999923706</ele>
        <time>2016-04-18T19:35:55Z</time>
      </trkpt>
      <trkpt lat="48.89061" lon="2.3513">
        <ele>64.800003051758</ele>
        <time>2016-04-18T19:36:03Z</time>
      </trkpt>
      <trkpt lat="48.89065" lon="2.35101">
        <ele>65.800003051758</ele>
        <time>2016-04-18T19:36:12Z</time>
      </trkpt>
      <trkpt lat="48.89074" lon="2.35075">
        <ele>66</ele>
        <time>2016-04-18T19:36:20Z</time>
      </trkpt>
      <trkpt lat="48.89076" lon="2.35061">
        <ele>66</ele>
        <time>2016-04-18T19:36:26Z</time>
      </trkpt>
      <trkpt lat="48.89066" lon="2.3504">
        <ele>67</ele>
        <time>2016-04-18T19:36:40Z</time>
      </trkpt>
      <trkpt lat="48.89063" lon="2.3503">
        <ele>67.400001525879</ele>
        <time>2016-04-18T19:36:45Z</time>
      </trkpt>
      <trkpt lat="48.89061" lon="2.35003">
        <ele>68.400001525879</ele>
        <time>2016-04-18T19:36:55Z</time>
      </trkpt>
      <trkpt lat="48.89064" lon="2.34993">
        <ele>68.400001525879</ele>
        <time>2016-04-18T19:37:02Z</time>
      </trkpt>
      <trkpt lat="48.89062" lon="2.34984">
        <ele>68.400001525879</ele>
        <time>2016-04-18T19:37:11Z</time>
      </trkpt>
      <trkpt lat="48.89053" lon="2.34973">
        <ele>68.599998474121</ele>
        <time>2016-04-18T19:37:37Z</time>
      </trkpt>
      <trkpt lat="48.89059" lon="2.34974">
        <ele>68.400001525879</ele>
        <time>2016-04-18T19:38:00Z</time>
      </trkpt>
      <trkpt lat="48.89066" lon="2.34971">
        <ele>68.199996948242</ele>
        <time>2016-04-18T19:38:09Z</time>
      </trkpt>
      <trkpt lat="48.89066" lon="2.34971">
        <ele>68.199996948242</ele>
        <time>2016-04-18T19:38:11Z</time>
      </trkpt>
      <trkpt lat="48.89067" lon="2.34972">
        <ele>68.199996948242</ele>
        <time>2016-04-18T19:38:15Z</time>
      </trkpt>
      <trkpt lat="48.89053" lon="2.34958">
        <ele>68.400001525879</ele>
        <time>2016-04-18T19:38:36Z</time>
      </trkpt>
      <trkpt lat="48.89034" lon="2.3496">
        <ele>69.199996948242</ele>
        <time>2016-04-18T19:38:45Z</time>
      </trkpt>
      <trkpt lat="48.89012" lon="2.34963">
        <ele>70.400001525879</ele>
        <time>2016-04-18T19:38:51Z</time>
      </trkpt>
      <trkpt lat="48.88992" lon="2.34956">
        <ele>71.800003051758</ele>
        <time>2016-04-18T19:38:54Z</time>
      </trkpt>
      <trkpt lat="48.88973" lon="2.34951">
        <ele>73</ele>
        <time>2016-04-18T19:38:58Z</time>
      </trkpt>
      <trkpt lat="48.88954" lon="2.34945">
        <ele>74</ele>
        <time>2016-04-18T19:39:03Z</time>
      </trkpt>
      <trkpt lat="48.88945" lon="2.34937">
        <ele>74.599998474121</ele>
        <time>2016-04-18T19:39:07Z</time>
      </trkpt>
      <trkpt lat="48.88934" lon="2.34914">
        <ele>75.199996948242</ele>
        <time>2016-04-18T19:39:13Z</time>
      </trkpt>
      <trkpt lat="48.88925" lon="2.34886">
        <ele>75.800003051758</ele>
        <time>2016-04-18T19:39:23Z</time>
      </trkpt>
      <trkpt lat="48.88924" lon="2.34872">
        <ele>75.599998474121</ele>
        <time>2016-04-18T19:39:28Z</time>
      </trkpt>
      <trkpt lat="48.88919" lon="2.34858">
        <ele>75.800003051758</ele>
        <time>2016-04-18T19:39:34Z</time>
      </trkpt>
      <trkpt lat="48.88908" lon="2.34832">
        <ele>76.199996948242</ele>
        <time>2016-04-18T19:39:48Z</time>
      </trkpt>
      <trkpt lat="48.88913" lon="2.34828">
        <ele>76</ele>
        <time>2016-04-18T19:39:52Z</time>
      </trkpt>
      <trkpt lat="48.88914" lon="2.34826">
        <ele>76</ele>
        <time>2016-04-18T19:39:55Z</time>
      </trkpt>
      <trkpt lat="48.88894" lon="2.34825">
        <ele>77.400001525879</ele>
        <time>2016-04-18T19:40:04Z</time>
      </trkpt>
      <trkpt lat="48.88876" lon="2.34822">
        <ele>79</ele>
        <time>2016-04-18T19:40:14Z</time>
      </trkpt>
      <trkpt lat="48.88862" lon="2.34809">
        <ele>80.400001525879</ele>
        <time>2016-04-18T19:40:21Z</time>
      </trkpt>
      <trkpt lat="48.88843" lon="2.34807">
        <ele>81.800003051758</ele>
        <time>2016-04-18T19:40:29Z</time>
      </trkpt>
      <trkpt lat="48.88825" lon="2.34803">
        <ele>83.199996948242</ele>
        <time>2016-04-18T19:40:38Z</time>
      </trkpt>
      <trkpt lat="48.88805" lon="2.348">
        <ele>84.400001525879</ele>
        <time>2016-04-18T19:40:43Z</time>
      </trkpt>
      <trkpt lat="48.88787" lon="2.34797">
        <ele>85.400001525879</ele>
        <time>2016-04-18T19:40:47Z</time>
      </trkpt>
      <trkpt lat="48.88769" lon="2.3479">
        <ele>86.199996948242</ele>
        <time>2016-04-18T19:40:51Z</time>
      </trkpt>
      <trkpt lat="48.8875" lon="2.34787">
        <ele>85.800003051758</ele>
        <time>2016-04-18T19:40:57Z</time>
      </trkpt>
      <trkpt lat="48.88731" lon="2.34779">
        <ele>85.599998474121</ele>
        <time>2016-04-18T19:41:05Z</time>
      </trkpt>
      <trkpt lat="48.88713" lon="2.34768">
        <ele>85.599998474121</ele>
        <time>2016-04-18T19:41:13Z</time>
      </trkpt>
      <trkpt lat="48.88712" lon="2.34767">
        <ele>85.599998474121</ele>
        <time>2016-04-18T19:41:14Z</time>
      </trkpt>
      <trkpt lat="48.8871" lon="2.34761">
        <ele>86</ele>
        <time>2016-04-18T19:41:24Z</time>
      </trkpt>
      <trkpt lat="48.88708" lon="2.34771">
        <ele>85.199996948242</ele>
        <time>2016-04-18T19:41:36Z</time>
      </trkpt>
      <trkpt lat="48.88725" lon="2.34763">
        <ele>86.400001525879</ele>
        <time>2016-04-18T19:41:51Z</time>
      </trkpt>
      <trkpt lat="48.88736" lon="2.34745">
        <ele>87.599998474121</ele>
        <time>2016-04-18T19:41:58Z</time>
      </trkpt>
      <trkpt lat="48.88742" lon="2.34738">
        <ele>88</ele>
        <time>2016-04-18T19:42:13Z</time>
      </trkpt>
      <trkpt lat="48.88752" lon="2.34711">
        <ele>88.800003051758</ele>
        <time>2016-04-18T19:42:38Z</time>
      </trkpt>
      <trkpt lat="48.88763" lon="2.34699">
        <ele>89.599998474121</ele>
        <time>2016-04-18T19:42:42Z</time>
      </trkpt>
      <trkpt lat="48.88767" lon="2.34672">
        <ele>90.599998474121</ele>
        <time>2016-04-18T19:42:49Z</time>
      </trkpt>
      <trkpt lat="48.88771" lon="2.34642">
        <ele>93.199996948242</ele>
        <time>2016-04-18T19:42:58Z</time>
      </trkpt>
      <trkpt lat="48.88773" lon="2.3464">
        <ele>93.599998474121</ele>
        <time>2016-04-18T19:42:59Z</time>
      </trkpt>
      <trkpt lat="48.88786" lon="2.34632">
        <ele>94.199996948242</ele>
        <time>2016-04-18T19:43:07Z</time>
      </trkpt>
      <trkpt lat="48.88789" lon="2.34627">
        <ele>94.599998474121</ele>
        <time>2016-04-18T19:43:11Z</time>
      </trkpt>
      <trkpt lat="48.88794" lon="2.34622">
        <ele>95</ele>
        <time>2016-04-18T19:43:16Z</time>
      </trkpt>
      <trkpt lat="48.88796" lon="2.34596">
        <ele>97.400001525879</ele>
        <time>2016-04-18T19:43:28Z</time>
      </trkpt>
      <trkpt lat="48.88792" lon="2.34594">
        <ele>97.800003051758</ele>
        <time>2016-04-18T19:43:30Z</time>
      </trkpt>
      <trkpt lat="48.88789" lon="2.34585">
        <ele>98.400001525879</ele>
        <time>2016-04-18T19:43:41Z</time>
      </trkpt>
      <trkpt lat="48.88792" lon="2.34577">
        <ele>98.800003051758</ele>
        <time>2016-04-18T19:43:46Z</time>
      </trkpt>
      <trkpt lat="48.88782" lon="2.34563">
        <ele>100.80000305176</ele>
        <time>2016-04-18T19:43:59Z</time>
      </trkpt>
      <trkpt lat="48.88777" lon="2.34547">
        <ele>102.59999847412</ele>
        <time>2016-04-18T19:44:22Z</time>
      </trkpt>
      <trkpt lat="48.88767" lon="2.34541">
        <ele>103</ele>
        <time>2016-04-18T19:44:34Z</time>
      </trkpt>
      <trkpt lat="48.88758" lon="2.3453">
        <ele>103.40000152588</ele>
        <time>2016-04-18T19:44:47Z</time>
      </trkpt>
      <trkpt lat="48.88759" lon="2.34523">
        <ele>104</ele>
        <time>2016-04-18T19:45:01Z</time>
      </trkpt>
      <trkpt lat="48.88763" lon="2.3452">
        <ele>104.40000152588</ele>
        <time>2016-04-18T19:45:05Z</time>
      </trkpt>
      <trkpt lat="48.88766" lon="2.3452">
        <ele>104.59999847412</ele>
        <time>2016-04-18T19:45:07Z</time>
      </trkpt>
      <trkpt lat="48.88772" lon="2.34519">
        <ele>105.19999694824</ele>
        <time>2016-04-18T19:46:14Z</time>
      </trkpt>
      <trkpt lat="48.8877" lon="2.34502">
        <ele>106.40000152588</ele>
        <time>2016-04-18T19:47:09Z</time>
      </trkpt>
      <trkpt lat="48.88768" lon="2.345">
        <ele>106.40000152588</ele>
        <time>2016-04-18T19:47:10Z</time>
      </trkpt>
      <trkpt lat="48.88765" lon="2.34484">
        <ele>108.40000152588</ele>
        <time>2016-04-18T19:47:16Z</time>
      </trkpt>
      <trkpt lat="48.8876" lon="2.34457">
        <ele>110.80000305176</ele>
        <time>2016-04-18T19:47:28Z</time>
      </trkpt>
      <trkpt lat="48.88759" lon="2.34457">
        <ele>111</ele>
        <time>2016-04-18T19:47:29Z</time>
      </trkpt>
      <trkpt lat="48.88748" lon="2.34456">
        <ele>111.40000152588</ele>
        <time>2016-04-18T19:47:36Z</time>
      </trkpt>
      <trkpt lat="48.88744" lon="2.34454">
        <ele>111.59999847412</ele>
        <time>2016-04-18T19:47:39Z</time>
      </trkpt>
      <trkpt lat="48.88726" lon="2.34451">
        <ele>112.59999847412</ele>
        <time>2016-04-18T19:47:48Z</time>
      </trkpt>
      <trkpt lat="48.8872" lon="2.34452">
        <ele>112</ele>
        <time>2016-04-18T19:47:53Z</time>
      </trkpt>
      <trkpt lat="48.88726" lon="2.34452">
        <ele>112.40000152588</ele>
        <time>2016-04-18T19:48:01Z</time>
      </trkpt>
      <trkpt lat="48.88733" lon="2.34448">
        <ele>112.59999847412</ele>
        <time>2016-04-18T19:48:09Z</time>
      </trkpt>
      <trkpt lat="48.88745" lon="2.34439">
        <ele>113</ele>
        <time>2016-04-18T19:48:26Z</time>
      </trkpt>
      <trkpt lat="48.8875" lon="2.34438">
        <ele>112.80000305176</ele>
        <time>2016-04-18T19:48:31Z</time>
      </trkpt>
      <trkpt lat="48.88739" lon="2.34421">
        <ele>114.59999847412</ele>
        <time>2016-04-18T19:49:18Z</time>
      </trkpt>
      <trkpt lat="48.88729" lon="2.34396">
        <ele>117.80000305176</ele>
        <time>2016-04-18T19:49:31Z</time>
      </trkpt>
      <trkpt lat="48.88727" lon="2.34366">
        <ele>121.40000152588</ele>
        <time>2016-04-18T19:49:41Z</time>
      </trkpt>
      <trkpt lat="48.88726" lon="2.34364">
        <ele>121.59999847412</ele>
        <time>2016-04-18T19:49:42Z</time>
      </trkpt>
      <trkpt lat="48.88726" lon="2.34358">
        <ele>122.19999694824</ele>
        <time>2016-04-18T19:49:45Z</time>
      </trkpt>
      <trkpt lat="48.88727" lon="2.34352">
        <ele>123</ele>
        <time>2016-04-18T19:49:48Z</time>
      </trkpt>
      <trkpt lat="48.88731" lon="2.3434">
        <ele>124</ele>
        <time>2016-04-18T19:50:13Z</time>
      </trkpt>
      <trkpt lat="48.88738" lon="2.34326">
        <ele>124.80000305176</ele>
        <time>2016-04-18T19:51:16Z</time>
      </trkpt>
      <trkpt lat="48.88745" lon="2.34326">
        <ele>124.40000152588</ele>
        <time>2016-04-18T19:52:23Z</time>
      </trkpt>
      <trkpt lat="48.8874" lon="2.3432">
        <ele>124.80000305176</ele>
        <time>2016-04-18T19:52:30Z</time>
      </trkpt>
      <trkpt lat="48.88734" lon="2.34293">
        <ele>125.80000305176</ele>
        <time>2016-04-18T19:52:50Z</time>
      </trkpt>
      <trkpt lat="48.88734" lon="2.34289">
        <ele>126</ele>
        <time>2016-04-18T19:52:53Z</time>
      </trkpt>
      <trkpt lat="48.88732" lon="2.3428">
        <ele>126.59999847412</ele>
        <time>2016-04-18T19:53:01Z</time>
      </trkpt>
      <trkpt lat="48.88719" lon="2.3426">
        <ele>128</ele>
        <time>2016-04-18T19:53:09Z</time>
      </trkpt>
      <trkpt lat="48.88716" lon="2.34256">
        <ele>128.39999389648</ele>
        <time>2016-04-18T19:53:11Z</time>
      </trkpt>
      <trkpt lat="48.88709" lon="2.3425">
        <ele>128.80000305176</ele>
        <time>2016-04-18T19:53:17Z</time>
      </trkpt>
      <trkpt lat="48.88697" lon="2.34249">
        <ele>128.80000305176</ele>
        <time>2016-04-18T19:53:51Z</time>
      </trkpt>
      <trkpt lat="48.88677" lon="2.34254">
        <ele>127.19999694824</ele>
        <time>2016-04-18T19:54:01Z</time>
      </trkpt>
      <trkpt lat="48.88659" lon="2.34264">
        <ele>124.59999847412</ele>
        <time>2016-04-18T19:54:15Z</time>
      </trkpt>
      <trkpt lat="48.88658" lon="2.34266">
        <ele>124.40000152588</ele>
        <time>2016-04-18T19:54:17Z</time>
      </trkpt>
      <trkpt lat="48.88642" lon="2.34272">
        <ele>122.19999694824</ele>
        <time>2016-04-18T19:54:31Z</time>
      </trkpt>
      <trkpt lat="48.88635" lon="2.3428">
        <ele>120.80000305176</ele>
        <time>2016-04-18T19:54:43Z</time>
      </trkpt>
      <trkpt lat="48.88615" lon="2.34281">
        <ele>117</ele>
        <time>2016-04-18T19:54:59Z</time>
      </trkpt>
      <trkpt lat="48.88616" lon="2.34286">
        <ele>117</ele>
        <time>2016-04-18T19:55:45Z</time>
      </trkpt>
      <trkpt lat="48.88615" lon="2.34313">
        <ele>114.80000305176</ele>
        <time>2016-04-18T19:56:18Z</time>
      </trkpt>
      <trkpt lat="48.88615" lon="2.34339">
        <ele>112.59999847412</ele>
        <time>2016-04-18T19:56:53Z</time>
      </trkpt>
      <trkpt lat="48.88624" lon="2.34361">
        <ele>111.80000305176</ele>
        <time>2016-04-18T19:57:15Z</time>
      </trkpt>
      <trkpt lat="48.88626" lon="2.34378">
        <ele>110.40000152588</ele>
        <time>2016-04-18T19:58:00Z</time>
      </trkpt>
      <trkpt lat="48.88618" lon="2.344">
        <ele>106.59999847412</ele>
        <time>2016-04-18T19:58:38Z</time>
      </trkpt>
      <trkpt lat="48.88626" lon="2.34401">
        <ele>107.59999847412</ele>
        <time>2016-04-18T19:59:24Z</time>
      </trkpt>
      <trkpt lat="48.88636" lon="2.34393">
        <ele>110.40000152588</ele>
        <time>2016-04-18T20:00:03Z</time>
      </trkpt>
      <trkpt lat="48.88653" lon="2.34406">
        <ele>111.59999847412</ele>
        <time>2016-04-18T20:00:12Z</time>
      </trkpt>
      <trkpt lat="48.88672" lon="2.34411">
        <ele>114.19999694824</ele>
        <time>2016-04-18T20:00:20Z</time>
      </trkpt>
      <trkpt lat="48.88692" lon="2.34428">
        <ele>114.80000305176</ele>
        <time>2016-04-18T20:00:23Z</time>
      </trkpt>
      <trkpt lat="48.88711" lon="2.34437">
        <ele>114.19999694824</ele>
        <time>2016-04-18T20:00:26Z</time>
      </trkpt>
      <trkpt lat="48.88729" lon="2.34444">
        <ele>113</ele>
        <time>2016-04-18T20:00:31Z</time>
      </trkpt>
      <trkpt lat="48.88742" lon="2.34451">
        <ele>112</ele>
        <time>2016-04-18T20:00:34Z</time>
      </trkpt>
      <trkpt lat="48.88753" lon="2.3445">
        <ele>111.80000305176</ele>
        <time>2016-04-18T20:00:43Z</time>
      </trkpt>
      <trkpt lat="48.88773" lon="2.34443">
        <ele>111.59999847412</ele>
        <time>2016-04-18T20:00:50Z</time>
      </trkpt>
      <trkpt lat="48.88793" lon="2.34432">
        <ele>110.80000305176</ele>
        <time>2016-04-18T20:00:56Z</time>
      </trkpt>
      <trkpt lat="48.88813" lon="2.34424">
        <ele>110</ele>
        <time>2016-04-18T20:01:01Z</time>
      </trkpt>
      <trkpt lat="48.88832" lon="2.34415">
        <ele>109.80000305176</ele>
        <time>2016-04-18T20:01:05Z</time>
      </trkpt>
      <trkpt lat="48.88849" lon="2.34406">
        <ele>109.40000152588</ele>
        <time>2016-04-18T20:01:09Z</time>
      </trkpt>
      <trkpt lat="48.88869" lon="2.34399">
        <ele>107.59999847412</ele>
        <time>2016-04-18T20:01:13Z</time>
      </trkpt>
      <trkpt lat="48.88886" lon="2.34394">
        <ele>105.80000305176</ele>
        <time>2016-04-18T20:01:17Z</time>
      </trkpt>
      <trkpt lat="48.88898" lon="2.34385">
        <ele>105.19999694824</ele>
        <time>2016-04-18T20:01:21Z</time>
      </trkpt>
      <trkpt lat="48.88905" lon="2.34366">
        <ele>105.59999847412</ele>
        <time>2016-04-18T20:01:25Z</time>
      </trkpt>
      <trkpt lat="48.88914" lon="2.3434">
        <ele>105.80000305176</ele>
        <time>2016-04-18T20:01:30Z</time>
      </trkpt>
      <trkpt lat="48.88924" lon="2.34314">
        <ele>106.19999694824</ele>
        <time>2016-04-18T20:01:35Z</time>
      </trkpt>
      <trkpt lat="48.88925" lon="2.34284">
        <ele>106.19999694824</ele>
        <time>2016-04-18T20:01:40Z</time>
      </trkpt>
      <trkpt lat="48.88922" lon="2.34253">
        <ele>107.19999694824</ele>
        <time>2016-04-18T20:01:45Z</time>
      </trkpt>
      <trkpt lat="48.88931" lon="2.34226">
        <ele>105.80000305176</ele>
        <time>2016-04-18T20:01:50Z</time>
      </trkpt>
      <trkpt lat="48.88937" lon="2.34198">
        <ele>104.59999847412</ele>
        <time>2016-04-18T20:01:55Z</time>
      </trkpt>
      <trkpt lat="48.88939" lon="2.3417">
        <ele>104.19999694824</ele>
        <time>2016-04-18T20:02:00Z</time>
      </trkpt>
      <trkpt lat="48.88949" lon="2.34144">
        <ele>103.19999694824</ele>
        <time>2016-04-18T20:02:05Z</time>
      </trkpt>
      <trkpt lat="48.88959" lon="2.34115">
        <ele>102.40000152588</ele>
        <time>2016-04-18T20:02:11Z</time>
      </trkpt>
      <trkpt lat="48.8897" lon="2.34088">
        <ele>100.80000305176</ele>
        <time>2016-04-18T20:02:17Z</time>
      </trkpt>
      <trkpt lat="48.88977" lon="2.34066">
        <ele>99.199996948242</ele>
        <time>2016-04-18T20:02:25Z</time>
      </trkpt>
      <trkpt lat="48.88969" lon="2.3406">
        <ele>100.40000152588</ele>
        <time>2016-04-18T20:02:34Z</time>
      </trkpt>
      <trkpt lat="48.88963" lon="2.34056">
        <ele>101.19999694824</ele>
        <time>2016-04-18T20:02:50Z</time>
      </trkpt>
      <trkpt lat="48.88958" lon="2.34042">
        <ele>101.59999847412</ele>
        <time>2016-04-18T20:03:28Z</time>
      </trkpt>
      <trkpt lat="48.8897" lon="2.34021">
        <ele>99</ele>
        <time>2016-04-18T20:03:41Z</time>
      </trkpt>
      <trkpt lat="48.88972" lon="2.33991">
        <ele>98.800003051758</ele>
        <time>2016-04-18T20:03:51Z</time>
      </trkpt>
      <trkpt lat="48.88971" lon="2.3396">
        <ele>97.400001525879</ele>
        <time>2016-04-18T20:03:57Z</time>
      </trkpt>
      <trkpt lat="48.88967" lon="2.3393">
        <ele>97</ele>
        <time>2016-04-18T20:04:02Z</time>
      </trkpt>
      <trkpt lat="48.88967" lon="2.339">
        <ele>97.599998474121</ele>
        <time>2016-04-18T20:04:07Z</time>
      </trkpt>
      <trkpt lat="48.88967" lon="2.3387">
        <ele>98.599998474121</ele>
        <time>2016-04-18T20:04:12Z</time>
      </trkpt>
      <trkpt lat="48.8897" lon="2.33838">
        <ele>99</ele>
        <time>2016-04-18T20:04:17Z</time>
      </trkpt>
      <trkpt lat="48.88964" lon="2.3381">
        <ele>100.40000152588</ele>
        <time>2016-04-18T20:04:21Z</time>
      </trkpt>
      <trkpt lat="48.88958" lon="2.33779">
        <ele>102.19999694824</ele>
        <time>2016-04-18T20:04:26Z</time>
      </trkpt>
      <trkpt lat="48.88954" lon="2.33746">
        <ele>103</ele>
        <time>2016-04-18T20:04:31Z</time>
      </trkpt>
      <trkpt lat="48.88955" lon="2.33717">
        <ele>103.59999847412</ele>
        <time>2016-04-18T20:04:36Z</time>
      </trkpt>
      <trkpt lat="48.88957" lon="2.33708">
        <ele>103.40000152588</ele>
        <time>2016-04-18T20:04:38Z</time>
      </trkpt>
      <trkpt lat="48.8896" lon="2.33678">
        <ele>103.59999847412</ele>
        <time>2016-04-18T20:04:46Z</time>
      </trkpt>
      <trkpt lat="48.88959" lon="2.33673">
        <ele>103.80000305176</ele>
        <time>2016-04-18T20:04:47Z</time>
      </trkpt>
      <trkpt lat="48.88958" lon="2.33641">
        <ele>103.59999847412</ele>
        <time>2016-04-18T20:04:53Z</time>
      </trkpt>
      <trkpt lat="48.88956" lon="2.3361">
        <ele>103.59999847412</ele>
        <time>2016-04-18T20:04:58Z</time>
      </trkpt>
      <trkpt lat="48.8896" lon="2.33578">
        <ele>102.40000152588</ele>
        <time>2016-04-18T20:05:04Z</time>
      </trkpt>
      <trkpt lat="48.88958" lon="2.3355">
        <ele>102.59999847412</ele>
        <time>2016-04-18T20:05:11Z</time>
      </trkpt>
      <trkpt lat="48.88956" lon="2.33543">
        <ele>103.19999694824</ele>
        <time>2016-04-18T20:05:15Z</time>
      </trkpt>
      <trkpt lat="48.8895" lon="2.3352">
        <ele>104</ele>
        <time>2016-04-18T20:05:44Z</time>
      </trkpt>
      <trkpt lat="48.88939" lon="2.33499">
        <ele>106</ele>
        <time>2016-04-18T20:05:49Z</time>
      </trkpt>
      <trkpt lat="48.88923" lon="2.33478">
        <ele>104.40000152588</ele>
        <time>2016-04-18T20:05:55Z</time>
      </trkpt>
      <trkpt lat="48.88907" lon="2.33466">
        <ele>103.40000152588</ele>
        <time>2016-04-18T20:05:59Z</time>
      </trkpt>
      <trkpt lat="48.88887" lon="2.33451">
        <ele>102</ele>
        <time>2016-04-18T20:06:04Z</time>
      </trkpt>
      <trkpt lat="48.88869" lon="2.33433">
        <ele>100.59999847412</ele>
        <time>2016-04-18T20:06:09Z</time>
      </trkpt>
      <trkpt lat="48.8885" lon="2.33424">
        <ele>99.599998474121</ele>
        <time>2016-04-18T20:06:14Z</time>
      </trkpt>
      <trkpt lat="48.88829" lon="2.33406">
        <ele>98.199996948242</ele>
        <time>2016-04-18T20:06:19Z</time>
      </trkpt>
      <trkpt lat="48.8881" lon="2.33395">
        <ele>97.599998474121</ele>
        <time>2016-04-18T20:06:23Z</time>
      </trkpt>
      <trkpt lat="48.88793" lon="2.33382">
        <ele>96.599998474121</ele>
        <time>2016-04-18T20:06:27Z</time>
      </trkpt>
      <trkpt lat="48.88776" lon="2.33364">
        <ele>95.599998474121</ele>
        <time>2016-04-18T20:06:31Z</time>
      </trkpt>
      <trkpt lat="48.8877" lon="2.33351">
        <ele>94.800003051758</ele>
        <time>2016-04-18T20:06:36Z</time>
      </trkpt>
      <trkpt lat="48.88753" lon="2.33335">
        <ele>92.800003051758</ele>
        <time>2016-04-18T20:06:41Z</time>
      </trkpt>
      <trkpt lat="48.88735" lon="2.33314">
        <ele>90</ele>
        <time>2016-04-18T20:06:45Z</time>
      </trkpt>
      <trkpt lat="48.8873" lon="2.33307">
        <ele>89.199996948242</ele>
        <time>2016-04-18T20:06:46Z</time>
      </trkpt>
      <trkpt lat="48.88716" lon="2.33288">
        <ele>86.800003051758</ele>
        <time>2016-04-18T20:06:48Z</time>
      </trkpt>
      <trkpt lat="48.88696" lon="2.33278">
        <ele>84.599998474121</ele>
        <time>2016-04-18T20:06:50Z</time>
      </trkpt>
      <trkpt lat="48.88683" lon="2.33263">
        <ele>82.599998474121</ele>
        <time>2016-04-18T20:06:53Z</time>
      </trkpt>
      <trkpt lat="48.88679" lon="2.3326">
        <ele>82.400001525879</ele>
        <time>2016-04-18T20:06:54Z</time>
      </trkpt>
      <trkpt lat="48.88661" lon="2.3326">
        <ele>81.199996948242</ele>
        <time>2016-04-18T20:06:59Z</time>
      </trkpt>
      <trkpt lat="48.88658" lon="2.33259">
        <ele>81</ele>
        <time>2016-04-18T20:07:00Z</time>
      </trkpt>
      <trkpt lat="48.88652" lon="2.33254">
        <ele>80.199996948242</ele>
        <time>2016-04-18T20:07:02Z</time>
      </trkpt>
      <trkpt lat="48.88637" lon="2.33234">
        <ele>77.599998474121</ele>
        <time>2016-04-18T20:07:07Z</time>
      </trkpt>
      <trkpt lat="48.88634" lon="2.3323">
        <ele>77</ele>
        <time>2016-04-18T20:07:08Z</time>
      </trkpt>
      <trkpt lat="48.8862" lon="2.33208">
        <ele>74.199996948242</ele>
        <time>2016-04-18T20:07:12Z</time>
      </trkpt>
      <trkpt lat="48.88607" lon="2.33185">
        <ele>71</ele>
        <time>2016-04-18T20:07:16Z</time>
      </trkpt>
      <trkpt lat="48.88592" lon="2.33158">
        <ele>69.599998474121</ele>
        <time>2016-04-18T20:07:20Z</time>
      </trkpt>
      <trkpt lat="48.88578" lon="2.33133">
        <ele>70.800003051758</ele>
        <time>2016-04-18T20:07:24Z</time>
      </trkpt>
      <trkpt lat="48.88564" lon="2.33107">
        <ele>71.599998474121</ele>
        <time>2016-04-18T20:07:28Z</time>
      </trkpt>
      <trkpt lat="48.88552" lon="2.33086">
        <ele>72.199996948242</ele>
        <time>2016-04-18T20:07:32Z</time>
      </trkpt>
      <trkpt lat="48.8855" lon="2.3308">
        <ele>72.400001525879</ele>
        <time>2016-04-18T20:07:33Z</time>
      </trkpt>
      <trkpt lat="48.88545" lon="2.33068">
        <ele>72.400001525879</ele>
        <time>2016-04-18T20:07:35Z</time>
      </trkpt>
      <trkpt lat="48.88528" lon="2.33047">
        <ele>73</ele>
        <time>2016-04-18T20:07:39Z</time>
      </trkpt>
      <trkpt lat="48.88513" lon="2.33032">
        <ele>73</ele>
        <time>2016-04-18T20:07:43Z</time>
      </trkpt>
      <trkpt lat="48.88497" lon="2.33011">
        <ele>72.599998474121</ele>
        <time>2016-04-18T20:07:48Z</time>
      </trkpt>
      <trkpt lat="48.88483" lon="2.32991">
        <ele>72.400001525879</ele>
        <time>2016-04-18T20:07:55Z</time>
      </trkpt>
      <trkpt lat="48.88479" lon="2.32977">
        <ele>72</ele>
        <time>2016-04-18T20:07:59Z</time>
      </trkpt>
      <trkpt lat="48.88465" lon="2.32955">
        <ele>71.599998474121</ele>
        <time>2016-04-18T20:08:04Z</time>
      </trkpt>
      <trkpt lat="48.88462" lon="2.32952">
        <ele>71.599998474121</ele>
        <time>2016-04-18T20:08:05Z</time>
      </trkpt>
      <trkpt lat="48.88446" lon="2.32932">
        <ele>71.400001525879</ele>
        <time>2016-04-18T20:08:09Z</time>
      </trkpt>
      <trkpt lat="48.88434" lon="2.32914">
        <ele>71</ele>
        <time>2016-04-18T20:08:12Z</time>
      </trkpt>
      <trkpt lat="48.88421" lon="2.32894">
        <ele>70.800003051758</ele>
        <time>2016-04-18T20:08:15Z</time>
      </trkpt>
      <trkpt lat="48.88417" lon="2.32887">
        <ele>70.599998474121</ele>
        <time>2016-04-18T20:08:16Z</time>
      </trkpt>
      <trkpt lat="48.88401" lon="2.32861">
        <ele>70.400001525879</ele>
        <time>2016-04-18T20:08:20Z</time>
      </trkpt>
      <trkpt lat="48.88389" lon="2.32843">
        <ele>70.199996948242</ele>
        <time>2016-04-18T20:08:23Z</time>
      </trkpt>
      <trkpt lat="48.88381" lon="2.32816">
        <ele>69.599998474121</ele>
        <time>2016-04-18T20:08:30Z</time>
      </trkpt>
      <trkpt lat="48.8838" lon="2.32806">
        <ele>69.400001525879</ele>
        <time>2016-04-18T20:08:32Z</time>
      </trkpt>
      <trkpt lat="48.88379" lon="2.32797">
        <ele>69.199996948242</ele>
        <time>2016-04-18T20:08:34Z</time>
      </trkpt>
      <trkpt lat="48.8838" lon="2.32781">
        <ele>68.800003051758</ele>
        <time>2016-04-18T20:08:39Z</time>
      </trkpt>
      <trkpt lat="48.8838" lon="2.32779">
        <ele>68.800003051758</ele>
        <time>2016-04-18T20:08:40Z</time>
      </trkpt>
      <trkpt lat="48.88378" lon="2.32775">
        <ele>68.599998474121</ele>
        <time>2016-04-18T20:08:43Z</time>
      </trkpt>
      <trkpt lat="48.88375" lon="2.32742">
        <ele>68.199996948242</ele>
        <time>2016-04-18T20:09:07Z</time>
      </trkpt>
      <trkpt lat="48.88362" lon="2.3272">
        <ele>68.400001525879</ele>
        <time>2016-04-18T20:09:15Z</time>
      </trkpt>
      <trkpt lat="48.88358" lon="2.32696">
        <ele>68.599998474121</ele>
        <time>2016-04-18T20:09:23Z</time>
      </trkpt>
      <trkpt lat="48.88353" lon="2.32668">
        <ele>69</ele>
        <time>2016-04-18T20:09:35Z</time>
      </trkpt>
      <trkpt lat="48.88346" lon="2.3264">
        <ele>69.199996948242</ele>
        <time>2016-04-18T20:09:39Z</time>
      </trkpt>
      <trkpt lat="48.88342" lon="2.32611">
        <ele>69.599998474121</ele>
        <time>2016-04-18T20:09:43Z</time>
      </trkpt>
      <trkpt lat="48.88335" lon="2.3258">
        <ele>70</ele>
        <time>2016-04-18T20:09:47Z</time>
      </trkpt>
      <trkpt lat="48.88329" lon="2.32551">
        <ele>69.599998474121</ele>
        <time>2016-04-18T20:09:51Z</time>
      </trkpt>
      <trkpt lat="48.88322" lon="2.32526">
        <ele>68.199996948242</ele>
        <time>2016-04-18T20:09:54Z</time>
      </trkpt>
      <trkpt lat="48.88314" lon="2.32497">
        <ele>66.599998474121</ele>
        <time>2016-04-18T20:09:57Z</time>
      </trkpt>
      <trkpt lat="48.88307" lon="2.32471">
        <ele>65.800003051758</ele>
        <time>2016-04-18T20:10:00Z</time>
      </trkpt>
      <trkpt lat="48.88302" lon="2.32439">
        <ele>64.599998474121</ele>
        <time>2016-04-18T20:10:04Z</time>
      </trkpt>
      <trkpt lat="48.88295" lon="2.32413">
        <ele>64</ele>
        <time>2016-04-18T20:10:07Z</time>
      </trkpt>
      <trkpt lat="48.88288" lon="2.32384">
        <ele>64</ele>
        <time>2016-04-18T20:10:10Z</time>
      </trkpt>
      <trkpt lat="48.88282" lon="2.32351">
        <ele>63.79999923706</ele>
        <time>2016-04-18T20:10:14Z</time>
      </trkpt>
      <trkpt lat="48.88277" lon="2.32321">
        <ele>63.79999923706</ele>
        <time>2016-04-18T20:10:18Z</time>
      </trkpt>
      <trkpt lat="48.88274" lon="2.32289">
        <ele>63</ele>
        <time>2016-04-18T20:10:22Z</time>
      </trkpt>
      <trkpt lat="48.88264" lon="2.32256">
        <ele>62.400001525879</ele>
        <time>2016-04-18T20:10:26Z</time>
      </trkpt>
      <trkpt lat="48.88254" lon="2.32228">
        <ele>60.79999923706</ele>
        <time>2016-04-18T20:10:29Z</time>
      </trkpt>
      <trkpt lat="48.88254" lon="2.32197">
        <ele>59.400001525879</ele>
        <time>2016-04-18T20:10:33Z</time>
      </trkpt>
      <trkpt lat="48.88252" lon="2.32182">
        <ele>58.599998474121</ele>
        <time>2016-04-18T20:10:35Z</time>
      </trkpt>
      <trkpt lat="48.88244" lon="2.32156">
        <ele>57</ele>
        <time>2016-04-18T20:10:38Z</time>
      </trkpt>
      <trkpt lat="48.88239" lon="2.32129">
        <ele>55.20000076294</ele>
        <time>2016-04-18T20:10:41Z</time>
      </trkpt>
      <trkpt lat="48.88236" lon="2.32109">
        <ele>54.20000076294</ele>
        <time>2016-04-18T20:10:44Z</time>
      </trkpt>
      <trkpt lat="48.88235" lon="2.32092">
        <ele>53.599998474121</ele>
        <time>2016-04-18T20:10:46Z</time>
      </trkpt>
      <trkpt lat="48.88233" lon="2.3207">
        <ele>53.20000076294</ele>
        <time>2016-04-18T20:10:49Z</time>
      </trkpt>
      <trkpt lat="48.88227" lon="2.32053">
        <ele>53.400001525879</ele>
        <time>2016-04-18T20:11:23Z</time>
      </trkpt>
      <trkpt lat="48.88222" lon="2.32027">
        <ele>53.79999923706</ele>
        <time>2016-04-18T20:11:30Z</time>
      </trkpt>
      <trkpt lat="48.88215" lon="2.31998">
        <ele>54.79999923706</ele>
        <time>2016-04-18T20:11:37Z</time>
      </trkpt>
      <trkpt lat="48.88213" lon="2.31969">
        <ele>57.400001525879</ele>
        <time>2016-04-18T20:11:43Z</time>
      </trkpt>
      <trkpt lat="48.88213" lon="2.31941">
        <ele>60</ele>
        <time>2016-04-18T20:11:48Z</time>
      </trkpt>
      <trkpt lat="48.88212" lon="2.31913">
        <ele>61.20000076294</ele>
        <time>2016-04-18T20:11:54Z</time>
      </trkpt>
      <trkpt lat="48.88211" lon="2.31884">
        <ele>62</ele>
        <time>2016-04-18T20:11:59Z</time>
      </trkpt>
      <trkpt lat="48.88203" lon="2.31855">
        <ele>62.599998474121</ele>
        <time>2016-04-18T20:12:03Z</time>
      </trkpt>
      <trkpt lat="48.88198" lon="2.31825">
        <ele>62.79999923706</ele>
        <time>2016-04-18T20:12:07Z</time>
      </trkpt>
      <trkpt lat="48.88194" lon="2.31797">
        <ele>62.400001525879</ele>
        <time>2016-04-18T20:12:11Z</time>
      </trkpt>
      <trkpt lat="48.88188" lon="2.31764">
        <ele>62.20000076294</ele>
        <time>2016-04-18T20:12:16Z</time>
      </trkpt>
      <trkpt lat="48.88185" lon="2.31751">
        <ele>62.20000076294</ele>
        <time>2016-04-18T20:12:18Z</time>
      </trkpt>
      <trkpt lat="48.88179" lon="2.31718">
        <ele>62</ele>
        <time>2016-04-18T20:12:23Z</time>
      </trkpt>
      <trkpt lat="48.88178" lon="2.3171">
        <ele>62</ele>
        <time>2016-04-18T20:12:24Z</time>
      </trkpt>
      <trkpt lat="48.88169" lon="2.3169">
        <ele>62</ele>
        <time>2016-04-18T20:12:28Z</time>
      </trkpt>
      <trkpt lat="48.88155" lon="2.31667">
        <ele>62.20000076294</ele>
        <time>2016-04-18T20:12:32Z</time>
      </trkpt>
      <trkpt lat="48.88134" lon="2.3166">
        <ele>63</ele>
        <time>2016-04-18T20:12:36Z</time>
      </trkpt>
      <trkpt lat="48.88115" lon="2.31674">
        <ele>63.79999923706</ele>
        <time>2016-04-18T20:12:42Z</time>
      </trkpt>
      <trkpt lat="48.88113" lon="2.31676">
        <ele>64</ele>
        <time>2016-04-18T20:12:43Z</time>
      </trkpt>
      <trkpt lat="48.88097" lon="2.3169">
        <ele>64</ele>
        <time>2016-04-18T20:12:50Z</time>
      </trkpt>
      <trkpt lat="48.88077" lon="2.31691">
        <ele>63.20000076294</ele>
        <time>2016-04-18T20:12:57Z</time>
      </trkpt>
      <trkpt lat="48.88058" lon="2.31698">
        <ele>62.599998474121</ele>
        <time>2016-04-18T20:13:03Z</time>
      </trkpt>
      <trkpt lat="48.88044" lon="2.31718">
        <ele>63.20000076294</ele>
        <time>2016-04-18T20:13:09Z</time>
      </trkpt>
      <trkpt lat="48.88028" lon="2.31731">
        <ele>63.400001525879</ele>
        <time>2016-04-18T20:13:14Z</time>
      </trkpt>
      <trkpt lat="48.88011" lon="2.31747">
        <ele>63.599998474121</ele>
        <time>2016-04-18T20:13:19Z</time>
      </trkpt>
      <trkpt lat="48.87996" lon="2.31772">
        <ele>63.400001525879</ele>
        <time>2016-04-18T20:13:25Z</time>
      </trkpt>
      <trkpt lat="48.87982" lon="2.31796">
        <ele>63.20000076294</ele>
        <time>2016-04-18T20:13:31Z</time>
      </trkpt>
      <trkpt lat="48.87964" lon="2.31811">
        <ele>63.20000076294</ele>
        <time>2016-04-18T20:13:36Z</time>
      </trkpt>
      <trkpt lat="48.87946" lon="2.31827">
        <ele>63</ele>
        <time>2016-04-18T20:13:41Z</time>
      </trkpt>
      <trkpt lat="48.87929" lon="2.31849">
        <ele>63</ele>
        <time>2016-04-18T20:13:46Z</time>
      </trkpt>
      <trkpt lat="48.87914" lon="2.31876">
        <ele>62.79999923706</ele>
        <time>2016-04-18T20:13:49Z</time>
      </trkpt>
      <trkpt lat="48.87901" lon="2.31897">
        <ele>62.20000076294</ele>
        <time>2016-04-18T20:13:53Z</time>
      </trkpt>
      <trkpt lat="48.87887" lon="2.31924">
        <ele>61</ele>
        <time>2016-04-18T20:13:57Z</time>
      </trkpt>
      <trkpt lat="48.87873" lon="2.3195">
        <ele>59.79999923706</ele>
        <time>2016-04-18T20:14:00Z</time>
      </trkpt>
      <trkpt lat="48.87867" lon="2.31968">
        <ele>59.20000076294</ele>
        <time>2016-04-18T20:14:03Z</time>
      </trkpt>
      <trkpt lat="48.8786" lon="2.31979">
        <ele>58.400001525879</ele>
        <time>2016-04-18T20:14:06Z</time>
      </trkpt>
      <trkpt lat="48.87837" lon="2.31987">
        <ele>57.400001525879</ele>
        <time>2016-04-18T20:14:10Z</time>
      </trkpt>
      <trkpt lat="48.87834" lon="2.31991">
        <ele>57.20000076294</ele>
        <time>2016-04-18T20:14:11Z</time>
      </trkpt>
      <trkpt lat="48.87819" lon="2.32011">
        <ele>57.20000076294</ele>
        <time>2016-04-18T20:14:16Z</time>
      </trkpt>
      <trkpt lat="48.87813" lon="2.32023">
        <ele>57.400001525879</ele>
        <time>2016-04-18T20:14:18Z</time>
      </trkpt>
      <trkpt lat="48.87807" lon="2.32033">
        <ele>57.599998474121</ele>
        <time>2016-04-18T20:14:20Z</time>
      </trkpt>
      <trkpt lat="48.87791" lon="2.32052">
        <ele>58</ele>
        <time>2016-04-18T20:14:25Z</time>
      </trkpt>
      <trkpt lat="48.87776" lon="2.32069">
        <ele>58.599998474121</ele>
        <time>2016-04-18T20:14:28Z</time>
      </trkpt>
      <trkpt lat="48.87759" lon="2.32094">
        <ele>57.79999923706</ele>
        <time>2016-04-18T20:14:32Z</time>
      </trkpt>
      <trkpt lat="48.87745" lon="2.32114">
        <ele>56.79999923706</ele>
        <time>2016-04-18T20:14:35Z</time>
      </trkpt>
      <trkpt lat="48.87737" lon="2.32125">
        <ele>56.20000076294</ele>
        <time>2016-04-18T20:14:37Z</time>
      </trkpt>
      <trkpt lat="48.87725" lon="2.32141">
        <ele>55.599998474121</ele>
        <time>2016-04-18T20:14:41Z</time>
      </trkpt>
      <trkpt lat="48.87717" lon="2.32147">
        <ele>55.20000076294</ele>
        <time>2016-04-18T20:14:44Z</time>
      </trkpt>
      <trkpt lat="48.87698" lon="2.32153">
        <ele>53.400001525879</ele>
        <time>2016-04-18T20:14:51Z</time>
      </trkpt>
      <trkpt lat="48.87693" lon="2.32157">
        <ele>53</ele>
        <time>2016-04-18T20:14:52Z</time>
      </trkpt>
      <trkpt lat="48.87686" lon="2.32163">
        <ele>52.79999923706</ele>
        <time>2016-04-18T20:14:54Z</time>
      </trkpt>
      <trkpt lat="48.8767" lon="2.32179">
        <ele>51</ele>
        <time>2016-04-18T20:14:58Z</time>
      </trkpt>
      <trkpt lat="48.87655" lon="2.32199">
        <ele>49.20000076294</ele>
        <time>2016-04-18T20:15:02Z</time>
      </trkpt>
      <trkpt lat="48.87642" lon="2.32211">
        <ele>48.400001525879</ele>
        <time>2016-04-18T20:15:05Z</time>
      </trkpt>
      <trkpt lat="48.87629" lon="2.32225">
        <ele>48.20000076294</ele>
        <time>2016-04-18T20:15:08Z</time>
      </trkpt>
      <trkpt lat="48.87614" lon="2.32245">
        <ele>48.20000076294</ele>
        <time>2016-04-18T20:15:13Z</time>
      </trkpt>
      <trkpt lat="48.876" lon="2.32263">
        <ele>47</ele>
        <time>2016-04-18T20:15:18Z</time>
      </trkpt>
      <trkpt lat="48.87589" lon="2.32285">
        <ele>45.400001525879</ele>
        <time>2016-04-18T20:15:24Z</time>
      </trkpt>
      <trkpt lat="48.87583" lon="2.3229">
        <ele>45.20000076294</ele>
        <time>2016-04-18T20:15:29Z</time>
      </trkpt>
      <trkpt lat="48.87582" lon="2.3229">
        <ele>45.20000076294</ele>
        <time>2016-04-18T20:15:30Z</time>
      </trkpt>
      <trkpt lat="48.87571" lon="2.32297">
        <ele>44.599998474121</ele>
        <time>2016-04-18T20:15:37Z</time>
      </trkpt>
      <trkpt lat="48.87557" lon="2.32297">
        <ele>45</ele>
        <time>2016-04-18T20:15:41Z</time>
      </trkpt>
      <trkpt lat="48.87539" lon="2.32296">
        <ele>45.400001525879</ele>
        <time>2016-04-18T20:15:50Z</time>
      </trkpt>
      <trkpt lat="48.87535" lon="2.32296">
        <ele>45.599998474121</ele>
        <time>2016-04-18T20:15:53Z</time>
      </trkpt>
      <trkpt lat="48.87525" lon="2.32297">
        <ele>45.79999923706</ele>
        <time>2016-04-18T20:16:24Z</time>
      </trkpt>
      <trkpt lat="48.8751" lon="2.32288">
        <ele>45.79999923706</ele>
        <time>2016-04-18T20:16:36Z</time>
      </trkpt>
      <trkpt lat="48.8749" lon="2.32283">
        <ele>45.79999923706</ele>
        <time>2016-04-18T20:16:44Z</time>
      </trkpt>
      <trkpt lat="48.87468" lon="2.32273">
        <ele>45.79999923706</ele>
        <time>2016-04-18T20:16:51Z</time>
      </trkpt>
      <trkpt lat="48.87447" lon="2.32278">
        <ele>45</ele>
        <time>2016-04-18T20:16:59Z</time>
      </trkpt>
      <trkpt lat="48.87426" lon="2.32275">
        <ele>44.400001525879</ele>
        <time>2016-04-18T20:17:04Z</time>
      </trkpt>
      <trkpt lat="48.87408" lon="2.32273">
        <ele>44</ele>
        <time>2016-04-18T20:17:07Z</time>
      </trkpt>
      <trkpt lat="48.87389" lon="2.32265">
        <ele>43.599998474121</ele>
        <time>2016-04-18T20:17:11Z</time>
      </trkpt>
      <trkpt lat="48.87371" lon="2.32258">
        <ele>43.20000076294</ele>
        <time>2016-04-18T20:17:16Z</time>
      </trkpt>
      <trkpt lat="48.8736" lon="2.32259">
        <ele>43</ele>
        <time>2016-04-18T20:17:19Z</time>
      </trkpt>
      <trkpt lat="48.87357" lon="2.32275">
        <ele>43</ele>
        <time>2016-04-18T20:17:23Z</time>
      </trkpt>
      <trkpt lat="48.87354" lon="2.32307">
        <ele>43.20000076294</ele>
        <time>2016-04-18T20:17:28Z</time>
      </trkpt>
      <trkpt lat="48.87354" lon="2.32339">
        <ele>43.400001525879</ele>
        <time>2016-04-18T20:17:33Z</time>
      </trkpt>
      <trkpt lat="48.8735" lon="2.32357">
        <ele>44</ele>
        <time>2016-04-18T20:17:37Z</time>
      </trkpt>
      <trkpt lat="48.87329" lon="2.32357">
        <ele>45.20000076294</ele>
        <time>2016-04-18T20:17:43Z</time>
      </trkpt>
      <trkpt lat="48.87309" lon="2.32355">
        <ele>46.400001525879</ele>
        <time>2016-04-18T20:17:47Z</time>
      </trkpt>
      <trkpt lat="48.87289" lon="2.32353">
        <ele>47.400001525879</ele>
        <time>2016-04-18T20:17:51Z</time>
      </trkpt>
      <trkpt lat="48.87271" lon="2.32349">
        <ele>48</ele>
        <time>2016-04-18T20:17:55Z</time>
      </trkpt>
      <trkpt lat="48.8725" lon="2.32349">
        <ele>48.599998474121</ele>
        <time>2016-04-18T20:18:01Z</time>
      </trkpt>
      <trkpt lat="48.8723" lon="2.32343">
        <ele>49</ele>
        <time>2016-04-18T20:18:04Z</time>
      </trkpt>
      <trkpt lat="48.87221" lon="2.32339">
        <ele>49.20000076294</ele>
        <time>2016-04-18T20:18:06Z</time>
      </trkpt>
      <trkpt lat="48.87203" lon="2.32331">
        <ele>49.599998474121</ele>
        <time>2016-04-18T20:18:10Z</time>
      </trkpt>
      <trkpt lat="48.87184" lon="2.32328">
        <ele>49.599998474121</ele>
        <time>2016-04-18T20:18:15Z</time>
      </trkpt>
      <trkpt lat="48.87166" lon="2.32324">
        <ele>48.599998474121</ele>
        <time>2016-04-18T20:18:20Z</time>
      </trkpt>
      <trkpt lat="48.87146" lon="2.32322">
        <ele>47.400001525879</ele>
        <time>2016-04-18T20:18:26Z</time>
      </trkpt>
      <trkpt lat="48.87128" lon="2.32315">
        <ele>46.20000076294</ele>
        <time>2016-04-18T20:18:31Z</time>
      </trkpt>
      <trkpt lat="48.87111" lon="2.323">
        <ele>45.20000076294</ele>
        <time>2016-04-18T20:18:35Z</time>
      </trkpt>
      <trkpt lat="48.87095" lon="2.32288">
        <ele>45</ele>
        <time>2016-04-18T20:18:41Z</time>
      </trkpt>
      <trkpt lat="48.87076" lon="2.32289">
        <ele>45</ele>
        <time>2016-04-18T20:18:47Z</time>
      </trkpt>
      <trkpt lat="48.87057" lon="2.32287">
        <ele>45</ele>
        <time>2016-04-18T20:18:54Z</time>
      </trkpt>
      <trkpt lat="48.87039" lon="2.32277">
        <ele>45</ele>
        <time>2016-04-18T20:18:59Z</time>
      </trkpt>
      <trkpt lat="48.8702" lon="2.32266">
        <ele>45</ele>
        <time>2016-04-18T20:19:04Z</time>
      </trkpt>
      <trkpt lat="48.87" lon="2.32257">
        <ele>45.79999923706</ele>
        <time>2016-04-18T20:19:10Z</time>
      </trkpt>
      <trkpt lat="48.86983" lon="2.32243">
        <ele>46.400001525879</ele>
        <time>2016-04-18T20:19:15Z</time>
      </trkpt>
      <trkpt lat="48.86962" lon="2.32235">
        <ele>47</ele>
        <time>2016-04-18T20:19:21Z</time>
      </trkpt>
      <trkpt lat="48.86941" lon="2.32229">
        <ele>47.599998474121</ele>
        <time>2016-04-18T20:19:26Z</time>
      </trkpt>
      <trkpt lat="48.86924" lon="2.32216">
        <ele>47.400001525879</ele>
        <time>2016-04-18T20:19:31Z</time>
      </trkpt>
      <trkpt lat="48.86907" lon="2.32206">
        <ele>47.400001525879</ele>
        <time>2016-04-18T20:19:34Z</time>
      </trkpt>
      <trkpt lat="48.86903" lon="2.32207">
        <ele>47.400001525879</ele>
        <time>2016-04-18T20:19:38Z</time>
      </trkpt>
      <trkpt lat="48.86897" lon="2.32199">
        <ele>47.400001525879</ele>
        <time>2016-04-18T20:19:51Z</time>
      </trkpt>
      <trkpt lat="48.86886" lon="2.32224">
        <ele>47.79999923706</ele>
        <time>2016-04-18T20:19:57Z</time>
      </trkpt>
      <trkpt lat="48.86878" lon="2.32251">
        <ele>48</ele>
        <time>2016-04-18T20:20:01Z</time>
      </trkpt>
      <trkpt lat="48.86872" lon="2.32262">
        <ele>48.20000076294</ele>
        <time>2016-04-18T20:20:03Z</time>
      </trkpt>
      <trkpt lat="48.86865" lon="2.32292">
        <ele>48.20000076294</ele>
        <time>2016-04-18T20:20:09Z</time>
      </trkpt>
      <trkpt lat="48.86861" lon="2.3232">
        <ele>48</ele>
        <time>2016-04-18T20:20:16Z</time>
      </trkpt>
      <trkpt lat="48.8685" lon="2.32343">
        <ele>48</ele>
        <time>2016-04-18T20:20:22Z</time>
      </trkpt>
      <trkpt lat="48.86834" lon="2.32368">
        <ele>48.20000076294</ele>
        <time>2016-04-18T20:20:27Z</time>
      </trkpt>
      <trkpt lat="48.8682" lon="2.32393">
        <ele>47.79999923706</ele>
        <time>2016-04-18T20:20:31Z</time>
      </trkpt>
      <trkpt lat="48.8681" lon="2.32418">
        <ele>47.20000076294</ele>
        <time>2016-04-18T20:20:35Z</time>
      </trkpt>
      <trkpt lat="48.86803" lon="2.32445">
        <ele>46.400001525879</ele>
        <time>2016-04-18T20:20:39Z</time>
      </trkpt>
      <trkpt lat="48.86796" lon="2.32473">
        <ele>46.20000076294</ele>
        <time>2016-04-18T20:20:43Z</time>
      </trkpt>
      <trkpt lat="48.86785" lon="2.32502">
        <ele>45.400001525879</ele>
        <time>2016-04-18T20:20:47Z</time>
      </trkpt>
      <trkpt lat="48.86775" lon="2.32531">
        <ele>45.400001525879</ele>
        <time>2016-04-18T20:20:51Z</time>
      </trkpt>
      <trkpt lat="48.86768" lon="2.3256">
        <ele>45.79999923706</ele>
        <time>2016-04-18T20:20:55Z</time>
      </trkpt>
      <trkpt lat="48.8676" lon="2.32583">
        <ele>46</ele>
        <time>2016-04-18T20:20:59Z</time>
      </trkpt>
      <trkpt lat="48.86756" lon="2.32611">
        <ele>46.79999923706</ele>
        <time>2016-04-18T20:21:02Z</time>
      </trkpt>
      <trkpt lat="48.86754" lon="2.32617">
        <ele>46.79999923706</ele>
        <time>2016-04-18T20:21:03Z</time>
      </trkpt>
      <trkpt lat="48.86748" lon="2.32644">
        <ele>47.599998474121</ele>
        <time>2016-04-18T20:21:07Z</time>
      </trkpt>
      <trkpt lat="48.86742" lon="2.32672">
        <ele>48.20000076294</ele>
        <time>2016-04-18T20:21:11Z</time>
      </trkpt>
      <trkpt lat="48.86729" lon="2.327">
        <ele>48.400001525879</ele>
        <time>2016-04-18T20:21:15Z</time>
      </trkpt>
      <trkpt lat="48.86717" lon="2.3273">
        <ele>49.20000076294</ele>
        <time>2016-04-18T20:21:19Z</time>
      </trkpt>
      <trkpt lat="48.8671" lon="2.32762">
        <ele>49.599998474121</ele>
        <time>2016-04-18T20:21:23Z</time>
      </trkpt>
      <trkpt lat="48.86701" lon="2.32793">
        <ele>48.400001525879</ele>
        <time>2016-04-18T20:21:27Z</time>
      </trkpt>
      <trkpt lat="48.86688" lon="2.32817">
        <ele>47.400001525879</ele>
        <time>2016-04-18T20:21:31Z</time>
      </trkpt>
      <trkpt lat="48.86677" lon="2.32846">
        <ele>47</ele>
        <time>2016-04-18T20:21:34Z</time>
      </trkpt>
      <trkpt lat="48.86665" lon="2.32863">
        <ele>47</ele>
        <time>2016-04-18T20:21:38Z</time>
      </trkpt>
      <trkpt lat="48.86663" lon="2.32873">
        <ele>47</ele>
        <time>2016-04-18T20:21:40Z</time>
      </trkpt>
      <trkpt lat="48.86656" lon="2.32898">
        <ele>47.400001525879</ele>
        <time>2016-04-18T20:21:44Z</time>
      </trkpt>
      <trkpt lat="48.86647" lon="2.32927">
        <ele>47.79999923706</ele>
        <time>2016-04-18T20:21:48Z</time>
      </trkpt>
      <trkpt lat="48.86638" lon="2.32952">
        <ele>47.79999923706</ele>
        <time>2016-04-18T20:21:52Z</time>
      </trkpt>
      <trkpt lat="48.86626" lon="2.32973">
        <ele>48.20000076294</ele>
        <time>2016-04-18T20:21:56Z</time>
      </trkpt>
      <trkpt lat="48.8661" lon="2.32995">
        <ele>48.79999923706</ele>
        <time>2016-04-18T20:22:01Z</time>
      </trkpt>
      <trkpt lat="48.86596" lon="2.33015">
        <ele>47.79999923706</ele>
        <time>2016-04-18T20:22:06Z</time>
      </trkpt>
      <trkpt lat="48.86584" lon="2.33042">
        <ele>46.400001525879</ele>
        <time>2016-04-18T20:22:09Z</time>
      </trkpt>
      <trkpt lat="48.86568" lon="2.33066">
        <ele>46.20000076294</ele>
        <time>2016-04-18T20:22:12Z</time>
      </trkpt>
      <trkpt lat="48.86557" lon="2.33087">
        <ele>46.79999923706</ele>
        <time>2016-04-18T20:22:16Z</time>
      </trkpt>
      <trkpt lat="48.86546" lon="2.33112">
        <ele>47</ele>
        <time>2016-04-18T20:22:20Z</time>
      </trkpt>
      <trkpt lat="48.86534" lon="2.3314">
        <ele>46.400001525879</ele>
        <time>2016-04-18T20:22:25Z</time>
      </trkpt>
      <trkpt lat="48.86522" lon="2.33162">
        <ele>46</ele>
        <time>2016-04-18T20:22:29Z</time>
      </trkpt>
      <trkpt lat="48.86509" lon="2.33184">
        <ele>46</ele>
        <time>2016-04-18T20:22:33Z</time>
      </trkpt>
      <trkpt lat="48.86503" lon="2.33189">
        <ele>45.79999923706</ele>
        <time>2016-04-18T20:22:34Z</time>
      </trkpt>
      <trkpt lat="48.86492" lon="2.33215">
        <ele>45.79999923706</ele>
        <time>2016-04-18T20:22:38Z</time>
      </trkpt>
      <trkpt lat="48.86489" lon="2.3322">
        <ele>46</ele>
        <time>2016-04-18T20:22:39Z</time>
      </trkpt>
      <trkpt lat="48.86478" lon="2.33242">
        <ele>46.79999923706</ele>
        <time>2016-04-18T20:22:43Z</time>
      </trkpt>
      <trkpt lat="48.86474" lon="2.33253">
        <ele>47</ele>
        <time>2016-04-18T20:22:45Z</time>
      </trkpt>
      <trkpt lat="48.86471" lon="2.33264">
        <ele>47.20000076294</ele>
        <time>2016-04-18T20:22:47Z</time>
      </trkpt>
      <trkpt lat="48.86461" lon="2.33287">
        <ele>47.400001525879</ele>
        <time>2016-04-18T20:22:52Z</time>
      </trkpt>
      <trkpt lat="48.8645" lon="2.33307">
        <ele>47.79999923706</ele>
        <time>2016-04-18T20:22:56Z</time>
      </trkpt>
      <trkpt lat="48.86449" lon="2.3332">
        <ele>47.79999923706</ele>
        <time>2016-04-18T20:22:58Z</time>
      </trkpt>
      <trkpt lat="48.86438" lon="2.33345">
        <ele>48.400001525879</ele>
        <time>2016-04-18T20:23:03Z</time>
      </trkpt>
      <trkpt lat="48.86428" lon="2.33368">
        <ele>48.79999923706</ele>
        <time>2016-04-18T20:23:07Z</time>
      </trkpt>
      <trkpt lat="48.86415" lon="2.33388">
        <ele>49.400001525879</ele>
        <time>2016-04-18T20:23:11Z</time>
      </trkpt>
      <trkpt lat="48.86406" lon="2.33402">
        <ele>50</ele>
        <time>2016-04-18T20:23:14Z</time>
      </trkpt>
      <trkpt lat="48.86393" lon="2.33421">
        <ele>50.599998474121</ele>
        <time>2016-04-18T20:23:17Z</time>
      </trkpt>
      <trkpt lat="48.86389" lon="2.33426">
        <ele>50.599998474121</ele>
        <time>2016-04-18T20:23:18Z</time>
      </trkpt>
      <trkpt lat="48.86385" lon="2.33433">
        <ele>50.599998474121</ele>
        <time>2016-04-18T20:23:21Z</time>
      </trkpt>
      <trkpt lat="48.86382" lon="2.33438">
        <ele>50.599998474121</ele>
        <time>2016-04-18T20:23:27Z</time>
      </trkpt>
      <trkpt lat="48.86381" lon="2.33438">
        <ele>50.79999923706</ele>
        <time>2016-04-18T20:23:28Z</time>
      </trkpt>
      <trkpt lat="48.86367" lon="2.33463">
        <ele>49.400001525879</ele>
        <time>2016-04-18T20:23:44Z</time>
      </trkpt>
      <trkpt lat="48.86357" lon="2.33489">
        <ele>48.400001525879</ele>
        <time>2016-04-18T20:23:49Z</time>
      </trkpt>
      <trkpt lat="48.86346" lon="2.33515">
        <ele>47.20000076294</ele>
        <time>2016-04-18T20:23:54Z</time>
      </trkpt>
      <trkpt lat="48.86334" lon="2.33544">
        <ele>46.400001525879</ele>
        <time>2016-04-18T20:23:59Z</time>
      </trkpt>
      <trkpt lat="48.86321" lon="2.33563">
        <ele>46.599998474121</ele>
        <time>2016-04-18T20:24:03Z</time>
      </trkpt>
      <trkpt lat="48.8631" lon="2.33584">
        <ele>47.400001525879</ele>
        <time>2016-04-18T20:24:07Z</time>
      </trkpt>
      <trkpt lat="48.86299" lon="2.33611">
        <ele>46.599998474121</ele>
        <time>2016-04-18T20:24:12Z</time>
      </trkpt>
      <trkpt lat="48.86298" lon="2.33617">
        <ele>46.599998474121</ele>
        <time>2016-04-18T20:24:13Z</time>
      </trkpt>
      <trkpt lat="48.86295" lon="2.33647">
        <ele>46.400001525879</ele>
        <time>2016-04-18T20:24:18Z</time>
      </trkpt>
      <trkpt lat="48.86285" lon="2.33671">
        <ele>46.400001525879</ele>
        <time>2016-04-18T20:24:22Z</time>
      </trkpt>
      <trkpt lat="48.86276" lon="2.33696">
        <ele>46.400001525879</ele>
        <time>2016-04-18T20:24:26Z</time>
      </trkpt>
      <trkpt lat="48.8627" lon="2.33726">
        <ele>46.400001525879</ele>
        <time>2016-04-18T20:24:30Z</time>
      </trkpt>
      <trkpt lat="48.86263" lon="2.33756">
        <ele>46</ele>
        <time>2016-04-18T20:24:34Z</time>
      </trkpt>
      <trkpt lat="48.8626" lon="2.33762">
        <ele>46</ele>
        <time>2016-04-18T20:24:35Z</time>
      </trkpt>
      <trkpt lat="48.86251" lon="2.3379">
        <ele>45.79999923706</ele>
        <time>2016-04-18T20:24:39Z</time>
      </trkpt>
      <trkpt lat="48.86244" lon="2.3382">
        <ele>44.79999923706</ele>
        <time>2016-04-18T20:24:43Z</time>
      </trkpt>
      <trkpt lat="48.86242" lon="2.33852">
        <ele>45</ele>
        <time>2016-04-18T20:24:48Z</time>
      </trkpt>
      <trkpt lat="48.8624" lon="2.33866">
        <ele>45.599998474121</ele>
        <time>2016-04-18T20:24:50Z</time>
      </trkpt>
      <trkpt lat="48.86235" lon="2.33899">
        <ele>46.20000076294</ele>
        <time>2016-04-18T20:24:55Z</time>
      </trkpt>
      <trkpt lat="48.86228" lon="2.3393">
        <ele>46.79999923706</ele>
        <time>2016-04-18T20:25:00Z</time>
      </trkpt>
      <trkpt lat="48.8622" lon="2.3396">
        <ele>47.599998474121</ele>
        <time>2016-04-18T20:25:05Z</time>
      </trkpt>
      <trkpt lat="48.86218" lon="2.33966">
        <ele>47.79999923706</ele>
        <time>2016-04-18T20:25:06Z</time>
      </trkpt>
      <trkpt lat="48.86214" lon="2.33994">
        <ele>49.20000076294</ele>
        <time>2016-04-18T20:25:10Z</time>
      </trkpt>
      <trkpt lat="48.86207" lon="2.34022">
        <ele>49.599998474121</ele>
        <time>2016-04-18T20:25:14Z</time>
      </trkpt>
      <trkpt lat="48.862" lon="2.3405">
        <ele>49.400001525879</ele>
        <time>2016-04-18T20:25:18Z</time>
      </trkpt>
      <trkpt lat="48.86199" lon="2.34057">
        <ele>49.400001525879</ele>
        <time>2016-04-18T20:25:19Z</time>
      </trkpt>
      <trkpt lat="48.86193" lon="2.34084">
        <ele>49</ele>
        <time>2016-04-18T20:25:23Z</time>
      </trkpt>
      <trkpt lat="48.86182" lon="2.34109">
        <ele>49</ele>
        <time>2016-04-18T20:25:28Z</time>
      </trkpt>
      <trkpt lat="48.86178" lon="2.34118">
        <ele>49</ele>
        <time>2016-04-18T20:25:31Z</time>
      </trkpt>
      <trkpt lat="48.86172" lon="2.3413">
        <ele>49</ele>
        <time>2016-04-18T20:25:44Z</time>
      </trkpt>
      <trkpt lat="48.86166" lon="2.34159">
        <ele>49.400001525879</ele>
        <time>2016-04-18T20:25:55Z</time>
      </trkpt>
      <trkpt lat="48.8616" lon="2.3419">
        <ele>49.20000076294</ele>
        <time>2016-04-18T20:26:00Z</time>
      </trkpt>
      <trkpt lat="48.86154" lon="2.34217">
        <ele>49.20000076294</ele>
        <time>2016-04-18T20:26:04Z</time>
      </trkpt>
      <trkpt lat="48.86147" lon="2.34248">
        <ele>49.400001525879</ele>
        <time>2016-04-18T20:26:09Z</time>
      </trkpt>
      <trkpt lat="48.86146" lon="2.34278">
        <ele>49.20000076294</ele>
        <time>2016-04-18T20:26:14Z</time>
      </trkpt>
      <trkpt lat="48.8614" lon="2.34308">
        <ele>49.599998474121</ele>
        <time>2016-04-18T20:26:19Z</time>
      </trkpt>
      <trkpt lat="48.86134" lon="2.34337">
        <ele>50</ele>
        <time>2016-04-18T20:26:23Z</time>
      </trkpt>
      <trkpt lat="48.86128" lon="2.34366">
        <ele>49.20000076294</ele>
        <time>2016-04-18T20:26:27Z</time>
      </trkpt>
      <trkpt lat="48.86122" lon="2.34392">
        <ele>49.400001525879</ele>
        <time>2016-04-18T20:26:31Z</time>
      </trkpt>
      <trkpt lat="48.8612" lon="2.34422">
        <ele>48.400001525879</ele>
        <time>2016-04-18T20:26:35Z</time>
      </trkpt>
      <trkpt lat="48.86116" lon="2.34449">
        <ele>48.79999923706</ele>
        <time>2016-04-18T20:26:39Z</time>
      </trkpt>
      <trkpt lat="48.86114" lon="2.34477">
        <ele>49.400001525879</ele>
        <time>2016-04-18T20:26:43Z</time>
      </trkpt>
      <trkpt lat="48.86112" lon="2.34499">
        <ele>50.20000076294</ele>
        <time>2016-04-18T20:26:46Z</time>
      </trkpt>
      <trkpt lat="48.86107" lon="2.34529">
        <ele>50.599998474121</ele>
        <time>2016-04-18T20:26:50Z</time>
      </trkpt>
      <trkpt lat="48.86106" lon="2.34536">
        <ele>50.599998474121</ele>
        <time>2016-04-18T20:26:51Z</time>
      </trkpt>
      <trkpt lat="48.86099" lon="2.34547">
        <ele>50.599998474121</ele>
        <time>2016-04-18T20:26:53Z</time>
      </trkpt>
      <trkpt lat="48.86089" lon="2.3457">
        <ele>50.20000076294</ele>
        <time>2016-04-18T20:26:57Z</time>
      </trkpt>
      <trkpt lat="48.86084" lon="2.34576">
        <ele>50</ele>
        <time>2016-04-18T20:26:58Z</time>
      </trkpt>
      <trkpt lat="48.86071" lon="2.34593">
        <ele>48.599998474121</ele>
        <time>2016-04-18T20:27:01Z</time>
      </trkpt>
      <trkpt lat="48.86055" lon="2.34609">
        <ele>47</ele>
        <time>2016-04-18T20:27:05Z</time>
      </trkpt>
      <trkpt lat="48.86039" lon="2.34623">
        <ele>46.79999923706</ele>
        <time>2016-04-18T20:27:09Z</time>
      </trkpt>
      <trkpt lat="48.86035" lon="2.34625">
        <ele>47</ele>
        <time>2016-04-18T20:27:10Z</time>
      </trkpt>
      <trkpt lat="48.86025" lon="2.34635">
        <ele>47</ele>
        <time>2016-04-18T20:27:13Z</time>
      </trkpt>
      <trkpt lat="48.86008" lon="2.34651">
        <ele>46.79999923706</ele>
        <time>2016-04-18T20:27:18Z</time>
      </trkpt>
      <trkpt lat="48.85991" lon="2.34665">
        <ele>46.400001525879</ele>
        <time>2016-04-18T20:27:23Z</time>
      </trkpt>
      <trkpt lat="48.85983" lon="2.34674">
        <ele>46.400001525879</ele>
        <time>2016-04-18T20:27:26Z</time>
      </trkpt>
      <trkpt lat="48.85971" lon="2.34688">
        <ele>46.400001525879</ele>
        <time>2016-04-18T20:27:31Z</time>
      </trkpt>
      <trkpt lat="48.85963" lon="2.34711">
        <ele>45.599998474121</ele>
        <time>2016-04-18T20:27:39Z</time>
      </trkpt>
      <trkpt lat="48.85955" lon="2.34728">
        <ele>44.79999923706</ele>
        <time>2016-04-18T20:27:48Z</time>
      </trkpt>
      <trkpt lat="48.85958" lon="2.34734">
        <ele>44.79999923706</ele>
        <time>2016-04-18T20:27:55Z</time>
      </trkpt>
    </trkseg>
  </trk>
</gpx>